<?xml version="1.0" encoding="UTF-8" standalone="no" ?>
<gpx xmlns="http://www.topografix.com/GPX/1/1" xmlns:xsi="http://www.w3.org/2001/XMLSchema-instance" xsi:schemaLocation="http://www.topografix.com/GPX/1/1 http://www.topografix.com/GPX/1/1/gpx.xsd" version="1.1" creator="VisuGPX - https://www.visugpx.com">
  <metadata>
    <name>Hermaux - Bellecombe</name>
    <desc><![CDATA[2019-06 - Hermaux - Bellecombe

[b]album[/b] : [url]https://photos.app.goo.gl/5iZSMh7Gh66EZ4v29[/url]
[img]https://blogger.googleusercontent.com/img/b/R29vZ2xl/AVvXsEjxm-OgxszzBkcNYlqgBeavfHgQ2KNJbuHUVrQFjonUZHXdmlGuGehtC01rigDZxEmy_j28wEaNgM-hZR9yiagCB3YEFeFFOGWRKsG_e8m1l2UfxbkhQUPB6smfxw89SDvUR3U6BPMmAClURGQJ9JPCiXgiIYAS4ZYA76TM1nUYXBHCoSo4kApLu4XJkVFN/s600/aubrac.JPG[/img]
[b]Idées de randonnées dans la même région[/b]
Parcours : [url]https://www.visugpx.com/membres/24856/montagne/massif-central/[/url]
Photos : [url]https://jcvertygo.blogspot.com/p/massif-central.html[/url]]]></desc>
  </metadata>
  <trk>
    <name><![CDATA[SityTrail - hermaux - bellecombe]]></name>
    <extensions>
      <line xmlns="http://www.topografix.com/GPX/gpx_style/0/2">
        <color>0000FF</color>
        <width>4</width>
      </line>
    </extensions>
    <trkseg>
      <trkpt lat="44.5157" lon="3.13168">
        <ele>1028</ele>
        <time>2019-06-01T07:15:25.446Z</time>
      </trkpt>
      <trkpt lat="44.5157" lon="3.13168">
        <ele>1028</ele>
        <time>2019-06-01T07:15:26.439Z</time>
      </trkpt>
      <trkpt lat="44.5157" lon="3.13164">
        <ele>1028</ele>
        <time>2019-06-01T07:16:19.451Z</time>
      </trkpt>
      <trkpt lat="44.51572" lon="3.13158">
        <ele>1028</ele>
        <time>2019-06-01T07:16:23.485Z</time>
      </trkpt>
      <trkpt lat="44.51572" lon="3.13153">
        <ele>1028</ele>
        <time>2019-06-01T07:16:28.451Z</time>
      </trkpt>
      <trkpt lat="44.51572" lon="3.13147">
        <ele>1025</ele>
        <time>2019-06-01T07:16:38.454Z</time>
      </trkpt>
      <trkpt lat="44.51573" lon="3.1314">
        <ele>1025</ele>
        <time>2019-06-01T07:16:43.461Z</time>
      </trkpt>
      <trkpt lat="44.51572" lon="3.13132">
        <ele>1025</ele>
        <time>2019-06-01T07:16:48.437Z</time>
      </trkpt>
      <trkpt lat="44.51575" lon="3.13121">
        <ele>1021</ele>
        <time>2019-06-01T07:16:52.451Z</time>
      </trkpt>
      <trkpt lat="44.51574" lon="3.13114">
        <ele>1021</ele>
        <time>2019-06-01T07:16:56.450Z</time>
      </trkpt>
      <trkpt lat="44.51573" lon="3.13108">
        <ele>1021</ele>
        <time>2019-06-01T07:17:00.466Z</time>
      </trkpt>
      <trkpt lat="44.51571" lon="3.13098">
        <ele>1021</ele>
        <time>2019-06-01T07:17:05.443Z</time>
      </trkpt>
      <trkpt lat="44.51568" lon="3.13091">
        <ele>1017</ele>
        <time>2019-06-01T07:17:10.435Z</time>
      </trkpt>
      <trkpt lat="44.51567" lon="3.13087">
        <ele>1017</ele>
        <time>2019-06-01T07:17:14.448Z</time>
      </trkpt>
      <trkpt lat="44.51564" lon="3.1308">
        <ele>1017</ele>
        <time>2019-06-01T07:17:19.442Z</time>
      </trkpt>
      <trkpt lat="44.51563" lon="3.13075">
        <ele>1017</ele>
        <time>2019-06-01T07:17:23.455Z</time>
      </trkpt>
      <trkpt lat="44.51562" lon="3.13068">
        <ele>1016</ele>
        <time>2019-06-01T07:17:28.448Z</time>
      </trkpt>
      <trkpt lat="44.5156" lon="3.13061">
        <ele>1016</ele>
        <time>2019-06-01T07:17:33.438Z</time>
      </trkpt>
      <trkpt lat="44.51559" lon="3.13055">
        <ele>1016</ele>
        <time>2019-06-01T07:17:38.436Z</time>
      </trkpt>
      <trkpt lat="44.51558" lon="3.13049">
        <ele>1016</ele>
        <time>2019-06-01T07:17:43.444Z</time>
      </trkpt>
      <trkpt lat="44.51556" lon="3.13044">
        <ele>1016</ele>
        <time>2019-06-01T07:17:47.476Z</time>
      </trkpt>
      <trkpt lat="44.51556" lon="3.13039">
        <ele>1015</ele>
        <time>2019-06-01T07:17:52.461Z</time>
      </trkpt>
      <trkpt lat="44.51555" lon="3.13034">
        <ele>1015</ele>
        <time>2019-06-01T07:17:57.439Z</time>
      </trkpt>
      <trkpt lat="44.51555" lon="3.1303">
        <ele>1015</ele>
        <time>2019-06-01T07:18:01.452Z</time>
      </trkpt>
      <trkpt lat="44.51554" lon="3.13026">
        <ele>1015</ele>
        <time>2019-06-01T07:18:06.471Z</time>
      </trkpt>
      <trkpt lat="44.51553" lon="3.13022">
        <ele>1015</ele>
        <time>2019-06-01T07:18:10.494Z</time>
      </trkpt>
      <trkpt lat="44.51551" lon="3.13015">
        <ele>1015</ele>
        <time>2019-06-01T07:18:15.471Z</time>
      </trkpt>
      <trkpt lat="44.51548" lon="3.13008">
        <ele>1015</ele>
        <time>2019-06-01T07:18:20.461Z</time>
      </trkpt>
      <trkpt lat="44.51547" lon="3.13">
        <ele>1015</ele>
        <time>2019-06-01T07:18:25.456Z</time>
      </trkpt>
      <trkpt lat="44.51546" lon="3.12994">
        <ele>1015</ele>
        <time>2019-06-01T07:18:29.460Z</time>
      </trkpt>
      <trkpt lat="44.51543" lon="3.12991">
        <ele>1015</ele>
        <time>2019-06-01T07:18:33.474Z</time>
      </trkpt>
      <trkpt lat="44.51539" lon="3.12985">
        <ele>1015</ele>
        <time>2019-06-01T07:18:38.454Z</time>
      </trkpt>
      <trkpt lat="44.51535" lon="3.12976">
        <ele>1015</ele>
        <time>2019-06-01T07:18:43.438Z</time>
      </trkpt>
      <trkpt lat="44.51531" lon="3.12967">
        <ele>1015</ele>
        <time>2019-06-01T07:18:48.453Z</time>
      </trkpt>
      <trkpt lat="44.51526" lon="3.12962">
        <ele>1015</ele>
        <time>2019-06-01T07:18:52.459Z</time>
      </trkpt>
      <trkpt lat="44.51522" lon="3.12958">
        <ele>1015</ele>
        <time>2019-06-01T07:18:57.459Z</time>
      </trkpt>
      <trkpt lat="44.51521" lon="3.12956">
        <ele>1017</ele>
        <time>2019-06-01T07:19:01.487Z</time>
      </trkpt>
      <trkpt lat="44.51518" lon="3.1295">
        <ele>1017</ele>
        <time>2019-06-01T07:19:06.462Z</time>
      </trkpt>
      <trkpt lat="44.51516" lon="3.12945">
        <ele>1017</ele>
        <time>2019-06-01T07:19:10.480Z</time>
      </trkpt>
      <trkpt lat="44.51512" lon="3.12939">
        <ele>1017</ele>
        <time>2019-06-01T07:19:15.460Z</time>
      </trkpt>
      <trkpt lat="44.51508" lon="3.12933">
        <ele>1017</ele>
        <time>2019-06-01T07:19:20.462Z</time>
      </trkpt>
      <trkpt lat="44.51503" lon="3.12927">
        <ele>1019</ele>
        <time>2019-06-01T07:19:25.465Z</time>
      </trkpt>
      <trkpt lat="44.51499" lon="3.12922">
        <ele>1019</ele>
        <time>2019-06-01T07:19:30.452Z</time>
      </trkpt>
      <trkpt lat="44.51495" lon="3.12916">
        <ele>1019</ele>
        <time>2019-06-01T07:19:35.461Z</time>
      </trkpt>
      <trkpt lat="44.51491" lon="3.12909">
        <ele>1019</ele>
        <time>2019-06-01T07:19:40.489Z</time>
      </trkpt>
      <trkpt lat="44.51488" lon="3.12902">
        <ele>1020</ele>
        <time>2019-06-01T07:19:45.449Z</time>
      </trkpt>
      <trkpt lat="44.51485" lon="3.12895">
        <ele>1018</ele>
        <time>2019-06-01T07:19:50.467Z</time>
      </trkpt>
      <trkpt lat="44.51482" lon="3.12888">
        <ele>1018</ele>
        <time>2019-06-01T07:19:55.458Z</time>
      </trkpt>
      <trkpt lat="44.51478" lon="3.12883">
        <ele>1018</ele>
        <time>2019-06-01T07:20:00.451Z</time>
      </trkpt>
      <trkpt lat="44.51476" lon="3.12879">
        <ele>1018</ele>
        <time>2019-06-01T07:20:04.487Z</time>
      </trkpt>
      <trkpt lat="44.51473" lon="3.12873">
        <ele>1020</ele>
        <time>2019-06-01T07:20:09.455Z</time>
      </trkpt>
      <trkpt lat="44.51471" lon="3.12868">
        <ele>1020</ele>
        <time>2019-06-01T07:20:13.488Z</time>
      </trkpt>
      <trkpt lat="44.51468" lon="3.12861">
        <ele>1020</ele>
        <time>2019-06-01T07:20:18.457Z</time>
      </trkpt>
      <trkpt lat="44.51465" lon="3.12857">
        <ele>1020</ele>
        <time>2019-06-01T07:20:22.490Z</time>
      </trkpt>
      <trkpt lat="44.51461" lon="3.12852">
        <ele>1020</ele>
        <time>2019-06-01T07:20:27.459Z</time>
      </trkpt>
      <trkpt lat="44.51458" lon="3.12847">
        <ele>1022</ele>
        <time>2019-06-01T07:20:31.494Z</time>
      </trkpt>
      <trkpt lat="44.51454" lon="3.12842">
        <ele>1019</ele>
        <time>2019-06-01T07:20:36.450Z</time>
      </trkpt>
      <trkpt lat="44.51449" lon="3.12838">
        <ele>1019</ele>
        <time>2019-06-01T07:20:41.452Z</time>
      </trkpt>
      <trkpt lat="44.51445" lon="3.12834">
        <ele>1019</ele>
        <time>2019-06-01T07:20:45.465Z</time>
      </trkpt>
      <trkpt lat="44.51442" lon="3.12828">
        <ele>1019</ele>
        <time>2019-06-01T07:20:50.457Z</time>
      </trkpt>
      <trkpt lat="44.51441" lon="3.12823">
        <ele>1019</ele>
        <time>2019-06-01T07:20:53.441Z</time>
      </trkpt>
      <trkpt lat="44.5144" lon="3.12814">
        <ele>1020</ele>
        <time>2019-06-01T07:20:59.435Z</time>
      </trkpt>
      <trkpt lat="44.51437" lon="3.12806">
        <ele>1020</ele>
        <time>2019-06-01T07:21:03.463Z</time>
      </trkpt>
      <trkpt lat="44.51435" lon="3.12799">
        <ele>1020</ele>
        <time>2019-06-01T07:21:08.449Z</time>
      </trkpt>
      <trkpt lat="44.51433" lon="3.12795">
        <ele>1020</ele>
        <time>2019-06-01T07:21:12.456Z</time>
      </trkpt>
      <trkpt lat="44.51431" lon="3.12789">
        <ele>1023</ele>
        <time>2019-06-01T07:21:17.461Z</time>
      </trkpt>
      <trkpt lat="44.5143" lon="3.12783">
        <ele>1021</ele>
        <time>2019-06-01T07:21:21.479Z</time>
      </trkpt>
      <trkpt lat="44.51428" lon="3.12778">
        <ele>1021</ele>
        <time>2019-06-01T07:21:26.461Z</time>
      </trkpt>
      <trkpt lat="44.51427" lon="3.12773">
        <ele>1021</ele>
        <time>2019-06-01T07:21:30.485Z</time>
      </trkpt>
      <trkpt lat="44.51425" lon="3.12767">
        <ele>1021</ele>
        <time>2019-06-01T07:21:35.474Z</time>
      </trkpt>
      <trkpt lat="44.51424" lon="3.1276">
        <ele>1022</ele>
        <time>2019-06-01T07:21:40.456Z</time>
      </trkpt>
      <trkpt lat="44.51422" lon="3.12755">
        <ele>1022</ele>
        <time>2019-06-01T07:21:44.460Z</time>
      </trkpt>
      <trkpt lat="44.51421" lon="3.1275">
        <ele>1022</ele>
        <time>2019-06-01T07:21:49.462Z</time>
      </trkpt>
      <trkpt lat="44.51421" lon="3.12742">
        <ele>1022</ele>
        <time>2019-06-01T07:21:54.460Z</time>
      </trkpt>
      <trkpt lat="44.51421" lon="3.12733">
        <ele>1024</ele>
        <time>2019-06-01T07:21:59.462Z</time>
      </trkpt>
      <trkpt lat="44.51421" lon="3.12726">
        <ele>1024</ele>
        <time>2019-06-01T07:22:04.456Z</time>
      </trkpt>
      <trkpt lat="44.51421" lon="3.1272">
        <ele>1024</ele>
        <time>2019-06-01T07:22:08.477Z</time>
      </trkpt>
      <trkpt lat="44.51421" lon="3.12713">
        <ele>1024</ele>
        <time>2019-06-01T07:22:13.450Z</time>
      </trkpt>
      <trkpt lat="44.51421" lon="3.12707">
        <ele>1025</ele>
        <time>2019-06-01T07:22:17.456Z</time>
      </trkpt>
      <trkpt lat="44.51421" lon="3.12701">
        <ele>1025</ele>
        <time>2019-06-01T07:22:21.459Z</time>
      </trkpt>
      <trkpt lat="44.51419" lon="3.12695">
        <ele>1025</ele>
        <time>2019-06-01T07:22:25.486Z</time>
      </trkpt>
      <trkpt lat="44.51417" lon="3.12688">
        <ele>1025</ele>
        <time>2019-06-01T07:22:30.448Z</time>
      </trkpt>
      <trkpt lat="44.51416" lon="3.12683">
        <ele>1025</ele>
        <time>2019-06-01T07:22:34.463Z</time>
      </trkpt>
      <trkpt lat="44.51412" lon="3.12675">
        <ele>1028</ele>
        <time>2019-06-01T07:22:39.468Z</time>
      </trkpt>
      <trkpt lat="44.51409" lon="3.1267">
        <ele>1028</ele>
        <time>2019-06-01T07:22:43.482Z</time>
      </trkpt>
      <trkpt lat="44.51406" lon="3.12663">
        <ele>1028</ele>
        <time>2019-06-01T07:22:48.480Z</time>
      </trkpt>
      <trkpt lat="44.51403" lon="3.12657">
        <ele>1026</ele>
        <time>2019-06-01T07:22:52.488Z</time>
      </trkpt>
      <trkpt lat="44.51399" lon="3.12652">
        <ele>1029</ele>
        <time>2019-06-01T07:22:57.460Z</time>
      </trkpt>
      <trkpt lat="44.51396" lon="3.12646">
        <ele>1029</ele>
        <time>2019-06-01T07:23:02.490Z</time>
      </trkpt>
      <trkpt lat="44.51392" lon="3.1264">
        <ele>1029</ele>
        <time>2019-06-01T07:23:07.485Z</time>
      </trkpt>
      <trkpt lat="44.51387" lon="3.12634">
        <ele>1029</ele>
        <time>2019-06-01T07:23:12.476Z</time>
      </trkpt>
      <trkpt lat="44.51383" lon="3.12628">
        <ele>1029</ele>
        <time>2019-06-01T07:23:17.460Z</time>
      </trkpt>
      <trkpt lat="44.51379" lon="3.12621">
        <ele>1032</ele>
        <time>2019-06-01T07:23:22.487Z</time>
      </trkpt>
      <trkpt lat="44.51376" lon="3.12615">
        <ele>1032</ele>
        <time>2019-06-01T07:23:27.456Z</time>
      </trkpt>
      <trkpt lat="44.51376" lon="3.12614">
        <ele>1032</ele>
        <time>2019-06-01T07:23:32.458Z</time>
      </trkpt>
      <trkpt lat="44.51374" lon="3.12613">
        <ele>1030</ele>
        <time>2019-06-01T07:23:37.458Z</time>
      </trkpt>
      <trkpt lat="44.5137" lon="3.12609">
        <ele>1030</ele>
        <time>2019-06-01T07:23:41.456Z</time>
      </trkpt>
      <trkpt lat="44.51367" lon="3.12604">
        <ele>1030</ele>
        <time>2019-06-01T07:23:46.468Z</time>
      </trkpt>
      <trkpt lat="44.51363" lon="3.12599">
        <ele>1030</ele>
        <time>2019-06-01T07:23:51.459Z</time>
      </trkpt>
      <trkpt lat="44.5136" lon="3.12596">
        <ele>1034</ele>
        <time>2019-06-01T07:23:55.468Z</time>
      </trkpt>
      <trkpt lat="44.51357" lon="3.12594">
        <ele>1034</ele>
        <time>2019-06-01T07:23:59.489Z</time>
      </trkpt>
      <trkpt lat="44.51353" lon="3.1259">
        <ele>1034</ele>
        <time>2019-06-01T07:24:04.456Z</time>
      </trkpt>
      <trkpt lat="44.51349" lon="3.12587">
        <ele>1034</ele>
        <time>2019-06-01T07:24:08.479Z</time>
      </trkpt>
      <trkpt lat="44.51346" lon="3.12583">
        <ele>1032</ele>
        <time>2019-06-01T07:24:13.490Z</time>
      </trkpt>
      <trkpt lat="44.51342" lon="3.12581">
        <ele>1032</ele>
        <time>2019-06-01T07:24:18.452Z</time>
      </trkpt>
      <trkpt lat="44.5134" lon="3.12577">
        <ele>1032</ele>
        <time>2019-06-01T07:24:23.457Z</time>
      </trkpt>
      <trkpt lat="44.51338" lon="3.12574">
        <ele>1032</ele>
        <time>2019-06-01T07:24:56.470Z</time>
      </trkpt>
      <trkpt lat="44.51338" lon="3.1257">
        <ele>1032</ele>
        <time>2019-06-01T07:25:01.463Z</time>
      </trkpt>
      <trkpt lat="44.51341" lon="3.12568">
        <ele>1037</ele>
        <time>2019-06-01T07:25:06.461Z</time>
      </trkpt>
      <trkpt lat="44.51343" lon="3.12568">
        <ele>1037</ele>
        <time>2019-06-01T07:25:11.455Z</time>
      </trkpt>
      <trkpt lat="44.51346" lon="3.12567">
        <ele>1037</ele>
        <time>2019-06-01T07:25:16.458Z</time>
      </trkpt>
      <trkpt lat="44.51349" lon="3.12565">
        <ele>1038</ele>
        <time>2019-06-01T07:25:20.461Z</time>
      </trkpt>
      <trkpt lat="44.51353" lon="3.1256">
        <ele>1038</ele>
        <time>2019-06-01T07:25:25.478Z</time>
      </trkpt>
      <trkpt lat="44.51356" lon="3.12556">
        <ele>1038</ele>
        <time>2019-06-01T07:25:30.490Z</time>
      </trkpt>
      <trkpt lat="44.51357" lon="3.12551">
        <ele>1038</ele>
        <time>2019-06-01T07:25:35.449Z</time>
      </trkpt>
      <trkpt lat="44.5136" lon="3.12545">
        <ele>1038</ele>
        <time>2019-06-01T07:25:40.460Z</time>
      </trkpt>
      <trkpt lat="44.51364" lon="3.1254">
        <ele>1041</ele>
        <time>2019-06-01T07:25:45.461Z</time>
      </trkpt>
      <trkpt lat="44.51366" lon="3.12537">
        <ele>1041</ele>
        <time>2019-06-01T07:25:50.455Z</time>
      </trkpt>
      <trkpt lat="44.51369" lon="3.12533">
        <ele>1041</ele>
        <time>2019-06-01T07:25:54.454Z</time>
      </trkpt>
      <trkpt lat="44.51371" lon="3.1253">
        <ele>1041</ele>
        <time>2019-06-01T07:25:59.456Z</time>
      </trkpt>
      <trkpt lat="44.51374" lon="3.12527">
        <ele>1041</ele>
        <time>2019-06-01T07:26:04.468Z</time>
      </trkpt>
      <trkpt lat="44.51376" lon="3.12524">
        <ele>1045</ele>
        <time>2019-06-01T07:26:08.489Z</time>
      </trkpt>
      <trkpt lat="44.51379" lon="3.12519">
        <ele>1045</ele>
        <time>2019-06-01T07:26:13.483Z</time>
      </trkpt>
      <trkpt lat="44.51383" lon="3.12513">
        <ele>1048</ele>
        <time>2019-06-01T07:26:18.494Z</time>
      </trkpt>
      <trkpt lat="44.51387" lon="3.12507">
        <ele>1048</ele>
        <time>2019-06-01T07:26:23.467Z</time>
      </trkpt>
      <trkpt lat="44.51388" lon="3.12499">
        <ele>1048</ele>
        <time>2019-06-01T07:26:28.459Z</time>
      </trkpt>
      <trkpt lat="44.51389" lon="3.12493">
        <ele>1048</ele>
        <time>2019-06-01T07:26:33.460Z</time>
      </trkpt>
      <trkpt lat="44.5139" lon="3.12491">
        <ele>1048</ele>
        <time>2019-06-01T07:26:38.486Z</time>
      </trkpt>
      <trkpt lat="44.51394" lon="3.12484">
        <ele>1051</ele>
        <time>2019-06-01T07:26:43.437Z</time>
      </trkpt>
      <trkpt lat="44.51397" lon="3.12478">
        <ele>1051</ele>
        <time>2019-06-01T07:26:47.480Z</time>
      </trkpt>
      <trkpt lat="44.51399" lon="3.12473">
        <ele>1051</ele>
        <time>2019-06-01T07:26:52.459Z</time>
      </trkpt>
      <trkpt lat="44.51399" lon="3.12473">
        <ele>1051</ele>
        <time>2019-06-01T07:27:01.459Z</time>
      </trkpt>
      <trkpt lat="44.51401" lon="3.12468">
        <ele>1051</ele>
        <time>2019-06-01T07:27:05.487Z</time>
      </trkpt>
      <trkpt lat="44.51405" lon="3.12462">
        <ele>1053</ele>
        <time>2019-06-01T07:27:10.452Z</time>
      </trkpt>
      <trkpt lat="44.51406" lon="3.1246">
        <ele>1053</ele>
        <time>2019-06-01T07:27:15.473Z</time>
      </trkpt>
      <trkpt lat="44.5141" lon="3.12455">
        <ele>1054</ele>
        <time>2019-06-01T07:27:20.475Z</time>
      </trkpt>
      <trkpt lat="44.51413" lon="3.1245">
        <ele>1054</ele>
        <time>2019-06-01T07:27:25.456Z</time>
      </trkpt>
      <trkpt lat="44.51417" lon="3.12446">
        <ele>1054</ele>
        <time>2019-06-01T07:27:30.461Z</time>
      </trkpt>
      <trkpt lat="44.51421" lon="3.12441">
        <ele>1054</ele>
        <time>2019-06-01T07:27:35.460Z</time>
      </trkpt>
      <trkpt lat="44.5143" lon="3.1243">
        <ele>1055</ele>
        <time>2019-06-01T07:27:59.439Z</time>
      </trkpt>
      <trkpt lat="44.51433" lon="3.12426">
        <ele>1058</ele>
        <time>2019-06-01T07:28:12.471Z</time>
      </trkpt>
      <trkpt lat="44.51436" lon="3.12426">
        <ele>1058</ele>
        <time>2019-06-01T07:28:16.483Z</time>
      </trkpt>
      <trkpt lat="44.51438" lon="3.12425">
        <ele>1058</ele>
        <time>2019-06-01T07:28:21.459Z</time>
      </trkpt>
      <trkpt lat="44.51441" lon="3.12425">
        <ele>1058</ele>
        <time>2019-06-01T07:28:30.458Z</time>
      </trkpt>
      <trkpt lat="44.51445" lon="3.12423">
        <ele>1058</ele>
        <time>2019-06-01T07:28:34.482Z</time>
      </trkpt>
      <trkpt lat="44.5145" lon="3.12421">
        <ele>1058</ele>
        <time>2019-06-01T07:28:39.455Z</time>
      </trkpt>
      <trkpt lat="44.51454" lon="3.12421">
        <ele>1058</ele>
        <time>2019-06-01T07:28:43.460Z</time>
      </trkpt>
      <trkpt lat="44.51458" lon="3.12419">
        <ele>1058</ele>
        <time>2019-06-01T07:28:48.468Z</time>
      </trkpt>
      <trkpt lat="44.51462" lon="3.12418">
        <ele>1060</ele>
        <time>2019-06-01T07:28:52.465Z</time>
      </trkpt>
      <trkpt lat="44.51464" lon="3.12417">
        <ele>1060</ele>
        <time>2019-06-01T07:28:57.443Z</time>
      </trkpt>
      <trkpt lat="44.51465" lon="3.12417">
        <ele>1060</ele>
        <time>2019-06-01T07:29:06.457Z</time>
      </trkpt>
      <trkpt lat="44.51469" lon="3.12416">
        <ele>1060</ele>
        <time>2019-06-01T07:29:11.457Z</time>
      </trkpt>
      <trkpt lat="44.51474" lon="3.12416">
        <ele>1060</ele>
        <time>2019-06-01T07:29:16.469Z</time>
      </trkpt>
      <trkpt lat="44.51478" lon="3.12415">
        <ele>1060</ele>
        <time>2019-06-01T07:29:21.457Z</time>
      </trkpt>
      <trkpt lat="44.51481" lon="3.12414">
        <ele>1060</ele>
        <time>2019-06-01T07:29:26.457Z</time>
      </trkpt>
      <trkpt lat="44.51485" lon="3.12413">
        <ele>1060</ele>
        <time>2019-06-01T07:29:31.459Z</time>
      </trkpt>
      <trkpt lat="44.51489" lon="3.12412">
        <ele>1062</ele>
        <time>2019-06-01T07:29:36.464Z</time>
      </trkpt>
      <trkpt lat="44.51492" lon="3.12411">
        <ele>1062</ele>
        <time>2019-06-01T07:29:40.491Z</time>
      </trkpt>
      <trkpt lat="44.51498" lon="3.12411">
        <ele>1062</ele>
        <time>2019-06-01T07:29:45.462Z</time>
      </trkpt>
      <trkpt lat="44.51502" lon="3.1241">
        <ele>1062</ele>
        <time>2019-06-01T07:29:49.488Z</time>
      </trkpt>
      <trkpt lat="44.51507" lon="3.12409">
        <ele>1062</ele>
        <time>2019-06-01T07:29:54.456Z</time>
      </trkpt>
      <trkpt lat="44.51509" lon="3.12409">
        <ele>1062</ele>
        <time>2019-06-01T07:29:59.460Z</time>
      </trkpt>
      <trkpt lat="44.51513" lon="3.12408">
        <ele>1062</ele>
        <time>2019-06-01T07:30:03.488Z</time>
      </trkpt>
      <trkpt lat="44.51517" lon="3.12409">
        <ele>1064</ele>
        <time>2019-06-01T07:30:08.456Z</time>
      </trkpt>
      <trkpt lat="44.51519" lon="3.12408">
        <ele>1064</ele>
        <time>2019-06-01T07:30:12.462Z</time>
      </trkpt>
      <trkpt lat="44.51522" lon="3.12406">
        <ele>1064</ele>
        <time>2019-06-01T07:30:16.477Z</time>
      </trkpt>
      <trkpt lat="44.51527" lon="3.12405">
        <ele>1064</ele>
        <time>2019-06-01T07:30:21.467Z</time>
      </trkpt>
      <trkpt lat="44.51531" lon="3.12406">
        <ele>1064</ele>
        <time>2019-06-01T07:30:26.456Z</time>
      </trkpt>
      <trkpt lat="44.51534" lon="3.12408">
        <ele>1064</ele>
        <time>2019-06-01T07:30:30.495Z</time>
      </trkpt>
      <trkpt lat="44.51536" lon="3.12409">
        <ele>1064</ele>
        <time>2019-06-01T07:30:35.486Z</time>
      </trkpt>
      <trkpt lat="44.51537" lon="3.12409">
        <ele>1064</ele>
        <time>2019-06-01T07:30:40.465Z</time>
      </trkpt>
      <trkpt lat="44.51543" lon="3.12409">
        <ele>1069</ele>
        <time>2019-06-01T07:30:45.451Z</time>
      </trkpt>
      <trkpt lat="44.51546" lon="3.12408">
        <ele>1069</ele>
        <time>2019-06-01T07:30:49.463Z</time>
      </trkpt>
      <trkpt lat="44.51549" lon="3.12408">
        <ele>1069</ele>
        <time>2019-06-01T07:30:54.448Z</time>
      </trkpt>
      <trkpt lat="44.5155" lon="3.12408">
        <ele>1069</ele>
        <time>2019-06-01T07:30:58.471Z</time>
      </trkpt>
      <trkpt lat="44.51551" lon="3.12408">
        <ele>1069</ele>
        <time>2019-06-01T07:31:08.453Z</time>
      </trkpt>
      <trkpt lat="44.51556" lon="3.12409">
        <ele>1069</ele>
        <time>2019-06-01T07:31:12.466Z</time>
      </trkpt>
      <trkpt lat="44.5156" lon="3.1241">
        <ele>1069</ele>
        <time>2019-06-01T07:31:17.463Z</time>
      </trkpt>
      <trkpt lat="44.51564" lon="3.1241">
        <ele>1069</ele>
        <time>2019-06-01T07:31:22.481Z</time>
      </trkpt>
      <trkpt lat="44.51567" lon="3.12411">
        <ele>1069</ele>
        <time>2019-06-01T07:31:27.462Z</time>
      </trkpt>
      <trkpt lat="44.51571" lon="3.12413">
        <ele>1073</ele>
        <time>2019-06-01T07:31:32.459Z</time>
      </trkpt>
      <trkpt lat="44.51574" lon="3.12413">
        <ele>1073</ele>
        <time>2019-06-01T07:31:37.464Z</time>
      </trkpt>
      <trkpt lat="44.51576" lon="3.12413">
        <ele>1073</ele>
        <time>2019-06-01T07:31:42.459Z</time>
      </trkpt>
      <trkpt lat="44.51582" lon="3.12414">
        <ele>1073</ele>
        <time>2019-06-01T07:31:47.461Z</time>
      </trkpt>
      <trkpt lat="44.51586" lon="3.12415">
        <ele>1073</ele>
        <time>2019-06-01T07:31:52.487Z</time>
      </trkpt>
      <trkpt lat="44.51591" lon="3.12418">
        <ele>1073</ele>
        <time>2019-06-01T07:31:57.457Z</time>
      </trkpt>
      <trkpt lat="44.51595" lon="3.12419">
        <ele>1073</ele>
        <time>2019-06-01T07:32:01.470Z</time>
      </trkpt>
      <trkpt lat="44.51599" lon="3.1242">
        <ele>1075</ele>
        <time>2019-06-01T07:32:06.468Z</time>
      </trkpt>
      <trkpt lat="44.51604" lon="3.12422">
        <ele>1075</ele>
        <time>2019-06-01T07:32:11.458Z</time>
      </trkpt>
      <trkpt lat="44.51608" lon="3.12423">
        <ele>1075</ele>
        <time>2019-06-01T07:32:15.486Z</time>
      </trkpt>
      <trkpt lat="44.51613" lon="3.12424">
        <ele>1075</ele>
        <time>2019-06-01T07:32:20.458Z</time>
      </trkpt>
      <trkpt lat="44.51618" lon="3.12425">
        <ele>1075</ele>
        <time>2019-06-01T07:32:24.456Z</time>
      </trkpt>
      <trkpt lat="44.51621" lon="3.12425">
        <ele>1075</ele>
        <time>2019-06-01T07:32:28.466Z</time>
      </trkpt>
      <trkpt lat="44.51625" lon="3.12425">
        <ele>1075</ele>
        <time>2019-06-01T07:32:32.478Z</time>
      </trkpt>
      <trkpt lat="44.51629" lon="3.12425">
        <ele>1078</ele>
        <time>2019-06-01T07:32:37.460Z</time>
      </trkpt>
      <trkpt lat="44.51633" lon="3.12425">
        <ele>1078</ele>
        <time>2019-06-01T07:32:41.459Z</time>
      </trkpt>
      <trkpt lat="44.51637" lon="3.12424">
        <ele>1078</ele>
        <time>2019-06-01T07:32:46.457Z</time>
      </trkpt>
      <trkpt lat="44.51641" lon="3.12424">
        <ele>1078</ele>
        <time>2019-06-01T07:32:50.460Z</time>
      </trkpt>
      <trkpt lat="44.51646" lon="3.12424">
        <ele>1078</ele>
        <time>2019-06-01T07:32:55.470Z</time>
      </trkpt>
      <trkpt lat="44.51651" lon="3.12426">
        <ele>1078</ele>
        <time>2019-06-01T07:33:00.464Z</time>
      </trkpt>
      <trkpt lat="44.51655" lon="3.12427">
        <ele>1084</ele>
        <time>2019-06-01T07:33:05.467Z</time>
      </trkpt>
      <trkpt lat="44.51659" lon="3.12428">
        <ele>1084</ele>
        <time>2019-06-01T07:33:10.459Z</time>
      </trkpt>
      <trkpt lat="44.51663" lon="3.12427">
        <ele>1084</ele>
        <time>2019-06-01T07:33:15.483Z</time>
      </trkpt>
      <trkpt lat="44.51668" lon="3.12427">
        <ele>1084</ele>
        <time>2019-06-01T07:33:20.453Z</time>
      </trkpt>
      <trkpt lat="44.51672" lon="3.12427">
        <ele>1084</ele>
        <time>2019-06-01T07:33:25.466Z</time>
      </trkpt>
      <trkpt lat="44.51676" lon="3.12428">
        <ele>1084</ele>
        <time>2019-06-01T07:33:30.462Z</time>
      </trkpt>
      <trkpt lat="44.51681" lon="3.1243">
        <ele>1084</ele>
        <time>2019-06-01T07:33:35.459Z</time>
      </trkpt>
      <trkpt lat="44.51684" lon="3.1243">
        <ele>1088</ele>
        <time>2019-06-01T07:33:39.481Z</time>
      </trkpt>
      <trkpt lat="44.51687" lon="3.12431">
        <ele>1086</ele>
        <time>2019-06-01T07:33:43.486Z</time>
      </trkpt>
      <trkpt lat="44.51691" lon="3.12433">
        <ele>1086</ele>
        <time>2019-06-01T07:33:48.459Z</time>
      </trkpt>
      <trkpt lat="44.51695" lon="3.12433">
        <ele>1086</ele>
        <time>2019-06-01T07:33:53.496Z</time>
      </trkpt>
      <trkpt lat="44.51699" lon="3.12436">
        <ele>1086</ele>
        <time>2019-06-01T07:33:58.458Z</time>
      </trkpt>
      <trkpt lat="44.51702" lon="3.12437">
        <ele>1086</ele>
        <time>2019-06-01T07:34:02.478Z</time>
      </trkpt>
      <trkpt lat="44.51706" lon="3.12439">
        <ele>1086</ele>
        <time>2019-06-01T07:34:07.460Z</time>
      </trkpt>
      <trkpt lat="44.51711" lon="3.1244">
        <ele>1091</ele>
        <time>2019-06-01T07:34:12.467Z</time>
      </trkpt>
      <trkpt lat="44.51715" lon="3.1244">
        <ele>1091</ele>
        <time>2019-06-01T07:34:17.459Z</time>
      </trkpt>
      <trkpt lat="44.51717" lon="3.12441">
        <ele>1091</ele>
        <time>2019-06-01T07:34:21.462Z</time>
      </trkpt>
      <trkpt lat="44.51721" lon="3.12442">
        <ele>1091</ele>
        <time>2019-06-01T07:34:26.460Z</time>
      </trkpt>
      <trkpt lat="44.51725" lon="3.12443">
        <ele>1091</ele>
        <time>2019-06-01T07:34:31.462Z</time>
      </trkpt>
      <trkpt lat="44.5173" lon="3.12445">
        <ele>1091</ele>
        <time>2019-06-01T07:34:36.462Z</time>
      </trkpt>
      <trkpt lat="44.51734" lon="3.12445">
        <ele>1091</ele>
        <time>2019-06-01T07:34:41.454Z</time>
      </trkpt>
      <trkpt lat="44.51738" lon="3.12446">
        <ele>1093</ele>
        <time>2019-06-01T07:34:46.455Z</time>
      </trkpt>
      <trkpt lat="44.51741" lon="3.12446">
        <ele>1093</ele>
        <time>2019-06-01T07:34:50.473Z</time>
      </trkpt>
      <trkpt lat="44.51745" lon="3.12445">
        <ele>1093</ele>
        <time>2019-06-01T07:34:55.462Z</time>
      </trkpt>
      <trkpt lat="44.5175" lon="3.12444">
        <ele>1093</ele>
        <time>2019-06-01T07:35:00.458Z</time>
      </trkpt>
      <trkpt lat="44.51754" lon="3.12441">
        <ele>1093</ele>
        <time>2019-06-01T07:35:04.463Z</time>
      </trkpt>
      <trkpt lat="44.51759" lon="3.12439">
        <ele>1093</ele>
        <time>2019-06-01T07:35:09.436Z</time>
      </trkpt>
      <trkpt lat="44.51763" lon="3.12439">
        <ele>1093</ele>
        <time>2019-06-01T07:35:13.467Z</time>
      </trkpt>
      <trkpt lat="44.51766" lon="3.12439">
        <ele>1097</ele>
        <time>2019-06-01T07:35:18.458Z</time>
      </trkpt>
      <trkpt lat="44.5177" lon="3.12439">
        <ele>1097</ele>
        <time>2019-06-01T07:35:23.459Z</time>
      </trkpt>
      <trkpt lat="44.51774" lon="3.12437">
        <ele>1097</ele>
        <time>2019-06-01T07:35:28.462Z</time>
      </trkpt>
      <trkpt lat="44.51777" lon="3.12436">
        <ele>1097</ele>
        <time>2019-06-01T07:35:32.469Z</time>
      </trkpt>
      <trkpt lat="44.51778" lon="3.12436">
        <ele>1097</ele>
        <time>2019-06-01T07:35:37.462Z</time>
      </trkpt>
      <trkpt lat="44.51778" lon="3.12436">
        <ele>1097</ele>
        <time>2019-06-01T07:35:42.461Z</time>
      </trkpt>
      <trkpt lat="44.51783" lon="3.12436">
        <ele>1097</ele>
        <time>2019-06-01T07:35:47.449Z</time>
      </trkpt>
      <trkpt lat="44.51787" lon="3.12435">
        <ele>1097</ele>
        <time>2019-06-01T07:35:51.458Z</time>
      </trkpt>
      <trkpt lat="44.51791" lon="3.12435">
        <ele>1097</ele>
        <time>2019-06-01T07:35:55.460Z</time>
      </trkpt>
      <trkpt lat="44.51795" lon="3.12434">
        <ele>1102</ele>
        <time>2019-06-01T07:36:00.473Z</time>
      </trkpt>
      <trkpt lat="44.51799" lon="3.12434">
        <ele>1102</ele>
        <time>2019-06-01T07:36:05.461Z</time>
      </trkpt>
      <trkpt lat="44.51802" lon="3.12435">
        <ele>1102</ele>
        <time>2019-06-01T07:36:09.485Z</time>
      </trkpt>
      <trkpt lat="44.51805" lon="3.12436">
        <ele>1102</ele>
        <time>2019-06-01T07:36:14.463Z</time>
      </trkpt>
      <trkpt lat="44.51809" lon="3.12435">
        <ele>1102</ele>
        <time>2019-06-01T07:36:19.466Z</time>
      </trkpt>
      <trkpt lat="44.51812" lon="3.12435">
        <ele>1102</ele>
        <time>2019-06-01T07:36:23.465Z</time>
      </trkpt>
      <trkpt lat="44.51816" lon="3.12433">
        <ele>1102</ele>
        <time>2019-06-01T07:36:28.458Z</time>
      </trkpt>
      <trkpt lat="44.5182" lon="3.1243">
        <ele>1108</ele>
        <time>2019-06-01T07:36:33.472Z</time>
      </trkpt>
      <trkpt lat="44.51824" lon="3.12426">
        <ele>1108</ele>
        <time>2019-06-01T07:36:38.480Z</time>
      </trkpt>
      <trkpt lat="44.51828" lon="3.12423">
        <ele>1108</ele>
        <time>2019-06-01T07:36:43.460Z</time>
      </trkpt>
      <trkpt lat="44.51831" lon="3.12422">
        <ele>1108</ele>
        <time>2019-06-01T07:36:48.462Z</time>
      </trkpt>
      <trkpt lat="44.51833" lon="3.12419">
        <ele>1108</ele>
        <time>2019-06-01T07:36:52.486Z</time>
      </trkpt>
      <trkpt lat="44.51835" lon="3.12416">
        <ele>1108</ele>
        <time>2019-06-01T07:36:57.459Z</time>
      </trkpt>
      <trkpt lat="44.51836" lon="3.12413">
        <ele>1108</ele>
        <time>2019-06-01T07:37:02.480Z</time>
      </trkpt>
      <trkpt lat="44.51835" lon="3.12409">
        <ele>1108</ele>
        <time>2019-06-01T07:37:07.465Z</time>
      </trkpt>
      <trkpt lat="44.51837" lon="3.12402">
        <ele>1110</ele>
        <time>2019-06-01T07:37:11.489Z</time>
      </trkpt>
      <trkpt lat="44.5184" lon="3.12394">
        <ele>1110</ele>
        <time>2019-06-01T07:37:16.458Z</time>
      </trkpt>
      <trkpt lat="44.51841" lon="3.12388">
        <ele>1110</ele>
        <time>2019-06-01T07:37:21.459Z</time>
      </trkpt>
      <trkpt lat="44.51842" lon="3.12381">
        <ele>1110</ele>
        <time>2019-06-01T07:37:26.457Z</time>
      </trkpt>
      <trkpt lat="44.51845" lon="3.12374">
        <ele>1110</ele>
        <time>2019-06-01T07:37:31.460Z</time>
      </trkpt>
      <trkpt lat="44.51848" lon="3.12366">
        <ele>1115</ele>
        <time>2019-06-01T07:37:36.462Z</time>
      </trkpt>
      <trkpt lat="44.5185" lon="3.12361">
        <ele>1115</ele>
        <time>2019-06-01T07:37:40.484Z</time>
      </trkpt>
      <trkpt lat="44.51853" lon="3.12354">
        <ele>1115</ele>
        <time>2019-06-01T07:37:45.458Z</time>
      </trkpt>
      <trkpt lat="44.51855" lon="3.1235">
        <ele>1115</ele>
        <time>2019-06-01T07:37:49.482Z</time>
      </trkpt>
      <trkpt lat="44.51857" lon="3.12344">
        <ele>1116</ele>
        <time>2019-06-01T07:37:54.458Z</time>
      </trkpt>
      <trkpt lat="44.51858" lon="3.1234">
        <ele>1116</ele>
        <time>2019-06-01T07:37:58.464Z</time>
      </trkpt>
      <trkpt lat="44.51861" lon="3.12334">
        <ele>1116</ele>
        <time>2019-06-01T07:38:03.472Z</time>
      </trkpt>
      <trkpt lat="44.51863" lon="3.12327">
        <ele>1116</ele>
        <time>2019-06-01T07:38:08.451Z</time>
      </trkpt>
      <trkpt lat="44.51865" lon="3.12322">
        <ele>1116</ele>
        <time>2019-06-01T07:38:12.458Z</time>
      </trkpt>
      <trkpt lat="44.51866" lon="3.12316">
        <ele>1116</ele>
        <time>2019-06-01T07:38:16.489Z</time>
      </trkpt>
      <trkpt lat="44.51868" lon="3.1231">
        <ele>1116</ele>
        <time>2019-06-01T07:38:21.484Z</time>
      </trkpt>
      <trkpt lat="44.51869" lon="3.12303">
        <ele>1116</ele>
        <time>2019-06-01T07:38:26.457Z</time>
      </trkpt>
      <trkpt lat="44.51871" lon="3.12295">
        <ele>1116</ele>
        <time>2019-06-01T07:38:31.456Z</time>
      </trkpt>
      <trkpt lat="44.51873" lon="3.1229">
        <ele>1115</ele>
        <time>2019-06-01T07:38:35.489Z</time>
      </trkpt>
      <trkpt lat="44.51875" lon="3.12284">
        <ele>1115</ele>
        <time>2019-06-01T07:38:40.458Z</time>
      </trkpt>
      <trkpt lat="44.51877" lon="3.12278">
        <ele>1120</ele>
        <time>2019-06-01T07:38:45.462Z</time>
      </trkpt>
      <trkpt lat="44.51879" lon="3.12273">
        <ele>1120</ele>
        <time>2019-06-01T07:38:50.457Z</time>
      </trkpt>
      <trkpt lat="44.51882" lon="3.1227">
        <ele>1120</ele>
        <time>2019-06-01T07:38:54.487Z</time>
      </trkpt>
      <trkpt lat="44.51886" lon="3.12264">
        <ele>1121</ele>
        <time>2019-06-01T07:38:59.456Z</time>
      </trkpt>
      <trkpt lat="44.51889" lon="3.12259">
        <ele>1121</ele>
        <time>2019-06-01T07:39:03.483Z</time>
      </trkpt>
      <trkpt lat="44.51893" lon="3.12253">
        <ele>1121</ele>
        <time>2019-06-01T07:39:08.480Z</time>
      </trkpt>
      <trkpt lat="44.51895" lon="3.12248">
        <ele>1121</ele>
        <time>2019-06-01T07:39:13.460Z</time>
      </trkpt>
      <trkpt lat="44.51897" lon="3.12245">
        <ele>1121</ele>
        <time>2019-06-01T07:39:18.454Z</time>
      </trkpt>
      <trkpt lat="44.519" lon="3.12241">
        <ele>1121</ele>
        <time>2019-06-01T07:39:22.461Z</time>
      </trkpt>
      <trkpt lat="44.51903" lon="3.12237">
        <ele>1121</ele>
        <time>2019-06-01T07:39:27.455Z</time>
      </trkpt>
      <trkpt lat="44.51905" lon="3.12233">
        <ele>1131</ele>
        <time>2019-06-01T07:39:31.475Z</time>
      </trkpt>
      <trkpt lat="44.51906" lon="3.12226">
        <ele>1131</ele>
        <time>2019-06-01T07:39:36.465Z</time>
      </trkpt>
      <trkpt lat="44.51908" lon="3.12219">
        <ele>1131</ele>
        <time>2019-06-01T07:39:41.453Z</time>
      </trkpt>
      <trkpt lat="44.51908" lon="3.12214">
        <ele>1131</ele>
        <time>2019-06-01T07:39:45.454Z</time>
      </trkpt>
      <trkpt lat="44.51908" lon="3.12207">
        <ele>1131</ele>
        <time>2019-06-01T07:39:50.467Z</time>
      </trkpt>
      <trkpt lat="44.51911" lon="3.12203">
        <ele>1131</ele>
        <time>2019-06-01T07:39:55.477Z</time>
      </trkpt>
      <trkpt lat="44.51911" lon="3.12197">
        <ele>1131</ele>
        <time>2019-06-01T07:40:00.462Z</time>
      </trkpt>
      <trkpt lat="44.51913" lon="3.12189">
        <ele>1131</ele>
        <time>2019-06-01T07:40:05.489Z</time>
      </trkpt>
      <trkpt lat="44.51914" lon="3.12183">
        <ele>1131</ele>
        <time>2019-06-01T07:40:10.457Z</time>
      </trkpt>
      <trkpt lat="44.51915" lon="3.12176">
        <ele>1131</ele>
        <time>2019-06-01T07:40:15.461Z</time>
      </trkpt>
      <trkpt lat="44.51915" lon="3.12174">
        <ele>1131</ele>
        <time>2019-06-01T07:40:20.459Z</time>
      </trkpt>
      <trkpt lat="44.51919" lon="3.12169">
        <ele>1131</ele>
        <time>2019-06-01T07:40:25.461Z</time>
      </trkpt>
      <trkpt lat="44.51921" lon="3.12165">
        <ele>1131</ele>
        <time>2019-06-01T07:40:30.457Z</time>
      </trkpt>
      <trkpt lat="44.5192" lon="3.1216">
        <ele>1131</ele>
        <time>2019-06-01T07:40:34.462Z</time>
      </trkpt>
      <trkpt lat="44.51921" lon="3.12153">
        <ele>1131</ele>
        <time>2019-06-01T07:40:39.487Z</time>
      </trkpt>
      <trkpt lat="44.51922" lon="3.12147">
        <ele>1130</ele>
        <time>2019-06-01T07:40:44.461Z</time>
      </trkpt>
      <trkpt lat="44.51923" lon="3.12142">
        <ele>1130</ele>
        <time>2019-06-01T07:40:49.434Z</time>
      </trkpt>
      <trkpt lat="44.51923" lon="3.12138">
        <ele>1130</ele>
        <time>2019-06-01T07:40:53.459Z</time>
      </trkpt>
      <trkpt lat="44.51924" lon="3.12133">
        <ele>1130</ele>
        <time>2019-06-01T07:40:58.459Z</time>
      </trkpt>
      <trkpt lat="44.51925" lon="3.12129">
        <ele>1130</ele>
        <time>2019-06-01T07:41:02.468Z</time>
      </trkpt>
      <trkpt lat="44.51926" lon="3.12124">
        <ele>1129</ele>
        <time>2019-06-01T07:41:07.437Z</time>
      </trkpt>
      <trkpt lat="44.51926" lon="3.1212">
        <ele>1129</ele>
        <time>2019-06-01T07:41:11.456Z</time>
      </trkpt>
      <trkpt lat="44.51926" lon="3.12114">
        <ele>1129</ele>
        <time>2019-06-01T07:41:16.457Z</time>
      </trkpt>
      <trkpt lat="44.51926" lon="3.12108">
        <ele>1129</ele>
        <time>2019-06-01T07:41:20.456Z</time>
      </trkpt>
      <trkpt lat="44.51927" lon="3.12094">
        <ele>1130</ele>
        <time>2019-06-01T07:41:26.445Z</time>
      </trkpt>
      <trkpt lat="44.51927" lon="3.12083">
        <ele>1130</ele>
        <time>2019-06-01T07:41:31.442Z</time>
      </trkpt>
      <trkpt lat="44.51929" lon="3.12078">
        <ele>1130</ele>
        <time>2019-06-01T07:41:35.490Z</time>
      </trkpt>
      <trkpt lat="44.51934" lon="3.12073">
        <ele>1133</ele>
        <time>2019-06-01T07:41:40.453Z</time>
      </trkpt>
      <trkpt lat="44.51935" lon="3.1207">
        <ele>1133</ele>
        <time>2019-06-01T07:41:45.464Z</time>
      </trkpt>
      <trkpt lat="44.51937" lon="3.12067">
        <ele>1133</ele>
        <time>2019-06-01T07:41:50.436Z</time>
      </trkpt>
      <trkpt lat="44.51939" lon="3.12064">
        <ele>1133</ele>
        <time>2019-06-01T07:41:54.450Z</time>
      </trkpt>
      <trkpt lat="44.51939" lon="3.12058">
        <ele>1133</ele>
        <time>2019-06-01T07:41:59.440Z</time>
      </trkpt>
      <trkpt lat="44.51941" lon="3.12051">
        <ele>1133</ele>
        <time>2019-06-01T07:42:08.457Z</time>
      </trkpt>
      <trkpt lat="44.51956" lon="3.12041">
        <ele>1132</ele>
        <time>2019-06-01T07:42:13.462Z</time>
      </trkpt>
      <trkpt lat="44.51959" lon="3.1204">
        <ele>1131</ele>
        <time>2019-06-01T07:42:18.461Z</time>
      </trkpt>
      <trkpt lat="44.51963" lon="3.12038">
        <ele>1131</ele>
        <time>2019-06-01T07:42:23.465Z</time>
      </trkpt>
      <trkpt lat="44.51968" lon="3.12034">
        <ele>1131</ele>
        <time>2019-06-01T07:42:28.465Z</time>
      </trkpt>
      <trkpt lat="44.51971" lon="3.12032">
        <ele>1131</ele>
        <time>2019-06-01T07:42:33.482Z</time>
      </trkpt>
      <trkpt lat="44.51973" lon="3.1203">
        <ele>1131</ele>
        <time>2019-06-01T07:42:38.458Z</time>
      </trkpt>
      <trkpt lat="44.51975" lon="3.12027">
        <ele>1131</ele>
        <time>2019-06-01T07:42:43.456Z</time>
      </trkpt>
      <trkpt lat="44.51977" lon="3.12026">
        <ele>1131</ele>
        <time>2019-06-01T07:42:48.463Z</time>
      </trkpt>
      <trkpt lat="44.51979" lon="3.12025">
        <ele>1131</ele>
        <time>2019-06-01T07:42:53.488Z</time>
      </trkpt>
      <trkpt lat="44.51984" lon="3.12023">
        <ele>1131</ele>
        <time>2019-06-01T07:42:58.455Z</time>
      </trkpt>
      <trkpt lat="44.5199" lon="3.12024">
        <ele>1130</ele>
        <time>2019-06-01T07:43:03.456Z</time>
      </trkpt>
      <trkpt lat="44.51994" lon="3.12024">
        <ele>1130</ele>
        <time>2019-06-01T07:43:08.459Z</time>
      </trkpt>
      <trkpt lat="44.51996" lon="3.12023">
        <ele>1130</ele>
        <time>2019-06-01T07:43:13.452Z</time>
      </trkpt>
      <trkpt lat="44.51997" lon="3.12022">
        <ele>1130</ele>
        <time>2019-06-01T07:43:17.456Z</time>
      </trkpt>
      <trkpt lat="44.52" lon="3.12019">
        <ele>1130</ele>
        <time>2019-06-01T07:43:22.493Z</time>
      </trkpt>
      <trkpt lat="44.52004" lon="3.12017">
        <ele>1130</ele>
        <time>2019-06-01T07:43:27.453Z</time>
      </trkpt>
      <trkpt lat="44.52011" lon="3.12013">
        <ele>1127</ele>
        <time>2019-06-01T07:43:32.461Z</time>
      </trkpt>
      <trkpt lat="44.52013" lon="3.12012">
        <ele>1127</ele>
        <time>2019-06-01T07:43:42.461Z</time>
      </trkpt>
      <trkpt lat="44.52026" lon="3.1201">
        <ele>1126</ele>
        <time>2019-06-01T07:43:47.458Z</time>
      </trkpt>
      <trkpt lat="44.52033" lon="3.12007">
        <ele>1126</ele>
        <time>2019-06-01T07:43:52.461Z</time>
      </trkpt>
      <trkpt lat="44.5204" lon="3.12005">
        <ele>1126</ele>
        <time>2019-06-01T07:43:57.449Z</time>
      </trkpt>
      <trkpt lat="44.52046" lon="3.12002">
        <ele>1127</ele>
        <time>2019-06-01T07:44:02.457Z</time>
      </trkpt>
      <trkpt lat="44.52053" lon="3.12">
        <ele>1127</ele>
        <time>2019-06-01T07:44:07.457Z</time>
      </trkpt>
      <trkpt lat="44.52058" lon="3.11997">
        <ele>1127</ele>
        <time>2019-06-01T07:44:12.452Z</time>
      </trkpt>
      <trkpt lat="44.52063" lon="3.11996">
        <ele>1127</ele>
        <time>2019-06-01T07:44:16.462Z</time>
      </trkpt>
      <trkpt lat="44.52068" lon="3.11995">
        <ele>1127</ele>
        <time>2019-06-01T07:44:21.460Z</time>
      </trkpt>
      <trkpt lat="44.52071" lon="3.11996">
        <ele>1126</ele>
        <time>2019-06-01T07:44:26.457Z</time>
      </trkpt>
      <trkpt lat="44.52073" lon="3.11998">
        <ele>1126</ele>
        <time>2019-06-01T07:44:30.455Z</time>
      </trkpt>
      <trkpt lat="44.52075" lon="3.11996">
        <ele>1126</ele>
        <time>2019-06-01T07:44:34.485Z</time>
      </trkpt>
      <trkpt lat="44.52081" lon="3.11997">
        <ele>1126</ele>
        <time>2019-06-01T07:44:39.459Z</time>
      </trkpt>
      <trkpt lat="44.52087" lon="3.11997">
        <ele>1126</ele>
        <time>2019-06-01T07:44:44.455Z</time>
      </trkpt>
      <trkpt lat="44.52093" lon="3.11996">
        <ele>1126</ele>
        <time>2019-06-01T07:44:49.449Z</time>
      </trkpt>
      <trkpt lat="44.52098" lon="3.11994">
        <ele>1125</ele>
        <time>2019-06-01T07:44:54.454Z</time>
      </trkpt>
      <trkpt lat="44.52103" lon="3.11992">
        <ele>1125</ele>
        <time>2019-06-01T07:44:59.488Z</time>
      </trkpt>
      <trkpt lat="44.52108" lon="3.11988">
        <ele>1125</ele>
        <time>2019-06-01T07:45:04.453Z</time>
      </trkpt>
      <trkpt lat="44.52112" lon="3.11986">
        <ele>1116</ele>
        <time>2019-06-01T07:45:08.491Z</time>
      </trkpt>
      <trkpt lat="44.52118" lon="3.11986">
        <ele>1116</ele>
        <time>2019-06-01T07:45:13.479Z</time>
      </trkpt>
      <trkpt lat="44.52123" lon="3.11986">
        <ele>1116</ele>
        <time>2019-06-01T07:45:18.456Z</time>
      </trkpt>
      <trkpt lat="44.52129" lon="3.11983">
        <ele>1116</ele>
        <time>2019-06-01T07:46:26.456Z</time>
      </trkpt>
      <trkpt lat="44.52133" lon="3.11982">
        <ele>1116</ele>
        <time>2019-06-01T07:46:30.459Z</time>
      </trkpt>
      <trkpt lat="44.52136" lon="3.11981">
        <ele>1116</ele>
        <time>2019-06-01T07:46:35.485Z</time>
      </trkpt>
      <trkpt lat="44.52139" lon="3.11983">
        <ele>1116</ele>
        <time>2019-06-01T07:46:40.455Z</time>
      </trkpt>
      <trkpt lat="44.52143" lon="3.11978">
        <ele>1116</ele>
        <time>2019-06-01T07:46:45.451Z</time>
      </trkpt>
      <trkpt lat="44.52144" lon="3.11974">
        <ele>1116</ele>
        <time>2019-06-01T07:46:50.452Z</time>
      </trkpt>
      <trkpt lat="44.52148" lon="3.11974">
        <ele>1116</ele>
        <time>2019-06-01T07:47:14.463Z</time>
      </trkpt>
      <trkpt lat="44.52153" lon="3.11975">
        <ele>1116</ele>
        <time>2019-06-01T07:47:19.460Z</time>
      </trkpt>
      <trkpt lat="44.52156" lon="3.11975">
        <ele>1119</ele>
        <time>2019-06-01T07:47:23.477Z</time>
      </trkpt>
      <trkpt lat="44.52162" lon="3.11974">
        <ele>1119</ele>
        <time>2019-06-01T07:47:28.457Z</time>
      </trkpt>
      <trkpt lat="44.52165" lon="3.11973">
        <ele>1119</ele>
        <time>2019-06-01T07:47:32.462Z</time>
      </trkpt>
      <trkpt lat="44.52169" lon="3.11973">
        <ele>1119</ele>
        <time>2019-06-01T07:47:37.481Z</time>
      </trkpt>
      <trkpt lat="44.52176" lon="3.11974">
        <ele>1119</ele>
        <time>2019-06-01T07:47:42.457Z</time>
      </trkpt>
      <trkpt lat="44.52181" lon="3.11973">
        <ele>1121</ele>
        <time>2019-06-01T07:47:47.462Z</time>
      </trkpt>
      <trkpt lat="44.52188" lon="3.1197">
        <ele>1121</ele>
        <time>2019-06-01T07:47:52.461Z</time>
      </trkpt>
      <trkpt lat="44.52192" lon="3.11969">
        <ele>1121</ele>
        <time>2019-06-01T07:47:57.455Z</time>
      </trkpt>
      <trkpt lat="44.52196" lon="3.11969">
        <ele>1121</ele>
        <time>2019-06-01T07:48:02.452Z</time>
      </trkpt>
      <trkpt lat="44.52198" lon="3.11966">
        <ele>1121</ele>
        <time>2019-06-01T07:48:06.452Z</time>
      </trkpt>
      <trkpt lat="44.52201" lon="3.11965">
        <ele>1121</ele>
        <time>2019-06-01T07:48:11.452Z</time>
      </trkpt>
      <trkpt lat="44.52206" lon="3.11965">
        <ele>1121</ele>
        <time>2019-06-01T07:48:15.489Z</time>
      </trkpt>
      <trkpt lat="44.52211" lon="3.11966">
        <ele>1118</ele>
        <time>2019-06-01T07:48:20.479Z</time>
      </trkpt>
      <trkpt lat="44.52216" lon="3.11968">
        <ele>1118</ele>
        <time>2019-06-01T07:48:25.459Z</time>
      </trkpt>
      <trkpt lat="44.52221" lon="3.11968">
        <ele>1118</ele>
        <time>2019-06-01T07:48:30.457Z</time>
      </trkpt>
      <trkpt lat="44.52227" lon="3.11972">
        <ele>1118</ele>
        <time>2019-06-01T07:48:35.452Z</time>
      </trkpt>
      <trkpt lat="44.5223" lon="3.11972">
        <ele>1118</ele>
        <time>2019-06-01T07:48:39.457Z</time>
      </trkpt>
      <trkpt lat="44.52235" lon="3.11972">
        <ele>1118</ele>
        <time>2019-06-01T07:48:44.491Z</time>
      </trkpt>
      <trkpt lat="44.5224" lon="3.1197">
        <ele>1119</ele>
        <time>2019-06-01T07:48:49.459Z</time>
      </trkpt>
      <trkpt lat="44.52244" lon="3.11969">
        <ele>1119</ele>
        <time>2019-06-01T07:48:54.462Z</time>
      </trkpt>
      <trkpt lat="44.5225" lon="3.1197">
        <ele>1119</ele>
        <time>2019-06-01T07:48:59.448Z</time>
      </trkpt>
      <trkpt lat="44.52254" lon="3.1197">
        <ele>1119</ele>
        <time>2019-06-01T07:49:03.456Z</time>
      </trkpt>
      <trkpt lat="44.52256" lon="3.1197">
        <ele>1119</ele>
        <time>2019-06-01T07:49:08.451Z</time>
      </trkpt>
      <trkpt lat="44.52265" lon="3.11971">
        <ele>1122</ele>
        <time>2019-06-01T07:49:12.453Z</time>
      </trkpt>
      <trkpt lat="44.52269" lon="3.11972">
        <ele>1122</ele>
        <time>2019-06-01T07:49:17.478Z</time>
      </trkpt>
      <trkpt lat="44.52272" lon="3.11973">
        <ele>1122</ele>
        <time>2019-06-01T07:49:22.483Z</time>
      </trkpt>
      <trkpt lat="44.52274" lon="3.11973">
        <ele>1122</ele>
        <time>2019-06-01T07:49:27.484Z</time>
      </trkpt>
      <trkpt lat="44.5228" lon="3.11973">
        <ele>1122</ele>
        <time>2019-06-01T07:49:37.481Z</time>
      </trkpt>
      <trkpt lat="44.52288" lon="3.11972">
        <ele>1122</ele>
        <time>2019-06-01T07:49:47.463Z</time>
      </trkpt>
      <trkpt lat="44.52294" lon="3.11972">
        <ele>1120</ele>
        <time>2019-06-01T07:49:52.455Z</time>
      </trkpt>
      <trkpt lat="44.52299" lon="3.11973">
        <ele>1120</ele>
        <time>2019-06-01T07:49:56.457Z</time>
      </trkpt>
      <trkpt lat="44.52303" lon="3.11976">
        <ele>1120</ele>
        <time>2019-06-01T07:50:01.460Z</time>
      </trkpt>
      <trkpt lat="44.52305" lon="3.11977">
        <ele>1120</ele>
        <time>2019-06-01T07:50:06.453Z</time>
      </trkpt>
      <trkpt lat="44.52308" lon="3.11978">
        <ele>1120</ele>
        <time>2019-06-01T07:50:11.458Z</time>
      </trkpt>
      <trkpt lat="44.5231" lon="3.11978">
        <ele>1120</ele>
        <time>2019-06-01T07:50:16.453Z</time>
      </trkpt>
      <trkpt lat="44.52324" lon="3.1198">
        <ele>1121</ele>
        <time>2019-06-01T07:50:21.458Z</time>
      </trkpt>
      <trkpt lat="44.52328" lon="3.11983">
        <ele>1121</ele>
        <time>2019-06-01T07:50:26.450Z</time>
      </trkpt>
      <trkpt lat="44.52333" lon="3.11985">
        <ele>1121</ele>
        <time>2019-06-01T07:50:39.456Z</time>
      </trkpt>
      <trkpt lat="44.5234" lon="3.11988">
        <ele>1127</ele>
        <time>2019-06-01T07:50:44.455Z</time>
      </trkpt>
      <trkpt lat="44.52344" lon="3.11989">
        <ele>1127</ele>
        <time>2019-06-01T07:50:53.461Z</time>
      </trkpt>
      <trkpt lat="44.52346" lon="3.1199">
        <ele>1127</ele>
        <time>2019-06-01T07:50:58.490Z</time>
      </trkpt>
      <trkpt lat="44.52347" lon="3.11993">
        <ele>1127</ele>
        <time>2019-06-01T07:51:03.457Z</time>
      </trkpt>
      <trkpt lat="44.52348" lon="3.11993">
        <ele>1128</ele>
        <time>2019-06-01T07:51:08.491Z</time>
      </trkpt>
      <trkpt lat="44.52353" lon="3.11997">
        <ele>1128</ele>
        <time>2019-06-01T07:51:13.453Z</time>
      </trkpt>
      <trkpt lat="44.52358" lon="3.11999">
        <ele>1128</ele>
        <time>2019-06-01T07:51:17.461Z</time>
      </trkpt>
      <trkpt lat="44.52362" lon="3.12002">
        <ele>1128</ele>
        <time>2019-06-01T07:51:21.479Z</time>
      </trkpt>
      <trkpt lat="44.52369" lon="3.12005">
        <ele>1128</ele>
        <time>2019-06-01T07:51:26.453Z</time>
      </trkpt>
      <trkpt lat="44.52382" lon="3.12009">
        <ele>1125</ele>
        <time>2019-06-01T07:51:31.447Z</time>
      </trkpt>
      <trkpt lat="44.52389" lon="3.12012">
        <ele>1125</ele>
        <time>2019-06-01T07:51:35.457Z</time>
      </trkpt>
      <trkpt lat="44.52399" lon="3.12012">
        <ele>1125</ele>
        <time>2019-06-01T07:51:40.450Z</time>
      </trkpt>
      <trkpt lat="44.52407" lon="3.12014">
        <ele>1129</ele>
        <time>2019-06-01T07:51:44.470Z</time>
      </trkpt>
      <trkpt lat="44.52413" lon="3.12016">
        <ele>1129</ele>
        <time>2019-06-01T07:51:49.455Z</time>
      </trkpt>
      <trkpt lat="44.52423" lon="3.12015">
        <ele>1129</ele>
        <time>2019-06-01T07:51:54.462Z</time>
      </trkpt>
      <trkpt lat="44.5243" lon="3.12019">
        <ele>1129</ele>
        <time>2019-06-01T07:51:59.451Z</time>
      </trkpt>
      <trkpt lat="44.52438" lon="3.1202">
        <ele>1125</ele>
        <time>2019-06-01T07:52:03.461Z</time>
      </trkpt>
      <trkpt lat="44.52445" lon="3.1202">
        <ele>1125</ele>
        <time>2019-06-01T07:52:08.463Z</time>
      </trkpt>
      <trkpt lat="44.52451" lon="3.12021">
        <ele>1125</ele>
        <time>2019-06-01T07:52:13.462Z</time>
      </trkpt>
      <trkpt lat="44.52454" lon="3.12021">
        <ele>1125</ele>
        <time>2019-06-01T07:52:18.461Z</time>
      </trkpt>
      <trkpt lat="44.5246" lon="3.12021">
        <ele>1123</ele>
        <time>2019-06-01T07:52:23.486Z</time>
      </trkpt>
      <trkpt lat="44.52463" lon="3.12025">
        <ele>1123</ele>
        <time>2019-06-01T07:52:28.455Z</time>
      </trkpt>
      <trkpt lat="44.52467" lon="3.12027">
        <ele>1123</ele>
        <time>2019-06-01T07:52:31.453Z</time>
      </trkpt>
      <trkpt lat="44.52476" lon="3.12033">
        <ele>1123</ele>
        <time>2019-06-01T07:52:37.471Z</time>
      </trkpt>
      <trkpt lat="44.52482" lon="3.12034">
        <ele>1123</ele>
        <time>2019-06-01T07:52:42.481Z</time>
      </trkpt>
      <trkpt lat="44.52486" lon="3.12036">
        <ele>1123</ele>
        <time>2019-06-01T07:52:47.441Z</time>
      </trkpt>
      <trkpt lat="44.5249" lon="3.12038">
        <ele>1122</ele>
        <time>2019-06-01T07:52:52.479Z</time>
      </trkpt>
      <trkpt lat="44.52495" lon="3.12041">
        <ele>1122</ele>
        <time>2019-06-01T07:52:57.439Z</time>
      </trkpt>
      <trkpt lat="44.52498" lon="3.12042">
        <ele>1129</ele>
        <time>2019-06-01T07:53:01.459Z</time>
      </trkpt>
      <trkpt lat="44.52502" lon="3.12044">
        <ele>1129</ele>
        <time>2019-06-01T07:53:06.451Z</time>
      </trkpt>
      <trkpt lat="44.52509" lon="3.12048">
        <ele>1129</ele>
        <time>2019-06-01T07:53:11.450Z</time>
      </trkpt>
      <trkpt lat="44.52511" lon="3.12049">
        <ele>1129</ele>
        <time>2019-06-01T07:53:16.437Z</time>
      </trkpt>
      <trkpt lat="44.52514" lon="3.12054">
        <ele>1129</ele>
        <time>2019-06-01T07:53:25.456Z</time>
      </trkpt>
      <trkpt lat="44.52518" lon="3.12067">
        <ele>1126</ele>
        <time>2019-06-01T07:53:30.480Z</time>
      </trkpt>
      <trkpt lat="44.52522" lon="3.12074">
        <ele>1133</ele>
        <time>2019-06-01T07:53:39.454Z</time>
      </trkpt>
      <trkpt lat="44.52532" lon="3.12079">
        <ele>1133</ele>
        <time>2019-06-01T07:53:43.458Z</time>
      </trkpt>
      <trkpt lat="44.52538" lon="3.12081">
        <ele>1133</ele>
        <time>2019-06-01T07:53:47.470Z</time>
      </trkpt>
      <trkpt lat="44.52547" lon="3.12083">
        <ele>1131</ele>
        <time>2019-06-01T07:53:52.453Z</time>
      </trkpt>
      <trkpt lat="44.52553" lon="3.12082">
        <ele>1131</ele>
        <time>2019-06-01T07:53:57.452Z</time>
      </trkpt>
      <trkpt lat="44.52554" lon="3.12082">
        <ele>1131</ele>
        <time>2019-06-01T07:54:01.456Z</time>
      </trkpt>
      <trkpt lat="44.5256" lon="3.12084">
        <ele>1131</ele>
        <time>2019-06-01T07:54:05.455Z</time>
      </trkpt>
      <trkpt lat="44.52566" lon="3.12085">
        <ele>1131</ele>
        <time>2019-06-01T07:54:10.448Z</time>
      </trkpt>
      <trkpt lat="44.52569" lon="3.12084">
        <ele>1131</ele>
        <time>2019-06-01T07:54:15.459Z</time>
      </trkpt>
      <trkpt lat="44.52572" lon="3.12083">
        <ele>1128</ele>
        <time>2019-06-01T07:54:19.457Z</time>
      </trkpt>
      <trkpt lat="44.52576" lon="3.12085">
        <ele>1128</ele>
        <time>2019-06-01T07:54:24.459Z</time>
      </trkpt>
      <trkpt lat="44.52579" lon="3.12086">
        <ele>1128</ele>
        <time>2019-06-01T07:54:29.448Z</time>
      </trkpt>
      <trkpt lat="44.52583" lon="3.12087">
        <ele>1128</ele>
        <time>2019-06-01T07:54:33.487Z</time>
      </trkpt>
      <trkpt lat="44.52585" lon="3.12088">
        <ele>1128</ele>
        <time>2019-06-01T07:54:38.465Z</time>
      </trkpt>
      <trkpt lat="44.52588" lon="3.12088">
        <ele>1128</ele>
        <time>2019-06-01T07:54:43.457Z</time>
      </trkpt>
      <trkpt lat="44.52591" lon="3.12088">
        <ele>1128</ele>
        <time>2019-06-01T07:54:53.457Z</time>
      </trkpt>
      <trkpt lat="44.52599" lon="3.12089">
        <ele>1127</ele>
        <time>2019-06-01T07:54:58.456Z</time>
      </trkpt>
      <trkpt lat="44.52609" lon="3.1209">
        <ele>1127</ele>
        <time>2019-06-01T07:55:03.445Z</time>
      </trkpt>
      <trkpt lat="44.52615" lon="3.12091">
        <ele>1127</ele>
        <time>2019-06-01T07:55:07.485Z</time>
      </trkpt>
      <trkpt lat="44.5262" lon="3.12094">
        <ele>1127</ele>
        <time>2019-06-01T07:55:12.466Z</time>
      </trkpt>
      <trkpt lat="44.52623" lon="3.12095">
        <ele>1127</ele>
        <time>2019-06-01T07:55:17.456Z</time>
      </trkpt>
      <trkpt lat="44.52638" lon="3.12098">
        <ele>1135</ele>
        <time>2019-06-01T07:55:22.457Z</time>
      </trkpt>
      <trkpt lat="44.52648" lon="3.121">
        <ele>1135</ele>
        <time>2019-06-01T07:55:26.490Z</time>
      </trkpt>
      <trkpt lat="44.52656" lon="3.12101">
        <ele>1132</ele>
        <time>2019-06-01T07:55:31.459Z</time>
      </trkpt>
      <trkpt lat="44.52662" lon="3.121">
        <ele>1132</ele>
        <time>2019-06-01T07:55:36.454Z</time>
      </trkpt>
      <trkpt lat="44.52666" lon="3.12104">
        <ele>1132</ele>
        <time>2019-06-01T07:55:41.461Z</time>
      </trkpt>
      <trkpt lat="44.52669" lon="3.12108">
        <ele>1132</ele>
        <time>2019-06-01T07:55:45.484Z</time>
      </trkpt>
      <trkpt lat="44.52673" lon="3.12108">
        <ele>1132</ele>
        <time>2019-06-01T07:55:50.451Z</time>
      </trkpt>
      <trkpt lat="44.52676" lon="3.1211">
        <ele>1132</ele>
        <time>2019-06-01T07:55:54.458Z</time>
      </trkpt>
      <trkpt lat="44.52679" lon="3.12114">
        <ele>1132</ele>
        <time>2019-06-01T07:55:59.490Z</time>
      </trkpt>
      <trkpt lat="44.52684" lon="3.12117">
        <ele>1130</ele>
        <time>2019-06-01T07:56:04.465Z</time>
      </trkpt>
      <trkpt lat="44.52689" lon="3.12128">
        <ele>1134</ele>
        <time>2019-06-01T07:56:09.482Z</time>
      </trkpt>
      <trkpt lat="44.52696" lon="3.12133">
        <ele>1134</ele>
        <time>2019-06-01T07:56:14.466Z</time>
      </trkpt>
      <trkpt lat="44.527" lon="3.12135">
        <ele>1134</ele>
        <time>2019-06-01T07:56:18.484Z</time>
      </trkpt>
      <trkpt lat="44.52706" lon="3.12137">
        <ele>1134</ele>
        <time>2019-06-01T07:56:23.454Z</time>
      </trkpt>
      <trkpt lat="44.52712" lon="3.12139">
        <ele>1131</ele>
        <time>2019-06-01T07:56:28.440Z</time>
      </trkpt>
      <trkpt lat="44.52719" lon="3.1214">
        <ele>1131</ele>
        <time>2019-06-01T07:56:32.461Z</time>
      </trkpt>
      <trkpt lat="44.52723" lon="3.12142">
        <ele>1131</ele>
        <time>2019-06-01T07:56:37.457Z</time>
      </trkpt>
      <trkpt lat="44.52729" lon="3.12144">
        <ele>1131</ele>
        <time>2019-06-01T07:56:42.470Z</time>
      </trkpt>
      <trkpt lat="44.5273" lon="3.12146">
        <ele>1131</ele>
        <time>2019-06-01T07:56:47.465Z</time>
      </trkpt>
      <trkpt lat="44.52733" lon="3.12157">
        <ele>1134</ele>
        <time>2019-06-01T07:56:52.434Z</time>
      </trkpt>
      <trkpt lat="44.52742" lon="3.12162">
        <ele>1129</ele>
        <time>2019-06-01T07:56:56.465Z</time>
      </trkpt>
      <trkpt lat="44.52751" lon="3.12164">
        <ele>1129</ele>
        <time>2019-06-01T07:57:01.455Z</time>
      </trkpt>
      <trkpt lat="44.52752" lon="3.12165">
        <ele>1129</ele>
        <time>2019-06-01T07:57:06.452Z</time>
      </trkpt>
      <trkpt lat="44.52755" lon="3.12164">
        <ele>1129</ele>
        <time>2019-06-01T07:57:15.459Z</time>
      </trkpt>
      <trkpt lat="44.52757" lon="3.12164">
        <ele>1129</ele>
        <time>2019-06-01T07:57:20.463Z</time>
      </trkpt>
      <trkpt lat="44.52766" lon="3.12165">
        <ele>1127</ele>
        <time>2019-06-01T07:57:24.492Z</time>
      </trkpt>
      <trkpt lat="44.52779" lon="3.12161">
        <ele>1127</ele>
        <time>2019-06-01T07:57:29.457Z</time>
      </trkpt>
      <trkpt lat="44.5279" lon="3.1216">
        <ele>1127</ele>
        <time>2019-06-01T07:57:34.449Z</time>
      </trkpt>
      <trkpt lat="44.52796" lon="3.12159">
        <ele>1129</ele>
        <time>2019-06-01T07:57:38.450Z</time>
      </trkpt>
      <trkpt lat="44.528" lon="3.12158">
        <ele>1129</ele>
        <time>2019-06-01T07:57:42.468Z</time>
      </trkpt>
      <trkpt lat="44.52803" lon="3.1215">
        <ele>1126</ele>
        <time>2019-06-01T07:57:47.433Z</time>
      </trkpt>
      <trkpt lat="44.52804" lon="3.12146">
        <ele>1126</ele>
        <time>2019-06-01T07:57:52.471Z</time>
      </trkpt>
      <trkpt lat="44.52807" lon="3.12139">
        <ele>1126</ele>
        <time>2019-06-01T07:57:57.445Z</time>
      </trkpt>
      <trkpt lat="44.5281" lon="3.12135">
        <ele>1126</ele>
        <time>2019-06-01T07:58:01.469Z</time>
      </trkpt>
      <trkpt lat="44.52816" lon="3.1213">
        <ele>1126</ele>
        <time>2019-06-01T07:58:06.464Z</time>
      </trkpt>
      <trkpt lat="44.52823" lon="3.12131">
        <ele>1129</ele>
        <time>2019-06-01T07:58:11.469Z</time>
      </trkpt>
      <trkpt lat="44.52827" lon="3.12133">
        <ele>1129</ele>
        <time>2019-06-01T07:58:16.460Z</time>
      </trkpt>
      <trkpt lat="44.5283" lon="3.12134">
        <ele>1129</ele>
        <time>2019-06-01T07:58:20.479Z</time>
      </trkpt>
      <trkpt lat="44.52831" lon="3.12134">
        <ele>1129</ele>
        <time>2019-06-01T07:58:25.452Z</time>
      </trkpt>
      <trkpt lat="44.52834" lon="3.12133">
        <ele>1129</ele>
        <time>2019-06-01T07:58:34.438Z</time>
      </trkpt>
      <trkpt lat="44.52836" lon="3.1213">
        <ele>1129</ele>
        <time>2019-06-01T07:58:38.471Z</time>
      </trkpt>
      <trkpt lat="44.52843" lon="3.12126">
        <ele>1129</ele>
        <time>2019-06-01T07:58:43.484Z</time>
      </trkpt>
      <trkpt lat="44.52849" lon="3.12124">
        <ele>1127</ele>
        <time>2019-06-01T07:58:48.477Z</time>
      </trkpt>
      <trkpt lat="44.52855" lon="3.12122">
        <ele>1127</ele>
        <time>2019-06-01T07:58:53.433Z</time>
      </trkpt>
      <trkpt lat="44.5286" lon="3.1212">
        <ele>1127</ele>
        <time>2019-06-01T07:58:57.464Z</time>
      </trkpt>
      <trkpt lat="44.52863" lon="3.12119">
        <ele>1127</ele>
        <time>2019-06-01T07:59:02.475Z</time>
      </trkpt>
      <trkpt lat="44.52866" lon="3.12118">
        <ele>1127</ele>
        <time>2019-06-01T07:59:07.442Z</time>
      </trkpt>
      <trkpt lat="44.52869" lon="3.12116">
        <ele>1127</ele>
        <time>2019-06-01T07:59:15.478Z</time>
      </trkpt>
      <trkpt lat="44.52877" lon="3.1211">
        <ele>1129</ele>
        <time>2019-06-01T07:59:20.444Z</time>
      </trkpt>
      <trkpt lat="44.52882" lon="3.12108">
        <ele>1129</ele>
        <time>2019-06-01T07:59:25.473Z</time>
      </trkpt>
      <trkpt lat="44.52887" lon="3.12106">
        <ele>1129</ele>
        <time>2019-06-01T07:59:30.479Z</time>
      </trkpt>
      <trkpt lat="44.5289" lon="3.12104">
        <ele>1129</ele>
        <time>2019-06-01T07:59:35.473Z</time>
      </trkpt>
      <trkpt lat="44.52891" lon="3.12104">
        <ele>1129</ele>
        <time>2019-06-01T07:59:40.477Z</time>
      </trkpt>
      <trkpt lat="44.5289" lon="3.12102">
        <ele>1129</ele>
        <time>2019-06-01T08:00:24.460Z</time>
      </trkpt>
      <trkpt lat="44.52888" lon="3.12106">
        <ele>1129</ele>
        <time>2019-06-01T08:00:29.489Z</time>
      </trkpt>
      <trkpt lat="44.52885" lon="3.12112">
        <ele>1129</ele>
        <time>2019-06-01T08:00:34.459Z</time>
      </trkpt>
      <trkpt lat="44.52884" lon="3.12117">
        <ele>1129</ele>
        <time>2019-06-01T08:00:38.490Z</time>
      </trkpt>
      <trkpt lat="44.52881" lon="3.12121">
        <ele>1129</ele>
        <time>2019-06-01T08:00:43.460Z</time>
      </trkpt>
      <trkpt lat="44.52879" lon="3.1212">
        <ele>1129</ele>
        <time>2019-06-01T08:02:22.460Z</time>
      </trkpt>
      <trkpt lat="44.52878" lon="3.1212">
        <ele>1129</ele>
        <time>2019-06-01T08:02:54.480Z</time>
      </trkpt>
      <trkpt lat="44.52874" lon="3.12123">
        <ele>1127</ele>
        <time>2019-06-01T08:02:59.436Z</time>
      </trkpt>
      <trkpt lat="44.52869" lon="3.12125">
        <ele>1131</ele>
        <time>2019-06-01T08:03:03.477Z</time>
      </trkpt>
      <trkpt lat="44.52866" lon="3.12127">
        <ele>1131</ele>
        <time>2019-06-01T08:03:07.494Z</time>
      </trkpt>
      <trkpt lat="44.52861" lon="3.1213">
        <ele>1131</ele>
        <time>2019-06-01T08:03:12.453Z</time>
      </trkpt>
      <trkpt lat="44.52857" lon="3.12134">
        <ele>1131</ele>
        <time>2019-06-01T08:03:16.459Z</time>
      </trkpt>
      <trkpt lat="44.52854" lon="3.12136">
        <ele>1131</ele>
        <time>2019-06-01T08:03:20.465Z</time>
      </trkpt>
      <trkpt lat="44.52852" lon="3.12139">
        <ele>1131</ele>
        <time>2019-06-01T08:03:25.483Z</time>
      </trkpt>
      <trkpt lat="44.52849" lon="3.12144">
        <ele>1131</ele>
        <time>2019-06-01T08:03:30.455Z</time>
      </trkpt>
      <trkpt lat="44.52848" lon="3.1215">
        <ele>1131</ele>
        <time>2019-06-01T08:03:35.461Z</time>
      </trkpt>
      <trkpt lat="44.52845" lon="3.12154">
        <ele>1132</ele>
        <time>2019-06-01T08:03:40.452Z</time>
      </trkpt>
      <trkpt lat="44.52843" lon="3.12161">
        <ele>1132</ele>
        <time>2019-06-01T08:03:45.489Z</time>
      </trkpt>
      <trkpt lat="44.52841" lon="3.12166">
        <ele>1132</ele>
        <time>2019-06-01T08:03:50.457Z</time>
      </trkpt>
      <trkpt lat="44.52837" lon="3.12173">
        <ele>1132</ele>
        <time>2019-06-01T08:03:55.492Z</time>
      </trkpt>
      <trkpt lat="44.52833" lon="3.12178">
        <ele>1132</ele>
        <time>2019-06-01T08:04:00.501Z</time>
      </trkpt>
      <trkpt lat="44.5283" lon="3.12184">
        <ele>1136</ele>
        <time>2019-06-01T08:04:05.478Z</time>
      </trkpt>
      <trkpt lat="44.52827" lon="3.12191">
        <ele>1136</ele>
        <time>2019-06-01T08:04:10.473Z</time>
      </trkpt>
      <trkpt lat="44.52825" lon="3.12197">
        <ele>1136</ele>
        <time>2019-06-01T08:04:14.486Z</time>
      </trkpt>
      <trkpt lat="44.52821" lon="3.12204">
        <ele>1136</ele>
        <time>2019-06-01T08:04:19.451Z</time>
      </trkpt>
      <trkpt lat="44.52818" lon="3.1221">
        <ele>1137</ele>
        <time>2019-06-01T08:04:24.460Z</time>
      </trkpt>
      <trkpt lat="44.52814" lon="3.12218">
        <ele>1137</ele>
        <time>2019-06-01T08:04:29.457Z</time>
      </trkpt>
      <trkpt lat="44.52812" lon="3.12222">
        <ele>1137</ele>
        <time>2019-06-01T08:04:33.485Z</time>
      </trkpt>
      <trkpt lat="44.52809" lon="3.12228">
        <ele>1137</ele>
        <time>2019-06-01T08:04:38.436Z</time>
      </trkpt>
      <trkpt lat="44.52808" lon="3.12233">
        <ele>1137</ele>
        <time>2019-06-01T08:04:42.498Z</time>
      </trkpt>
      <trkpt lat="44.52805" lon="3.12238">
        <ele>1142</ele>
        <time>2019-06-01T08:04:47.470Z</time>
      </trkpt>
      <trkpt lat="44.52804" lon="3.12244">
        <ele>1142</ele>
        <time>2019-06-01T08:04:52.464Z</time>
      </trkpt>
      <trkpt lat="44.52803" lon="3.12249">
        <ele>1142</ele>
        <time>2019-06-01T08:04:56.489Z</time>
      </trkpt>
      <trkpt lat="44.52801" lon="3.12256">
        <ele>1142</ele>
        <time>2019-06-01T08:05:01.461Z</time>
      </trkpt>
      <trkpt lat="44.52799" lon="3.12263">
        <ele>1142</ele>
        <time>2019-06-01T08:05:06.451Z</time>
      </trkpt>
      <trkpt lat="44.52797" lon="3.12268">
        <ele>1145</ele>
        <time>2019-06-01T08:05:10.458Z</time>
      </trkpt>
      <trkpt lat="44.52795" lon="3.12276">
        <ele>1145</ele>
        <time>2019-06-01T08:05:15.460Z</time>
      </trkpt>
      <trkpt lat="44.52793" lon="3.12284">
        <ele>1145</ele>
        <time>2019-06-01T08:05:20.454Z</time>
      </trkpt>
      <trkpt lat="44.52792" lon="3.1229">
        <ele>1145</ele>
        <time>2019-06-01T08:05:25.461Z</time>
      </trkpt>
      <trkpt lat="44.5279" lon="3.12296">
        <ele>1148</ele>
        <time>2019-06-01T08:05:30.476Z</time>
      </trkpt>
      <trkpt lat="44.52789" lon="3.12302">
        <ele>1148</ele>
        <time>2019-06-01T08:05:35.457Z</time>
      </trkpt>
      <trkpt lat="44.52787" lon="3.12308">
        <ele>1148</ele>
        <time>2019-06-01T08:05:40.457Z</time>
      </trkpt>
      <trkpt lat="44.52786" lon="3.12312">
        <ele>1148</ele>
        <time>2019-06-01T08:05:44.477Z</time>
      </trkpt>
      <trkpt lat="44.52785" lon="3.12317">
        <ele>1148</ele>
        <time>2019-06-01T08:05:48.494Z</time>
      </trkpt>
      <trkpt lat="44.52783" lon="3.12324">
        <ele>1153</ele>
        <time>2019-06-01T08:05:53.451Z</time>
      </trkpt>
      <trkpt lat="44.52782" lon="3.12329">
        <ele>1153</ele>
        <time>2019-06-01T08:05:57.478Z</time>
      </trkpt>
      <trkpt lat="44.52782" lon="3.12336">
        <ele>1153</ele>
        <time>2019-06-01T08:06:02.452Z</time>
      </trkpt>
      <trkpt lat="44.5278" lon="3.12341">
        <ele>1153</ele>
        <time>2019-06-01T08:06:06.460Z</time>
      </trkpt>
      <trkpt lat="44.52779" lon="3.12347">
        <ele>1153</ele>
        <time>2019-06-01T08:06:10.490Z</time>
      </trkpt>
      <trkpt lat="44.52778" lon="3.12355">
        <ele>1156</ele>
        <time>2019-06-01T08:06:15.500Z</time>
      </trkpt>
      <trkpt lat="44.52776" lon="3.12362">
        <ele>1156</ele>
        <time>2019-06-01T08:06:20.466Z</time>
      </trkpt>
      <trkpt lat="44.52774" lon="3.12366">
        <ele>1156</ele>
        <time>2019-06-01T08:06:24.473Z</time>
      </trkpt>
      <trkpt lat="44.52773" lon="3.12371">
        <ele>1156</ele>
        <time>2019-06-01T08:06:29.453Z</time>
      </trkpt>
      <trkpt lat="44.52772" lon="3.12374">
        <ele>1156</ele>
        <time>2019-06-01T08:06:33.455Z</time>
      </trkpt>
      <trkpt lat="44.52771" lon="3.1238">
        <ele>1158</ele>
        <time>2019-06-01T08:06:38.506Z</time>
      </trkpt>
      <trkpt lat="44.52769" lon="3.12385">
        <ele>1158</ele>
        <time>2019-06-01T08:06:43.466Z</time>
      </trkpt>
      <trkpt lat="44.52768" lon="3.12389">
        <ele>1158</ele>
        <time>2019-06-01T08:06:47.478Z</time>
      </trkpt>
      <trkpt lat="44.52767" lon="3.12394">
        <ele>1158</ele>
        <time>2019-06-01T08:06:52.464Z</time>
      </trkpt>
      <trkpt lat="44.52766" lon="3.12399">
        <ele>1158</ele>
        <time>2019-06-01T08:06:57.463Z</time>
      </trkpt>
      <trkpt lat="44.52765" lon="3.12404">
        <ele>1159</ele>
        <time>2019-06-01T08:07:01.490Z</time>
      </trkpt>
      <trkpt lat="44.52763" lon="3.12414">
        <ele>1160</ele>
        <time>2019-06-01T08:07:06.459Z</time>
      </trkpt>
      <trkpt lat="44.52761" lon="3.12423">
        <ele>1160</ele>
        <time>2019-06-01T08:07:11.460Z</time>
      </trkpt>
      <trkpt lat="44.52758" lon="3.12431">
        <ele>1162</ele>
        <time>2019-06-01T08:07:16.456Z</time>
      </trkpt>
      <trkpt lat="44.52756" lon="3.12436">
        <ele>1162</ele>
        <time>2019-06-01T08:07:21.459Z</time>
      </trkpt>
      <trkpt lat="44.52755" lon="3.12442">
        <ele>1162</ele>
        <time>2019-06-01T08:08:14.469Z</time>
      </trkpt>
      <trkpt lat="44.52754" lon="3.12449">
        <ele>1162</ele>
        <time>2019-06-01T08:08:19.454Z</time>
      </trkpt>
      <trkpt lat="44.52752" lon="3.12453">
        <ele>1162</ele>
        <time>2019-06-01T08:08:24.476Z</time>
      </trkpt>
      <trkpt lat="44.52751" lon="3.12459">
        <ele>1165</ele>
        <time>2019-06-01T08:08:29.460Z</time>
      </trkpt>
      <trkpt lat="44.52749" lon="3.12463">
        <ele>1165</ele>
        <time>2019-06-01T08:08:33.483Z</time>
      </trkpt>
      <trkpt lat="44.52749" lon="3.12468">
        <ele>1165</ele>
        <time>2019-06-01T08:08:38.448Z</time>
      </trkpt>
      <trkpt lat="44.52749" lon="3.12474">
        <ele>1165</ele>
        <time>2019-06-01T08:08:42.474Z</time>
      </trkpt>
      <trkpt lat="44.52748" lon="3.12481">
        <ele>1165</ele>
        <time>2019-06-01T08:08:47.488Z</time>
      </trkpt>
      <trkpt lat="44.52748" lon="3.12487">
        <ele>1167</ele>
        <time>2019-06-01T08:08:52.454Z</time>
      </trkpt>
      <trkpt lat="44.52748" lon="3.12493">
        <ele>1167</ele>
        <time>2019-06-01T08:08:56.460Z</time>
      </trkpt>
      <trkpt lat="44.52748" lon="3.12502">
        <ele>1167</ele>
        <time>2019-06-01T08:09:01.460Z</time>
      </trkpt>
      <trkpt lat="44.52748" lon="3.1251">
        <ele>1167</ele>
        <time>2019-06-01T08:09:06.481Z</time>
      </trkpt>
      <trkpt lat="44.52747" lon="3.12519">
        <ele>1170</ele>
        <time>2019-06-01T08:09:11.482Z</time>
      </trkpt>
      <trkpt lat="44.52746" lon="3.12527">
        <ele>1170</ele>
        <time>2019-06-01T08:09:16.448Z</time>
      </trkpt>
      <trkpt lat="44.52746" lon="3.12537">
        <ele>1170</ele>
        <time>2019-06-01T08:09:21.450Z</time>
      </trkpt>
      <trkpt lat="44.52746" lon="3.12546">
        <ele>1173</ele>
        <time>2019-06-01T08:09:25.461Z</time>
      </trkpt>
      <trkpt lat="44.52747" lon="3.12554">
        <ele>1173</ele>
        <time>2019-06-01T08:09:30.459Z</time>
      </trkpt>
      <trkpt lat="44.5275" lon="3.12569">
        <ele>1173</ele>
        <time>2019-06-01T08:09:35.472Z</time>
      </trkpt>
      <trkpt lat="44.52757" lon="3.12583">
        <ele>1176</ele>
        <time>2019-06-01T08:09:40.435Z</time>
      </trkpt>
      <trkpt lat="44.52764" lon="3.1259">
        <ele>1176</ele>
        <time>2019-06-01T08:09:44.460Z</time>
      </trkpt>
      <trkpt lat="44.52766" lon="3.12595">
        <ele>1173</ele>
        <time>2019-06-01T08:09:48.486Z</time>
      </trkpt>
      <trkpt lat="44.52766" lon="3.126">
        <ele>1176</ele>
        <time>2019-06-01T08:09:53.466Z</time>
      </trkpt>
      <trkpt lat="44.52766" lon="3.12603">
        <ele>1176</ele>
        <time>2019-06-01T08:09:58.449Z</time>
      </trkpt>
      <trkpt lat="44.52768" lon="3.12607">
        <ele>1176</ele>
        <time>2019-06-01T08:10:02.464Z</time>
      </trkpt>
      <trkpt lat="44.52768" lon="3.12611">
        <ele>1176</ele>
        <time>2019-06-01T08:10:07.480Z</time>
      </trkpt>
      <trkpt lat="44.52769" lon="3.12616">
        <ele>1176</ele>
        <time>2019-06-01T08:10:12.453Z</time>
      </trkpt>
      <trkpt lat="44.5277" lon="3.12621">
        <ele>1176</ele>
        <time>2019-06-01T08:10:17.459Z</time>
      </trkpt>
      <trkpt lat="44.52771" lon="3.12627">
        <ele>1179</ele>
        <time>2019-06-01T08:10:22.493Z</time>
      </trkpt>
      <trkpt lat="44.52772" lon="3.12635">
        <ele>1179</ele>
        <time>2019-06-01T08:10:27.461Z</time>
      </trkpt>
      <trkpt lat="44.52773" lon="3.12642">
        <ele>1179</ele>
        <time>2019-06-01T08:10:32.459Z</time>
      </trkpt>
      <trkpt lat="44.52775" lon="3.12649">
        <ele>1179</ele>
        <time>2019-06-01T08:10:37.495Z</time>
      </trkpt>
      <trkpt lat="44.52777" lon="3.12655">
        <ele>1181</ele>
        <time>2019-06-01T08:10:42.459Z</time>
      </trkpt>
      <trkpt lat="44.52779" lon="3.12663">
        <ele>1181</ele>
        <time>2019-06-01T08:10:47.478Z</time>
      </trkpt>
      <trkpt lat="44.52781" lon="3.1267">
        <ele>1181</ele>
        <time>2019-06-01T08:10:52.456Z</time>
      </trkpt>
      <trkpt lat="44.52783" lon="3.12676">
        <ele>1181</ele>
        <time>2019-06-01T08:10:56.466Z</time>
      </trkpt>
      <trkpt lat="44.52785" lon="3.12682">
        <ele>1182</ele>
        <time>2019-06-01T08:11:01.466Z</time>
      </trkpt>
      <trkpt lat="44.52791" lon="3.12685">
        <ele>1182</ele>
        <time>2019-06-01T08:11:06.446Z</time>
      </trkpt>
      <trkpt lat="44.52796" lon="3.12685">
        <ele>1181</ele>
        <time>2019-06-01T08:11:10.460Z</time>
      </trkpt>
      <trkpt lat="44.52801" lon="3.12683">
        <ele>1181</ele>
        <time>2019-06-01T08:11:14.480Z</time>
      </trkpt>
      <trkpt lat="44.52808" lon="3.12677">
        <ele>1180</ele>
        <time>2019-06-01T08:11:19.437Z</time>
      </trkpt>
      <trkpt lat="44.52811" lon="3.12672">
        <ele>1180</ele>
        <time>2019-06-01T08:11:23.466Z</time>
      </trkpt>
      <trkpt lat="44.52816" lon="3.12667">
        <ele>1180</ele>
        <time>2019-06-01T08:11:28.481Z</time>
      </trkpt>
      <trkpt lat="44.52819" lon="3.1266">
        <ele>1180</ele>
        <time>2019-06-01T08:11:33.437Z</time>
      </trkpt>
      <trkpt lat="44.52821" lon="3.12658">
        <ele>1180</ele>
        <time>2019-06-01T08:11:37.461Z</time>
      </trkpt>
      <trkpt lat="44.52822" lon="3.12657">
        <ele>1180</ele>
        <time>2019-06-01T08:11:42.456Z</time>
      </trkpt>
      <trkpt lat="44.52823" lon="3.12654">
        <ele>1180</ele>
        <time>2019-06-01T08:12:06.459Z</time>
      </trkpt>
      <trkpt lat="44.52826" lon="3.12648">
        <ele>1179</ele>
        <time>2019-06-01T08:12:11.433Z</time>
      </trkpt>
      <trkpt lat="44.52829" lon="3.12642">
        <ele>1179</ele>
        <time>2019-06-01T08:12:15.457Z</time>
      </trkpt>
      <trkpt lat="44.52833" lon="3.12634">
        <ele>1179</ele>
        <time>2019-06-01T08:12:20.466Z</time>
      </trkpt>
      <trkpt lat="44.52838" lon="3.12627">
        <ele>1179</ele>
        <time>2019-06-01T08:12:25.452Z</time>
      </trkpt>
      <trkpt lat="44.52841" lon="3.12622">
        <ele>1177</ele>
        <time>2019-06-01T08:12:29.461Z</time>
      </trkpt>
      <trkpt lat="44.52845" lon="3.12616">
        <ele>1177</ele>
        <time>2019-06-01T08:12:34.493Z</time>
      </trkpt>
      <trkpt lat="44.52849" lon="3.12611">
        <ele>1179</ele>
        <time>2019-06-01T08:12:39.461Z</time>
      </trkpt>
      <trkpt lat="44.52852" lon="3.12603">
        <ele>1179</ele>
        <time>2019-06-01T08:12:44.457Z</time>
      </trkpt>
      <trkpt lat="44.52855" lon="3.12597">
        <ele>1179</ele>
        <time>2019-06-01T08:12:49.461Z</time>
      </trkpt>
      <trkpt lat="44.52859" lon="3.12589">
        <ele>1179</ele>
        <time>2019-06-01T08:12:54.469Z</time>
      </trkpt>
      <trkpt lat="44.52863" lon="3.12583">
        <ele>1179</ele>
        <time>2019-06-01T08:12:59.458Z</time>
      </trkpt>
      <trkpt lat="44.52866" lon="3.12577">
        <ele>1179</ele>
        <time>2019-06-01T08:13:03.466Z</time>
      </trkpt>
      <trkpt lat="44.52869" lon="3.12573">
        <ele>1179</ele>
        <time>2019-06-01T08:13:07.498Z</time>
      </trkpt>
      <trkpt lat="44.52873" lon="3.12568">
        <ele>1179</ele>
        <time>2019-06-01T08:13:12.463Z</time>
      </trkpt>
      <trkpt lat="44.52876" lon="3.12564">
        <ele>1182</ele>
        <time>2019-06-01T08:13:16.489Z</time>
      </trkpt>
      <trkpt lat="44.52881" lon="3.1256">
        <ele>1182</ele>
        <time>2019-06-01T08:13:21.457Z</time>
      </trkpt>
      <trkpt lat="44.52886" lon="3.12556">
        <ele>1182</ele>
        <time>2019-06-01T08:13:25.491Z</time>
      </trkpt>
      <trkpt lat="44.52891" lon="3.1255">
        <ele>1182</ele>
        <time>2019-06-01T08:13:30.454Z</time>
      </trkpt>
      <trkpt lat="44.52895" lon="3.12546">
        <ele>1182</ele>
        <time>2019-06-01T08:13:34.474Z</time>
      </trkpt>
      <trkpt lat="44.529" lon="3.12541">
        <ele>1181</ele>
        <time>2019-06-01T08:13:39.456Z</time>
      </trkpt>
      <trkpt lat="44.52904" lon="3.12536">
        <ele>1183</ele>
        <time>2019-06-01T08:13:43.467Z</time>
      </trkpt>
      <trkpt lat="44.52908" lon="3.12531">
        <ele>1183</ele>
        <time>2019-06-01T08:13:48.458Z</time>
      </trkpt>
      <trkpt lat="44.52913" lon="3.12526">
        <ele>1183</ele>
        <time>2019-06-01T08:13:53.473Z</time>
      </trkpt>
      <trkpt lat="44.52916" lon="3.12521">
        <ele>1183</ele>
        <time>2019-06-01T08:13:57.495Z</time>
      </trkpt>
      <trkpt lat="44.5292" lon="3.12521">
        <ele>1183</ele>
        <time>2019-06-01T08:14:02.458Z</time>
      </trkpt>
      <trkpt lat="44.52924" lon="3.12515">
        <ele>1183</ele>
        <time>2019-06-01T08:14:07.488Z</time>
      </trkpt>
      <trkpt lat="44.52928" lon="3.12511">
        <ele>1182</ele>
        <time>2019-06-01T08:14:12.452Z</time>
      </trkpt>
      <trkpt lat="44.52932" lon="3.12508">
        <ele>1185</ele>
        <time>2019-06-01T08:14:17.478Z</time>
      </trkpt>
      <trkpt lat="44.52936" lon="3.12504">
        <ele>1185</ele>
        <time>2019-06-01T08:14:22.460Z</time>
      </trkpt>
      <trkpt lat="44.52939" lon="3.125">
        <ele>1185</ele>
        <time>2019-06-01T08:14:26.472Z</time>
      </trkpt>
      <trkpt lat="44.52944" lon="3.12496">
        <ele>1185</ele>
        <time>2019-06-01T08:14:31.465Z</time>
      </trkpt>
      <trkpt lat="44.52948" lon="3.12492">
        <ele>1185</ele>
        <time>2019-06-01T08:14:36.484Z</time>
      </trkpt>
      <trkpt lat="44.52953" lon="3.12487">
        <ele>1185</ele>
        <time>2019-06-01T08:14:41.458Z</time>
      </trkpt>
      <trkpt lat="44.52957" lon="3.12483">
        <ele>1183</ele>
        <time>2019-06-01T08:14:46.452Z</time>
      </trkpt>
      <trkpt lat="44.5296" lon="3.12479">
        <ele>1184</ele>
        <time>2019-06-01T08:14:50.460Z</time>
      </trkpt>
      <trkpt lat="44.52964" lon="3.12475">
        <ele>1184</ele>
        <time>2019-06-01T08:14:55.463Z</time>
      </trkpt>
      <trkpt lat="44.52969" lon="3.12472">
        <ele>1184</ele>
        <time>2019-06-01T08:15:00.450Z</time>
      </trkpt>
      <trkpt lat="44.52973" lon="3.1247">
        <ele>1184</ele>
        <time>2019-06-01T08:15:04.489Z</time>
      </trkpt>
      <trkpt lat="44.52979" lon="3.12467">
        <ele>1184</ele>
        <time>2019-06-01T08:15:09.461Z</time>
      </trkpt>
      <trkpt lat="44.52983" lon="3.12464">
        <ele>1184</ele>
        <time>2019-06-01T08:15:14.492Z</time>
      </trkpt>
      <trkpt lat="44.52988" lon="3.12461">
        <ele>1182</ele>
        <time>2019-06-01T08:15:19.461Z</time>
      </trkpt>
      <trkpt lat="44.52993" lon="3.12459">
        <ele>1182</ele>
        <time>2019-06-01T08:15:24.489Z</time>
      </trkpt>
      <trkpt lat="44.52998" lon="3.12456">
        <ele>1181</ele>
        <time>2019-06-01T08:15:29.471Z</time>
      </trkpt>
      <trkpt lat="44.53004" lon="3.12453">
        <ele>1181</ele>
        <time>2019-06-01T08:15:34.469Z</time>
      </trkpt>
      <trkpt lat="44.53009" lon="3.12451">
        <ele>1181</ele>
        <time>2019-06-01T08:15:39.490Z</time>
      </trkpt>
      <trkpt lat="44.53014" lon="3.12451">
        <ele>1181</ele>
        <time>2019-06-01T08:15:44.476Z</time>
      </trkpt>
      <trkpt lat="44.53019" lon="3.12448">
        <ele>1182</ele>
        <time>2019-06-01T08:15:49.464Z</time>
      </trkpt>
      <trkpt lat="44.53025" lon="3.12445">
        <ele>1182</ele>
        <time>2019-06-01T08:15:54.445Z</time>
      </trkpt>
      <trkpt lat="44.5303" lon="3.12444">
        <ele>1182</ele>
        <time>2019-06-01T08:15:58.491Z</time>
      </trkpt>
      <trkpt lat="44.53036" lon="3.12442">
        <ele>1182</ele>
        <time>2019-06-01T08:16:03.458Z</time>
      </trkpt>
      <trkpt lat="44.53042" lon="3.12441">
        <ele>1182</ele>
        <time>2019-06-01T08:16:08.462Z</time>
      </trkpt>
      <trkpt lat="44.53048" lon="3.12441">
        <ele>1183</ele>
        <time>2019-06-01T08:16:13.456Z</time>
      </trkpt>
      <trkpt lat="44.53052" lon="3.12441">
        <ele>1183</ele>
        <time>2019-06-01T08:16:17.465Z</time>
      </trkpt>
      <trkpt lat="44.53058" lon="3.1244">
        <ele>1183</ele>
        <time>2019-06-01T08:16:22.480Z</time>
      </trkpt>
      <trkpt lat="44.53062" lon="3.12441">
        <ele>1183</ele>
        <time>2019-06-01T08:16:27.461Z</time>
      </trkpt>
      <trkpt lat="44.53066" lon="3.1244">
        <ele>1183</ele>
        <time>2019-06-01T08:16:31.503Z</time>
      </trkpt>
      <trkpt lat="44.53072" lon="3.1244">
        <ele>1182</ele>
        <time>2019-06-01T08:16:36.448Z</time>
      </trkpt>
      <trkpt lat="44.53077" lon="3.12439">
        <ele>1182</ele>
        <time>2019-06-01T08:16:40.467Z</time>
      </trkpt>
      <trkpt lat="44.53081" lon="3.12439">
        <ele>1182</ele>
        <time>2019-06-01T08:16:45.463Z</time>
      </trkpt>
      <trkpt lat="44.53087" lon="3.12438">
        <ele>1182</ele>
        <time>2019-06-01T08:16:50.490Z</time>
      </trkpt>
      <trkpt lat="44.53093" lon="3.12438">
        <ele>1182</ele>
        <time>2019-06-01T08:16:55.462Z</time>
      </trkpt>
      <trkpt lat="44.53099" lon="3.12437">
        <ele>1182</ele>
        <time>2019-06-01T08:17:00.458Z</time>
      </trkpt>
      <trkpt lat="44.53105" lon="3.12436">
        <ele>1182</ele>
        <time>2019-06-01T08:17:05.457Z</time>
      </trkpt>
      <trkpt lat="44.53109" lon="3.12435">
        <ele>1182</ele>
        <time>2019-06-01T08:17:09.478Z</time>
      </trkpt>
      <trkpt lat="44.53114" lon="3.12434">
        <ele>1182</ele>
        <time>2019-06-01T08:17:14.498Z</time>
      </trkpt>
      <trkpt lat="44.53119" lon="3.12436">
        <ele>1182</ele>
        <time>2019-06-01T08:17:19.457Z</time>
      </trkpt>
      <trkpt lat="44.53123" lon="3.12433">
        <ele>1182</ele>
        <time>2019-06-01T08:17:24.463Z</time>
      </trkpt>
      <trkpt lat="44.53126" lon="3.12431">
        <ele>1182</ele>
        <time>2019-06-01T08:17:29.460Z</time>
      </trkpt>
      <trkpt lat="44.53131" lon="3.12431">
        <ele>1182</ele>
        <time>2019-06-01T08:17:34.436Z</time>
      </trkpt>
      <trkpt lat="44.53135" lon="3.12429">
        <ele>1181</ele>
        <time>2019-06-01T08:17:38.450Z</time>
      </trkpt>
      <trkpt lat="44.53138" lon="3.12429">
        <ele>1181</ele>
        <time>2019-06-01T08:17:42.479Z</time>
      </trkpt>
      <trkpt lat="44.53142" lon="3.12429">
        <ele>1181</ele>
        <time>2019-06-01T08:17:47.484Z</time>
      </trkpt>
      <trkpt lat="44.53146" lon="3.12429">
        <ele>1181</ele>
        <time>2019-06-01T08:17:52.459Z</time>
      </trkpt>
      <trkpt lat="44.53147" lon="3.12428">
        <ele>1181</ele>
        <time>2019-06-01T08:17:57.457Z</time>
      </trkpt>
      <trkpt lat="44.53154" lon="3.12427">
        <ele>1181</ele>
        <time>2019-06-01T08:18:02.451Z</time>
      </trkpt>
      <trkpt lat="44.5316" lon="3.12425">
        <ele>1181</ele>
        <time>2019-06-01T08:18:06.482Z</time>
      </trkpt>
      <trkpt lat="44.53168" lon="3.1242">
        <ele>1181</ele>
        <time>2019-06-01T08:18:11.451Z</time>
      </trkpt>
      <trkpt lat="44.53174" lon="3.1242">
        <ele>1181</ele>
        <time>2019-06-01T08:18:16.456Z</time>
      </trkpt>
      <trkpt lat="44.53178" lon="3.12418">
        <ele>1181</ele>
        <time>2019-06-01T08:18:21.458Z</time>
      </trkpt>
      <trkpt lat="44.53181" lon="3.12414">
        <ele>1181</ele>
        <time>2019-06-01T08:18:26.463Z</time>
      </trkpt>
      <trkpt lat="44.53182" lon="3.12414">
        <ele>1181</ele>
        <time>2019-06-01T08:18:31.459Z</time>
      </trkpt>
      <trkpt lat="44.53185" lon="3.12413">
        <ele>1181</ele>
        <time>2019-06-01T08:18:36.446Z</time>
      </trkpt>
      <trkpt lat="44.53188" lon="3.12412">
        <ele>1181</ele>
        <time>2019-06-01T08:18:40.457Z</time>
      </trkpt>
      <trkpt lat="44.5319" lon="3.12411">
        <ele>1181</ele>
        <time>2019-06-01T08:18:45.471Z</time>
      </trkpt>
      <trkpt lat="44.53197" lon="3.12408">
        <ele>1181</ele>
        <time>2019-06-01T08:18:50.480Z</time>
      </trkpt>
      <trkpt lat="44.53202" lon="3.12405">
        <ele>1181</ele>
        <time>2019-06-01T08:18:54.496Z</time>
      </trkpt>
      <trkpt lat="44.53209" lon="3.12398">
        <ele>1182</ele>
        <time>2019-06-01T08:18:59.469Z</time>
      </trkpt>
      <trkpt lat="44.53211" lon="3.12392">
        <ele>1182</ele>
        <time>2019-06-01T08:19:04.472Z</time>
      </trkpt>
      <trkpt lat="44.53212" lon="3.12381">
        <ele>1182</ele>
        <time>2019-06-01T08:19:37.442Z</time>
      </trkpt>
      <trkpt lat="44.53216" lon="3.12372">
        <ele>1180</ele>
        <time>2019-06-01T08:19:41.466Z</time>
      </trkpt>
      <trkpt lat="44.5322" lon="3.12368">
        <ele>1180</ele>
        <time>2019-06-01T08:19:46.435Z</time>
      </trkpt>
      <trkpt lat="44.53222" lon="3.12365">
        <ele>1180</ele>
        <time>2019-06-01T08:19:51.440Z</time>
      </trkpt>
      <trkpt lat="44.53224" lon="3.12364">
        <ele>1180</ele>
        <time>2019-06-01T08:20:05.447Z</time>
      </trkpt>
      <trkpt lat="44.53229" lon="3.1236">
        <ele>1180</ele>
        <time>2019-06-01T08:20:10.436Z</time>
      </trkpt>
      <trkpt lat="44.53235" lon="3.12352">
        <ele>1180</ele>
        <time>2019-06-01T08:20:15.434Z</time>
      </trkpt>
      <trkpt lat="44.5324" lon="3.12347">
        <ele>1181</ele>
        <time>2019-06-01T08:20:20.449Z</time>
      </trkpt>
      <trkpt lat="44.53246" lon="3.12341">
        <ele>1181</ele>
        <time>2019-06-01T08:20:25.436Z</time>
      </trkpt>
      <trkpt lat="44.53251" lon="3.12338">
        <ele>1181</ele>
        <time>2019-06-01T08:20:30.448Z</time>
      </trkpt>
      <trkpt lat="44.53254" lon="3.12335">
        <ele>1181</ele>
        <time>2019-06-01T08:20:35.448Z</time>
      </trkpt>
      <trkpt lat="44.53259" lon="3.12332">
        <ele>1181</ele>
        <time>2019-06-01T08:20:40.468Z</time>
      </trkpt>
      <trkpt lat="44.53263" lon="3.12327">
        <ele>1181</ele>
        <time>2019-06-01T08:20:45.440Z</time>
      </trkpt>
      <trkpt lat="44.53266" lon="3.12323">
        <ele>1184</ele>
        <time>2019-06-01T08:20:50.485Z</time>
      </trkpt>
      <trkpt lat="44.53269" lon="3.12321">
        <ele>1184</ele>
        <time>2019-06-01T08:20:55.443Z</time>
      </trkpt>
      <trkpt lat="44.53271" lon="3.1232">
        <ele>1184</ele>
        <time>2019-06-01T08:20:59.475Z</time>
      </trkpt>
      <trkpt lat="44.53272" lon="3.12319">
        <ele>1182</ele>
        <time>2019-06-01T08:21:04.459Z</time>
      </trkpt>
      <trkpt lat="44.53274" lon="3.12321">
        <ele>1184</ele>
        <time>2019-06-01T08:21:23.454Z</time>
      </trkpt>
      <trkpt lat="44.53278" lon="3.12322">
        <ele>1184</ele>
        <time>2019-06-01T08:21:33.451Z</time>
      </trkpt>
      <trkpt lat="44.5328" lon="3.12323">
        <ele>1184</ele>
        <time>2019-06-01T08:21:37.455Z</time>
      </trkpt>
      <trkpt lat="44.53284" lon="3.12324">
        <ele>1184</ele>
        <time>2019-06-01T08:21:41.481Z</time>
      </trkpt>
      <trkpt lat="44.53288" lon="3.12325">
        <ele>1184</ele>
        <time>2019-06-01T08:21:46.457Z</time>
      </trkpt>
      <trkpt lat="44.53293" lon="3.12324">
        <ele>1187</ele>
        <time>2019-06-01T08:21:51.460Z</time>
      </trkpt>
      <trkpt lat="44.53297" lon="3.12319">
        <ele>1183</ele>
        <time>2019-06-01T08:21:55.442Z</time>
      </trkpt>
      <trkpt lat="44.533" lon="3.12311">
        <ele>1183</ele>
        <time>2019-06-01T08:22:00.466Z</time>
      </trkpt>
      <trkpt lat="44.53301" lon="3.12309">
        <ele>1183</ele>
        <time>2019-06-01T08:22:05.439Z</time>
      </trkpt>
      <trkpt lat="44.53306" lon="3.12303">
        <ele>1183</ele>
        <time>2019-06-01T08:22:09.451Z</time>
      </trkpt>
      <trkpt lat="44.53311" lon="3.12298">
        <ele>1183</ele>
        <time>2019-06-01T08:22:14.479Z</time>
      </trkpt>
      <trkpt lat="44.53315" lon="3.12292">
        <ele>1183</ele>
        <time>2019-06-01T08:22:19.438Z</time>
      </trkpt>
      <trkpt lat="44.53319" lon="3.12287">
        <ele>1181</ele>
        <time>2019-06-01T08:22:23.436Z</time>
      </trkpt>
      <trkpt lat="44.53321" lon="3.12283">
        <ele>1184</ele>
        <time>2019-06-01T08:22:27.450Z</time>
      </trkpt>
      <trkpt lat="44.53326" lon="3.1228">
        <ele>1184</ele>
        <time>2019-06-01T08:22:32.464Z</time>
      </trkpt>
      <trkpt lat="44.53329" lon="3.12277">
        <ele>1184</ele>
        <time>2019-06-01T08:22:37.441Z</time>
      </trkpt>
      <trkpt lat="44.53333" lon="3.1228">
        <ele>1184</ele>
        <time>2019-06-01T08:22:42.466Z</time>
      </trkpt>
      <trkpt lat="44.53336" lon="3.12281">
        <ele>1184</ele>
        <time>2019-06-01T08:22:46.479Z</time>
      </trkpt>
      <trkpt lat="44.53339" lon="3.12283">
        <ele>1184</ele>
        <time>2019-06-01T08:22:51.453Z</time>
      </trkpt>
      <trkpt lat="44.53344" lon="3.12283">
        <ele>1184</ele>
        <time>2019-06-01T08:22:56.471Z</time>
      </trkpt>
      <trkpt lat="44.53348" lon="3.12285">
        <ele>1190</ele>
        <time>2019-06-01T08:23:00.497Z</time>
      </trkpt>
      <trkpt lat="44.53353" lon="3.12287">
        <ele>1190</ele>
        <time>2019-06-01T08:23:05.455Z</time>
      </trkpt>
      <trkpt lat="44.53356" lon="3.1229">
        <ele>1190</ele>
        <time>2019-06-01T08:23:10.457Z</time>
      </trkpt>
      <trkpt lat="44.5336" lon="3.12289">
        <ele>1190</ele>
        <time>2019-06-01T08:23:15.490Z</time>
      </trkpt>
      <trkpt lat="44.53364" lon="3.12288">
        <ele>1190</ele>
        <time>2019-06-01T08:23:20.454Z</time>
      </trkpt>
      <trkpt lat="44.53366" lon="3.12288">
        <ele>1190</ele>
        <time>2019-06-01T08:23:24.482Z</time>
      </trkpt>
      <trkpt lat="44.53369" lon="3.12288">
        <ele>1190</ele>
        <time>2019-06-01T08:23:29.486Z</time>
      </trkpt>
      <trkpt lat="44.53373" lon="3.12288">
        <ele>1190</ele>
        <time>2019-06-01T08:23:34.451Z</time>
      </trkpt>
      <trkpt lat="44.53376" lon="3.12287">
        <ele>1195</ele>
        <time>2019-06-01T08:23:39.485Z</time>
      </trkpt>
      <trkpt lat="44.53378" lon="3.12285">
        <ele>1195</ele>
        <time>2019-06-01T08:23:44.452Z</time>
      </trkpt>
      <trkpt lat="44.53383" lon="3.12284">
        <ele>1195</ele>
        <time>2019-06-01T08:23:49.484Z</time>
      </trkpt>
      <trkpt lat="44.5339" lon="3.1228">
        <ele>1195</ele>
        <time>2019-06-01T08:23:54.450Z</time>
      </trkpt>
      <trkpt lat="44.53395" lon="3.12278">
        <ele>1195</ele>
        <time>2019-06-01T08:23:58.457Z</time>
      </trkpt>
      <trkpt lat="44.53401" lon="3.12275">
        <ele>1195</ele>
        <time>2019-06-01T08:24:03.452Z</time>
      </trkpt>
      <trkpt lat="44.53406" lon="3.12273">
        <ele>1198</ele>
        <time>2019-06-01T08:24:07.457Z</time>
      </trkpt>
      <trkpt lat="44.53411" lon="3.12272">
        <ele>1198</ele>
        <time>2019-06-01T08:24:12.493Z</time>
      </trkpt>
      <trkpt lat="44.53415" lon="3.1227">
        <ele>1198</ele>
        <time>2019-06-01T08:24:17.486Z</time>
      </trkpt>
      <trkpt lat="44.53418" lon="3.12266">
        <ele>1198</ele>
        <time>2019-06-01T08:24:22.455Z</time>
      </trkpt>
      <trkpt lat="44.53421" lon="3.12266">
        <ele>1198</ele>
        <time>2019-06-01T08:24:27.477Z</time>
      </trkpt>
      <trkpt lat="44.53427" lon="3.12268">
        <ele>1198</ele>
        <time>2019-06-01T08:24:32.451Z</time>
      </trkpt>
      <trkpt lat="44.53433" lon="3.12267">
        <ele>1201</ele>
        <time>2019-06-01T08:24:37.457Z</time>
      </trkpt>
      <trkpt lat="44.53438" lon="3.12265">
        <ele>1201</ele>
        <time>2019-06-01T08:24:42.452Z</time>
      </trkpt>
      <trkpt lat="44.5344" lon="3.12265">
        <ele>1201</ele>
        <time>2019-06-01T08:24:46.457Z</time>
      </trkpt>
      <trkpt lat="44.53445" lon="3.12262">
        <ele>1200</ele>
        <time>2019-06-01T08:24:51.452Z</time>
      </trkpt>
      <trkpt lat="44.53448" lon="3.12259">
        <ele>1200</ele>
        <time>2019-06-01T08:24:55.455Z</time>
      </trkpt>
      <trkpt lat="44.53451" lon="3.12257">
        <ele>1200</ele>
        <time>2019-06-01T08:24:59.485Z</time>
      </trkpt>
      <trkpt lat="44.53455" lon="3.12254">
        <ele>1200</ele>
        <time>2019-06-01T08:25:04.455Z</time>
      </trkpt>
      <trkpt lat="44.53457" lon="3.12251">
        <ele>1200</ele>
        <time>2019-06-01T08:25:09.451Z</time>
      </trkpt>
      <trkpt lat="44.53464" lon="3.12243">
        <ele>1202</ele>
        <time>2019-06-01T08:25:14.486Z</time>
      </trkpt>
      <trkpt lat="44.53468" lon="3.12238">
        <ele>1202</ele>
        <time>2019-06-01T08:25:19.453Z</time>
      </trkpt>
      <trkpt lat="44.53471" lon="3.12233">
        <ele>1201</ele>
        <time>2019-06-01T08:25:24.456Z</time>
      </trkpt>
      <trkpt lat="44.53475" lon="3.1223">
        <ele>1201</ele>
        <time>2019-06-01T08:25:29.452Z</time>
      </trkpt>
      <trkpt lat="44.53479" lon="3.12228">
        <ele>1201</ele>
        <time>2019-06-01T08:25:33.479Z</time>
      </trkpt>
      <trkpt lat="44.53483" lon="3.12226">
        <ele>1201</ele>
        <time>2019-06-01T08:25:38.468Z</time>
      </trkpt>
      <trkpt lat="44.53485" lon="3.12225">
        <ele>1201</ele>
        <time>2019-06-01T08:25:43.452Z</time>
      </trkpt>
      <trkpt lat="44.53488" lon="3.12225">
        <ele>1204</ele>
        <time>2019-06-01T08:25:48.462Z</time>
      </trkpt>
      <trkpt lat="44.53494" lon="3.12224">
        <ele>1204</ele>
        <time>2019-06-01T08:25:53.450Z</time>
      </trkpt>
      <trkpt lat="44.53497" lon="3.12223">
        <ele>1204</ele>
        <time>2019-06-01T08:25:57.455Z</time>
      </trkpt>
      <trkpt lat="44.53503" lon="3.12225">
        <ele>1204</ele>
        <time>2019-06-01T08:26:02.453Z</time>
      </trkpt>
      <trkpt lat="44.53507" lon="3.12226">
        <ele>1204</ele>
        <time>2019-06-01T08:26:07.450Z</time>
      </trkpt>
      <trkpt lat="44.53511" lon="3.12227">
        <ele>1204</ele>
        <time>2019-06-01T08:26:11.485Z</time>
      </trkpt>
      <trkpt lat="44.53517" lon="3.12225">
        <ele>1207</ele>
        <time>2019-06-01T08:26:16.490Z</time>
      </trkpt>
      <trkpt lat="44.53526" lon="3.1222">
        <ele>1207</ele>
        <time>2019-06-01T08:26:21.462Z</time>
      </trkpt>
      <trkpt lat="44.53534" lon="3.12216">
        <ele>1207</ele>
        <time>2019-06-01T08:26:26.460Z</time>
      </trkpt>
      <trkpt lat="44.53537" lon="3.12214">
        <ele>1207</ele>
        <time>2019-06-01T08:26:35.480Z</time>
      </trkpt>
      <trkpt lat="44.5354" lon="3.12212">
        <ele>1207</ele>
        <time>2019-06-01T08:26:40.450Z</time>
      </trkpt>
      <trkpt lat="44.53543" lon="3.12209">
        <ele>1210</ele>
        <time>2019-06-01T08:26:49.450Z</time>
      </trkpt>
      <trkpt lat="44.53546" lon="3.12207">
        <ele>1211</ele>
        <time>2019-06-01T08:26:54.455Z</time>
      </trkpt>
      <trkpt lat="44.53547" lon="3.12205">
        <ele>1211</ele>
        <time>2019-06-01T08:27:57.453Z</time>
      </trkpt>
      <trkpt lat="44.53548" lon="3.12206">
        <ele>1211</ele>
        <time>2019-06-01T08:28:07.463Z</time>
      </trkpt>
      <trkpt lat="44.53551" lon="3.12204">
        <ele>1211</ele>
        <time>2019-06-01T08:28:12.449Z</time>
      </trkpt>
      <trkpt lat="44.53553" lon="3.122">
        <ele>1211</ele>
        <time>2019-06-01T08:28:16.478Z</time>
      </trkpt>
      <trkpt lat="44.53555" lon="3.12195">
        <ele>1211</ele>
        <time>2019-06-01T08:28:21.485Z</time>
      </trkpt>
      <trkpt lat="44.53556" lon="3.12191">
        <ele>1211</ele>
        <time>2019-06-01T08:28:26.459Z</time>
      </trkpt>
      <trkpt lat="44.53557" lon="3.12188">
        <ele>1211</ele>
        <time>2019-06-01T08:28:31.456Z</time>
      </trkpt>
      <trkpt lat="44.53558" lon="3.12187">
        <ele>1211</ele>
        <time>2019-06-01T08:28:40.453Z</time>
      </trkpt>
      <trkpt lat="44.53559" lon="3.12182">
        <ele>1211</ele>
        <time>2019-06-01T08:28:44.481Z</time>
      </trkpt>
      <trkpt lat="44.53561" lon="3.12176">
        <ele>1210</ele>
        <time>2019-06-01T08:28:49.451Z</time>
      </trkpt>
      <trkpt lat="44.53561" lon="3.12171">
        <ele>1210</ele>
        <time>2019-06-01T08:28:53.486Z</time>
      </trkpt>
      <trkpt lat="44.53565" lon="3.12164">
        <ele>1210</ele>
        <time>2019-06-01T08:28:58.452Z</time>
      </trkpt>
      <trkpt lat="44.53569" lon="3.12156">
        <ele>1210</ele>
        <time>2019-06-01T08:29:03.491Z</time>
      </trkpt>
      <trkpt lat="44.53572" lon="3.12149">
        <ele>1213</ele>
        <time>2019-06-01T08:29:08.454Z</time>
      </trkpt>
      <trkpt lat="44.53573" lon="3.12143">
        <ele>1213</ele>
        <time>2019-06-01T08:29:13.455Z</time>
      </trkpt>
      <trkpt lat="44.53573" lon="3.12138">
        <ele>1213</ele>
        <time>2019-06-01T08:29:17.487Z</time>
      </trkpt>
      <trkpt lat="44.53573" lon="3.12132">
        <ele>1213</ele>
        <time>2019-06-01T08:29:22.462Z</time>
      </trkpt>
      <trkpt lat="44.53574" lon="3.12127">
        <ele>1213</ele>
        <time>2019-06-01T08:29:27.448Z</time>
      </trkpt>
      <trkpt lat="44.53576" lon="3.12123">
        <ele>1211</ele>
        <time>2019-06-01T08:29:31.457Z</time>
      </trkpt>
      <trkpt lat="44.53578" lon="3.12119">
        <ele>1211</ele>
        <time>2019-06-01T08:29:35.486Z</time>
      </trkpt>
      <trkpt lat="44.53578" lon="3.12112">
        <ele>1211</ele>
        <time>2019-06-01T08:29:40.481Z</time>
      </trkpt>
      <trkpt lat="44.53579" lon="3.12103">
        <ele>1211</ele>
        <time>2019-06-01T08:29:45.457Z</time>
      </trkpt>
      <trkpt lat="44.53581" lon="3.12095">
        <ele>1210</ele>
        <time>2019-06-01T08:29:50.457Z</time>
      </trkpt>
      <trkpt lat="44.53584" lon="3.12091">
        <ele>1210</ele>
        <time>2019-06-01T08:29:55.449Z</time>
      </trkpt>
      <trkpt lat="44.53586" lon="3.12086">
        <ele>1210</ele>
        <time>2019-06-01T08:30:00.458Z</time>
      </trkpt>
      <trkpt lat="44.53588" lon="3.12076">
        <ele>1210</ele>
        <time>2019-06-01T08:30:05.462Z</time>
      </trkpt>
      <trkpt lat="44.53588" lon="3.12066">
        <ele>1209</ele>
        <time>2019-06-01T08:30:10.454Z</time>
      </trkpt>
      <trkpt lat="44.53588" lon="3.12055">
        <ele>1209</ele>
        <time>2019-06-01T08:30:20.455Z</time>
      </trkpt>
      <trkpt lat="44.53591" lon="3.12051">
        <ele>1209</ele>
        <time>2019-06-01T08:30:24.480Z</time>
      </trkpt>
      <trkpt lat="44.53593" lon="3.12046">
        <ele>1209</ele>
        <time>2019-06-01T08:30:29.449Z</time>
      </trkpt>
      <trkpt lat="44.53596" lon="3.12043">
        <ele>1209</ele>
        <time>2019-06-01T08:30:34.454Z</time>
      </trkpt>
      <trkpt lat="44.53596" lon="3.12039">
        <ele>1209</ele>
        <time>2019-06-01T08:30:38.495Z</time>
      </trkpt>
      <trkpt lat="44.53596" lon="3.12032">
        <ele>1209</ele>
        <time>2019-06-01T08:30:43.454Z</time>
      </trkpt>
      <trkpt lat="44.53597" lon="3.12027">
        <ele>1209</ele>
        <time>2019-06-01T08:30:47.461Z</time>
      </trkpt>
      <trkpt lat="44.53599" lon="3.12021">
        <ele>1214</ele>
        <time>2019-06-01T08:30:52.486Z</time>
      </trkpt>
      <trkpt lat="44.53601" lon="3.12016">
        <ele>1214</ele>
        <time>2019-06-01T08:30:57.432Z</time>
      </trkpt>
      <trkpt lat="44.53603" lon="3.12012">
        <ele>1213</ele>
        <time>2019-06-01T08:31:01.486Z</time>
      </trkpt>
      <trkpt lat="44.53602" lon="3.12007">
        <ele>1213</ele>
        <time>2019-06-01T08:31:06.451Z</time>
      </trkpt>
      <trkpt lat="44.53601" lon="3.11999">
        <ele>1213</ele>
        <time>2019-06-01T08:31:11.452Z</time>
      </trkpt>
      <trkpt lat="44.53598" lon="3.11993">
        <ele>1213</ele>
        <time>2019-06-01T08:31:16.436Z</time>
      </trkpt>
      <trkpt lat="44.53595" lon="3.11987">
        <ele>1209</ele>
        <time>2019-06-01T08:31:20.490Z</time>
      </trkpt>
      <trkpt lat="44.53593" lon="3.11979">
        <ele>1209</ele>
        <time>2019-06-01T08:31:25.457Z</time>
      </trkpt>
      <trkpt lat="44.53594" lon="3.11972">
        <ele>1209</ele>
        <time>2019-06-01T08:31:30.466Z</time>
      </trkpt>
      <trkpt lat="44.53594" lon="3.11964">
        <ele>1209</ele>
        <time>2019-06-01T08:31:35.454Z</time>
      </trkpt>
      <trkpt lat="44.53593" lon="3.11959">
        <ele>1209</ele>
        <time>2019-06-01T08:31:40.450Z</time>
      </trkpt>
      <trkpt lat="44.53591" lon="3.11954">
        <ele>1210</ele>
        <time>2019-06-01T08:31:44.459Z</time>
      </trkpt>
      <trkpt lat="44.53592" lon="3.1195">
        <ele>1210</ele>
        <time>2019-06-01T08:31:49.477Z</time>
      </trkpt>
      <trkpt lat="44.53592" lon="3.11944">
        <ele>1210</ele>
        <time>2019-06-01T08:31:54.464Z</time>
      </trkpt>
      <trkpt lat="44.53588" lon="3.11935">
        <ele>1210</ele>
        <time>2019-06-01T08:31:59.451Z</time>
      </trkpt>
      <trkpt lat="44.53586" lon="3.11926">
        <ele>1211</ele>
        <time>2019-06-01T08:32:04.457Z</time>
      </trkpt>
      <trkpt lat="44.53583" lon="3.1192">
        <ele>1211</ele>
        <time>2019-06-01T08:32:09.449Z</time>
      </trkpt>
      <trkpt lat="44.53582" lon="3.11917">
        <ele>1211</ele>
        <time>2019-06-01T08:32:13.454Z</time>
      </trkpt>
      <trkpt lat="44.53583" lon="3.11911">
        <ele>1211</ele>
        <time>2019-06-01T08:32:18.453Z</time>
      </trkpt>
      <trkpt lat="44.53584" lon="3.11906">
        <ele>1211</ele>
        <time>2019-06-01T08:32:22.457Z</time>
      </trkpt>
      <trkpt lat="44.53584" lon="3.11901">
        <ele>1211</ele>
        <time>2019-06-01T08:32:27.454Z</time>
      </trkpt>
      <trkpt lat="44.53584" lon="3.11896">
        <ele>1211</ele>
        <time>2019-06-01T08:32:36.484Z</time>
      </trkpt>
      <trkpt lat="44.53585" lon="3.11894">
        <ele>1211</ele>
        <time>2019-06-01T08:33:16.455Z</time>
      </trkpt>
      <trkpt lat="44.53587" lon="3.11891">
        <ele>1211</ele>
        <time>2019-06-01T08:33:21.458Z</time>
      </trkpt>
      <trkpt lat="44.53588" lon="3.1189">
        <ele>1211</ele>
        <time>2019-06-01T08:33:26.457Z</time>
      </trkpt>
      <trkpt lat="44.53591" lon="3.11887">
        <ele>1211</ele>
        <time>2019-06-01T08:33:30.490Z</time>
      </trkpt>
      <trkpt lat="44.53595" lon="3.11885">
        <ele>1211</ele>
        <time>2019-06-01T08:33:45.455Z</time>
      </trkpt>
      <trkpt lat="44.53598" lon="3.11884">
        <ele>1214</ele>
        <time>2019-06-01T08:33:49.480Z</time>
      </trkpt>
      <trkpt lat="44.536" lon="3.11885">
        <ele>1214</ele>
        <time>2019-06-01T08:33:54.486Z</time>
      </trkpt>
      <trkpt lat="44.53601" lon="3.11883">
        <ele>1214</ele>
        <time>2019-06-01T08:33:59.484Z</time>
      </trkpt>
      <trkpt lat="44.53604" lon="3.11882">
        <ele>1214</ele>
        <time>2019-06-01T08:34:04.452Z</time>
      </trkpt>
      <trkpt lat="44.53608" lon="3.11881">
        <ele>1214</ele>
        <time>2019-06-01T08:34:08.465Z</time>
      </trkpt>
      <trkpt lat="44.53612" lon="3.11879">
        <ele>1214</ele>
        <time>2019-06-01T08:34:13.453Z</time>
      </trkpt>
      <trkpt lat="44.53616" lon="3.11877">
        <ele>1214</ele>
        <time>2019-06-01T08:34:17.493Z</time>
      </trkpt>
      <trkpt lat="44.53617" lon="3.11876">
        <ele>1214</ele>
        <time>2019-06-01T08:34:22.467Z</time>
      </trkpt>
      <trkpt lat="44.53621" lon="3.11876">
        <ele>1214</ele>
        <time>2019-06-01T08:34:26.485Z</time>
      </trkpt>
      <trkpt lat="44.53627" lon="3.11874">
        <ele>1215</ele>
        <time>2019-06-01T08:34:31.487Z</time>
      </trkpt>
      <trkpt lat="44.53631" lon="3.11873">
        <ele>1215</ele>
        <time>2019-06-01T08:34:36.450Z</time>
      </trkpt>
      <trkpt lat="44.53632" lon="3.11872">
        <ele>1215</ele>
        <time>2019-06-01T08:34:41.451Z</time>
      </trkpt>
      <trkpt lat="44.53633" lon="3.1187">
        <ele>1215</ele>
        <time>2019-06-01T08:34:46.458Z</time>
      </trkpt>
      <trkpt lat="44.53634" lon="3.11868">
        <ele>1215</ele>
        <time>2019-06-01T08:34:51.434Z</time>
      </trkpt>
      <trkpt lat="44.53637" lon="3.11864">
        <ele>1215</ele>
        <time>2019-06-01T08:35:00.455Z</time>
      </trkpt>
      <trkpt lat="44.53639" lon="3.11863">
        <ele>1215</ele>
        <time>2019-06-01T08:35:05.454Z</time>
      </trkpt>
      <trkpt lat="44.53643" lon="3.11856">
        <ele>1215</ele>
        <time>2019-06-01T08:35:10.484Z</time>
      </trkpt>
      <trkpt lat="44.53649" lon="3.11846">
        <ele>1213</ele>
        <time>2019-06-01T08:35:15.455Z</time>
      </trkpt>
      <trkpt lat="44.53652" lon="3.11838">
        <ele>1213</ele>
        <time>2019-06-01T08:35:19.464Z</time>
      </trkpt>
      <trkpt lat="44.53652" lon="3.11837">
        <ele>1213</ele>
        <time>2019-06-01T08:35:24.456Z</time>
      </trkpt>
      <trkpt lat="44.53652" lon="3.11832">
        <ele>1213</ele>
        <time>2019-06-01T08:36:21.456Z</time>
      </trkpt>
      <trkpt lat="44.53653" lon="3.11821">
        <ele>1215</ele>
        <time>2019-06-01T08:36:26.460Z</time>
      </trkpt>
      <trkpt lat="44.53653" lon="3.11813">
        <ele>1210</ele>
        <time>2019-06-01T08:36:31.456Z</time>
      </trkpt>
      <trkpt lat="44.53651" lon="3.11807">
        <ele>1210</ele>
        <time>2019-06-01T08:36:35.478Z</time>
      </trkpt>
      <trkpt lat="44.5365" lon="3.11799">
        <ele>1210</ele>
        <time>2019-06-01T08:36:40.482Z</time>
      </trkpt>
      <trkpt lat="44.53651" lon="3.11794">
        <ele>1210</ele>
        <time>2019-06-01T08:36:45.455Z</time>
      </trkpt>
      <trkpt lat="44.53651" lon="3.11788">
        <ele>1210</ele>
        <time>2019-06-01T08:36:50.454Z</time>
      </trkpt>
      <trkpt lat="44.5365" lon="3.11785">
        <ele>1210</ele>
        <time>2019-06-01T08:36:55.459Z</time>
      </trkpt>
      <trkpt lat="44.53648" lon="3.11779">
        <ele>1210</ele>
        <time>2019-06-01T08:37:00.490Z</time>
      </trkpt>
      <trkpt lat="44.53648" lon="3.11774">
        <ele>1210</ele>
        <time>2019-06-01T08:37:05.456Z</time>
      </trkpt>
      <trkpt lat="44.53648" lon="3.11769">
        <ele>1210</ele>
        <time>2019-06-01T08:37:10.456Z</time>
      </trkpt>
      <trkpt lat="44.5365" lon="3.11766">
        <ele>1210</ele>
        <time>2019-06-01T08:37:14.456Z</time>
      </trkpt>
      <trkpt lat="44.53651" lon="3.11762">
        <ele>1210</ele>
        <time>2019-06-01T08:37:19.485Z</time>
      </trkpt>
      <trkpt lat="44.53651" lon="3.11757">
        <ele>1210</ele>
        <time>2019-06-01T08:37:24.447Z</time>
      </trkpt>
      <trkpt lat="44.53652" lon="3.11752">
        <ele>1210</ele>
        <time>2019-06-01T08:37:28.466Z</time>
      </trkpt>
      <trkpt lat="44.53653" lon="3.11751">
        <ele>1210</ele>
        <time>2019-06-01T08:37:33.454Z</time>
      </trkpt>
      <trkpt lat="44.53655" lon="3.11743">
        <ele>1213</ele>
        <time>2019-06-01T08:37:56.481Z</time>
      </trkpt>
      <trkpt lat="44.53656" lon="3.11735">
        <ele>1214</ele>
        <time>2019-06-01T08:38:01.447Z</time>
      </trkpt>
      <trkpt lat="44.53658" lon="3.11729">
        <ele>1214</ele>
        <time>2019-06-01T08:38:05.453Z</time>
      </trkpt>
      <trkpt lat="44.53662" lon="3.11724">
        <ele>1214</ele>
        <time>2019-06-01T08:38:10.455Z</time>
      </trkpt>
      <trkpt lat="44.53663" lon="3.11721">
        <ele>1214</ele>
        <time>2019-06-01T08:38:14.461Z</time>
      </trkpt>
      <trkpt lat="44.53665" lon="3.11713">
        <ele>1214</ele>
        <time>2019-06-01T08:38:24.452Z</time>
      </trkpt>
      <trkpt lat="44.53665" lon="3.1171">
        <ele>1214</ele>
        <time>2019-06-01T08:38:28.483Z</time>
      </trkpt>
      <trkpt lat="44.53668" lon="3.11708">
        <ele>1213</ele>
        <time>2019-06-01T08:38:33.483Z</time>
      </trkpt>
      <trkpt lat="44.53669" lon="3.11706">
        <ele>1213</ele>
        <time>2019-06-01T08:38:38.457Z</time>
      </trkpt>
      <trkpt lat="44.53669" lon="3.11703">
        <ele>1213</ele>
        <time>2019-06-01T08:38:43.458Z</time>
      </trkpt>
      <trkpt lat="44.5367" lon="3.11697">
        <ele>1213</ele>
        <time>2019-06-01T08:38:52.461Z</time>
      </trkpt>
      <trkpt lat="44.53671" lon="3.11692">
        <ele>1213</ele>
        <time>2019-06-01T08:38:57.449Z</time>
      </trkpt>
      <trkpt lat="44.53672" lon="3.11691">
        <ele>1213</ele>
        <time>2019-06-01T08:39:25.458Z</time>
      </trkpt>
      <trkpt lat="44.53673" lon="3.11691">
        <ele>1213</ele>
        <time>2019-06-01T08:39:30.461Z</time>
      </trkpt>
      <trkpt lat="44.53675" lon="3.11689">
        <ele>1213</ele>
        <time>2019-06-01T08:41:32.455Z</time>
      </trkpt>
      <trkpt lat="44.53678" lon="3.11678">
        <ele>1213</ele>
        <time>2019-06-01T08:41:37.480Z</time>
      </trkpt>
      <trkpt lat="44.53678" lon="3.11674">
        <ele>1213</ele>
        <time>2019-06-01T08:41:42.489Z</time>
      </trkpt>
      <trkpt lat="44.53678" lon="3.11671">
        <ele>1213</ele>
        <time>2019-06-01T08:41:47.456Z</time>
      </trkpt>
      <trkpt lat="44.5368" lon="3.11664">
        <ele>1213</ele>
        <time>2019-06-01T08:41:52.457Z</time>
      </trkpt>
      <trkpt lat="44.53683" lon="3.11658">
        <ele>1217</ele>
        <time>2019-06-01T08:41:57.452Z</time>
      </trkpt>
      <trkpt lat="44.53685" lon="3.11653">
        <ele>1218</ele>
        <time>2019-06-01T08:42:01.454Z</time>
      </trkpt>
      <trkpt lat="44.53687" lon="3.11647">
        <ele>1218</ele>
        <time>2019-06-01T08:42:06.432Z</time>
      </trkpt>
      <trkpt lat="44.53689" lon="3.11644">
        <ele>1218</ele>
        <time>2019-06-01T08:42:10.454Z</time>
      </trkpt>
      <trkpt lat="44.5369" lon="3.1164">
        <ele>1218</ele>
        <time>2019-06-01T08:42:14.451Z</time>
      </trkpt>
      <trkpt lat="44.5369" lon="3.11635">
        <ele>1218</ele>
        <time>2019-06-01T08:42:19.444Z</time>
      </trkpt>
      <trkpt lat="44.53691" lon="3.11631">
        <ele>1218</ele>
        <time>2019-06-01T08:42:28.456Z</time>
      </trkpt>
      <trkpt lat="44.53695" lon="3.1162">
        <ele>1218</ele>
        <time>2019-06-01T08:42:33.451Z</time>
      </trkpt>
      <trkpt lat="44.53696" lon="3.11618">
        <ele>1218</ele>
        <time>2019-06-01T08:42:38.445Z</time>
      </trkpt>
      <trkpt lat="44.53698" lon="3.11615">
        <ele>1218</ele>
        <time>2019-06-01T08:42:42.460Z</time>
      </trkpt>
      <trkpt lat="44.53702" lon="3.11614">
        <ele>1218</ele>
        <time>2019-06-01T08:42:47.457Z</time>
      </trkpt>
      <trkpt lat="44.53706" lon="3.11612">
        <ele>1218</ele>
        <time>2019-06-01T08:42:52.439Z</time>
      </trkpt>
      <trkpt lat="44.53707" lon="3.11608">
        <ele>1218</ele>
        <time>2019-06-01T08:42:57.470Z</time>
      </trkpt>
      <trkpt lat="44.53709" lon="3.11594">
        <ele>1222</ele>
        <time>2019-06-01T08:43:07.441Z</time>
      </trkpt>
      <trkpt lat="44.5371" lon="3.11579">
        <ele>1222</ele>
        <time>2019-06-01T08:43:12.441Z</time>
      </trkpt>
      <trkpt lat="44.53712" lon="3.11574">
        <ele>1222</ele>
        <time>2019-06-01T08:43:17.449Z</time>
      </trkpt>
      <trkpt lat="44.53713" lon="3.11565">
        <ele>1223</ele>
        <time>2019-06-01T08:43:26.455Z</time>
      </trkpt>
      <trkpt lat="44.53713" lon="3.11565">
        <ele>1223</ele>
        <time>2019-06-01T08:43:31.472Z</time>
      </trkpt>
      <trkpt lat="44.53717" lon="3.11565">
        <ele>1223</ele>
        <time>2019-06-01T08:43:51.482Z</time>
      </trkpt>
      <trkpt lat="44.5372" lon="3.11563">
        <ele>1223</ele>
        <time>2019-06-01T08:43:56.442Z</time>
      </trkpt>
      <trkpt lat="44.53722" lon="3.11561">
        <ele>1223</ele>
        <time>2019-06-01T08:44:00.482Z</time>
      </trkpt>
      <trkpt lat="44.53726" lon="3.11558">
        <ele>1223</ele>
        <time>2019-06-01T08:44:05.455Z</time>
      </trkpt>
      <trkpt lat="44.53727" lon="3.11558">
        <ele>1223</ele>
        <time>2019-06-01T08:44:10.453Z</time>
      </trkpt>
      <trkpt lat="44.53728" lon="3.11557">
        <ele>1223</ele>
        <time>2019-06-01T08:44:15.456Z</time>
      </trkpt>
      <trkpt lat="44.53731" lon="3.11549">
        <ele>1223</ele>
        <time>2019-06-01T08:44:20.462Z</time>
      </trkpt>
      <trkpt lat="44.53734" lon="3.11543">
        <ele>1223</ele>
        <time>2019-06-01T08:44:24.480Z</time>
      </trkpt>
      <trkpt lat="44.53737" lon="3.11542">
        <ele>1226</ele>
        <time>2019-06-01T08:44:29.454Z</time>
      </trkpt>
      <trkpt lat="44.53739" lon="3.11539">
        <ele>1226</ele>
        <time>2019-06-01T08:44:34.448Z</time>
      </trkpt>
      <trkpt lat="44.5374" lon="3.11538">
        <ele>1226</ele>
        <time>2019-06-01T08:44:38.454Z</time>
      </trkpt>
      <trkpt lat="44.53743" lon="3.11535">
        <ele>1226</ele>
        <time>2019-06-01T08:44:43.449Z</time>
      </trkpt>
      <trkpt lat="44.53746" lon="3.11532">
        <ele>1226</ele>
        <time>2019-06-01T08:44:47.484Z</time>
      </trkpt>
      <trkpt lat="44.53749" lon="3.11526">
        <ele>1226</ele>
        <time>2019-06-01T08:44:57.434Z</time>
      </trkpt>
      <trkpt lat="44.53749" lon="3.11526">
        <ele>1226</ele>
        <time>2019-06-01T08:45:01.453Z</time>
      </trkpt>
      <trkpt lat="44.53751" lon="3.11524">
        <ele>1226</ele>
        <time>2019-06-01T08:45:05.486Z</time>
      </trkpt>
      <trkpt lat="44.53753" lon="3.1152">
        <ele>1226</ele>
        <time>2019-06-01T08:45:10.455Z</time>
      </trkpt>
      <trkpt lat="44.53759" lon="3.11514">
        <ele>1229</ele>
        <time>2019-06-01T08:45:20.465Z</time>
      </trkpt>
      <trkpt lat="44.53763" lon="3.11506">
        <ele>1229</ele>
        <time>2019-06-01T08:45:30.485Z</time>
      </trkpt>
      <trkpt lat="44.53764" lon="3.11505">
        <ele>1231</ele>
        <time>2019-06-01T08:45:35.448Z</time>
      </trkpt>
      <trkpt lat="44.53772" lon="3.11497">
        <ele>1231</ele>
        <time>2019-06-01T08:45:39.482Z</time>
      </trkpt>
      <trkpt lat="44.53778" lon="3.11487">
        <ele>1231</ele>
        <time>2019-06-01T08:45:44.453Z</time>
      </trkpt>
      <trkpt lat="44.53782" lon="3.11481">
        <ele>1233</ele>
        <time>2019-06-01T08:45:48.462Z</time>
      </trkpt>
      <trkpt lat="44.53787" lon="3.11474">
        <ele>1233</ele>
        <time>2019-06-01T08:45:53.449Z</time>
      </trkpt>
      <trkpt lat="44.5379" lon="3.11471">
        <ele>1233</ele>
        <time>2019-06-01T08:45:57.453Z</time>
      </trkpt>
      <trkpt lat="44.53793" lon="3.11465">
        <ele>1234</ele>
        <time>2019-06-01T08:46:02.449Z</time>
      </trkpt>
      <trkpt lat="44.53795" lon="3.11461">
        <ele>1234</ele>
        <time>2019-06-01T08:46:07.450Z</time>
      </trkpt>
      <trkpt lat="44.538" lon="3.11455">
        <ele>1234</ele>
        <time>2019-06-01T08:46:12.452Z</time>
      </trkpt>
      <trkpt lat="44.53803" lon="3.11451">
        <ele>1234</ele>
        <time>2019-06-01T08:46:17.459Z</time>
      </trkpt>
      <trkpt lat="44.53806" lon="3.11445">
        <ele>1234</ele>
        <time>2019-06-01T08:46:22.461Z</time>
      </trkpt>
      <trkpt lat="44.53808" lon="3.1144">
        <ele>1234</ele>
        <time>2019-06-01T08:46:26.470Z</time>
      </trkpt>
      <trkpt lat="44.5381" lon="3.11432">
        <ele>1234</ele>
        <time>2019-06-01T08:46:31.453Z</time>
      </trkpt>
      <trkpt lat="44.53813" lon="3.11425">
        <ele>1236</ele>
        <time>2019-06-01T08:46:36.455Z</time>
      </trkpt>
      <trkpt lat="44.53814" lon="3.11421">
        <ele>1236</ele>
        <time>2019-06-01T08:46:40.459Z</time>
      </trkpt>
      <trkpt lat="44.53816" lon="3.11413">
        <ele>1236</ele>
        <time>2019-06-01T08:46:45.456Z</time>
      </trkpt>
      <trkpt lat="44.53818" lon="3.11408">
        <ele>1236</ele>
        <time>2019-06-01T08:46:50.446Z</time>
      </trkpt>
      <trkpt lat="44.53821" lon="3.11404">
        <ele>1236</ele>
        <time>2019-06-01T08:46:54.456Z</time>
      </trkpt>
      <trkpt lat="44.53825" lon="3.11399">
        <ele>1237</ele>
        <time>2019-06-01T08:46:59.449Z</time>
      </trkpt>
      <trkpt lat="44.53828" lon="3.11397">
        <ele>1237</ele>
        <time>2019-06-01T08:47:04.483Z</time>
      </trkpt>
      <trkpt lat="44.53831" lon="3.11395">
        <ele>1237</ele>
        <time>2019-06-01T08:47:09.451Z</time>
      </trkpt>
      <trkpt lat="44.53835" lon="3.1139">
        <ele>1237</ele>
        <time>2019-06-01T08:47:14.458Z</time>
      </trkpt>
      <trkpt lat="44.53838" lon="3.11386">
        <ele>1237</ele>
        <time>2019-06-01T08:47:19.456Z</time>
      </trkpt>
      <trkpt lat="44.53841" lon="3.11383">
        <ele>1237</ele>
        <time>2019-06-01T08:47:24.462Z</time>
      </trkpt>
      <trkpt lat="44.53842" lon="3.11381">
        <ele>1237</ele>
        <time>2019-06-01T08:47:29.456Z</time>
      </trkpt>
      <trkpt lat="44.53846" lon="3.11378">
        <ele>1237</ele>
        <time>2019-06-01T08:47:34.433Z</time>
      </trkpt>
      <trkpt lat="44.5385" lon="3.11377">
        <ele>1236</ele>
        <time>2019-06-01T08:47:38.448Z</time>
      </trkpt>
      <trkpt lat="44.53855" lon="3.11375">
        <ele>1236</ele>
        <time>2019-06-01T08:47:43.450Z</time>
      </trkpt>
      <trkpt lat="44.53857" lon="3.11375">
        <ele>1235</ele>
        <time>2019-06-01T08:47:47.452Z</time>
      </trkpt>
      <trkpt lat="44.5386" lon="3.11374">
        <ele>1235</ele>
        <time>2019-06-01T08:47:52.454Z</time>
      </trkpt>
      <trkpt lat="44.53863" lon="3.11374">
        <ele>1235</ele>
        <time>2019-06-01T08:47:56.456Z</time>
      </trkpt>
      <trkpt lat="44.53868" lon="3.11374">
        <ele>1235</ele>
        <time>2019-06-01T08:48:01.455Z</time>
      </trkpt>
      <trkpt lat="44.53872" lon="3.11374">
        <ele>1235</ele>
        <time>2019-06-01T08:48:06.463Z</time>
      </trkpt>
      <trkpt lat="44.53873" lon="3.11374">
        <ele>1235</ele>
        <time>2019-06-01T08:48:10.467Z</time>
      </trkpt>
      <trkpt lat="44.53877" lon="3.11374">
        <ele>1236</ele>
        <time>2019-06-01T08:48:15.446Z</time>
      </trkpt>
      <trkpt lat="44.53879" lon="3.11375">
        <ele>1237</ele>
        <time>2019-06-01T08:48:19.458Z</time>
      </trkpt>
      <trkpt lat="44.53884" lon="3.11378">
        <ele>1237</ele>
        <time>2019-06-01T08:48:24.484Z</time>
      </trkpt>
      <trkpt lat="44.53887" lon="3.11378">
        <ele>1237</ele>
        <time>2019-06-01T08:48:34.449Z</time>
      </trkpt>
      <trkpt lat="44.53888" lon="3.11379">
        <ele>1237</ele>
        <time>2019-06-01T08:48:38.476Z</time>
      </trkpt>
      <trkpt lat="44.53889" lon="3.11379">
        <ele>1237</ele>
        <time>2019-06-01T08:48:43.452Z</time>
      </trkpt>
      <trkpt lat="44.53892" lon="3.1138">
        <ele>1237</ele>
        <time>2019-06-01T08:48:53.487Z</time>
      </trkpt>
      <trkpt lat="44.53898" lon="3.11382">
        <ele>1237</ele>
        <time>2019-06-01T08:48:58.462Z</time>
      </trkpt>
      <trkpt lat="44.53901" lon="3.11384">
        <ele>1237</ele>
        <time>2019-06-01T08:49:03.451Z</time>
      </trkpt>
      <trkpt lat="44.53902" lon="3.11385">
        <ele>1237</ele>
        <time>2019-06-01T08:49:08.455Z</time>
      </trkpt>
      <trkpt lat="44.53904" lon="3.11387">
        <ele>1239</ele>
        <time>2019-06-01T08:49:12.477Z</time>
      </trkpt>
      <trkpt lat="44.53909" lon="3.11391">
        <ele>1239</ele>
        <time>2019-06-01T08:49:17.484Z</time>
      </trkpt>
      <trkpt lat="44.53912" lon="3.11397">
        <ele>1239</ele>
        <time>2019-06-01T08:49:22.448Z</time>
      </trkpt>
      <trkpt lat="44.53915" lon="3.11398">
        <ele>1239</ele>
        <time>2019-06-01T08:49:26.453Z</time>
      </trkpt>
      <trkpt lat="44.53922" lon="3.11399">
        <ele>1239</ele>
        <time>2019-06-01T08:49:31.474Z</time>
      </trkpt>
      <trkpt lat="44.53926" lon="3.11396">
        <ele>1239</ele>
        <time>2019-06-01T08:49:36.453Z</time>
      </trkpt>
      <trkpt lat="44.53929" lon="3.11398">
        <ele>1239</ele>
        <time>2019-06-01T08:49:40.462Z</time>
      </trkpt>
      <trkpt lat="44.53934" lon="3.114">
        <ele>1242</ele>
        <time>2019-06-01T08:49:45.452Z</time>
      </trkpt>
      <trkpt lat="44.53936" lon="3.11401">
        <ele>1242</ele>
        <time>2019-06-01T08:49:50.448Z</time>
      </trkpt>
      <trkpt lat="44.53941" lon="3.114">
        <ele>1242</ele>
        <time>2019-06-01T08:49:54.479Z</time>
      </trkpt>
      <trkpt lat="44.53946" lon="3.11399">
        <ele>1242</ele>
        <time>2019-06-01T08:49:59.452Z</time>
      </trkpt>
      <trkpt lat="44.53951" lon="3.11396">
        <ele>1242</ele>
        <time>2019-06-01T08:50:04.453Z</time>
      </trkpt>
      <trkpt lat="44.53952" lon="3.11395">
        <ele>1242</ele>
        <time>2019-06-01T08:50:09.458Z</time>
      </trkpt>
      <trkpt lat="44.53957" lon="3.1139">
        <ele>1242</ele>
        <time>2019-06-01T08:50:14.454Z</time>
      </trkpt>
      <trkpt lat="44.53965" lon="3.11385">
        <ele>1245</ele>
        <time>2019-06-01T08:50:19.448Z</time>
      </trkpt>
      <trkpt lat="44.5397" lon="3.11377">
        <ele>1245</ele>
        <time>2019-06-01T08:50:24.480Z</time>
      </trkpt>
      <trkpt lat="44.53974" lon="3.11372">
        <ele>1246</ele>
        <time>2019-06-01T08:50:29.446Z</time>
      </trkpt>
      <trkpt lat="44.53976" lon="3.11367">
        <ele>1246</ele>
        <time>2019-06-01T08:50:34.479Z</time>
      </trkpt>
      <trkpt lat="44.53978" lon="3.11363">
        <ele>1246</ele>
        <time>2019-06-01T08:50:39.455Z</time>
      </trkpt>
      <trkpt lat="44.53981" lon="3.11358">
        <ele>1246</ele>
        <time>2019-06-01T08:50:44.453Z</time>
      </trkpt>
      <trkpt lat="44.53984" lon="3.11353">
        <ele>1246</ele>
        <time>2019-06-01T08:50:49.479Z</time>
      </trkpt>
      <trkpt lat="44.53987" lon="3.11349">
        <ele>1248</ele>
        <time>2019-06-01T08:50:54.484Z</time>
      </trkpt>
      <trkpt lat="44.53988" lon="3.11345">
        <ele>1247</ele>
        <time>2019-06-01T08:50:59.480Z</time>
      </trkpt>
      <trkpt lat="44.53993" lon="3.1134">
        <ele>1247</ele>
        <time>2019-06-01T08:51:04.460Z</time>
      </trkpt>
      <trkpt lat="44.53998" lon="3.11337">
        <ele>1247</ele>
        <time>2019-06-01T08:51:09.448Z</time>
      </trkpt>
      <trkpt lat="44.54002" lon="3.11329">
        <ele>1247</ele>
        <time>2019-06-01T08:51:13.483Z</time>
      </trkpt>
      <trkpt lat="44.54007" lon="3.11318">
        <ele>1245</ele>
        <time>2019-06-01T08:51:18.455Z</time>
      </trkpt>
      <trkpt lat="44.54011" lon="3.11314">
        <ele>1245</ele>
        <time>2019-06-01T08:51:23.449Z</time>
      </trkpt>
      <trkpt lat="44.54013" lon="3.11309">
        <ele>1245</ele>
        <time>2019-06-01T08:51:27.475Z</time>
      </trkpt>
      <trkpt lat="44.54017" lon="3.113">
        <ele>1246</ele>
        <time>2019-06-01T08:51:32.478Z</time>
      </trkpt>
      <trkpt lat="44.5402" lon="3.11295">
        <ele>1246</ele>
        <time>2019-06-01T08:51:37.433Z</time>
      </trkpt>
      <trkpt lat="44.54022" lon="3.11291">
        <ele>1243</ele>
        <time>2019-06-01T08:51:41.454Z</time>
      </trkpt>
      <trkpt lat="44.54026" lon="3.11289">
        <ele>1243</ele>
        <time>2019-06-01T08:51:46.448Z</time>
      </trkpt>
      <trkpt lat="44.54029" lon="3.11287">
        <ele>1243</ele>
        <time>2019-06-01T08:51:50.463Z</time>
      </trkpt>
      <trkpt lat="44.54033" lon="3.11285">
        <ele>1243</ele>
        <time>2019-06-01T08:51:55.435Z</time>
      </trkpt>
      <trkpt lat="44.54037" lon="3.11285">
        <ele>1243</ele>
        <time>2019-06-01T08:51:59.464Z</time>
      </trkpt>
      <trkpt lat="44.54039" lon="3.11282">
        <ele>1243</ele>
        <time>2019-06-01T08:52:04.452Z</time>
      </trkpt>
      <trkpt lat="44.54043" lon="3.11279">
        <ele>1244</ele>
        <time>2019-06-01T08:52:08.463Z</time>
      </trkpt>
      <trkpt lat="44.54048" lon="3.11276">
        <ele>1244</ele>
        <time>2019-06-01T08:52:13.451Z</time>
      </trkpt>
      <trkpt lat="44.5405" lon="3.11273">
        <ele>1244</ele>
        <time>2019-06-01T08:52:18.457Z</time>
      </trkpt>
      <trkpt lat="44.54053" lon="3.1127">
        <ele>1244</ele>
        <time>2019-06-01T08:52:32.454Z</time>
      </trkpt>
      <trkpt lat="44.54056" lon="3.11266">
        <ele>1244</ele>
        <time>2019-06-01T08:52:37.483Z</time>
      </trkpt>
      <trkpt lat="44.54062" lon="3.11261">
        <ele>1242</ele>
        <time>2019-06-01T08:52:42.446Z</time>
      </trkpt>
      <trkpt lat="44.54067" lon="3.11257">
        <ele>1242</ele>
        <time>2019-06-01T08:52:46.476Z</time>
      </trkpt>
      <trkpt lat="44.54071" lon="3.11255">
        <ele>1244</ele>
        <time>2019-06-01T08:52:51.444Z</time>
      </trkpt>
      <trkpt lat="44.5407" lon="3.11249">
        <ele>1244</ele>
        <time>2019-06-01T08:52:55.455Z</time>
      </trkpt>
      <trkpt lat="44.54069" lon="3.1124">
        <ele>1242</ele>
        <time>2019-06-01T08:53:00.453Z</time>
      </trkpt>
      <trkpt lat="44.54068" lon="3.11238">
        <ele>1242</ele>
        <time>2019-06-01T08:53:09.452Z</time>
      </trkpt>
      <trkpt lat="44.5407" lon="3.11237">
        <ele>1244</ele>
        <time>2019-06-01T08:53:13.484Z</time>
      </trkpt>
      <trkpt lat="44.54071" lon="3.11229">
        <ele>1243</ele>
        <time>2019-06-01T08:53:22.458Z</time>
      </trkpt>
      <trkpt lat="44.5407" lon="3.11223">
        <ele>1243</ele>
        <time>2019-06-01T08:53:27.454Z</time>
      </trkpt>
      <trkpt lat="44.5407" lon="3.11222">
        <ele>1243</ele>
        <time>2019-06-01T08:53:31.478Z</time>
      </trkpt>
      <trkpt lat="44.54071" lon="3.11219">
        <ele>1243</ele>
        <time>2019-06-01T08:53:36.463Z</time>
      </trkpt>
      <trkpt lat="44.54073" lon="3.11215">
        <ele>1243</ele>
        <time>2019-06-01T08:53:41.464Z</time>
      </trkpt>
      <trkpt lat="44.54073" lon="3.1121">
        <ele>1243</ele>
        <time>2019-06-01T08:53:46.451Z</time>
      </trkpt>
      <trkpt lat="44.54073" lon="3.11203">
        <ele>1243</ele>
        <time>2019-06-01T08:53:51.458Z</time>
      </trkpt>
      <trkpt lat="44.54075" lon="3.11197">
        <ele>1243</ele>
        <time>2019-06-01T08:53:56.481Z</time>
      </trkpt>
      <trkpt lat="44.54074" lon="3.11191">
        <ele>1243</ele>
        <time>2019-06-01T08:54:01.435Z</time>
      </trkpt>
      <trkpt lat="44.54072" lon="3.11186">
        <ele>1243</ele>
        <time>2019-06-01T08:54:05.456Z</time>
      </trkpt>
      <trkpt lat="44.54073" lon="3.11184">
        <ele>1243</ele>
        <time>2019-06-01T08:54:10.471Z</time>
      </trkpt>
      <trkpt lat="44.54073" lon="3.11179">
        <ele>1242</ele>
        <time>2019-06-01T08:54:15.494Z</time>
      </trkpt>
      <trkpt lat="44.54074" lon="3.11176">
        <ele>1242</ele>
        <time>2019-06-01T08:54:20.433Z</time>
      </trkpt>
      <trkpt lat="44.54074" lon="3.11173">
        <ele>1242</ele>
        <time>2019-06-01T08:54:24.454Z</time>
      </trkpt>
      <trkpt lat="44.54076" lon="3.11169">
        <ele>1242</ele>
        <time>2019-06-01T08:54:29.457Z</time>
      </trkpt>
      <trkpt lat="44.54082" lon="3.11162">
        <ele>1242</ele>
        <time>2019-06-01T08:54:34.483Z</time>
      </trkpt>
      <trkpt lat="44.54083" lon="3.11156">
        <ele>1242</ele>
        <time>2019-06-01T08:54:39.451Z</time>
      </trkpt>
      <trkpt lat="44.54083" lon="3.11155">
        <ele>1242</ele>
        <time>2019-06-01T08:54:44.458Z</time>
      </trkpt>
      <trkpt lat="44.54088" lon="3.11153">
        <ele>1242</ele>
        <time>2019-06-01T08:54:49.475Z</time>
      </trkpt>
      <trkpt lat="44.54093" lon="3.11151">
        <ele>1240</ele>
        <time>2019-06-01T08:54:54.452Z</time>
      </trkpt>
      <trkpt lat="44.541" lon="3.11147">
        <ele>1243</ele>
        <time>2019-06-01T08:55:03.462Z</time>
      </trkpt>
      <trkpt lat="44.54103" lon="3.11144">
        <ele>1243</ele>
        <time>2019-06-01T08:55:08.455Z</time>
      </trkpt>
      <trkpt lat="44.54107" lon="3.11143">
        <ele>1243</ele>
        <time>2019-06-01T08:55:13.475Z</time>
      </trkpt>
      <trkpt lat="44.54112" lon="3.11141">
        <ele>1243</ele>
        <time>2019-06-01T08:55:18.467Z</time>
      </trkpt>
      <trkpt lat="44.54119" lon="3.11136">
        <ele>1243</ele>
        <time>2019-06-01T08:55:23.455Z</time>
      </trkpt>
      <trkpt lat="44.54124" lon="3.1113">
        <ele>1243</ele>
        <time>2019-06-01T08:55:28.452Z</time>
      </trkpt>
      <trkpt lat="44.54127" lon="3.11126">
        <ele>1246</ele>
        <time>2019-06-01T08:55:33.447Z</time>
      </trkpt>
      <trkpt lat="44.54133" lon="3.11119">
        <ele>1244</ele>
        <time>2019-06-01T08:55:37.457Z</time>
      </trkpt>
      <trkpt lat="44.54138" lon="3.11112">
        <ele>1244</ele>
        <time>2019-06-01T08:55:42.454Z</time>
      </trkpt>
      <trkpt lat="44.54141" lon="3.11107">
        <ele>1244</ele>
        <time>2019-06-01T08:55:47.451Z</time>
      </trkpt>
      <trkpt lat="44.54143" lon="3.11102">
        <ele>1244</ele>
        <time>2019-06-01T08:55:52.461Z</time>
      </trkpt>
      <trkpt lat="44.54145" lon="3.11096">
        <ele>1241</ele>
        <time>2019-06-01T08:55:57.452Z</time>
      </trkpt>
      <trkpt lat="44.54147" lon="3.11091">
        <ele>1241</ele>
        <time>2019-06-01T08:56:01.452Z</time>
      </trkpt>
      <trkpt lat="44.54149" lon="3.11085">
        <ele>1241</ele>
        <time>2019-06-01T08:56:06.444Z</time>
      </trkpt>
      <trkpt lat="44.5415" lon="3.11078">
        <ele>1241</ele>
        <time>2019-06-01T08:56:11.447Z</time>
      </trkpt>
      <trkpt lat="44.54151" lon="3.11071">
        <ele>1241</ele>
        <time>2019-06-01T08:56:16.450Z</time>
      </trkpt>
      <trkpt lat="44.54154" lon="3.11064">
        <ele>1240</ele>
        <time>2019-06-01T08:56:21.447Z</time>
      </trkpt>
      <trkpt lat="44.54158" lon="3.11063">
        <ele>1240</ele>
        <time>2019-06-01T08:56:26.455Z</time>
      </trkpt>
      <trkpt lat="44.54161" lon="3.11062">
        <ele>1240</ele>
        <time>2019-06-01T08:56:30.457Z</time>
      </trkpt>
      <trkpt lat="44.54165" lon="3.1106">
        <ele>1240</ele>
        <time>2019-06-01T08:56:35.480Z</time>
      </trkpt>
      <trkpt lat="44.5417" lon="3.11059">
        <ele>1240</ele>
        <time>2019-06-01T08:56:40.452Z</time>
      </trkpt>
      <trkpt lat="44.54176" lon="3.11052">
        <ele>1240</ele>
        <time>2019-06-01T08:56:45.457Z</time>
      </trkpt>
      <trkpt lat="44.54183" lon="3.11045">
        <ele>1244</ele>
        <time>2019-06-01T08:56:50.454Z</time>
      </trkpt>
      <trkpt lat="44.54189" lon="3.11042">
        <ele>1244</ele>
        <time>2019-06-01T08:56:55.491Z</time>
      </trkpt>
      <trkpt lat="44.54194" lon="3.11038">
        <ele>1240</ele>
        <time>2019-06-01T08:57:00.429Z</time>
      </trkpt>
      <trkpt lat="44.54194" lon="3.11038">
        <ele>1240</ele>
        <time>2019-06-01T08:57:04.460Z</time>
      </trkpt>
      <trkpt lat="44.54198" lon="3.11035">
        <ele>1240</ele>
        <time>2019-06-01T08:57:23.455Z</time>
      </trkpt>
      <trkpt lat="44.54201" lon="3.11033">
        <ele>1240</ele>
        <time>2019-06-01T08:57:28.455Z</time>
      </trkpt>
      <trkpt lat="44.54202" lon="3.11031">
        <ele>1240</ele>
        <time>2019-06-01T08:57:33.455Z</time>
      </trkpt>
      <trkpt lat="44.54202" lon="3.1103">
        <ele>1240</ele>
        <time>2019-06-01T08:57:42.489Z</time>
      </trkpt>
      <trkpt lat="44.54203" lon="3.11027">
        <ele>1240</ele>
        <time>2019-06-01T08:57:47.451Z</time>
      </trkpt>
      <trkpt lat="44.54207" lon="3.11022">
        <ele>1240</ele>
        <time>2019-06-01T08:57:52.459Z</time>
      </trkpt>
      <trkpt lat="44.54212" lon="3.11023">
        <ele>1243</ele>
        <time>2019-06-01T08:57:57.458Z</time>
      </trkpt>
      <trkpt lat="44.54217" lon="3.11022">
        <ele>1243</ele>
        <time>2019-06-01T08:58:02.455Z</time>
      </trkpt>
      <trkpt lat="44.54223" lon="3.11021">
        <ele>1243</ele>
        <time>2019-06-01T08:58:07.453Z</time>
      </trkpt>
      <trkpt lat="44.54224" lon="3.1102">
        <ele>1243</ele>
        <time>2019-06-01T08:58:12.456Z</time>
      </trkpt>
      <trkpt lat="44.54227" lon="3.11019">
        <ele>1243</ele>
        <time>2019-06-01T08:58:17.479Z</time>
      </trkpt>
      <trkpt lat="44.54231" lon="3.11017">
        <ele>1243</ele>
        <time>2019-06-01T08:58:22.456Z</time>
      </trkpt>
      <trkpt lat="44.54235" lon="3.11015">
        <ele>1243</ele>
        <time>2019-06-01T08:58:27.444Z</time>
      </trkpt>
      <trkpt lat="44.5424" lon="3.11014">
        <ele>1243</ele>
        <time>2019-06-01T08:58:32.449Z</time>
      </trkpt>
      <trkpt lat="44.54245" lon="3.11012">
        <ele>1237</ele>
        <time>2019-06-01T08:58:37.486Z</time>
      </trkpt>
      <trkpt lat="44.54248" lon="3.11014">
        <ele>1237</ele>
        <time>2019-06-01T08:58:42.448Z</time>
      </trkpt>
      <trkpt lat="44.54255" lon="3.11014">
        <ele>1243</ele>
        <time>2019-06-01T08:58:47.446Z</time>
      </trkpt>
      <trkpt lat="44.54259" lon="3.11011">
        <ele>1237</ele>
        <time>2019-06-01T08:58:51.477Z</time>
      </trkpt>
      <trkpt lat="44.54261" lon="3.11011">
        <ele>1237</ele>
        <time>2019-06-01T08:58:56.457Z</time>
      </trkpt>
      <trkpt lat="44.54264" lon="3.11012">
        <ele>1234</ele>
        <time>2019-06-01T08:59:01.455Z</time>
      </trkpt>
      <trkpt lat="44.54268" lon="3.11015">
        <ele>1243</ele>
        <time>2019-06-01T08:59:05.462Z</time>
      </trkpt>
      <trkpt lat="44.54274" lon="3.11011">
        <ele>1234</ele>
        <time>2019-06-01T08:59:10.433Z</time>
      </trkpt>
      <trkpt lat="44.54279" lon="3.11012">
        <ele>1234</ele>
        <time>2019-06-01T08:59:23.461Z</time>
      </trkpt>
      <trkpt lat="44.5428" lon="3.11012">
        <ele>1234</ele>
        <time>2019-06-01T08:59:28.438Z</time>
      </trkpt>
      <trkpt lat="44.54285" lon="3.11011">
        <ele>1234</ele>
        <time>2019-06-01T08:59:33.443Z</time>
      </trkpt>
      <trkpt lat="44.54295" lon="3.11013">
        <ele>1231</ele>
        <time>2019-06-01T08:59:47.483Z</time>
      </trkpt>
      <trkpt lat="44.54303" lon="3.11014">
        <ele>1231</ele>
        <time>2019-06-01T08:59:52.459Z</time>
      </trkpt>
      <trkpt lat="44.54308" lon="3.11018">
        <ele>1241</ele>
        <time>2019-06-01T08:59:57.447Z</time>
      </trkpt>
      <trkpt lat="44.54312" lon="3.11021">
        <ele>1241</ele>
        <time>2019-06-01T09:00:01.452Z</time>
      </trkpt>
      <trkpt lat="44.54317" lon="3.11022">
        <ele>1241</ele>
        <time>2019-06-01T09:00:06.453Z</time>
      </trkpt>
      <trkpt lat="44.54322" lon="3.11021">
        <ele>1239</ele>
        <time>2019-06-01T09:00:11.450Z</time>
      </trkpt>
      <trkpt lat="44.54329" lon="3.11019">
        <ele>1239</ele>
        <time>2019-06-01T09:00:16.455Z</time>
      </trkpt>
      <trkpt lat="44.54334" lon="3.11014">
        <ele>1229</ele>
        <time>2019-06-01T09:00:20.456Z</time>
      </trkpt>
      <trkpt lat="44.5434" lon="3.11009">
        <ele>1229</ele>
        <time>2019-06-01T09:00:25.454Z</time>
      </trkpt>
      <trkpt lat="44.54343" lon="3.11009">
        <ele>1229</ele>
        <time>2019-06-01T09:00:30.453Z</time>
      </trkpt>
      <trkpt lat="44.54346" lon="3.1101">
        <ele>1229</ele>
        <time>2019-06-01T09:00:35.451Z</time>
      </trkpt>
      <trkpt lat="44.54347" lon="3.11009">
        <ele>1229</ele>
        <time>2019-06-01T09:00:40.447Z</time>
      </trkpt>
      <trkpt lat="44.54352" lon="3.11006">
        <ele>1231</ele>
        <time>2019-06-01T09:00:54.457Z</time>
      </trkpt>
      <trkpt lat="44.54352" lon="3.11006">
        <ele>1231</ele>
        <time>2019-06-01T09:00:59.454Z</time>
      </trkpt>
      <trkpt lat="44.54356" lon="3.11005">
        <ele>1231</ele>
        <time>2019-06-01T09:01:09.452Z</time>
      </trkpt>
      <trkpt lat="44.54358" lon="3.11002">
        <ele>1231</ele>
        <time>2019-06-01T09:01:19.460Z</time>
      </trkpt>
      <trkpt lat="44.54359" lon="3.11002">
        <ele>1231</ele>
        <time>2019-06-01T09:01:28.456Z</time>
      </trkpt>
      <trkpt lat="44.54363" lon="3.11001">
        <ele>1231</ele>
        <time>2019-06-01T09:01:33.485Z</time>
      </trkpt>
      <trkpt lat="44.54365" lon="3.11005">
        <ele>1231</ele>
        <time>2019-06-01T09:01:43.462Z</time>
      </trkpt>
      <trkpt lat="44.54368" lon="3.11006">
        <ele>1231</ele>
        <time>2019-06-01T09:01:48.453Z</time>
      </trkpt>
      <trkpt lat="44.54369" lon="3.11006">
        <ele>1231</ele>
        <time>2019-06-01T09:01:52.479Z</time>
      </trkpt>
      <trkpt lat="44.54377" lon="3.11008">
        <ele>1234</ele>
        <time>2019-06-01T09:02:07.448Z</time>
      </trkpt>
      <trkpt lat="44.54378" lon="3.11008">
        <ele>1234</ele>
        <time>2019-06-01T09:02:12.442Z</time>
      </trkpt>
      <trkpt lat="44.54384" lon="3.11006">
        <ele>1234</ele>
        <time>2019-06-01T09:02:21.451Z</time>
      </trkpt>
      <trkpt lat="44.54393" lon="3.11007">
        <ele>1234</ele>
        <time>2019-06-01T09:02:26.454Z</time>
      </trkpt>
      <trkpt lat="44.54404" lon="3.11007">
        <ele>1232</ele>
        <time>2019-06-01T09:02:31.457Z</time>
      </trkpt>
      <trkpt lat="44.54407" lon="3.11007">
        <ele>1232</ele>
        <time>2019-06-01T09:02:36.454Z</time>
      </trkpt>
      <trkpt lat="44.54416" lon="3.11007">
        <ele>1232</ele>
        <time>2019-06-01T09:02:55.432Z</time>
      </trkpt>
      <trkpt lat="44.54422" lon="3.1101">
        <ele>1232</ele>
        <time>2019-06-01T09:02:59.449Z</time>
      </trkpt>
      <trkpt lat="44.54428" lon="3.11008">
        <ele>1232</ele>
        <time>2019-06-01T09:03:09.455Z</time>
      </trkpt>
      <trkpt lat="44.54436" lon="3.11014">
        <ele>1229</ele>
        <time>2019-06-01T09:03:14.455Z</time>
      </trkpt>
      <trkpt lat="44.54441" lon="3.11019">
        <ele>1234</ele>
        <time>2019-06-01T09:03:19.453Z</time>
      </trkpt>
      <trkpt lat="44.54446" lon="3.11024">
        <ele>1234</ele>
        <time>2019-06-01T09:03:24.454Z</time>
      </trkpt>
      <trkpt lat="44.54451" lon="3.11026">
        <ele>1234</ele>
        <time>2019-06-01T09:03:29.468Z</time>
      </trkpt>
      <trkpt lat="44.54452" lon="3.11027">
        <ele>1234</ele>
        <time>2019-06-01T09:03:34.453Z</time>
      </trkpt>
      <trkpt lat="44.54455" lon="3.11029">
        <ele>1234</ele>
        <time>2019-06-01T09:03:39.454Z</time>
      </trkpt>
      <trkpt lat="44.54459" lon="3.11032">
        <ele>1234</ele>
        <time>2019-06-01T09:03:44.462Z</time>
      </trkpt>
      <trkpt lat="44.54463" lon="3.11033">
        <ele>1234</ele>
        <time>2019-06-01T09:03:49.452Z</time>
      </trkpt>
      <trkpt lat="44.54469" lon="3.11037">
        <ele>1234</ele>
        <time>2019-06-01T09:03:54.459Z</time>
      </trkpt>
      <trkpt lat="44.54472" lon="3.11039">
        <ele>1234</ele>
        <time>2019-06-01T09:03:59.458Z</time>
      </trkpt>
      <trkpt lat="44.54477" lon="3.1104">
        <ele>1234</ele>
        <time>2019-06-01T09:04:04.456Z</time>
      </trkpt>
      <trkpt lat="44.5448" lon="3.1104">
        <ele>1234</ele>
        <time>2019-06-01T09:04:09.443Z</time>
      </trkpt>
      <trkpt lat="44.54484" lon="3.11042">
        <ele>1234</ele>
        <time>2019-06-01T09:04:13.457Z</time>
      </trkpt>
      <trkpt lat="44.54489" lon="3.11045">
        <ele>1241</ele>
        <time>2019-06-01T09:04:17.479Z</time>
      </trkpt>
      <trkpt lat="44.54491" lon="3.11045">
        <ele>1241</ele>
        <time>2019-06-01T09:04:22.460Z</time>
      </trkpt>
      <trkpt lat="44.54498" lon="3.11048">
        <ele>1241</ele>
        <time>2019-06-01T09:04:27.451Z</time>
      </trkpt>
      <trkpt lat="44.54503" lon="3.11048">
        <ele>1241</ele>
        <time>2019-06-01T09:04:32.464Z</time>
      </trkpt>
      <trkpt lat="44.54508" lon="3.11051">
        <ele>1241</ele>
        <time>2019-06-01T09:04:37.454Z</time>
      </trkpt>
      <trkpt lat="44.54512" lon="3.11053">
        <ele>1241</ele>
        <time>2019-06-01T09:04:41.460Z</time>
      </trkpt>
      <trkpt lat="44.54517" lon="3.11054">
        <ele>1240</ele>
        <time>2019-06-01T09:04:46.484Z</time>
      </trkpt>
      <trkpt lat="44.54522" lon="3.11058">
        <ele>1240</ele>
        <time>2019-06-01T09:04:51.457Z</time>
      </trkpt>
      <trkpt lat="44.54526" lon="3.1106">
        <ele>1240</ele>
        <time>2019-06-01T09:04:56.455Z</time>
      </trkpt>
      <trkpt lat="44.54533" lon="3.11061">
        <ele>1240</ele>
        <time>2019-06-01T09:05:01.448Z</time>
      </trkpt>
      <trkpt lat="44.54536" lon="3.11062">
        <ele>1240</ele>
        <time>2019-06-01T09:05:05.475Z</time>
      </trkpt>
      <trkpt lat="44.5454" lon="3.11064">
        <ele>1240</ele>
        <time>2019-06-01T09:05:10.455Z</time>
      </trkpt>
      <trkpt lat="44.54543" lon="3.11066">
        <ele>1239</ele>
        <time>2019-06-01T09:05:14.481Z</time>
      </trkpt>
      <trkpt lat="44.54547" lon="3.11067">
        <ele>1239</ele>
        <time>2019-06-01T09:05:19.450Z</time>
      </trkpt>
      <trkpt lat="44.54552" lon="3.11068">
        <ele>1239</ele>
        <time>2019-06-01T09:05:24.446Z</time>
      </trkpt>
      <trkpt lat="44.54554" lon="3.11067">
        <ele>1239</ele>
        <time>2019-06-01T09:05:28.487Z</time>
      </trkpt>
      <trkpt lat="44.54559" lon="3.11067">
        <ele>1239</ele>
        <time>2019-06-01T09:05:33.450Z</time>
      </trkpt>
      <trkpt lat="44.54565" lon="3.11065">
        <ele>1239</ele>
        <time>2019-06-01T09:05:38.455Z</time>
      </trkpt>
      <trkpt lat="44.5457" lon="3.11062">
        <ele>1238</ele>
        <time>2019-06-01T09:05:42.456Z</time>
      </trkpt>
      <trkpt lat="44.54572" lon="3.11062">
        <ele>1238</ele>
        <time>2019-06-01T09:05:47.452Z</time>
      </trkpt>
      <trkpt lat="44.54574" lon="3.11061">
        <ele>1238</ele>
        <time>2019-06-01T09:05:51.481Z</time>
      </trkpt>
      <trkpt lat="44.54579" lon="3.11062">
        <ele>1238</ele>
        <time>2019-06-01T09:05:56.450Z</time>
      </trkpt>
      <trkpt lat="44.54584" lon="3.11062">
        <ele>1238</ele>
        <time>2019-06-01T09:06:01.453Z</time>
      </trkpt>
      <trkpt lat="44.54588" lon="3.1106">
        <ele>1238</ele>
        <time>2019-06-01T09:06:05.488Z</time>
      </trkpt>
      <trkpt lat="44.54594" lon="3.11057">
        <ele>1238</ele>
        <time>2019-06-01T09:06:10.474Z</time>
      </trkpt>
      <trkpt lat="44.54605" lon="3.11053">
        <ele>1238</ele>
        <time>2019-06-01T09:06:20.445Z</time>
      </trkpt>
      <trkpt lat="44.54608" lon="3.11052">
        <ele>1238</ele>
        <time>2019-06-01T09:06:24.448Z</time>
      </trkpt>
      <trkpt lat="44.54611" lon="3.11053">
        <ele>1238</ele>
        <time>2019-06-01T09:06:28.455Z</time>
      </trkpt>
      <trkpt lat="44.54613" lon="3.11054">
        <ele>1238</ele>
        <time>2019-06-01T09:06:32.477Z</time>
      </trkpt>
      <trkpt lat="44.54617" lon="3.11052">
        <ele>1238</ele>
        <time>2019-06-01T09:06:37.478Z</time>
      </trkpt>
      <trkpt lat="44.54621" lon="3.1105">
        <ele>1238</ele>
        <time>2019-06-01T09:06:42.481Z</time>
      </trkpt>
      <trkpt lat="44.54625" lon="3.11047">
        <ele>1239</ele>
        <time>2019-06-01T09:06:47.451Z</time>
      </trkpt>
      <trkpt lat="44.54632" lon="3.11043">
        <ele>1239</ele>
        <time>2019-06-01T09:06:52.452Z</time>
      </trkpt>
      <trkpt lat="44.54638" lon="3.11041">
        <ele>1235</ele>
        <time>2019-06-01T09:06:56.481Z</time>
      </trkpt>
      <trkpt lat="44.54642" lon="3.11041">
        <ele>1235</ele>
        <time>2019-06-01T09:07:01.451Z</time>
      </trkpt>
      <trkpt lat="44.54642" lon="3.1104">
        <ele>1235</ele>
        <time>2019-06-01T09:07:05.470Z</time>
      </trkpt>
      <trkpt lat="44.54645" lon="3.1104">
        <ele>1235</ele>
        <time>2019-06-01T09:07:10.451Z</time>
      </trkpt>
      <trkpt lat="44.54647" lon="3.11042">
        <ele>1239</ele>
        <time>2019-06-01T09:07:14.456Z</time>
      </trkpt>
      <trkpt lat="44.54649" lon="3.11042">
        <ele>1239</ele>
        <time>2019-06-01T09:07:19.455Z</time>
      </trkpt>
      <trkpt lat="44.54653" lon="3.11041">
        <ele>1236</ele>
        <time>2019-06-01T09:07:24.455Z</time>
      </trkpt>
      <trkpt lat="44.54658" lon="3.11041">
        <ele>1236</ele>
        <time>2019-06-01T09:07:28.464Z</time>
      </trkpt>
      <trkpt lat="44.54664" lon="3.11039">
        <ele>1236</ele>
        <time>2019-06-01T09:07:33.448Z</time>
      </trkpt>
      <trkpt lat="44.54667" lon="3.1104">
        <ele>1236</ele>
        <time>2019-06-01T09:07:37.451Z</time>
      </trkpt>
      <trkpt lat="44.54667" lon="3.1104">
        <ele>1236</ele>
        <time>2019-06-01T09:07:42.447Z</time>
      </trkpt>
      <trkpt lat="44.54674" lon="3.11042">
        <ele>1239</ele>
        <time>2019-06-01T09:07:47.450Z</time>
      </trkpt>
      <trkpt lat="44.54677" lon="3.11044">
        <ele>1239</ele>
        <time>2019-06-01T09:07:52.455Z</time>
      </trkpt>
      <trkpt lat="44.54681" lon="3.11045">
        <ele>1241</ele>
        <time>2019-06-01T09:07:57.452Z</time>
      </trkpt>
      <trkpt lat="44.54686" lon="3.11046">
        <ele>1241</ele>
        <time>2019-06-01T09:08:01.476Z</time>
      </trkpt>
      <trkpt lat="44.54693" lon="3.11044">
        <ele>1241</ele>
        <time>2019-06-01T09:08:06.446Z</time>
      </trkpt>
      <trkpt lat="44.54698" lon="3.11043">
        <ele>1241</ele>
        <time>2019-06-01T09:08:10.478Z</time>
      </trkpt>
      <trkpt lat="44.54703" lon="3.11041">
        <ele>1236</ele>
        <time>2019-06-01T09:08:15.476Z</time>
      </trkpt>
      <trkpt lat="44.54703" lon="3.11041">
        <ele>1236</ele>
        <time>2019-06-01T09:08:20.474Z</time>
      </trkpt>
      <trkpt lat="44.54712" lon="3.11036">
        <ele>1237</ele>
        <time>2019-06-01T09:08:25.449Z</time>
      </trkpt>
      <trkpt lat="44.54718" lon="3.11031">
        <ele>1237</ele>
        <time>2019-06-01T09:08:29.484Z</time>
      </trkpt>
      <trkpt lat="44.54722" lon="3.11028">
        <ele>1237</ele>
        <time>2019-06-01T09:08:34.451Z</time>
      </trkpt>
      <trkpt lat="44.54726" lon="3.11026">
        <ele>1237</ele>
        <time>2019-06-01T09:08:39.467Z</time>
      </trkpt>
      <trkpt lat="44.54727" lon="3.11024">
        <ele>1237</ele>
        <time>2019-06-01T09:08:44.465Z</time>
      </trkpt>
      <trkpt lat="44.54729" lon="3.11024">
        <ele>1237</ele>
        <time>2019-06-01T09:08:49.453Z</time>
      </trkpt>
      <trkpt lat="44.54736" lon="3.11021">
        <ele>1237</ele>
        <time>2019-06-01T09:08:54.459Z</time>
      </trkpt>
      <trkpt lat="44.54742" lon="3.11019">
        <ele>1239</ele>
        <time>2019-06-01T09:08:58.489Z</time>
      </trkpt>
      <trkpt lat="44.54748" lon="3.11017">
        <ele>1239</ele>
        <time>2019-06-01T09:09:03.446Z</time>
      </trkpt>
      <trkpt lat="44.54753" lon="3.1102">
        <ele>1239</ele>
        <time>2019-06-01T09:09:08.450Z</time>
      </trkpt>
      <trkpt lat="44.54758" lon="3.11021">
        <ele>1239</ele>
        <time>2019-06-01T09:09:13.447Z</time>
      </trkpt>
      <trkpt lat="44.54759" lon="3.11018">
        <ele>1239</ele>
        <time>2019-06-01T09:09:17.481Z</time>
      </trkpt>
      <trkpt lat="44.5476" lon="3.11017">
        <ele>1239</ele>
        <time>2019-06-01T09:09:22.456Z</time>
      </trkpt>
      <trkpt lat="44.54764" lon="3.11011">
        <ele>1235</ele>
        <time>2019-06-01T09:09:31.457Z</time>
      </trkpt>
      <trkpt lat="44.54767" lon="3.11006">
        <ele>1237</ele>
        <time>2019-06-01T09:09:36.453Z</time>
      </trkpt>
      <trkpt lat="44.54769" lon="3.11004">
        <ele>1237</ele>
        <time>2019-06-01T09:10:05.454Z</time>
      </trkpt>
      <trkpt lat="44.54772" lon="3.11001">
        <ele>1237</ele>
        <time>2019-06-01T09:10:15.445Z</time>
      </trkpt>
      <trkpt lat="44.54781" lon="3.10997">
        <ele>1237</ele>
        <time>2019-06-01T09:10:20.447Z</time>
      </trkpt>
      <trkpt lat="44.54783" lon="3.10997">
        <ele>1237</ele>
        <time>2019-06-01T09:10:25.452Z</time>
      </trkpt>
      <trkpt lat="44.548" lon="3.10982">
        <ele>1236</ele>
        <time>2019-06-01T09:10:39.450Z</time>
      </trkpt>
      <trkpt lat="44.54807" lon="3.10977">
        <ele>1236</ele>
        <time>2019-06-01T09:10:43.481Z</time>
      </trkpt>
      <trkpt lat="44.54809" lon="3.10977">
        <ele>1236</ele>
        <time>2019-06-01T09:10:48.484Z</time>
      </trkpt>
      <trkpt lat="44.54813" lon="3.10976">
        <ele>1236</ele>
        <time>2019-06-01T09:10:53.475Z</time>
      </trkpt>
      <trkpt lat="44.54816" lon="3.10974">
        <ele>1236</ele>
        <time>2019-06-01T09:10:58.448Z</time>
      </trkpt>
      <trkpt lat="44.54821" lon="3.10971">
        <ele>1239</ele>
        <time>2019-06-01T09:11:03.448Z</time>
      </trkpt>
      <trkpt lat="44.54824" lon="3.10969">
        <ele>1239</ele>
        <time>2019-06-01T09:11:09.432Z</time>
      </trkpt>
      <trkpt lat="44.54835" lon="3.10966">
        <ele>1239</ele>
        <time>2019-06-01T09:11:18.433Z</time>
      </trkpt>
      <trkpt lat="44.54843" lon="3.10958">
        <ele>1235</ele>
        <time>2019-06-01T09:11:23.445Z</time>
      </trkpt>
      <trkpt lat="44.54846" lon="3.10955">
        <ele>1235</ele>
        <time>2019-06-01T09:11:33.456Z</time>
      </trkpt>
      <trkpt lat="44.54847" lon="3.10954">
        <ele>1235</ele>
        <time>2019-06-01T09:11:38.453Z</time>
      </trkpt>
      <trkpt lat="44.54847" lon="3.10954">
        <ele>1235</ele>
        <time>2019-06-01T09:11:43.451Z</time>
      </trkpt>
      <trkpt lat="44.54851" lon="3.10955">
        <ele>1237</ele>
        <time>2019-06-01T09:11:48.460Z</time>
      </trkpt>
      <trkpt lat="44.54854" lon="3.10956">
        <ele>1237</ele>
        <time>2019-06-01T09:11:53.446Z</time>
      </trkpt>
      <trkpt lat="44.54857" lon="3.10957">
        <ele>1237</ele>
        <time>2019-06-01T09:11:57.456Z</time>
      </trkpt>
      <trkpt lat="44.54861" lon="3.10958">
        <ele>1237</ele>
        <time>2019-06-01T09:12:02.448Z</time>
      </trkpt>
      <trkpt lat="44.54865" lon="3.1096">
        <ele>1241</ele>
        <time>2019-06-01T09:12:07.446Z</time>
      </trkpt>
      <trkpt lat="44.54866" lon="3.10961">
        <ele>1241</ele>
        <time>2019-06-01T09:12:11.486Z</time>
      </trkpt>
      <trkpt lat="44.54867" lon="3.10961">
        <ele>1241</ele>
        <time>2019-06-01T09:12:16.445Z</time>
      </trkpt>
      <trkpt lat="44.54868" lon="3.1096">
        <ele>1241</ele>
        <time>2019-06-01T09:12:31.452Z</time>
      </trkpt>
      <trkpt lat="44.54876" lon="3.10957">
        <ele>1239</ele>
        <time>2019-06-01T09:13:10.444Z</time>
      </trkpt>
      <trkpt lat="44.54885" lon="3.10953">
        <ele>1239</ele>
        <time>2019-06-01T09:13:19.448Z</time>
      </trkpt>
      <trkpt lat="44.54886" lon="3.10952">
        <ele>1239</ele>
        <time>2019-06-01T09:13:23.463Z</time>
      </trkpt>
      <trkpt lat="44.54894" lon="3.10952">
        <ele>1239</ele>
        <time>2019-06-01T09:13:28.481Z</time>
      </trkpt>
      <trkpt lat="44.54897" lon="3.10951">
        <ele>1239</ele>
        <time>2019-06-01T09:13:33.451Z</time>
      </trkpt>
      <trkpt lat="44.54901" lon="3.1095">
        <ele>1239</ele>
        <time>2019-06-01T09:13:38.454Z</time>
      </trkpt>
      <trkpt lat="44.54907" lon="3.10951">
        <ele>1242</ele>
        <time>2019-06-01T09:13:47.454Z</time>
      </trkpt>
      <trkpt lat="44.5492" lon="3.10954">
        <ele>1242</ele>
        <time>2019-06-01T09:13:52.455Z</time>
      </trkpt>
      <trkpt lat="44.54924" lon="3.10957">
        <ele>1242</ele>
        <time>2019-06-01T09:13:57.447Z</time>
      </trkpt>
      <trkpt lat="44.54924" lon="3.10958">
        <ele>1242</ele>
        <time>2019-06-01T09:14:02.448Z</time>
      </trkpt>
      <trkpt lat="44.54926" lon="3.10962">
        <ele>1244</ele>
        <time>2019-06-01T09:14:06.453Z</time>
      </trkpt>
      <trkpt lat="44.54928" lon="3.10962">
        <ele>1244</ele>
        <time>2019-06-01T09:14:11.448Z</time>
      </trkpt>
      <trkpt lat="44.54935" lon="3.10963">
        <ele>1243</ele>
        <time>2019-06-01T09:14:16.452Z</time>
      </trkpt>
      <trkpt lat="44.54937" lon="3.10963">
        <ele>1243</ele>
        <time>2019-06-01T09:14:21.452Z</time>
      </trkpt>
      <trkpt lat="44.54942" lon="3.10961">
        <ele>1243</ele>
        <time>2019-06-01T09:14:26.456Z</time>
      </trkpt>
      <trkpt lat="44.54942" lon="3.10961">
        <ele>1243</ele>
        <time>2019-06-01T09:14:31.451Z</time>
      </trkpt>
      <trkpt lat="44.54949" lon="3.10959">
        <ele>1243</ele>
        <time>2019-06-01T09:14:36.452Z</time>
      </trkpt>
      <trkpt lat="44.54958" lon="3.10958">
        <ele>1242</ele>
        <time>2019-06-01T09:14:45.482Z</time>
      </trkpt>
      <trkpt lat="44.5496" lon="3.10957">
        <ele>1243</ele>
        <time>2019-06-01T09:14:50.483Z</time>
      </trkpt>
      <trkpt lat="44.54967" lon="3.10956">
        <ele>1243</ele>
        <time>2019-06-01T09:14:55.452Z</time>
      </trkpt>
      <trkpt lat="44.54971" lon="3.10955">
        <ele>1243</ele>
        <time>2019-06-01T09:14:59.465Z</time>
      </trkpt>
      <trkpt lat="44.54973" lon="3.10954">
        <ele>1243</ele>
        <time>2019-06-01T09:15:13.447Z</time>
      </trkpt>
      <trkpt lat="44.54986" lon="3.10943">
        <ele>1243</ele>
        <time>2019-06-01T09:15:18.459Z</time>
      </trkpt>
      <trkpt lat="44.54994" lon="3.10938">
        <ele>1246</ele>
        <time>2019-06-01T09:15:23.450Z</time>
      </trkpt>
      <trkpt lat="44.54996" lon="3.10934">
        <ele>1246</ele>
        <time>2019-06-01T09:15:28.451Z</time>
      </trkpt>
      <trkpt lat="44.54999" lon="3.10931">
        <ele>1246</ele>
        <time>2019-06-01T09:15:33.455Z</time>
      </trkpt>
      <trkpt lat="44.55002" lon="3.10927">
        <ele>1244</ele>
        <time>2019-06-01T09:15:38.458Z</time>
      </trkpt>
      <trkpt lat="44.55005" lon="3.10927">
        <ele>1244</ele>
        <time>2019-06-01T09:15:43.431Z</time>
      </trkpt>
      <trkpt lat="44.55007" lon="3.10929">
        <ele>1244</ele>
        <time>2019-06-01T09:15:51.451Z</time>
      </trkpt>
      <trkpt lat="44.55021" lon="3.10929">
        <ele>1246</ele>
        <time>2019-06-01T09:16:33.452Z</time>
      </trkpt>
      <trkpt lat="44.55029" lon="3.10929">
        <ele>1246</ele>
        <time>2019-06-01T09:16:38.443Z</time>
      </trkpt>
      <trkpt lat="44.55034" lon="3.10928">
        <ele>1246</ele>
        <time>2019-06-01T09:16:43.432Z</time>
      </trkpt>
      <trkpt lat="44.55039" lon="3.10927">
        <ele>1246</ele>
        <time>2019-06-01T09:16:57.449Z</time>
      </trkpt>
      <trkpt lat="44.55044" lon="3.10927">
        <ele>1249</ele>
        <time>2019-06-01T09:17:02.482Z</time>
      </trkpt>
      <trkpt lat="44.55047" lon="3.10927">
        <ele>1249</ele>
        <time>2019-06-01T09:17:07.452Z</time>
      </trkpt>
      <trkpt lat="44.5505" lon="3.10926">
        <ele>1249</ele>
        <time>2019-06-01T09:17:16.471Z</time>
      </trkpt>
      <trkpt lat="44.55056" lon="3.10926">
        <ele>1249</ele>
        <time>2019-06-01T09:17:21.448Z</time>
      </trkpt>
      <trkpt lat="44.55073" lon="3.10929">
        <ele>1251</ele>
        <time>2019-06-01T09:18:04.452Z</time>
      </trkpt>
      <trkpt lat="44.55081" lon="3.10931">
        <ele>1251</ele>
        <time>2019-06-01T09:18:09.451Z</time>
      </trkpt>
      <trkpt lat="44.55083" lon="3.10929">
        <ele>1251</ele>
        <time>2019-06-01T09:18:14.452Z</time>
      </trkpt>
      <trkpt lat="44.55085" lon="3.10926">
        <ele>1251</ele>
        <time>2019-06-01T09:18:19.453Z</time>
      </trkpt>
      <trkpt lat="44.55088" lon="3.10923">
        <ele>1251</ele>
        <time>2019-06-01T09:18:24.452Z</time>
      </trkpt>
      <trkpt lat="44.5509" lon="3.10924">
        <ele>1251</ele>
        <time>2019-06-01T09:18:28.486Z</time>
      </trkpt>
      <trkpt lat="44.55091" lon="3.10925">
        <ele>1251</ele>
        <time>2019-06-01T09:18:38.452Z</time>
      </trkpt>
      <trkpt lat="44.55095" lon="3.10922">
        <ele>1251</ele>
        <time>2019-06-01T09:18:43.466Z</time>
      </trkpt>
      <trkpt lat="44.55099" lon="3.10923">
        <ele>1250</ele>
        <time>2019-06-01T09:18:48.450Z</time>
      </trkpt>
      <trkpt lat="44.55101" lon="3.10924">
        <ele>1250</ele>
        <time>2019-06-01T09:18:52.454Z</time>
      </trkpt>
      <trkpt lat="44.55104" lon="3.10925">
        <ele>1250</ele>
        <time>2019-06-01T09:18:57.438Z</time>
      </trkpt>
      <trkpt lat="44.55105" lon="3.10925">
        <ele>1250</ele>
        <time>2019-06-01T09:19:01.468Z</time>
      </trkpt>
      <trkpt lat="44.55109" lon="3.10926">
        <ele>1250</ele>
        <time>2019-06-01T09:19:06.480Z</time>
      </trkpt>
      <trkpt lat="44.55113" lon="3.10928">
        <ele>1250</ele>
        <time>2019-06-01T09:19:11.452Z</time>
      </trkpt>
      <trkpt lat="44.55116" lon="3.10931">
        <ele>1250</ele>
        <time>2019-06-01T09:19:16.454Z</time>
      </trkpt>
      <trkpt lat="44.5512" lon="3.10931">
        <ele>1256</ele>
        <time>2019-06-01T09:19:21.453Z</time>
      </trkpt>
      <trkpt lat="44.55123" lon="3.10934">
        <ele>1256</ele>
        <time>2019-06-01T09:19:25.475Z</time>
      </trkpt>
      <trkpt lat="44.55129" lon="3.10938">
        <ele>1255</ele>
        <time>2019-06-01T09:19:30.455Z</time>
      </trkpt>
      <trkpt lat="44.55133" lon="3.10941">
        <ele>1255</ele>
        <time>2019-06-01T09:19:35.496Z</time>
      </trkpt>
      <trkpt lat="44.55139" lon="3.10945">
        <ele>1255</ele>
        <time>2019-06-01T09:19:40.457Z</time>
      </trkpt>
      <trkpt lat="44.55141" lon="3.10947">
        <ele>1255</ele>
        <time>2019-06-01T09:19:44.477Z</time>
      </trkpt>
      <trkpt lat="44.55144" lon="3.10948">
        <ele>1255</ele>
        <time>2019-06-01T09:19:49.481Z</time>
      </trkpt>
      <trkpt lat="44.55147" lon="3.10949">
        <ele>1255</ele>
        <time>2019-06-01T09:19:54.437Z</time>
      </trkpt>
      <trkpt lat="44.55153" lon="3.10948">
        <ele>1255</ele>
        <time>2019-06-01T09:20:08.433Z</time>
      </trkpt>
      <trkpt lat="44.55155" lon="3.10948">
        <ele>1254</ele>
        <time>2019-06-01T09:20:13.473Z</time>
      </trkpt>
      <trkpt lat="44.55169" lon="3.10951">
        <ele>1254</ele>
        <time>2019-06-01T09:20:31.430Z</time>
      </trkpt>
      <trkpt lat="44.55171" lon="3.10951">
        <ele>1254</ele>
        <time>2019-06-01T09:20:36.443Z</time>
      </trkpt>
      <trkpt lat="44.55174" lon="3.10949">
        <ele>1254</ele>
        <time>2019-06-01T09:20:40.462Z</time>
      </trkpt>
      <trkpt lat="44.55175" lon="3.10945">
        <ele>1254</ele>
        <time>2019-06-01T09:20:44.482Z</time>
      </trkpt>
      <trkpt lat="44.55176" lon="3.10939">
        <ele>1254</ele>
        <time>2019-06-01T09:20:49.449Z</time>
      </trkpt>
      <trkpt lat="44.55182" lon="3.10936">
        <ele>1254</ele>
        <time>2019-06-01T09:20:54.460Z</time>
      </trkpt>
      <trkpt lat="44.55186" lon="3.10934">
        <ele>1254</ele>
        <time>2019-06-01T09:20:58.476Z</time>
      </trkpt>
      <trkpt lat="44.55188" lon="3.10931">
        <ele>1254</ele>
        <time>2019-06-01T09:21:03.482Z</time>
      </trkpt>
      <trkpt lat="44.5519" lon="3.1093">
        <ele>1252</ele>
        <time>2019-06-01T09:21:08.448Z</time>
      </trkpt>
      <trkpt lat="44.55194" lon="3.10926">
        <ele>1252</ele>
        <time>2019-06-01T09:21:13.448Z</time>
      </trkpt>
      <trkpt lat="44.55198" lon="3.10924">
        <ele>1252</ele>
        <time>2019-06-01T09:21:18.445Z</time>
      </trkpt>
      <trkpt lat="44.55202" lon="3.10925">
        <ele>1252</ele>
        <time>2019-06-01T09:21:22.453Z</time>
      </trkpt>
      <trkpt lat="44.55204" lon="3.10925">
        <ele>1252</ele>
        <time>2019-06-01T09:21:25.442Z</time>
      </trkpt>
      <trkpt lat="44.55207" lon="3.10924">
        <ele>1252</ele>
        <time>2019-06-01T09:21:31.435Z</time>
      </trkpt>
      <trkpt lat="44.55219" lon="3.1092">
        <ele>1252</ele>
        <time>2019-06-01T09:21:40.433Z</time>
      </trkpt>
      <trkpt lat="44.55224" lon="3.10916">
        <ele>1252</ele>
        <time>2019-06-01T09:21:45.430Z</time>
      </trkpt>
      <trkpt lat="44.55225" lon="3.10916">
        <ele>1252</ele>
        <time>2019-06-01T09:21:54.442Z</time>
      </trkpt>
      <trkpt lat="44.55226" lon="3.10916">
        <ele>1252</ele>
        <time>2019-06-01T09:21:59.465Z</time>
      </trkpt>
      <trkpt lat="44.55229" lon="3.10914">
        <ele>1252</ele>
        <time>2019-06-01T09:22:03.474Z</time>
      </trkpt>
      <trkpt lat="44.55234" lon="3.1091">
        <ele>1252</ele>
        <time>2019-06-01T09:22:08.433Z</time>
      </trkpt>
      <trkpt lat="44.55237" lon="3.10907">
        <ele>1253</ele>
        <time>2019-06-01T09:22:12.459Z</time>
      </trkpt>
      <trkpt lat="44.55241" lon="3.10904">
        <ele>1253</ele>
        <time>2019-06-01T09:22:17.451Z</time>
      </trkpt>
      <trkpt lat="44.55245" lon="3.109">
        <ele>1251</ele>
        <time>2019-06-01T09:22:22.480Z</time>
      </trkpt>
      <trkpt lat="44.55251" lon="3.10896">
        <ele>1251</ele>
        <time>2019-06-01T09:22:27.449Z</time>
      </trkpt>
      <trkpt lat="44.55251" lon="3.10895">
        <ele>1251</ele>
        <time>2019-06-01T09:22:32.453Z</time>
      </trkpt>
      <trkpt lat="44.55254" lon="3.10891">
        <ele>1251</ele>
        <time>2019-06-01T09:22:37.457Z</time>
      </trkpt>
      <trkpt lat="44.55257" lon="3.10887">
        <ele>1251</ele>
        <time>2019-06-01T09:22:42.455Z</time>
      </trkpt>
      <trkpt lat="44.5526" lon="3.10883">
        <ele>1251</ele>
        <time>2019-06-01T09:22:47.447Z</time>
      </trkpt>
      <trkpt lat="44.55263" lon="3.10879">
        <ele>1251</ele>
        <time>2019-06-01T09:22:52.455Z</time>
      </trkpt>
      <trkpt lat="44.55266" lon="3.10876">
        <ele>1254</ele>
        <time>2019-06-01T09:22:56.459Z</time>
      </trkpt>
      <trkpt lat="44.55271" lon="3.10871">
        <ele>1253</ele>
        <time>2019-06-01T09:23:01.451Z</time>
      </trkpt>
      <trkpt lat="44.55275" lon="3.10866">
        <ele>1253</ele>
        <time>2019-06-01T09:23:06.454Z</time>
      </trkpt>
      <trkpt lat="44.5528" lon="3.1086">
        <ele>1253</ele>
        <time>2019-06-01T09:23:11.446Z</time>
      </trkpt>
      <trkpt lat="44.55281" lon="3.10852">
        <ele>1253</ele>
        <time>2019-06-01T09:23:16.449Z</time>
      </trkpt>
      <trkpt lat="44.55284" lon="3.10846">
        <ele>1253</ele>
        <time>2019-06-01T09:23:21.463Z</time>
      </trkpt>
      <trkpt lat="44.55286" lon="3.1084">
        <ele>1253</ele>
        <time>2019-06-01T09:23:26.449Z</time>
      </trkpt>
      <trkpt lat="44.55286" lon="3.10837">
        <ele>1253</ele>
        <time>2019-06-01T09:23:30.451Z</time>
      </trkpt>
      <trkpt lat="44.55289" lon="3.10833">
        <ele>1253</ele>
        <time>2019-06-01T09:23:35.452Z</time>
      </trkpt>
      <trkpt lat="44.55289" lon="3.10831">
        <ele>1253</ele>
        <time>2019-06-01T09:23:40.456Z</time>
      </trkpt>
      <trkpt lat="44.5529" lon="3.10823">
        <ele>1253</ele>
        <time>2019-06-01T09:23:45.454Z</time>
      </trkpt>
      <trkpt lat="44.55292" lon="3.10815">
        <ele>1255</ele>
        <time>2019-06-01T09:23:50.444Z</time>
      </trkpt>
      <trkpt lat="44.55295" lon="3.10807">
        <ele>1255</ele>
        <time>2019-06-01T09:23:55.446Z</time>
      </trkpt>
      <trkpt lat="44.55296" lon="3.10799">
        <ele>1255</ele>
        <time>2019-06-01T09:23:59.470Z</time>
      </trkpt>
      <trkpt lat="44.55297" lon="3.10792">
        <ele>1255</ele>
        <time>2019-06-01T09:24:04.452Z</time>
      </trkpt>
      <trkpt lat="44.55299" lon="3.10786">
        <ele>1255</ele>
        <time>2019-06-01T09:24:08.484Z</time>
      </trkpt>
      <trkpt lat="44.55301" lon="3.10781">
        <ele>1255</ele>
        <time>2019-06-01T09:24:13.466Z</time>
      </trkpt>
      <trkpt lat="44.55302" lon="3.10776">
        <ele>1255</ele>
        <time>2019-06-01T09:24:18.465Z</time>
      </trkpt>
      <trkpt lat="44.55303" lon="3.1077">
        <ele>1255</ele>
        <time>2019-06-01T09:24:23.456Z</time>
      </trkpt>
      <trkpt lat="44.55307" lon="3.10762">
        <ele>1254</ele>
        <time>2019-06-01T09:24:28.485Z</time>
      </trkpt>
      <trkpt lat="44.55308" lon="3.10756">
        <ele>1254</ele>
        <time>2019-06-01T09:24:33.449Z</time>
      </trkpt>
      <trkpt lat="44.55311" lon="3.1075">
        <ele>1254</ele>
        <time>2019-06-01T09:24:38.447Z</time>
      </trkpt>
      <trkpt lat="44.55314" lon="3.10745">
        <ele>1254</ele>
        <time>2019-06-01T09:24:43.466Z</time>
      </trkpt>
      <trkpt lat="44.55319" lon="3.10739">
        <ele>1254</ele>
        <time>2019-06-01T09:24:48.432Z</time>
      </trkpt>
      <trkpt lat="44.55321" lon="3.1073">
        <ele>1254</ele>
        <time>2019-06-01T09:24:53.460Z</time>
      </trkpt>
      <trkpt lat="44.55324" lon="3.10726">
        <ele>1254</ele>
        <time>2019-06-01T09:24:58.452Z</time>
      </trkpt>
      <trkpt lat="44.55324" lon="3.10726">
        <ele>1254</ele>
        <time>2019-06-01T09:25:02.467Z</time>
      </trkpt>
      <trkpt lat="44.55327" lon="3.10726">
        <ele>1254</ele>
        <time>2019-06-01T09:25:07.447Z</time>
      </trkpt>
      <trkpt lat="44.55332" lon="3.10725">
        <ele>1254</ele>
        <time>2019-06-01T09:25:12.449Z</time>
      </trkpt>
      <trkpt lat="44.55338" lon="3.10721">
        <ele>1254</ele>
        <time>2019-06-01T09:25:17.452Z</time>
      </trkpt>
      <trkpt lat="44.55342" lon="3.10722">
        <ele>1254</ele>
        <time>2019-06-01T09:25:22.448Z</time>
      </trkpt>
      <trkpt lat="44.55344" lon="3.10722">
        <ele>1254</ele>
        <time>2019-06-01T09:25:26.451Z</time>
      </trkpt>
      <trkpt lat="44.55345" lon="3.10719">
        <ele>1254</ele>
        <time>2019-06-01T09:25:36.458Z</time>
      </trkpt>
      <trkpt lat="44.5535" lon="3.10718">
        <ele>1257</ele>
        <time>2019-06-01T09:25:41.446Z</time>
      </trkpt>
      <trkpt lat="44.55354" lon="3.10719">
        <ele>1257</ele>
        <time>2019-06-01T09:25:46.485Z</time>
      </trkpt>
      <trkpt lat="44.5536" lon="3.10717">
        <ele>1257</ele>
        <time>2019-06-01T09:25:51.449Z</time>
      </trkpt>
      <trkpt lat="44.55364" lon="3.10713">
        <ele>1257</ele>
        <time>2019-06-01T09:25:55.470Z</time>
      </trkpt>
      <trkpt lat="44.55369" lon="3.10707">
        <ele>1256</ele>
        <time>2019-06-01T09:26:00.451Z</time>
      </trkpt>
      <trkpt lat="44.55373" lon="3.10702">
        <ele>1256</ele>
        <time>2019-06-01T09:26:04.475Z</time>
      </trkpt>
      <trkpt lat="44.55376" lon="3.10696">
        <ele>1257</ele>
        <time>2019-06-01T09:26:09.449Z</time>
      </trkpt>
      <trkpt lat="44.5538" lon="3.10691">
        <ele>1257</ele>
        <time>2019-06-01T09:26:14.448Z</time>
      </trkpt>
      <trkpt lat="44.55382" lon="3.10688">
        <ele>1257</ele>
        <time>2019-06-01T09:26:18.465Z</time>
      </trkpt>
      <trkpt lat="44.55386" lon="3.10686">
        <ele>1257</ele>
        <time>2019-06-01T09:26:23.451Z</time>
      </trkpt>
      <trkpt lat="44.55389" lon="3.10683">
        <ele>1257</ele>
        <time>2019-06-01T09:26:28.451Z</time>
      </trkpt>
      <trkpt lat="44.55392" lon="3.10681">
        <ele>1256</ele>
        <time>2019-06-01T09:26:32.455Z</time>
      </trkpt>
      <trkpt lat="44.55396" lon="3.10679">
        <ele>1256</ele>
        <time>2019-06-01T09:26:37.451Z</time>
      </trkpt>
      <trkpt lat="44.554" lon="3.10677">
        <ele>1256</ele>
        <time>2019-06-01T09:26:41.453Z</time>
      </trkpt>
      <trkpt lat="44.55402" lon="3.10675">
        <ele>1256</ele>
        <time>2019-06-01T09:26:46.456Z</time>
      </trkpt>
      <trkpt lat="44.55405" lon="3.10675">
        <ele>1260</ele>
        <time>2019-06-01T09:26:51.450Z</time>
      </trkpt>
      <trkpt lat="44.55412" lon="3.10674">
        <ele>1260</ele>
        <time>2019-06-01T09:27:14.459Z</time>
      </trkpt>
      <trkpt lat="44.55417" lon="3.10673">
        <ele>1260</ele>
        <time>2019-06-01T09:27:19.443Z</time>
      </trkpt>
      <trkpt lat="44.55422" lon="3.10673">
        <ele>1260</ele>
        <time>2019-06-01T09:27:24.454Z</time>
      </trkpt>
      <trkpt lat="44.55429" lon="3.1067">
        <ele>1260</ele>
        <time>2019-06-01T09:27:29.455Z</time>
      </trkpt>
      <trkpt lat="44.55436" lon="3.10667">
        <ele>1264</ele>
        <time>2019-06-01T09:27:34.446Z</time>
      </trkpt>
      <trkpt lat="44.55444" lon="3.10665">
        <ele>1264</ele>
        <time>2019-06-01T09:27:38.488Z</time>
      </trkpt>
      <trkpt lat="44.55449" lon="3.10659">
        <ele>1264</ele>
        <time>2019-06-01T09:27:43.450Z</time>
      </trkpt>
      <trkpt lat="44.5545" lon="3.10657">
        <ele>1264</ele>
        <time>2019-06-01T09:27:48.456Z</time>
      </trkpt>
      <trkpt lat="44.55454" lon="3.10656">
        <ele>1264</ele>
        <time>2019-06-01T09:27:53.452Z</time>
      </trkpt>
      <trkpt lat="44.55459" lon="3.10651">
        <ele>1265</ele>
        <time>2019-06-01T09:27:58.453Z</time>
      </trkpt>
      <trkpt lat="44.55467" lon="3.10642">
        <ele>1265</ele>
        <time>2019-06-01T09:28:03.454Z</time>
      </trkpt>
      <trkpt lat="44.55472" lon="3.10635">
        <ele>1265</ele>
        <time>2019-06-01T09:28:08.449Z</time>
      </trkpt>
      <trkpt lat="44.55477" lon="3.1063">
        <ele>1265</ele>
        <time>2019-06-01T09:28:13.459Z</time>
      </trkpt>
      <trkpt lat="44.55478" lon="3.10626">
        <ele>1265</ele>
        <time>2019-06-01T09:28:17.477Z</time>
      </trkpt>
      <trkpt lat="44.55482" lon="3.10622">
        <ele>1262</ele>
        <time>2019-06-01T09:28:22.459Z</time>
      </trkpt>
      <trkpt lat="44.55484" lon="3.10621">
        <ele>1262</ele>
        <time>2019-06-01T09:28:27.451Z</time>
      </trkpt>
      <trkpt lat="44.55488" lon="3.10625">
        <ele>1266</ele>
        <time>2019-06-01T09:28:32.453Z</time>
      </trkpt>
      <trkpt lat="44.55489" lon="3.10626">
        <ele>1269</ele>
        <time>2019-06-01T09:28:36.477Z</time>
      </trkpt>
      <trkpt lat="44.55493" lon="3.10625">
        <ele>1266</ele>
        <time>2019-06-01T09:28:41.454Z</time>
      </trkpt>
      <trkpt lat="44.55497" lon="3.10623">
        <ele>1266</ele>
        <time>2019-06-01T09:28:45.475Z</time>
      </trkpt>
      <trkpt lat="44.55504" lon="3.10624">
        <ele>1266</ele>
        <time>2019-06-01T09:28:50.447Z</time>
      </trkpt>
      <trkpt lat="44.55509" lon="3.10623">
        <ele>1266</ele>
        <time>2019-06-01T09:28:55.452Z</time>
      </trkpt>
      <trkpt lat="44.55514" lon="3.10622">
        <ele>1266</ele>
        <time>2019-06-01T09:29:00.446Z</time>
      </trkpt>
      <trkpt lat="44.55519" lon="3.10621">
        <ele>1270</ele>
        <time>2019-06-01T09:29:05.447Z</time>
      </trkpt>
      <trkpt lat="44.55523" lon="3.1062">
        <ele>1270</ele>
        <time>2019-06-01T09:29:10.445Z</time>
      </trkpt>
      <trkpt lat="44.55526" lon="3.1062">
        <ele>1270</ele>
        <time>2019-06-01T09:29:15.445Z</time>
      </trkpt>
      <trkpt lat="44.55531" lon="3.10619">
        <ele>1270</ele>
        <time>2019-06-01T09:29:19.483Z</time>
      </trkpt>
      <trkpt lat="44.55534" lon="3.10617">
        <ele>1270</ele>
        <time>2019-06-01T09:29:24.449Z</time>
      </trkpt>
      <trkpt lat="44.55537" lon="3.10617">
        <ele>1270</ele>
        <time>2019-06-01T09:29:28.454Z</time>
      </trkpt>
      <trkpt lat="44.55539" lon="3.10617">
        <ele>1270</ele>
        <time>2019-06-01T09:29:33.453Z</time>
      </trkpt>
      <trkpt lat="44.5554" lon="3.10617">
        <ele>1270</ele>
        <time>2019-06-01T09:29:38.457Z</time>
      </trkpt>
      <trkpt lat="44.55544" lon="3.10618">
        <ele>1273</ele>
        <time>2019-06-01T09:29:47.487Z</time>
      </trkpt>
      <trkpt lat="44.55548" lon="3.10622">
        <ele>1273</ele>
        <time>2019-06-01T09:29:57.446Z</time>
      </trkpt>
      <trkpt lat="44.55548" lon="3.10623">
        <ele>1273</ele>
        <time>2019-06-01T09:30:02.455Z</time>
      </trkpt>
      <trkpt lat="44.55552" lon="3.1063">
        <ele>1275</ele>
        <time>2019-06-01T09:30:07.449Z</time>
      </trkpt>
      <trkpt lat="44.55556" lon="3.10639">
        <ele>1275</ele>
        <time>2019-06-01T09:30:12.453Z</time>
      </trkpt>
      <trkpt lat="44.55559" lon="3.10647">
        <ele>1275</ele>
        <time>2019-06-01T09:30:16.471Z</time>
      </trkpt>
      <trkpt lat="44.55562" lon="3.10656">
        <ele>1278</ele>
        <time>2019-06-01T09:30:21.454Z</time>
      </trkpt>
      <trkpt lat="44.55565" lon="3.10666">
        <ele>1278</ele>
        <time>2019-06-01T09:30:26.447Z</time>
      </trkpt>
      <trkpt lat="44.55569" lon="3.10673">
        <ele>1278</ele>
        <time>2019-06-01T09:30:36.446Z</time>
      </trkpt>
      <trkpt lat="44.55569" lon="3.10674">
        <ele>1278</ele>
        <time>2019-06-01T09:30:41.477Z</time>
      </trkpt>
      <trkpt lat="44.55572" lon="3.1068">
        <ele>1283</ele>
        <time>2019-06-01T09:30:46.458Z</time>
      </trkpt>
      <trkpt lat="44.55572" lon="3.10682">
        <ele>1284</ele>
        <time>2019-06-01T09:30:51.448Z</time>
      </trkpt>
      <trkpt lat="44.5558" lon="3.10694">
        <ele>1284</ele>
        <time>2019-06-01T09:31:00.478Z</time>
      </trkpt>
      <trkpt lat="44.55583" lon="3.10696">
        <ele>1284</ele>
        <time>2019-06-01T09:31:10.442Z</time>
      </trkpt>
      <trkpt lat="44.55586" lon="3.10697">
        <ele>1284</ele>
        <time>2019-06-01T09:31:15.452Z</time>
      </trkpt>
      <trkpt lat="44.55587" lon="3.10699">
        <ele>1284</ele>
        <time>2019-06-01T09:31:20.442Z</time>
      </trkpt>
      <trkpt lat="44.55591" lon="3.10705">
        <ele>1284</ele>
        <time>2019-06-01T09:31:24.455Z</time>
      </trkpt>
      <trkpt lat="44.55591" lon="3.10706">
        <ele>1284</ele>
        <time>2019-06-01T09:31:29.495Z</time>
      </trkpt>
      <trkpt lat="44.55595" lon="3.10715">
        <ele>1286</ele>
        <time>2019-06-01T09:31:34.448Z</time>
      </trkpt>
      <trkpt lat="44.55604" lon="3.10723">
        <ele>1290</ele>
        <time>2019-06-01T09:31:52.439Z</time>
      </trkpt>
      <trkpt lat="44.55613" lon="3.10731">
        <ele>1290</ele>
        <time>2019-06-01T09:31:57.439Z</time>
      </trkpt>
      <trkpt lat="44.55619" lon="3.10739">
        <ele>1290</ele>
        <time>2019-06-01T09:32:06.486Z</time>
      </trkpt>
      <trkpt lat="44.5563" lon="3.10754">
        <ele>1294</ele>
        <time>2019-06-01T09:32:11.452Z</time>
      </trkpt>
      <trkpt lat="44.55632" lon="3.10759">
        <ele>1294</ele>
        <time>2019-06-01T09:32:16.454Z</time>
      </trkpt>
      <trkpt lat="44.55633" lon="3.10763">
        <ele>1294</ele>
        <time>2019-06-01T09:32:21.475Z</time>
      </trkpt>
      <trkpt lat="44.55635" lon="3.10765">
        <ele>1294</ele>
        <time>2019-06-01T09:32:26.453Z</time>
      </trkpt>
      <trkpt lat="44.55637" lon="3.10774">
        <ele>1294</ele>
        <time>2019-06-01T09:32:31.448Z</time>
      </trkpt>
      <trkpt lat="44.55638" lon="3.10779">
        <ele>1294</ele>
        <time>2019-06-01T09:32:36.435Z</time>
      </trkpt>
      <trkpt lat="44.5564" lon="3.10786">
        <ele>1294</ele>
        <time>2019-06-01T09:32:40.452Z</time>
      </trkpt>
      <trkpt lat="44.55642" lon="3.10792">
        <ele>1296</ele>
        <time>2019-06-01T09:32:44.479Z</time>
      </trkpt>
      <trkpt lat="44.55645" lon="3.108">
        <ele>1296</ele>
        <time>2019-06-01T09:32:49.444Z</time>
      </trkpt>
      <trkpt lat="44.55646" lon="3.10806">
        <ele>1296</ele>
        <time>2019-06-01T09:32:54.452Z</time>
      </trkpt>
      <trkpt lat="44.55648" lon="3.10812">
        <ele>1296</ele>
        <time>2019-06-01T09:32:59.448Z</time>
      </trkpt>
      <trkpt lat="44.55649" lon="3.10819">
        <ele>1296</ele>
        <time>2019-06-01T09:33:03.481Z</time>
      </trkpt>
      <trkpt lat="44.55651" lon="3.10828">
        <ele>1296</ele>
        <time>2019-06-01T09:33:08.445Z</time>
      </trkpt>
      <trkpt lat="44.55653" lon="3.10836">
        <ele>1300</ele>
        <time>2019-06-01T09:33:13.458Z</time>
      </trkpt>
      <trkpt lat="44.55655" lon="3.10841">
        <ele>1300</ele>
        <time>2019-06-01T09:33:18.477Z</time>
      </trkpt>
      <trkpt lat="44.55656" lon="3.10848">
        <ele>1298</ele>
        <time>2019-06-01T09:33:23.464Z</time>
      </trkpt>
      <trkpt lat="44.55656" lon="3.10853">
        <ele>1298</ele>
        <time>2019-06-01T09:33:27.479Z</time>
      </trkpt>
      <trkpt lat="44.55657" lon="3.10857">
        <ele>1298</ele>
        <time>2019-06-01T09:33:32.452Z</time>
      </trkpt>
      <trkpt lat="44.55658" lon="3.10863">
        <ele>1298</ele>
        <time>2019-06-01T09:33:37.450Z</time>
      </trkpt>
      <trkpt lat="44.55661" lon="3.1087">
        <ele>1298</ele>
        <time>2019-06-01T09:33:42.483Z</time>
      </trkpt>
      <trkpt lat="44.55666" lon="3.1088">
        <ele>1296</ele>
        <time>2019-06-01T09:33:47.445Z</time>
      </trkpt>
      <trkpt lat="44.55669" lon="3.10888">
        <ele>1296</ele>
        <time>2019-06-01T09:33:51.461Z</time>
      </trkpt>
      <trkpt lat="44.55671" lon="3.10899">
        <ele>1296</ele>
        <time>2019-06-01T09:33:56.453Z</time>
      </trkpt>
      <trkpt lat="44.55673" lon="3.10906">
        <ele>1298</ele>
        <time>2019-06-01T09:34:00.480Z</time>
      </trkpt>
      <trkpt lat="44.55674" lon="3.10912">
        <ele>1298</ele>
        <time>2019-06-01T09:34:05.446Z</time>
      </trkpt>
      <trkpt lat="44.55676" lon="3.10916">
        <ele>1298</ele>
        <time>2019-06-01T09:34:52.466Z</time>
      </trkpt>
      <trkpt lat="44.55676" lon="3.10917">
        <ele>1298</ele>
        <time>2019-06-01T09:34:56.473Z</time>
      </trkpt>
      <trkpt lat="44.55674" lon="3.10919">
        <ele>1298</ele>
        <time>2019-06-01T09:35:35.456Z</time>
      </trkpt>
      <trkpt lat="44.55677" lon="3.1092">
        <ele>1298</ele>
        <time>2019-06-01T09:35:40.434Z</time>
      </trkpt>
      <trkpt lat="44.55678" lon="3.10935">
        <ele>1298</ele>
        <time>2019-06-01T09:37:32.478Z</time>
      </trkpt>
      <trkpt lat="44.55679" lon="3.1095">
        <ele>1298</ele>
        <time>2019-06-01T09:37:42.456Z</time>
      </trkpt>
      <trkpt lat="44.55678" lon="3.10954">
        <ele>1298</ele>
        <time>2019-06-01T09:38:06.477Z</time>
      </trkpt>
      <trkpt lat="44.55676" lon="3.10956">
        <ele>1298</ele>
        <time>2019-06-01T09:38:11.452Z</time>
      </trkpt>
      <trkpt lat="44.55674" lon="3.10958">
        <ele>1298</ele>
        <time>2019-06-01T09:38:16.481Z</time>
      </trkpt>
      <trkpt lat="44.5567" lon="3.10967">
        <ele>1299</ele>
        <time>2019-06-01T09:39:01.484Z</time>
      </trkpt>
      <trkpt lat="44.55667" lon="3.10977">
        <ele>1299</ele>
        <time>2019-06-01T09:39:06.451Z</time>
      </trkpt>
      <trkpt lat="44.55665" lon="3.1098">
        <ele>1299</ele>
        <time>2019-06-01T09:39:11.449Z</time>
      </trkpt>
      <trkpt lat="44.55662" lon="3.10983">
        <ele>1299</ele>
        <time>2019-06-01T09:39:16.448Z</time>
      </trkpt>
      <trkpt lat="44.55659" lon="3.1099">
        <ele>1299</ele>
        <time>2019-06-01T09:39:20.449Z</time>
      </trkpt>
      <trkpt lat="44.55655" lon="3.10996">
        <ele>1299</ele>
        <time>2019-06-01T09:39:25.468Z</time>
      </trkpt>
      <trkpt lat="44.55651" lon="3.11005">
        <ele>1298</ele>
        <time>2019-06-01T09:39:30.448Z</time>
      </trkpt>
      <trkpt lat="44.55649" lon="3.1101">
        <ele>1298</ele>
        <time>2019-06-01T09:39:34.477Z</time>
      </trkpt>
      <trkpt lat="44.55647" lon="3.11018">
        <ele>1299</ele>
        <time>2019-06-01T09:39:39.456Z</time>
      </trkpt>
      <trkpt lat="44.55647" lon="3.11024">
        <ele>1299</ele>
        <time>2019-06-01T09:39:43.481Z</time>
      </trkpt>
      <trkpt lat="44.55647" lon="3.11026">
        <ele>1299</ele>
        <time>2019-06-01T09:39:48.449Z</time>
      </trkpt>
      <trkpt lat="44.55646" lon="3.11031">
        <ele>1299</ele>
        <time>2019-06-01T09:39:52.454Z</time>
      </trkpt>
      <trkpt lat="44.55647" lon="3.11041">
        <ele>1299</ele>
        <time>2019-06-01T09:39:57.455Z</time>
      </trkpt>
      <trkpt lat="44.55646" lon="3.11044">
        <ele>1299</ele>
        <time>2019-06-01T09:40:01.490Z</time>
      </trkpt>
      <trkpt lat="44.55644" lon="3.11051">
        <ele>1299</ele>
        <time>2019-06-01T09:40:06.452Z</time>
      </trkpt>
      <trkpt lat="44.55643" lon="3.11056">
        <ele>1299</ele>
        <time>2019-06-01T09:40:11.482Z</time>
      </trkpt>
      <trkpt lat="44.55643" lon="3.11057">
        <ele>1299</ele>
        <time>2019-06-01T09:40:16.452Z</time>
      </trkpt>
      <trkpt lat="44.55643" lon="3.11059">
        <ele>1299</ele>
        <time>2019-06-01T09:40:38.451Z</time>
      </trkpt>
      <trkpt lat="44.55642" lon="3.11063">
        <ele>1299</ele>
        <time>2019-06-01T09:40:42.478Z</time>
      </trkpt>
      <trkpt lat="44.55641" lon="3.11067">
        <ele>1299</ele>
        <time>2019-06-01T09:40:47.444Z</time>
      </trkpt>
      <trkpt lat="44.55638" lon="3.11074">
        <ele>1300</ele>
        <time>2019-06-01T09:40:52.451Z</time>
      </trkpt>
      <trkpt lat="44.55638" lon="3.11078">
        <ele>1300</ele>
        <time>2019-06-01T09:40:57.453Z</time>
      </trkpt>
      <trkpt lat="44.55634" lon="3.11083">
        <ele>1300</ele>
        <time>2019-06-01T09:41:02.452Z</time>
      </trkpt>
      <trkpt lat="44.55632" lon="3.11085">
        <ele>1300</ele>
        <time>2019-06-01T09:41:06.462Z</time>
      </trkpt>
      <trkpt lat="44.5563" lon="3.11088">
        <ele>1300</ele>
        <time>2019-06-01T09:41:11.456Z</time>
      </trkpt>
      <trkpt lat="44.55627" lon="3.11089">
        <ele>1300</ele>
        <time>2019-06-01T09:41:16.453Z</time>
      </trkpt>
      <trkpt lat="44.55626" lon="3.11089">
        <ele>1300</ele>
        <time>2019-06-01T09:41:20.478Z</time>
      </trkpt>
      <trkpt lat="44.55627" lon="3.11096">
        <ele>1300</ele>
        <time>2019-06-01T09:42:21.474Z</time>
      </trkpt>
      <trkpt lat="44.55626" lon="3.11101">
        <ele>1300</ele>
        <time>2019-06-01T09:42:59.454Z</time>
      </trkpt>
      <trkpt lat="44.55625" lon="3.1111">
        <ele>1300</ele>
        <time>2019-06-01T09:43:36.484Z</time>
      </trkpt>
      <trkpt lat="44.55627" lon="3.11119">
        <ele>1300</ele>
        <time>2019-06-01T09:43:41.458Z</time>
      </trkpt>
      <trkpt lat="44.55628" lon="3.11123">
        <ele>1300</ele>
        <time>2019-06-01T09:43:45.481Z</time>
      </trkpt>
      <trkpt lat="44.55629" lon="3.11127">
        <ele>1300</ele>
        <time>2019-06-01T09:43:50.429Z</time>
      </trkpt>
      <trkpt lat="44.5563" lon="3.11129">
        <ele>1300</ele>
        <time>2019-06-01T09:43:54.480Z</time>
      </trkpt>
      <trkpt lat="44.5563" lon="3.11134">
        <ele>1300</ele>
        <time>2019-06-01T09:43:59.447Z</time>
      </trkpt>
      <trkpt lat="44.55631" lon="3.11137">
        <ele>1300</ele>
        <time>2019-06-01T09:44:04.450Z</time>
      </trkpt>
      <trkpt lat="44.55632" lon="3.11137">
        <ele>1300</ele>
        <time>2019-06-01T09:44:09.452Z</time>
      </trkpt>
      <trkpt lat="44.55634" lon="3.11145">
        <ele>1300</ele>
        <time>2019-06-01T09:44:13.471Z</time>
      </trkpt>
      <trkpt lat="44.55637" lon="3.11151">
        <ele>1300</ele>
        <time>2019-06-01T09:44:18.441Z</time>
      </trkpt>
      <trkpt lat="44.5564" lon="3.1116">
        <ele>1299</ele>
        <time>2019-06-01T09:44:22.453Z</time>
      </trkpt>
      <trkpt lat="44.55643" lon="3.11165">
        <ele>1299</ele>
        <time>2019-06-01T09:44:26.477Z</time>
      </trkpt>
      <trkpt lat="44.55645" lon="3.11168">
        <ele>1299</ele>
        <time>2019-06-01T09:44:31.447Z</time>
      </trkpt>
      <trkpt lat="44.55648" lon="3.11174">
        <ele>1299</ele>
        <time>2019-06-01T09:44:36.465Z</time>
      </trkpt>
      <trkpt lat="44.55649" lon="3.11177">
        <ele>1299</ele>
        <time>2019-06-01T09:44:41.456Z</time>
      </trkpt>
      <trkpt lat="44.5565" lon="3.11185">
        <ele>1298</ele>
        <time>2019-06-01T09:44:46.447Z</time>
      </trkpt>
      <trkpt lat="44.55651" lon="3.1119">
        <ele>1298</ele>
        <time>2019-06-01T09:44:51.456Z</time>
      </trkpt>
      <trkpt lat="44.55653" lon="3.11194">
        <ele>1301</ele>
        <time>2019-06-01T09:44:56.444Z</time>
      </trkpt>
      <trkpt lat="44.55654" lon="3.11199">
        <ele>1301</ele>
        <time>2019-06-01T09:45:00.450Z</time>
      </trkpt>
      <trkpt lat="44.55653" lon="3.11203">
        <ele>1301</ele>
        <time>2019-06-01T09:45:05.455Z</time>
      </trkpt>
      <trkpt lat="44.55654" lon="3.11206">
        <ele>1301</ele>
        <time>2019-06-01T09:45:09.488Z</time>
      </trkpt>
      <trkpt lat="44.55655" lon="3.11211">
        <ele>1299</ele>
        <time>2019-06-01T09:45:14.444Z</time>
      </trkpt>
      <trkpt lat="44.55654" lon="3.11228">
        <ele>1299</ele>
        <time>2019-06-01T09:45:36.486Z</time>
      </trkpt>
      <trkpt lat="44.55654" lon="3.11239">
        <ele>1297</ele>
        <time>2019-06-01T09:45:41.453Z</time>
      </trkpt>
      <trkpt lat="44.55655" lon="3.11243">
        <ele>1297</ele>
        <time>2019-06-01T09:45:46.456Z</time>
      </trkpt>
      <trkpt lat="44.55658" lon="3.11249">
        <ele>1297</ele>
        <time>2019-06-01T09:46:15.450Z</time>
      </trkpt>
      <trkpt lat="44.55658" lon="3.11251">
        <ele>1297</ele>
        <time>2019-06-01T09:46:47.485Z</time>
      </trkpt>
      <trkpt lat="44.55659" lon="3.11255">
        <ele>1297</ele>
        <time>2019-06-01T09:46:52.453Z</time>
      </trkpt>
      <trkpt lat="44.55659" lon="3.11259">
        <ele>1297</ele>
        <time>2019-06-01T09:47:02.452Z</time>
      </trkpt>
      <trkpt lat="44.55659" lon="3.11261">
        <ele>1297</ele>
        <time>2019-06-01T09:47:07.452Z</time>
      </trkpt>
      <trkpt lat="44.55659" lon="3.11264">
        <ele>1297</ele>
        <time>2019-06-01T09:47:11.458Z</time>
      </trkpt>
      <trkpt lat="44.55659" lon="3.11267">
        <ele>1297</ele>
        <time>2019-06-01T09:47:16.455Z</time>
      </trkpt>
      <trkpt lat="44.55658" lon="3.11283">
        <ele>1297</ele>
        <time>2019-06-01T09:47:26.449Z</time>
      </trkpt>
      <trkpt lat="44.55658" lon="3.11295">
        <ele>1298</ele>
        <time>2019-06-01T09:47:31.451Z</time>
      </trkpt>
      <trkpt lat="44.55659" lon="3.11305">
        <ele>1298</ele>
        <time>2019-06-01T09:47:36.476Z</time>
      </trkpt>
      <trkpt lat="44.55659" lon="3.11316">
        <ele>1298</ele>
        <time>2019-06-01T09:47:41.448Z</time>
      </trkpt>
      <trkpt lat="44.55662" lon="3.11324">
        <ele>1298</ele>
        <time>2019-06-01T09:47:46.450Z</time>
      </trkpt>
      <trkpt lat="44.55661" lon="3.11328">
        <ele>1298</ele>
        <time>2019-06-01T09:47:50.485Z</time>
      </trkpt>
      <trkpt lat="44.55661" lon="3.11329">
        <ele>1298</ele>
        <time>2019-06-01T09:47:55.431Z</time>
      </trkpt>
      <trkpt lat="44.55661" lon="3.11336">
        <ele>1298</ele>
        <time>2019-06-01T09:48:27.482Z</time>
      </trkpt>
      <trkpt lat="44.55661" lon="3.11341">
        <ele>1298</ele>
        <time>2019-06-01T09:48:32.450Z</time>
      </trkpt>
      <trkpt lat="44.55659" lon="3.11345">
        <ele>1298</ele>
        <time>2019-06-01T09:48:37.451Z</time>
      </trkpt>
      <trkpt lat="44.55659" lon="3.11349">
        <ele>1298</ele>
        <time>2019-06-01T09:48:42.450Z</time>
      </trkpt>
      <trkpt lat="44.55659" lon="3.11358">
        <ele>1298</ele>
        <time>2019-06-01T09:48:47.452Z</time>
      </trkpt>
      <trkpt lat="44.5566" lon="3.11373">
        <ele>1298</ele>
        <time>2019-06-01T09:48:52.453Z</time>
      </trkpt>
      <trkpt lat="44.5566" lon="3.11382">
        <ele>1299</ele>
        <time>2019-06-01T09:48:57.453Z</time>
      </trkpt>
      <trkpt lat="44.5566" lon="3.1139">
        <ele>1299</ele>
        <time>2019-06-01T09:49:02.478Z</time>
      </trkpt>
      <trkpt lat="44.55661" lon="3.11393">
        <ele>1299</ele>
        <time>2019-06-01T09:50:00.461Z</time>
      </trkpt>
      <trkpt lat="44.55661" lon="3.11395">
        <ele>1299</ele>
        <time>2019-06-01T09:50:09.445Z</time>
      </trkpt>
      <trkpt lat="44.55661" lon="3.11404">
        <ele>1299</ele>
        <time>2019-06-01T09:50:47.430Z</time>
      </trkpt>
      <trkpt lat="44.55661" lon="3.11406">
        <ele>1299</ele>
        <time>2019-06-01T09:50:51.452Z</time>
      </trkpt>
      <trkpt lat="44.55661" lon="3.11408">
        <ele>1299</ele>
        <time>2019-06-01T09:51:09.488Z</time>
      </trkpt>
      <trkpt lat="44.55661" lon="3.11409">
        <ele>1299</ele>
        <time>2019-06-01T09:51:44.455Z</time>
      </trkpt>
      <trkpt lat="44.55663" lon="3.11416">
        <ele>1299</ele>
        <time>2019-06-01T09:51:49.445Z</time>
      </trkpt>
      <trkpt lat="44.55665" lon="3.11422">
        <ele>1299</ele>
        <time>2019-06-01T09:51:53.453Z</time>
      </trkpt>
      <trkpt lat="44.55665" lon="3.11426">
        <ele>1299</ele>
        <time>2019-06-01T09:51:57.477Z</time>
      </trkpt>
      <trkpt lat="44.55666" lon="3.11432">
        <ele>1300</ele>
        <time>2019-06-01T09:52:02.445Z</time>
      </trkpt>
      <trkpt lat="44.55667" lon="3.11439">
        <ele>1300</ele>
        <time>2019-06-01T09:52:06.478Z</time>
      </trkpt>
      <trkpt lat="44.55668" lon="3.11446">
        <ele>1300</ele>
        <time>2019-06-01T09:52:11.450Z</time>
      </trkpt>
      <trkpt lat="44.55668" lon="3.1145">
        <ele>1300</ele>
        <time>2019-06-01T09:52:16.452Z</time>
      </trkpt>
      <trkpt lat="44.55666" lon="3.11454">
        <ele>1300</ele>
        <time>2019-06-01T09:52:21.454Z</time>
      </trkpt>
      <trkpt lat="44.55664" lon="3.11458">
        <ele>1300</ele>
        <time>2019-06-01T09:52:26.453Z</time>
      </trkpt>
      <trkpt lat="44.55662" lon="3.11461">
        <ele>1301</ele>
        <time>2019-06-01T09:52:31.473Z</time>
      </trkpt>
      <trkpt lat="44.5566" lon="3.11466">
        <ele>1301</ele>
        <time>2019-06-01T09:52:36.454Z</time>
      </trkpt>
      <trkpt lat="44.5566" lon="3.11473">
        <ele>1301</ele>
        <time>2019-06-01T09:52:41.446Z</time>
      </trkpt>
      <trkpt lat="44.55661" lon="3.11479">
        <ele>1301</ele>
        <time>2019-06-01T09:52:46.450Z</time>
      </trkpt>
      <trkpt lat="44.55662" lon="3.11481">
        <ele>1301</ele>
        <time>2019-06-01T09:54:08.456Z</time>
      </trkpt>
      <trkpt lat="44.55663" lon="3.11488">
        <ele>1301</ele>
        <time>2019-06-01T09:54:13.454Z</time>
      </trkpt>
      <trkpt lat="44.55665" lon="3.11492">
        <ele>1301</ele>
        <time>2019-06-01T09:54:18.477Z</time>
      </trkpt>
      <trkpt lat="44.55668" lon="3.11496">
        <ele>1301</ele>
        <time>2019-06-01T09:54:23.457Z</time>
      </trkpt>
      <trkpt lat="44.55668" lon="3.11499">
        <ele>1301</ele>
        <time>2019-06-01T09:54:27.485Z</time>
      </trkpt>
      <trkpt lat="44.55669" lon="3.11505">
        <ele>1301</ele>
        <time>2019-06-01T09:54:32.430Z</time>
      </trkpt>
      <trkpt lat="44.5567" lon="3.1151">
        <ele>1301</ele>
        <time>2019-06-01T09:54:36.453Z</time>
      </trkpt>
      <trkpt lat="44.5567" lon="3.11514">
        <ele>1301</ele>
        <time>2019-06-01T09:54:41.454Z</time>
      </trkpt>
      <trkpt lat="44.55672" lon="3.1152">
        <ele>1301</ele>
        <time>2019-06-01T09:54:46.442Z</time>
      </trkpt>
      <trkpt lat="44.55674" lon="3.11527">
        <ele>1301</ele>
        <time>2019-06-01T09:54:50.460Z</time>
      </trkpt>
      <trkpt lat="44.55676" lon="3.11534">
        <ele>1301</ele>
        <time>2019-06-01T09:54:54.485Z</time>
      </trkpt>
      <trkpt lat="44.55676" lon="3.11538">
        <ele>1301</ele>
        <time>2019-06-01T09:54:59.451Z</time>
      </trkpt>
      <trkpt lat="44.55678" lon="3.1154">
        <ele>1301</ele>
        <time>2019-06-01T09:55:04.432Z</time>
      </trkpt>
      <trkpt lat="44.55679" lon="3.11541">
        <ele>1301</ele>
        <time>2019-06-01T09:55:08.463Z</time>
      </trkpt>
      <trkpt lat="44.55681" lon="3.11546">
        <ele>1302</ele>
        <time>2019-06-01T09:55:13.451Z</time>
      </trkpt>
      <trkpt lat="44.55683" lon="3.1155">
        <ele>1302</ele>
        <time>2019-06-01T09:55:17.484Z</time>
      </trkpt>
      <trkpt lat="44.55684" lon="3.11555">
        <ele>1302</ele>
        <time>2019-06-01T09:55:22.450Z</time>
      </trkpt>
      <trkpt lat="44.55687" lon="3.11559">
        <ele>1302</ele>
        <time>2019-06-01T09:55:27.438Z</time>
      </trkpt>
      <trkpt lat="44.55688" lon="3.11562">
        <ele>1302</ele>
        <time>2019-06-01T09:55:31.457Z</time>
      </trkpt>
      <trkpt lat="44.55692" lon="3.11569">
        <ele>1302</ele>
        <time>2019-06-01T09:55:36.452Z</time>
      </trkpt>
      <trkpt lat="44.55694" lon="3.11575">
        <ele>1302</ele>
        <time>2019-06-01T09:55:40.481Z</time>
      </trkpt>
      <trkpt lat="44.55697" lon="3.11581">
        <ele>1302</ele>
        <time>2019-06-01T09:55:45.447Z</time>
      </trkpt>
      <trkpt lat="44.55698" lon="3.11586">
        <ele>1302</ele>
        <time>2019-06-01T09:55:49.472Z</time>
      </trkpt>
      <trkpt lat="44.557" lon="3.11591">
        <ele>1302</ele>
        <time>2019-06-01T09:55:54.478Z</time>
      </trkpt>
      <trkpt lat="44.55702" lon="3.11597">
        <ele>1302</ele>
        <time>2019-06-01T09:55:59.449Z</time>
      </trkpt>
      <trkpt lat="44.55704" lon="3.11603">
        <ele>1302</ele>
        <time>2019-06-01T09:56:03.454Z</time>
      </trkpt>
      <trkpt lat="44.55706" lon="3.1161">
        <ele>1302</ele>
        <time>2019-06-01T09:56:08.488Z</time>
      </trkpt>
      <trkpt lat="44.55707" lon="3.11616">
        <ele>1302</ele>
        <time>2019-06-01T09:56:13.454Z</time>
      </trkpt>
      <trkpt lat="44.55709" lon="3.11622">
        <ele>1303</ele>
        <time>2019-06-01T09:56:18.454Z</time>
      </trkpt>
      <trkpt lat="44.55709" lon="3.11627">
        <ele>1304</ele>
        <time>2019-06-01T09:56:22.470Z</time>
      </trkpt>
      <trkpt lat="44.55709" lon="3.11633">
        <ele>1304</ele>
        <time>2019-06-01T09:56:27.459Z</time>
      </trkpt>
      <trkpt lat="44.55709" lon="3.1164">
        <ele>1304</ele>
        <time>2019-06-01T09:56:32.446Z</time>
      </trkpt>
      <trkpt lat="44.55711" lon="3.11646">
        <ele>1304</ele>
        <time>2019-06-01T09:56:37.441Z</time>
      </trkpt>
      <trkpt lat="44.55712" lon="3.11651">
        <ele>1304</ele>
        <time>2019-06-01T09:56:42.451Z</time>
      </trkpt>
      <trkpt lat="44.55715" lon="3.11656">
        <ele>1306</ele>
        <time>2019-06-01T09:56:47.432Z</time>
      </trkpt>
      <trkpt lat="44.55716" lon="3.11657">
        <ele>1306</ele>
        <time>2019-06-01T09:56:52.433Z</time>
      </trkpt>
      <trkpt lat="44.55717" lon="3.11663">
        <ele>1306</ele>
        <time>2019-06-01T09:57:01.446Z</time>
      </trkpt>
      <trkpt lat="44.55716" lon="3.11667">
        <ele>1306</ele>
        <time>2019-06-01T09:57:20.429Z</time>
      </trkpt>
      <trkpt lat="44.55716" lon="3.11668">
        <ele>1306</ele>
        <time>2019-06-01T09:57:24.448Z</time>
      </trkpt>
      <trkpt lat="44.55716" lon="3.1167">
        <ele>1306</ele>
        <time>2019-06-01T09:57:28.474Z</time>
      </trkpt>
      <trkpt lat="44.55713" lon="3.11674">
        <ele>1306</ele>
        <time>2019-06-01T09:57:38.450Z</time>
      </trkpt>
      <trkpt lat="44.55711" lon="3.11678">
        <ele>1306</ele>
        <time>2019-06-01T09:57:43.457Z</time>
      </trkpt>
      <trkpt lat="44.55709" lon="3.11685">
        <ele>1308</ele>
        <time>2019-06-01T09:57:48.454Z</time>
      </trkpt>
      <trkpt lat="44.55706" lon="3.11692">
        <ele>1307</ele>
        <time>2019-06-01T09:57:53.451Z</time>
      </trkpt>
      <trkpt lat="44.55706" lon="3.11698">
        <ele>1307</ele>
        <time>2019-06-01T09:57:58.455Z</time>
      </trkpt>
      <trkpt lat="44.55706" lon="3.11702">
        <ele>1307</ele>
        <time>2019-06-01T09:58:03.455Z</time>
      </trkpt>
      <trkpt lat="44.55704" lon="3.11704">
        <ele>1307</ele>
        <time>2019-06-01T09:58:08.485Z</time>
      </trkpt>
      <trkpt lat="44.55702" lon="3.11709">
        <ele>1308</ele>
        <time>2019-06-01T09:58:13.478Z</time>
      </trkpt>
      <trkpt lat="44.55701" lon="3.11711">
        <ele>1308</ele>
        <time>2019-06-01T09:58:23.454Z</time>
      </trkpt>
      <trkpt lat="44.55698" lon="3.11716">
        <ele>1308</ele>
        <time>2019-06-01T09:58:28.451Z</time>
      </trkpt>
      <trkpt lat="44.55696" lon="3.11724">
        <ele>1308</ele>
        <time>2019-06-01T09:58:33.454Z</time>
      </trkpt>
      <trkpt lat="44.55693" lon="3.11732">
        <ele>1308</ele>
        <time>2019-06-01T09:58:38.453Z</time>
      </trkpt>
      <trkpt lat="44.55692" lon="3.11741">
        <ele>1309</ele>
        <time>2019-06-01T09:58:43.453Z</time>
      </trkpt>
      <trkpt lat="44.55691" lon="3.11749">
        <ele>1309</ele>
        <time>2019-06-01T09:58:48.450Z</time>
      </trkpt>
      <trkpt lat="44.55689" lon="3.11755">
        <ele>1309</ele>
        <time>2019-06-01T09:59:01.449Z</time>
      </trkpt>
      <trkpt lat="44.55687" lon="3.11757">
        <ele>1309</ele>
        <time>2019-06-01T09:59:05.453Z</time>
      </trkpt>
      <trkpt lat="44.55688" lon="3.11761">
        <ele>1309</ele>
        <time>2019-06-01T09:59:10.439Z</time>
      </trkpt>
      <trkpt lat="44.55688" lon="3.11763">
        <ele>1309</ele>
        <time>2019-06-01T09:59:20.428Z</time>
      </trkpt>
      <trkpt lat="44.55689" lon="3.11766">
        <ele>1310</ele>
        <time>2019-06-01T09:59:24.455Z</time>
      </trkpt>
      <trkpt lat="44.55689" lon="3.11774">
        <ele>1310</ele>
        <time>2019-06-01T09:59:29.456Z</time>
      </trkpt>
      <trkpt lat="44.55687" lon="3.1178">
        <ele>1310</ele>
        <time>2019-06-01T09:59:34.449Z</time>
      </trkpt>
      <trkpt lat="44.55687" lon="3.11783">
        <ele>1310</ele>
        <time>2019-06-01T09:59:39.477Z</time>
      </trkpt>
      <trkpt lat="44.55687" lon="3.11786">
        <ele>1310</ele>
        <time>2019-06-01T09:59:44.442Z</time>
      </trkpt>
      <trkpt lat="44.55686" lon="3.11793">
        <ele>1312</ele>
        <time>2019-06-01T09:59:49.473Z</time>
      </trkpt>
      <trkpt lat="44.55684" lon="3.11799">
        <ele>1312</ele>
        <time>2019-06-01T09:59:53.434Z</time>
      </trkpt>
      <trkpt lat="44.55685" lon="3.11803">
        <ele>1312</ele>
        <time>2019-06-01T09:59:58.472Z</time>
      </trkpt>
      <trkpt lat="44.55684" lon="3.11811">
        <ele>1312</ele>
        <time>2019-06-01T10:00:03.427Z</time>
      </trkpt>
      <trkpt lat="44.55681" lon="3.11816">
        <ele>1312</ele>
        <time>2019-06-01T10:00:07.468Z</time>
      </trkpt>
      <trkpt lat="44.55679" lon="3.11819">
        <ele>1312</ele>
        <time>2019-06-01T10:00:12.447Z</time>
      </trkpt>
      <trkpt lat="44.55677" lon="3.11824">
        <ele>1313</ele>
        <time>2019-06-01T10:00:16.468Z</time>
      </trkpt>
      <trkpt lat="44.55674" lon="3.11829">
        <ele>1313</ele>
        <time>2019-06-01T10:00:21.458Z</time>
      </trkpt>
      <trkpt lat="44.55672" lon="3.11838">
        <ele>1313</ele>
        <time>2019-06-01T10:00:26.492Z</time>
      </trkpt>
      <trkpt lat="44.55669" lon="3.11844">
        <ele>1313</ele>
        <time>2019-06-01T10:00:31.451Z</time>
      </trkpt>
      <trkpt lat="44.55669" lon="3.11848">
        <ele>1314</ele>
        <time>2019-06-01T10:00:35.459Z</time>
      </trkpt>
      <trkpt lat="44.55668" lon="3.11854">
        <ele>1314</ele>
        <time>2019-06-01T10:00:40.452Z</time>
      </trkpt>
      <trkpt lat="44.55669" lon="3.1186">
        <ele>1314</ele>
        <time>2019-06-01T10:00:44.471Z</time>
      </trkpt>
      <trkpt lat="44.5567" lon="3.11867">
        <ele>1314</ele>
        <time>2019-06-01T10:00:49.455Z</time>
      </trkpt>
      <trkpt lat="44.5567" lon="3.11873">
        <ele>1314</ele>
        <time>2019-06-01T10:00:53.485Z</time>
      </trkpt>
      <trkpt lat="44.5567" lon="3.1188">
        <ele>1315</ele>
        <time>2019-06-01T10:00:58.458Z</time>
      </trkpt>
      <trkpt lat="44.55674" lon="3.11887">
        <ele>1315</ele>
        <time>2019-06-01T10:01:03.446Z</time>
      </trkpt>
      <trkpt lat="44.55676" lon="3.11889">
        <ele>1315</ele>
        <time>2019-06-01T10:01:07.473Z</time>
      </trkpt>
      <trkpt lat="44.55676" lon="3.11889">
        <ele>1315</ele>
        <time>2019-06-01T10:02:34.456Z</time>
      </trkpt>
      <trkpt lat="44.55677" lon="3.11889">
        <ele>1315</ele>
        <time>2019-06-01T10:02:38.472Z</time>
      </trkpt>
      <trkpt lat="44.5568" lon="3.11892">
        <ele>1315</ele>
        <time>2019-06-01T10:02:47.471Z</time>
      </trkpt>
      <trkpt lat="44.55684" lon="3.11894">
        <ele>1317</ele>
        <time>2019-06-01T10:02:52.433Z</time>
      </trkpt>
      <trkpt lat="44.55691" lon="3.11896">
        <ele>1317</ele>
        <time>2019-06-01T10:02:56.455Z</time>
      </trkpt>
      <trkpt lat="44.55693" lon="3.119">
        <ele>1317</ele>
        <time>2019-06-01T10:03:00.472Z</time>
      </trkpt>
      <trkpt lat="44.55696" lon="3.11903">
        <ele>1317</ele>
        <time>2019-06-01T10:03:04.484Z</time>
      </trkpt>
      <trkpt lat="44.557" lon="3.11908">
        <ele>1317</ele>
        <time>2019-06-01T10:03:09.441Z</time>
      </trkpt>
      <trkpt lat="44.55703" lon="3.11911">
        <ele>1317</ele>
        <time>2019-06-01T10:03:13.476Z</time>
      </trkpt>
      <trkpt lat="44.55706" lon="3.11915">
        <ele>1317</ele>
        <time>2019-06-01T10:03:18.486Z</time>
      </trkpt>
      <trkpt lat="44.55709" lon="3.11918">
        <ele>1319</ele>
        <time>2019-06-01T10:03:23.446Z</time>
      </trkpt>
      <trkpt lat="44.55711" lon="3.11922">
        <ele>1319</ele>
        <time>2019-06-01T10:03:28.461Z</time>
      </trkpt>
      <trkpt lat="44.55715" lon="3.11924">
        <ele>1319</ele>
        <time>2019-06-01T10:03:33.450Z</time>
      </trkpt>
      <trkpt lat="44.55719" lon="3.11929">
        <ele>1319</ele>
        <time>2019-06-01T10:03:37.480Z</time>
      </trkpt>
      <trkpt lat="44.55725" lon="3.1193">
        <ele>1319</ele>
        <time>2019-06-01T10:03:42.444Z</time>
      </trkpt>
      <trkpt lat="44.55728" lon="3.11932">
        <ele>1320</ele>
        <time>2019-06-01T10:03:46.479Z</time>
      </trkpt>
      <trkpt lat="44.55734" lon="3.11938">
        <ele>1320</ele>
        <time>2019-06-01T10:03:51.485Z</time>
      </trkpt>
      <trkpt lat="44.55737" lon="3.11943">
        <ele>1320</ele>
        <time>2019-06-01T10:03:56.452Z</time>
      </trkpt>
      <trkpt lat="44.5574" lon="3.11943">
        <ele>1320</ele>
        <time>2019-06-01T10:04:00.474Z</time>
      </trkpt>
      <trkpt lat="44.55743" lon="3.11947">
        <ele>1320</ele>
        <time>2019-06-01T10:04:05.452Z</time>
      </trkpt>
      <trkpt lat="44.55746" lon="3.1195">
        <ele>1320</ele>
        <time>2019-06-01T10:04:09.454Z</time>
      </trkpt>
      <trkpt lat="44.55748" lon="3.11954">
        <ele>1320</ele>
        <time>2019-06-01T10:04:13.469Z</time>
      </trkpt>
      <trkpt lat="44.55751" lon="3.11955">
        <ele>1320</ele>
        <time>2019-06-01T10:04:18.444Z</time>
      </trkpt>
      <trkpt lat="44.5575" lon="3.11957">
        <ele>1320</ele>
        <time>2019-06-01T10:04:28.446Z</time>
      </trkpt>
      <trkpt lat="44.5575" lon="3.11966">
        <ele>1321</ele>
        <time>2019-06-01T10:04:33.440Z</time>
      </trkpt>
      <trkpt lat="44.55748" lon="3.11973">
        <ele>1321</ele>
        <time>2019-06-01T10:04:38.427Z</time>
      </trkpt>
      <trkpt lat="44.55744" lon="3.11976">
        <ele>1321</ele>
        <time>2019-06-01T10:04:42.460Z</time>
      </trkpt>
      <trkpt lat="44.55746" lon="3.11982">
        <ele>1321</ele>
        <time>2019-06-01T10:04:47.474Z</time>
      </trkpt>
      <trkpt lat="44.55744" lon="3.11987">
        <ele>1323</ele>
        <time>2019-06-01T10:04:51.479Z</time>
      </trkpt>
      <trkpt lat="44.55742" lon="3.11995">
        <ele>1323</ele>
        <time>2019-06-01T10:04:56.452Z</time>
      </trkpt>
      <trkpt lat="44.55743" lon="3.12001">
        <ele>1323</ele>
        <time>2019-06-01T10:05:01.450Z</time>
      </trkpt>
      <trkpt lat="44.55743" lon="3.12007">
        <ele>1323</ele>
        <time>2019-06-01T10:05:05.478Z</time>
      </trkpt>
      <trkpt lat="44.55745" lon="3.12014">
        <ele>1325</ele>
        <time>2019-06-01T10:05:10.459Z</time>
      </trkpt>
      <trkpt lat="44.55748" lon="3.1202">
        <ele>1325</ele>
        <time>2019-06-01T10:05:14.483Z</time>
      </trkpt>
      <trkpt lat="44.55751" lon="3.12027">
        <ele>1325</ele>
        <time>2019-06-01T10:05:19.451Z</time>
      </trkpt>
      <trkpt lat="44.55751" lon="3.12033">
        <ele>1325</ele>
        <time>2019-06-01T10:05:23.454Z</time>
      </trkpt>
      <trkpt lat="44.55752" lon="3.12041">
        <ele>1325</ele>
        <time>2019-06-01T10:05:28.449Z</time>
      </trkpt>
      <trkpt lat="44.55753" lon="3.12049">
        <ele>1326</ele>
        <time>2019-06-01T10:05:33.445Z</time>
      </trkpt>
      <trkpt lat="44.55756" lon="3.12055">
        <ele>1326</ele>
        <time>2019-06-01T10:05:38.447Z</time>
      </trkpt>
      <trkpt lat="44.55758" lon="3.1206">
        <ele>1326</ele>
        <time>2019-06-01T10:05:42.454Z</time>
      </trkpt>
      <trkpt lat="44.5576" lon="3.12065">
        <ele>1326</ele>
        <time>2019-06-01T10:05:46.469Z</time>
      </trkpt>
      <trkpt lat="44.55764" lon="3.1207">
        <ele>1327</ele>
        <time>2019-06-01T10:05:51.449Z</time>
      </trkpt>
      <trkpt lat="44.55766" lon="3.12076">
        <ele>1327</ele>
        <time>2019-06-01T10:05:56.448Z</time>
      </trkpt>
      <trkpt lat="44.5577" lon="3.1208">
        <ele>1327</ele>
        <time>2019-06-01T10:06:01.457Z</time>
      </trkpt>
      <trkpt lat="44.55771" lon="3.12084">
        <ele>1327</ele>
        <time>2019-06-01T10:06:05.470Z</time>
      </trkpt>
      <trkpt lat="44.55777" lon="3.12098">
        <ele>1331</ele>
        <time>2019-06-01T10:06:23.455Z</time>
      </trkpt>
      <trkpt lat="44.55778" lon="3.121">
        <ele>1331</ele>
        <time>2019-06-01T10:06:28.441Z</time>
      </trkpt>
      <trkpt lat="44.5578" lon="3.12104">
        <ele>1331</ele>
        <time>2019-06-01T10:06:33.433Z</time>
      </trkpt>
      <trkpt lat="44.55782" lon="3.12108">
        <ele>1331</ele>
        <time>2019-06-01T10:08:08.433Z</time>
      </trkpt>
      <trkpt lat="44.55783" lon="3.12112">
        <ele>1331</ele>
        <time>2019-06-01T10:08:12.443Z</time>
      </trkpt>
      <trkpt lat="44.55785" lon="3.12119">
        <ele>1331</ele>
        <time>2019-06-01T10:08:17.467Z</time>
      </trkpt>
      <trkpt lat="44.55787" lon="3.12126">
        <ele>1333</ele>
        <time>2019-06-01T10:08:22.430Z</time>
      </trkpt>
      <trkpt lat="44.55788" lon="3.12132">
        <ele>1333</ele>
        <time>2019-06-01T10:08:26.454Z</time>
      </trkpt>
      <trkpt lat="44.55788" lon="3.12138">
        <ele>1333</ele>
        <time>2019-06-01T10:08:31.455Z</time>
      </trkpt>
      <trkpt lat="44.55788" lon="3.12143">
        <ele>1333</ele>
        <time>2019-06-01T10:08:35.474Z</time>
      </trkpt>
      <trkpt lat="44.55789" lon="3.1215">
        <ele>1333</ele>
        <time>2019-06-01T10:08:40.447Z</time>
      </trkpt>
      <trkpt lat="44.55791" lon="3.12158">
        <ele>1335</ele>
        <time>2019-06-01T10:08:45.445Z</time>
      </trkpt>
      <trkpt lat="44.55792" lon="3.12165">
        <ele>1334</ele>
        <time>2019-06-01T10:08:49.454Z</time>
      </trkpt>
      <trkpt lat="44.55792" lon="3.12172">
        <ele>1334</ele>
        <time>2019-06-01T10:08:54.454Z</time>
      </trkpt>
      <trkpt lat="44.5579" lon="3.12181">
        <ele>1335</ele>
        <time>2019-06-01T10:08:59.454Z</time>
      </trkpt>
      <trkpt lat="44.55789" lon="3.12188">
        <ele>1335</ele>
        <time>2019-06-01T10:09:03.453Z</time>
      </trkpt>
      <trkpt lat="44.55789" lon="3.12195">
        <ele>1335</ele>
        <time>2019-06-01T10:09:07.496Z</time>
      </trkpt>
      <trkpt lat="44.55791" lon="3.12202">
        <ele>1335</ele>
        <time>2019-06-01T10:09:12.456Z</time>
      </trkpt>
      <trkpt lat="44.55791" lon="3.12207">
        <ele>1335</ele>
        <time>2019-06-01T10:09:16.486Z</time>
      </trkpt>
      <trkpt lat="44.55792" lon="3.12215">
        <ele>1339</ele>
        <time>2019-06-01T10:09:21.426Z</time>
      </trkpt>
      <trkpt lat="44.55796" lon="3.12221">
        <ele>1339</ele>
        <time>2019-06-01T10:09:25.445Z</time>
      </trkpt>
      <trkpt lat="44.55798" lon="3.12226">
        <ele>1339</ele>
        <time>2019-06-01T10:09:29.477Z</time>
      </trkpt>
      <trkpt lat="44.558" lon="3.12235">
        <ele>1339</ele>
        <time>2019-06-01T10:09:34.425Z</time>
      </trkpt>
      <trkpt lat="44.55802" lon="3.12242">
        <ele>1342</ele>
        <time>2019-06-01T10:09:38.432Z</time>
      </trkpt>
      <trkpt lat="44.55805" lon="3.12251">
        <ele>1342</ele>
        <time>2019-06-01T10:09:43.427Z</time>
      </trkpt>
      <trkpt lat="44.55807" lon="3.12256">
        <ele>1342</ele>
        <time>2019-06-01T10:09:48.427Z</time>
      </trkpt>
      <trkpt lat="44.55807" lon="3.12259">
        <ele>1342</ele>
        <time>2019-06-01T10:09:52.426Z</time>
      </trkpt>
      <trkpt lat="44.55809" lon="3.12266">
        <ele>1343</ele>
        <time>2019-06-01T10:09:57.434Z</time>
      </trkpt>
      <trkpt lat="44.55811" lon="3.12271">
        <ele>1343</ele>
        <time>2019-06-01T10:10:01.450Z</time>
      </trkpt>
      <trkpt lat="44.55813" lon="3.12277">
        <ele>1343</ele>
        <time>2019-06-01T10:10:06.456Z</time>
      </trkpt>
      <trkpt lat="44.55814" lon="3.12283">
        <ele>1343</ele>
        <time>2019-06-01T10:10:11.448Z</time>
      </trkpt>
      <trkpt lat="44.55815" lon="3.12288">
        <ele>1343</ele>
        <time>2019-06-01T10:10:15.475Z</time>
      </trkpt>
      <trkpt lat="44.55815" lon="3.12292">
        <ele>1345</ele>
        <time>2019-06-01T10:10:19.482Z</time>
      </trkpt>
      <trkpt lat="44.55814" lon="3.123">
        <ele>1345</ele>
        <time>2019-06-01T10:10:24.462Z</time>
      </trkpt>
      <trkpt lat="44.55813" lon="3.12307">
        <ele>1345</ele>
        <time>2019-06-01T10:10:29.441Z</time>
      </trkpt>
      <trkpt lat="44.55814" lon="3.12312">
        <ele>1345</ele>
        <time>2019-06-01T10:10:34.443Z</time>
      </trkpt>
      <trkpt lat="44.55814" lon="3.12316">
        <ele>1345</ele>
        <time>2019-06-01T10:10:38.453Z</time>
      </trkpt>
      <trkpt lat="44.55814" lon="3.12323">
        <ele>1346</ele>
        <time>2019-06-01T10:10:43.465Z</time>
      </trkpt>
      <trkpt lat="44.55813" lon="3.1233">
        <ele>1346</ele>
        <time>2019-06-01T10:10:48.450Z</time>
      </trkpt>
      <trkpt lat="44.55813" lon="3.12336">
        <ele>1346</ele>
        <time>2019-06-01T10:10:52.471Z</time>
      </trkpt>
      <trkpt lat="44.55812" lon="3.12341">
        <ele>1346</ele>
        <time>2019-06-01T10:10:57.440Z</time>
      </trkpt>
      <trkpt lat="44.55812" lon="3.12346">
        <ele>1346</ele>
        <time>2019-06-01T10:11:02.451Z</time>
      </trkpt>
      <trkpt lat="44.55811" lon="3.12352">
        <ele>1347</ele>
        <time>2019-06-01T10:11:07.449Z</time>
      </trkpt>
      <trkpt lat="44.5581" lon="3.12359">
        <ele>1347</ele>
        <time>2019-06-01T10:11:12.452Z</time>
      </trkpt>
      <trkpt lat="44.55809" lon="3.12367">
        <ele>1347</ele>
        <time>2019-06-01T10:11:17.444Z</time>
      </trkpt>
      <trkpt lat="44.5581" lon="3.12383">
        <ele>1347</ele>
        <time>2019-06-01T10:13:17.488Z</time>
      </trkpt>
      <trkpt lat="44.55812" lon="3.1239">
        <ele>1347</ele>
        <time>2019-06-01T10:13:22.429Z</time>
      </trkpt>
      <trkpt lat="44.55816" lon="3.12396">
        <ele>1347</ele>
        <time>2019-06-01T10:13:26.480Z</time>
      </trkpt>
      <trkpt lat="44.55821" lon="3.12399">
        <ele>1347</ele>
        <time>2019-06-01T10:13:31.450Z</time>
      </trkpt>
      <trkpt lat="44.55826" lon="3.12401">
        <ele>1347</ele>
        <time>2019-06-01T10:13:36.457Z</time>
      </trkpt>
      <trkpt lat="44.55831" lon="3.12403">
        <ele>1346</ele>
        <time>2019-06-01T10:13:41.444Z</time>
      </trkpt>
      <trkpt lat="44.55834" lon="3.12404">
        <ele>1346</ele>
        <time>2019-06-01T10:13:45.453Z</time>
      </trkpt>
      <trkpt lat="44.55838" lon="3.12408">
        <ele>1346</ele>
        <time>2019-06-01T10:13:50.495Z</time>
      </trkpt>
      <trkpt lat="44.55841" lon="3.12411">
        <ele>1346</ele>
        <time>2019-06-01T10:14:04.455Z</time>
      </trkpt>
      <trkpt lat="44.55844" lon="3.12414">
        <ele>1346</ele>
        <time>2019-06-01T10:14:08.472Z</time>
      </trkpt>
      <trkpt lat="44.55848" lon="3.1242">
        <ele>1343</ele>
        <time>2019-06-01T10:14:13.437Z</time>
      </trkpt>
      <trkpt lat="44.5585" lon="3.12423">
        <ele>1343</ele>
        <time>2019-06-01T10:14:17.462Z</time>
      </trkpt>
      <trkpt lat="44.55852" lon="3.12428">
        <ele>1343</ele>
        <time>2019-06-01T10:14:22.426Z</time>
      </trkpt>
      <trkpt lat="44.55855" lon="3.12435">
        <ele>1342</ele>
        <time>2019-06-01T10:14:26.442Z</time>
      </trkpt>
      <trkpt lat="44.55857" lon="3.1244">
        <ele>1342</ele>
        <time>2019-06-01T10:14:30.455Z</time>
      </trkpt>
      <trkpt lat="44.55861" lon="3.12444">
        <ele>1342</ele>
        <time>2019-06-01T10:14:34.482Z</time>
      </trkpt>
      <trkpt lat="44.55864" lon="3.1245">
        <ele>1342</ele>
        <time>2019-06-01T10:14:39.453Z</time>
      </trkpt>
      <trkpt lat="44.55867" lon="3.12456">
        <ele>1342</ele>
        <time>2019-06-01T10:14:44.453Z</time>
      </trkpt>
      <trkpt lat="44.55869" lon="3.12462">
        <ele>1343</ele>
        <time>2019-06-01T10:14:49.444Z</time>
      </trkpt>
      <trkpt lat="44.55871" lon="3.12468">
        <ele>1343</ele>
        <time>2019-06-01T10:14:54.445Z</time>
      </trkpt>
      <trkpt lat="44.55874" lon="3.12475">
        <ele>1343</ele>
        <time>2019-06-01T10:14:59.454Z</time>
      </trkpt>
      <trkpt lat="44.55877" lon="3.1248">
        <ele>1340</ele>
        <time>2019-06-01T10:15:04.461Z</time>
      </trkpt>
      <trkpt lat="44.55878" lon="3.12485">
        <ele>1340</ele>
        <time>2019-06-01T10:15:09.447Z</time>
      </trkpt>
      <trkpt lat="44.5588" lon="3.12492">
        <ele>1342</ele>
        <time>2019-06-01T10:15:14.441Z</time>
      </trkpt>
      <trkpt lat="44.55883" lon="3.12499">
        <ele>1342</ele>
        <time>2019-06-01T10:15:18.452Z</time>
      </trkpt>
      <trkpt lat="44.55884" lon="3.12506">
        <ele>1342</ele>
        <time>2019-06-01T10:15:23.453Z</time>
      </trkpt>
      <trkpt lat="44.55884" lon="3.1251">
        <ele>1342</ele>
        <time>2019-06-01T10:15:27.455Z</time>
      </trkpt>
      <trkpt lat="44.55885" lon="3.12515">
        <ele>1345</ele>
        <time>2019-06-01T10:15:31.479Z</time>
      </trkpt>
      <trkpt lat="44.55888" lon="3.12522">
        <ele>1345</ele>
        <time>2019-06-01T10:15:36.447Z</time>
      </trkpt>
      <trkpt lat="44.55889" lon="3.1253">
        <ele>1345</ele>
        <time>2019-06-01T10:15:41.448Z</time>
      </trkpt>
      <trkpt lat="44.55888" lon="3.12535">
        <ele>1345</ele>
        <time>2019-06-01T10:15:46.451Z</time>
      </trkpt>
      <trkpt lat="44.55889" lon="3.12541">
        <ele>1345</ele>
        <time>2019-06-01T10:15:51.439Z</time>
      </trkpt>
      <trkpt lat="44.5589" lon="3.12546">
        <ele>1345</ele>
        <time>2019-06-01T10:15:55.468Z</time>
      </trkpt>
      <trkpt lat="44.55892" lon="3.12553">
        <ele>1345</ele>
        <time>2019-06-01T10:16:00.474Z</time>
      </trkpt>
      <trkpt lat="44.55897" lon="3.1256">
        <ele>1345</ele>
        <time>2019-06-01T10:16:05.444Z</time>
      </trkpt>
      <trkpt lat="44.559" lon="3.12564">
        <ele>1345</ele>
        <time>2019-06-01T10:16:09.452Z</time>
      </trkpt>
      <trkpt lat="44.55903" lon="3.12566">
        <ele>1345</ele>
        <time>2019-06-01T10:16:14.448Z</time>
      </trkpt>
      <trkpt lat="44.55904" lon="3.12565">
        <ele>1340</ele>
        <time>2019-06-01T10:19:38.452Z</time>
      </trkpt>
      <trkpt lat="44.559" lon="3.12562">
        <ele>1345</ele>
        <time>2019-06-01T10:19:43.458Z</time>
      </trkpt>
      <trkpt lat="44.55892" lon="3.12557">
        <ele>1345</ele>
        <time>2019-06-01T10:19:48.455Z</time>
      </trkpt>
      <trkpt lat="44.55888" lon="3.12551">
        <ele>1345</ele>
        <time>2019-06-01T10:19:53.459Z</time>
      </trkpt>
      <trkpt lat="44.55887" lon="3.1255">
        <ele>1345</ele>
        <time>2019-06-01T10:19:58.445Z</time>
      </trkpt>
      <trkpt lat="44.55886" lon="3.12553">
        <ele>1345</ele>
        <time>2019-06-01T10:20:02.455Z</time>
      </trkpt>
      <trkpt lat="44.55885" lon="3.12557">
        <ele>1345</ele>
        <time>2019-06-01T10:20:06.454Z</time>
      </trkpt>
      <trkpt lat="44.55883" lon="3.12564">
        <ele>1345</ele>
        <time>2019-06-01T10:20:11.454Z</time>
      </trkpt>
      <trkpt lat="44.55881" lon="3.12572">
        <ele>1344</ele>
        <time>2019-06-01T10:20:16.454Z</time>
      </trkpt>
      <trkpt lat="44.55881" lon="3.12579">
        <ele>1344</ele>
        <time>2019-06-01T10:20:21.446Z</time>
      </trkpt>
      <trkpt lat="44.55879" lon="3.12583">
        <ele>1344</ele>
        <time>2019-06-01T10:20:25.459Z</time>
      </trkpt>
      <trkpt lat="44.55876" lon="3.12587">
        <ele>1344</ele>
        <time>2019-06-01T10:20:30.451Z</time>
      </trkpt>
      <trkpt lat="44.55872" lon="3.1259">
        <ele>1344</ele>
        <time>2019-06-01T10:20:35.443Z</time>
      </trkpt>
      <trkpt lat="44.55866" lon="3.1259">
        <ele>1344</ele>
        <time>2019-06-01T10:56:32.453Z</time>
      </trkpt>
      <trkpt lat="44.55867" lon="3.12585">
        <ele>1344</ele>
        <time>2019-06-01T10:56:37.450Z</time>
      </trkpt>
      <trkpt lat="44.55868" lon="3.12582">
        <ele>1344</ele>
        <time>2019-06-01T10:56:42.450Z</time>
      </trkpt>
      <trkpt lat="44.5587" lon="3.12577">
        <ele>1344</ele>
        <time>2019-06-01T10:56:47.444Z</time>
      </trkpt>
      <trkpt lat="44.55871" lon="3.12573">
        <ele>1344</ele>
        <time>2019-06-01T10:56:52.444Z</time>
      </trkpt>
      <trkpt lat="44.55873" lon="3.12569">
        <ele>1345</ele>
        <time>2019-06-01T10:56:57.476Z</time>
      </trkpt>
      <trkpt lat="44.55876" lon="3.12565">
        <ele>1345</ele>
        <time>2019-06-01T10:57:02.450Z</time>
      </trkpt>
      <trkpt lat="44.55877" lon="3.12562">
        <ele>1345</ele>
        <time>2019-06-01T10:57:06.486Z</time>
      </trkpt>
      <trkpt lat="44.55882" lon="3.12558">
        <ele>1345</ele>
        <time>2019-06-01T10:57:11.479Z</time>
      </trkpt>
      <trkpt lat="44.55886" lon="3.12556">
        <ele>1345</ele>
        <time>2019-06-01T10:57:16.447Z</time>
      </trkpt>
      <trkpt lat="44.55889" lon="3.12557">
        <ele>1345</ele>
        <time>2019-06-01T10:57:21.446Z</time>
      </trkpt>
      <trkpt lat="44.55893" lon="3.12561">
        <ele>1345</ele>
        <time>2019-06-01T10:57:26.449Z</time>
      </trkpt>
      <trkpt lat="44.55896" lon="3.12565">
        <ele>1345</ele>
        <time>2019-06-01T10:57:31.447Z</time>
      </trkpt>
      <trkpt lat="44.55899" lon="3.12566">
        <ele>1345</ele>
        <time>2019-06-01T11:12:23.452Z</time>
      </trkpt>
      <trkpt lat="44.55899" lon="3.12565">
        <ele>1345</ele>
        <time>2019-06-01T11:12:28.442Z</time>
      </trkpt>
      <trkpt lat="44.55897" lon="3.12562">
        <ele>1345</ele>
        <time>2019-06-01T11:12:33.441Z</time>
      </trkpt>
      <trkpt lat="44.55893" lon="3.12558">
        <ele>1345</ele>
        <time>2019-06-01T11:12:38.447Z</time>
      </trkpt>
      <trkpt lat="44.55892" lon="3.12555">
        <ele>1345</ele>
        <time>2019-06-01T11:12:43.448Z</time>
      </trkpt>
      <trkpt lat="44.55891" lon="3.1255">
        <ele>1345</ele>
        <time>2019-06-01T11:12:48.457Z</time>
      </trkpt>
      <trkpt lat="44.55889" lon="3.12546">
        <ele>1345</ele>
        <time>2019-06-01T11:12:53.446Z</time>
      </trkpt>
      <trkpt lat="44.55888" lon="3.12539">
        <ele>1345</ele>
        <time>2019-06-01T11:12:58.426Z</time>
      </trkpt>
      <trkpt lat="44.55888" lon="3.12532">
        <ele>1345</ele>
        <time>2019-06-01T11:13:02.442Z</time>
      </trkpt>
      <trkpt lat="44.55887" lon="3.12526">
        <ele>1345</ele>
        <time>2019-06-01T11:13:07.438Z</time>
      </trkpt>
      <trkpt lat="44.55886" lon="3.12521">
        <ele>1345</ele>
        <time>2019-06-01T11:13:11.469Z</time>
      </trkpt>
      <trkpt lat="44.55884" lon="3.12518">
        <ele>1345</ele>
        <time>2019-06-01T11:13:16.467Z</time>
      </trkpt>
      <trkpt lat="44.55883" lon="3.12512">
        <ele>1342</ele>
        <time>2019-06-01T11:13:21.454Z</time>
      </trkpt>
      <trkpt lat="44.55883" lon="3.12505">
        <ele>1342</ele>
        <time>2019-06-01T11:13:26.445Z</time>
      </trkpt>
      <trkpt lat="44.55882" lon="3.12499">
        <ele>1342</ele>
        <time>2019-06-01T11:13:30.469Z</time>
      </trkpt>
      <trkpt lat="44.5588" lon="3.12495">
        <ele>1342</ele>
        <time>2019-06-01T11:13:35.455Z</time>
      </trkpt>
      <trkpt lat="44.55879" lon="3.12487">
        <ele>1342</ele>
        <time>2019-06-01T11:13:40.453Z</time>
      </trkpt>
      <trkpt lat="44.55878" lon="3.1248">
        <ele>1340</ele>
        <time>2019-06-01T11:13:45.449Z</time>
      </trkpt>
      <trkpt lat="44.55876" lon="3.12474">
        <ele>1340</ele>
        <time>2019-06-01T11:13:50.447Z</time>
      </trkpt>
      <trkpt lat="44.55872" lon="3.12469">
        <ele>1343</ele>
        <time>2019-06-01T11:13:55.457Z</time>
      </trkpt>
      <trkpt lat="44.5587" lon="3.12465">
        <ele>1343</ele>
        <time>2019-06-01T11:13:59.471Z</time>
      </trkpt>
      <trkpt lat="44.55868" lon="3.12462">
        <ele>1343</ele>
        <time>2019-06-01T11:14:04.451Z</time>
      </trkpt>
      <trkpt lat="44.55866" lon="3.12457">
        <ele>1342</ele>
        <time>2019-06-01T11:14:08.497Z</time>
      </trkpt>
      <trkpt lat="44.55862" lon="3.12451">
        <ele>1342</ele>
        <time>2019-06-01T11:14:13.446Z</time>
      </trkpt>
      <trkpt lat="44.5586" lon="3.12446">
        <ele>1342</ele>
        <time>2019-06-01T11:14:18.481Z</time>
      </trkpt>
      <trkpt lat="44.55856" lon="3.1244">
        <ele>1342</ele>
        <time>2019-06-01T11:14:23.447Z</time>
      </trkpt>
      <trkpt lat="44.55851" lon="3.12436">
        <ele>1342</ele>
        <time>2019-06-01T11:14:28.447Z</time>
      </trkpt>
      <trkpt lat="44.55848" lon="3.12432">
        <ele>1342</ele>
        <time>2019-06-01T11:14:33.451Z</time>
      </trkpt>
      <trkpt lat="44.55844" lon="3.12428">
        <ele>1346</ele>
        <time>2019-06-01T11:14:38.448Z</time>
      </trkpt>
      <trkpt lat="44.55839" lon="3.12423">
        <ele>1346</ele>
        <time>2019-06-01T11:14:43.438Z</time>
      </trkpt>
      <trkpt lat="44.55837" lon="3.12419">
        <ele>1346</ele>
        <time>2019-06-01T11:14:47.453Z</time>
      </trkpt>
      <trkpt lat="44.55833" lon="3.12415">
        <ele>1346</ele>
        <time>2019-06-01T11:14:51.457Z</time>
      </trkpt>
      <trkpt lat="44.55828" lon="3.12412">
        <ele>1346</ele>
        <time>2019-06-01T11:14:56.449Z</time>
      </trkpt>
      <trkpt lat="44.55824" lon="3.12408">
        <ele>1346</ele>
        <time>2019-06-01T11:15:01.474Z</time>
      </trkpt>
      <trkpt lat="44.55819" lon="3.12405">
        <ele>1346</ele>
        <time>2019-06-01T11:15:06.447Z</time>
      </trkpt>
      <trkpt lat="44.55814" lon="3.12402">
        <ele>1347</ele>
        <time>2019-06-01T11:15:11.451Z</time>
      </trkpt>
      <trkpt lat="44.5581" lon="3.12399">
        <ele>1347</ele>
        <time>2019-06-01T11:15:16.469Z</time>
      </trkpt>
      <trkpt lat="44.55805" lon="3.12399">
        <ele>1347</ele>
        <time>2019-06-01T11:15:21.438Z</time>
      </trkpt>
      <trkpt lat="44.55801" lon="3.12399">
        <ele>1347</ele>
        <time>2019-06-01T11:15:25.447Z</time>
      </trkpt>
      <trkpt lat="44.55796" lon="3.12398">
        <ele>1347</ele>
        <time>2019-06-01T11:15:30.439Z</time>
      </trkpt>
      <trkpt lat="44.55792" lon="3.12397">
        <ele>1344</ele>
        <time>2019-06-01T11:15:35.448Z</time>
      </trkpt>
      <trkpt lat="44.55785" lon="3.12396">
        <ele>1344</ele>
        <time>2019-06-01T11:15:40.476Z</time>
      </trkpt>
      <trkpt lat="44.5578" lon="3.12397">
        <ele>1344</ele>
        <time>2019-06-01T11:15:45.423Z</time>
      </trkpt>
      <trkpt lat="44.55776" lon="3.12398">
        <ele>1344</ele>
        <time>2019-06-01T11:15:49.434Z</time>
      </trkpt>
      <trkpt lat="44.55771" lon="3.12396">
        <ele>1344</ele>
        <time>2019-06-01T11:15:54.426Z</time>
      </trkpt>
      <trkpt lat="44.55764" lon="3.12395">
        <ele>1344</ele>
        <time>2019-06-01T11:15:59.425Z</time>
      </trkpt>
      <trkpt lat="44.55757" lon="3.12395">
        <ele>1343</ele>
        <time>2019-06-01T11:16:04.444Z</time>
      </trkpt>
      <trkpt lat="44.55752" lon="3.12396">
        <ele>1343</ele>
        <time>2019-06-01T11:16:08.453Z</time>
      </trkpt>
      <trkpt lat="44.55749" lon="3.12394">
        <ele>1343</ele>
        <time>2019-06-01T11:16:12.463Z</time>
      </trkpt>
      <trkpt lat="44.55744" lon="3.12394">
        <ele>1343</ele>
        <time>2019-06-01T11:16:17.430Z</time>
      </trkpt>
      <trkpt lat="44.55739" lon="3.12393">
        <ele>1343</ele>
        <time>2019-06-01T11:16:22.438Z</time>
      </trkpt>
      <trkpt lat="44.55734" lon="3.1239">
        <ele>1344</ele>
        <time>2019-06-01T11:16:27.424Z</time>
      </trkpt>
      <trkpt lat="44.55729" lon="3.1239">
        <ele>1344</ele>
        <time>2019-06-01T11:16:31.447Z</time>
      </trkpt>
      <trkpt lat="44.55723" lon="3.12387">
        <ele>1344</ele>
        <time>2019-06-01T11:16:36.452Z</time>
      </trkpt>
      <trkpt lat="44.55718" lon="3.12387">
        <ele>1344</ele>
        <time>2019-06-01T11:16:41.464Z</time>
      </trkpt>
      <trkpt lat="44.55712" lon="3.12385">
        <ele>1344</ele>
        <time>2019-06-01T11:16:46.425Z</time>
      </trkpt>
      <trkpt lat="44.55706" lon="3.12382">
        <ele>1342</ele>
        <time>2019-06-01T11:16:50.428Z</time>
      </trkpt>
      <trkpt lat="44.55702" lon="3.12379">
        <ele>1342</ele>
        <time>2019-06-01T11:16:54.453Z</time>
      </trkpt>
      <trkpt lat="44.55699" lon="3.12379">
        <ele>1342</ele>
        <time>2019-06-01T11:16:58.459Z</time>
      </trkpt>
      <trkpt lat="44.55694" lon="3.12378">
        <ele>1342</ele>
        <time>2019-06-01T11:17:03.424Z</time>
      </trkpt>
      <trkpt lat="44.55689" lon="3.12375">
        <ele>1342</ele>
        <time>2019-06-01T11:17:08.425Z</time>
      </trkpt>
      <trkpt lat="44.55684" lon="3.12372">
        <ele>1342</ele>
        <time>2019-06-01T11:17:12.431Z</time>
      </trkpt>
      <trkpt lat="44.55681" lon="3.1237">
        <ele>1342</ele>
        <time>2019-06-01T11:17:16.456Z</time>
      </trkpt>
      <trkpt lat="44.55676" lon="3.12368">
        <ele>1339</ele>
        <time>2019-06-01T11:17:21.460Z</time>
      </trkpt>
      <trkpt lat="44.5567" lon="3.12365">
        <ele>1339</ele>
        <time>2019-06-01T11:17:26.455Z</time>
      </trkpt>
      <trkpt lat="44.55665" lon="3.12363">
        <ele>1339</ele>
        <time>2019-06-01T11:17:31.424Z</time>
      </trkpt>
      <trkpt lat="44.55659" lon="3.12361">
        <ele>1339</ele>
        <time>2019-06-01T11:17:36.424Z</time>
      </trkpt>
      <trkpt lat="44.55655" lon="3.12357">
        <ele>1339</ele>
        <time>2019-06-01T11:17:41.427Z</time>
      </trkpt>
      <trkpt lat="44.5565" lon="3.12354">
        <ele>1339</ele>
        <time>2019-06-01T11:17:46.437Z</time>
      </trkpt>
      <trkpt lat="44.55647" lon="3.12352">
        <ele>1339</ele>
        <time>2019-06-01T11:17:50.446Z</time>
      </trkpt>
      <trkpt lat="44.55643" lon="3.12346">
        <ele>1336</ele>
        <time>2019-06-01T11:17:55.463Z</time>
      </trkpt>
      <trkpt lat="44.55637" lon="3.12344">
        <ele>1336</ele>
        <time>2019-06-01T11:18:00.455Z</time>
      </trkpt>
      <trkpt lat="44.55631" lon="3.12342">
        <ele>1336</ele>
        <time>2019-06-01T11:18:05.448Z</time>
      </trkpt>
      <trkpt lat="44.55626" lon="3.1234">
        <ele>1336</ele>
        <time>2019-06-01T11:18:10.482Z</time>
      </trkpt>
      <trkpt lat="44.55621" lon="3.12339">
        <ele>1337</ele>
        <time>2019-06-01T11:18:15.428Z</time>
      </trkpt>
      <trkpt lat="44.55619" lon="3.12338">
        <ele>1337</ele>
        <time>2019-06-01T11:18:19.429Z</time>
      </trkpt>
      <trkpt lat="44.55615" lon="3.12337">
        <ele>1337</ele>
        <time>2019-06-01T11:18:28.468Z</time>
      </trkpt>
      <trkpt lat="44.55609" lon="3.12335">
        <ele>1337</ele>
        <time>2019-06-01T11:18:33.431Z</time>
      </trkpt>
      <trkpt lat="44.55604" lon="3.12332">
        <ele>1337</ele>
        <time>2019-06-01T11:18:38.433Z</time>
      </trkpt>
      <trkpt lat="44.55601" lon="3.12331">
        <ele>1337</ele>
        <time>2019-06-01T11:18:42.469Z</time>
      </trkpt>
      <trkpt lat="44.55596" lon="3.12329">
        <ele>1338</ele>
        <time>2019-06-01T11:18:47.444Z</time>
      </trkpt>
      <trkpt lat="44.5559" lon="3.12328">
        <ele>1338</ele>
        <time>2019-06-01T11:18:52.425Z</time>
      </trkpt>
      <trkpt lat="44.55586" lon="3.12326">
        <ele>1338</ele>
        <time>2019-06-01T11:18:56.432Z</time>
      </trkpt>
      <trkpt lat="44.55582" lon="3.12324">
        <ele>1338</ele>
        <time>2019-06-01T11:19:01.427Z</time>
      </trkpt>
      <trkpt lat="44.55579" lon="3.12322">
        <ele>1338</ele>
        <time>2019-06-01T11:19:06.454Z</time>
      </trkpt>
      <trkpt lat="44.55573" lon="3.12318">
        <ele>1336</ele>
        <time>2019-06-01T11:19:11.435Z</time>
      </trkpt>
      <trkpt lat="44.55568" lon="3.12315">
        <ele>1338</ele>
        <time>2019-06-01T11:19:16.458Z</time>
      </trkpt>
      <trkpt lat="44.55563" lon="3.12312">
        <ele>1338</ele>
        <time>2019-06-01T11:19:21.431Z</time>
      </trkpt>
      <trkpt lat="44.5556" lon="3.12309">
        <ele>1338</ele>
        <time>2019-06-01T11:19:25.459Z</time>
      </trkpt>
      <trkpt lat="44.55556" lon="3.12304">
        <ele>1338</ele>
        <time>2019-06-01T11:19:30.425Z</time>
      </trkpt>
      <trkpt lat="44.55553" lon="3.123">
        <ele>1338</ele>
        <time>2019-06-01T11:19:34.427Z</time>
      </trkpt>
      <trkpt lat="44.5555" lon="3.12292">
        <ele>1336</ele>
        <time>2019-06-01T11:19:39.424Z</time>
      </trkpt>
      <trkpt lat="44.55548" lon="3.12283">
        <ele>1336</ele>
        <time>2019-06-01T11:19:44.423Z</time>
      </trkpt>
      <trkpt lat="44.55547" lon="3.12278">
        <ele>1336</ele>
        <time>2019-06-01T11:19:48.439Z</time>
      </trkpt>
      <trkpt lat="44.55545" lon="3.12272">
        <ele>1336</ele>
        <time>2019-06-01T11:19:52.461Z</time>
      </trkpt>
      <trkpt lat="44.55543" lon="3.12266">
        <ele>1336</ele>
        <time>2019-06-01T11:19:57.429Z</time>
      </trkpt>
      <trkpt lat="44.5554" lon="3.12261">
        <ele>1335</ele>
        <time>2019-06-01T11:20:02.428Z</time>
      </trkpt>
      <trkpt lat="44.55538" lon="3.12256">
        <ele>1335</ele>
        <time>2019-06-01T11:20:07.490Z</time>
      </trkpt>
      <trkpt lat="44.55537" lon="3.12256">
        <ele>1335</ele>
        <time>2019-06-01T11:20:12.446Z</time>
      </trkpt>
      <trkpt lat="44.55537" lon="3.12255">
        <ele>1335</ele>
        <time>2019-06-01T11:20:29.475Z</time>
      </trkpt>
      <trkpt lat="44.55535" lon="3.12252">
        <ele>1335</ele>
        <time>2019-06-01T11:20:34.450Z</time>
      </trkpt>
      <trkpt lat="44.55533" lon="3.12243">
        <ele>1335</ele>
        <time>2019-06-01T11:20:39.440Z</time>
      </trkpt>
      <trkpt lat="44.5553" lon="3.12239">
        <ele>1335</ele>
        <time>2019-06-01T11:20:43.446Z</time>
      </trkpt>
      <trkpt lat="44.5553" lon="3.12232">
        <ele>1332</ele>
        <time>2019-06-01T11:20:48.492Z</time>
      </trkpt>
      <trkpt lat="44.55527" lon="3.12226">
        <ele>1332</ele>
        <time>2019-06-01T11:20:53.446Z</time>
      </trkpt>
      <trkpt lat="44.55525" lon="3.1222">
        <ele>1332</ele>
        <time>2019-06-01T11:20:57.444Z</time>
      </trkpt>
      <trkpt lat="44.55527" lon="3.12214">
        <ele>1332</ele>
        <time>2019-06-01T11:21:02.444Z</time>
      </trkpt>
      <trkpt lat="44.55525" lon="3.12209">
        <ele>1332</ele>
        <time>2019-06-01T11:21:07.450Z</time>
      </trkpt>
      <trkpt lat="44.55524" lon="3.12204">
        <ele>1328</ele>
        <time>2019-06-01T11:21:11.460Z</time>
      </trkpt>
      <trkpt lat="44.5552" lon="3.12197">
        <ele>1328</ele>
        <time>2019-06-01T11:21:16.448Z</time>
      </trkpt>
      <trkpt lat="44.55518" lon="3.1219">
        <ele>1328</ele>
        <time>2019-06-01T11:21:21.438Z</time>
      </trkpt>
      <trkpt lat="44.55515" lon="3.12184">
        <ele>1328</ele>
        <time>2019-06-01T11:21:25.441Z</time>
      </trkpt>
      <trkpt lat="44.55512" lon="3.12177">
        <ele>1327</ele>
        <time>2019-06-01T11:21:30.447Z</time>
      </trkpt>
      <trkpt lat="44.55511" lon="3.12171">
        <ele>1327</ele>
        <time>2019-06-01T11:21:35.452Z</time>
      </trkpt>
      <trkpt lat="44.55508" lon="3.12165">
        <ele>1327</ele>
        <time>2019-06-01T11:21:40.476Z</time>
      </trkpt>
      <trkpt lat="44.55504" lon="3.12158">
        <ele>1327</ele>
        <time>2019-06-01T11:21:45.440Z</time>
      </trkpt>
      <trkpt lat="44.55501" lon="3.12152">
        <ele>1324</ele>
        <time>2019-06-01T11:21:50.466Z</time>
      </trkpt>
      <trkpt lat="44.55496" lon="3.12145">
        <ele>1324</ele>
        <time>2019-06-01T11:21:55.442Z</time>
      </trkpt>
      <trkpt lat="44.55492" lon="3.12138">
        <ele>1324</ele>
        <time>2019-06-01T11:22:00.444Z</time>
      </trkpt>
      <trkpt lat="44.55489" lon="3.12133">
        <ele>1324</ele>
        <time>2019-06-01T11:22:05.451Z</time>
      </trkpt>
      <trkpt lat="44.55487" lon="3.12128">
        <ele>1324</ele>
        <time>2019-06-01T11:22:10.447Z</time>
      </trkpt>
      <trkpt lat="44.55484" lon="3.12122">
        <ele>1324</ele>
        <time>2019-06-01T11:22:15.441Z</time>
      </trkpt>
      <trkpt lat="44.55479" lon="3.12115">
        <ele>1324</ele>
        <time>2019-06-01T11:22:20.444Z</time>
      </trkpt>
      <trkpt lat="44.55475" lon="3.12107">
        <ele>1324</ele>
        <time>2019-06-01T11:22:25.441Z</time>
      </trkpt>
      <trkpt lat="44.55472" lon="3.12101">
        <ele>1324</ele>
        <time>2019-06-01T11:22:29.445Z</time>
      </trkpt>
      <trkpt lat="44.55469" lon="3.12094">
        <ele>1323</ele>
        <time>2019-06-01T11:22:34.445Z</time>
      </trkpt>
      <trkpt lat="44.55466" lon="3.12088">
        <ele>1323</ele>
        <time>2019-06-01T11:22:38.468Z</time>
      </trkpt>
      <trkpt lat="44.55463" lon="3.12082">
        <ele>1323</ele>
        <time>2019-06-01T11:22:43.451Z</time>
      </trkpt>
      <trkpt lat="44.55462" lon="3.12077">
        <ele>1323</ele>
        <time>2019-06-01T11:22:47.472Z</time>
      </trkpt>
      <trkpt lat="44.55461" lon="3.12069">
        <ele>1320</ele>
        <time>2019-06-01T11:22:52.457Z</time>
      </trkpt>
      <trkpt lat="44.55459" lon="3.12063">
        <ele>1320</ele>
        <time>2019-06-01T11:22:56.468Z</time>
      </trkpt>
      <trkpt lat="44.55455" lon="3.12055">
        <ele>1322</ele>
        <time>2019-06-01T11:23:01.441Z</time>
      </trkpt>
      <trkpt lat="44.55452" lon="3.12049">
        <ele>1322</ele>
        <time>2019-06-01T11:23:05.452Z</time>
      </trkpt>
      <trkpt lat="44.5545" lon="3.12042">
        <ele>1320</ele>
        <time>2019-06-01T11:23:10.438Z</time>
      </trkpt>
      <trkpt lat="44.55447" lon="3.12032">
        <ele>1320</ele>
        <time>2019-06-01T11:23:15.447Z</time>
      </trkpt>
      <trkpt lat="44.55444" lon="3.12024">
        <ele>1320</ele>
        <time>2019-06-01T11:23:20.448Z</time>
      </trkpt>
      <trkpt lat="44.55442" lon="3.12018">
        <ele>1320</ele>
        <time>2019-06-01T11:23:25.435Z</time>
      </trkpt>
      <trkpt lat="44.5544" lon="3.12011">
        <ele>1319</ele>
        <time>2019-06-01T11:23:30.492Z</time>
      </trkpt>
      <trkpt lat="44.55438" lon="3.12006">
        <ele>1319</ele>
        <time>2019-06-01T11:23:35.444Z</time>
      </trkpt>
      <trkpt lat="44.55437" lon="3.11999">
        <ele>1319</ele>
        <time>2019-06-01T11:23:40.449Z</time>
      </trkpt>
      <trkpt lat="44.55435" lon="3.11993">
        <ele>1319</ele>
        <time>2019-06-01T11:23:45.441Z</time>
      </trkpt>
      <trkpt lat="44.55434" lon="3.11985">
        <ele>1319</ele>
        <time>2019-06-01T11:23:50.448Z</time>
      </trkpt>
      <trkpt lat="44.55433" lon="3.11981">
        <ele>1319</ele>
        <time>2019-06-01T11:24:00.475Z</time>
      </trkpt>
      <trkpt lat="44.55433" lon="3.11981">
        <ele>1319</ele>
        <time>2019-06-01T11:24:05.448Z</time>
      </trkpt>
      <trkpt lat="44.55431" lon="3.11979">
        <ele>1319</ele>
        <time>2019-06-01T11:26:50.458Z</time>
      </trkpt>
      <trkpt lat="44.5543" lon="3.11975">
        <ele>1320</ele>
        <time>2019-06-01T11:26:55.469Z</time>
      </trkpt>
      <trkpt lat="44.55429" lon="3.11968">
        <ele>1320</ele>
        <time>2019-06-01T11:27:00.456Z</time>
      </trkpt>
      <trkpt lat="44.55427" lon="3.1196">
        <ele>1320</ele>
        <time>2019-06-01T11:27:05.437Z</time>
      </trkpt>
      <trkpt lat="44.55425" lon="3.11954">
        <ele>1319</ele>
        <time>2019-06-01T11:27:09.450Z</time>
      </trkpt>
      <trkpt lat="44.55423" lon="3.11946">
        <ele>1319</ele>
        <time>2019-06-01T11:27:14.446Z</time>
      </trkpt>
      <trkpt lat="44.55421" lon="3.11939">
        <ele>1319</ele>
        <time>2019-06-01T11:27:18.467Z</time>
      </trkpt>
      <trkpt lat="44.55421" lon="3.11931">
        <ele>1319</ele>
        <time>2019-06-01T11:27:23.453Z</time>
      </trkpt>
      <trkpt lat="44.55421" lon="3.11921">
        <ele>1317</ele>
        <time>2019-06-01T11:27:28.461Z</time>
      </trkpt>
      <trkpt lat="44.55419" lon="3.11912">
        <ele>1317</ele>
        <time>2019-06-01T11:27:33.441Z</time>
      </trkpt>
      <trkpt lat="44.55417" lon="3.11903">
        <ele>1317</ele>
        <time>2019-06-01T11:27:38.448Z</time>
      </trkpt>
      <trkpt lat="44.55417" lon="3.11896">
        <ele>1314</ele>
        <time>2019-06-01T11:27:42.472Z</time>
      </trkpt>
      <trkpt lat="44.55415" lon="3.11885">
        <ele>1314</ele>
        <time>2019-06-01T11:27:47.468Z</time>
      </trkpt>
      <trkpt lat="44.55412" lon="3.11874">
        <ele>1311</ele>
        <time>2019-06-01T11:27:52.451Z</time>
      </trkpt>
      <trkpt lat="44.55411" lon="3.11865">
        <ele>1311</ele>
        <time>2019-06-01T11:27:57.444Z</time>
      </trkpt>
      <trkpt lat="44.55409" lon="3.11857">
        <ele>1311</ele>
        <time>2019-06-01T11:28:02.496Z</time>
      </trkpt>
      <trkpt lat="44.55407" lon="3.11852">
        <ele>1311</ele>
        <time>2019-06-01T11:28:07.447Z</time>
      </trkpt>
      <trkpt lat="44.55407" lon="3.11843">
        <ele>1308</ele>
        <time>2019-06-01T11:28:12.450Z</time>
      </trkpt>
      <trkpt lat="44.55405" lon="3.11835">
        <ele>1308</ele>
        <time>2019-06-01T11:28:17.470Z</time>
      </trkpt>
      <trkpt lat="44.55405" lon="3.11828">
        <ele>1308</ele>
        <time>2019-06-01T11:28:22.462Z</time>
      </trkpt>
      <trkpt lat="44.55404" lon="3.1182">
        <ele>1308</ele>
        <time>2019-06-01T11:28:27.444Z</time>
      </trkpt>
      <trkpt lat="44.55403" lon="3.11811">
        <ele>1311</ele>
        <time>2019-06-01T11:28:32.482Z</time>
      </trkpt>
      <trkpt lat="44.55401" lon="3.11801">
        <ele>1311</ele>
        <time>2019-06-01T11:28:37.467Z</time>
      </trkpt>
      <trkpt lat="44.55398" lon="3.11794">
        <ele>1311</ele>
        <time>2019-06-01T11:28:41.471Z</time>
      </trkpt>
      <trkpt lat="44.55397" lon="3.11784">
        <ele>1308</ele>
        <time>2019-06-01T11:28:46.470Z</time>
      </trkpt>
      <trkpt lat="44.55395" lon="3.11778">
        <ele>1308</ele>
        <time>2019-06-01T11:28:51.438Z</time>
      </trkpt>
      <trkpt lat="44.55392" lon="3.11771">
        <ele>1308</ele>
        <time>2019-06-01T11:28:56.443Z</time>
      </trkpt>
      <trkpt lat="44.55388" lon="3.11764">
        <ele>1308</ele>
        <time>2019-06-01T11:29:01.473Z</time>
      </trkpt>
      <trkpt lat="44.55388" lon="3.11757">
        <ele>1307</ele>
        <time>2019-06-01T11:29:05.494Z</time>
      </trkpt>
      <trkpt lat="44.55386" lon="3.11751">
        <ele>1307</ele>
        <time>2019-06-01T11:29:10.475Z</time>
      </trkpt>
      <trkpt lat="44.55384" lon="3.11742">
        <ele>1307</ele>
        <time>2019-06-01T11:29:15.471Z</time>
      </trkpt>
      <trkpt lat="44.5538" lon="3.11732">
        <ele>1305</ele>
        <time>2019-06-01T11:29:20.438Z</time>
      </trkpt>
      <trkpt lat="44.55378" lon="3.11724">
        <ele>1305</ele>
        <time>2019-06-01T11:29:24.480Z</time>
      </trkpt>
      <trkpt lat="44.55377" lon="3.11713">
        <ele>1305</ele>
        <time>2019-06-01T11:29:29.441Z</time>
      </trkpt>
      <trkpt lat="44.55376" lon="3.11705">
        <ele>1301</ele>
        <time>2019-06-01T11:29:33.467Z</time>
      </trkpt>
      <trkpt lat="44.55374" lon="3.11695">
        <ele>1305</ele>
        <time>2019-06-01T11:29:38.420Z</time>
      </trkpt>
      <trkpt lat="44.55372" lon="3.11689">
        <ele>1305</ele>
        <time>2019-06-01T11:29:42.441Z</time>
      </trkpt>
      <trkpt lat="44.55369" lon="3.11683">
        <ele>1305</ele>
        <time>2019-06-01T11:29:46.465Z</time>
      </trkpt>
      <trkpt lat="44.55365" lon="3.11674">
        <ele>1301</ele>
        <time>2019-06-01T11:29:51.470Z</time>
      </trkpt>
      <trkpt lat="44.55363" lon="3.11665">
        <ele>1301</ele>
        <time>2019-06-01T11:29:56.447Z</time>
      </trkpt>
      <trkpt lat="44.55361" lon="3.11656">
        <ele>1301</ele>
        <time>2019-06-01T11:30:01.471Z</time>
      </trkpt>
      <trkpt lat="44.55359" lon="3.11646">
        <ele>1298</ele>
        <time>2019-06-01T11:30:06.441Z</time>
      </trkpt>
      <trkpt lat="44.55357" lon="3.11639">
        <ele>1298</ele>
        <time>2019-06-01T11:30:10.476Z</time>
      </trkpt>
      <trkpt lat="44.55354" lon="3.11628">
        <ele>1298</ele>
        <time>2019-06-01T11:30:15.442Z</time>
      </trkpt>
      <trkpt lat="44.55351" lon="3.11616">
        <ele>1296</ele>
        <time>2019-06-01T11:30:20.443Z</time>
      </trkpt>
      <trkpt lat="44.5535" lon="3.11608">
        <ele>1296</ele>
        <time>2019-06-01T11:30:25.445Z</time>
      </trkpt>
      <trkpt lat="44.55349" lon="3.11601">
        <ele>1296</ele>
        <time>2019-06-01T11:30:30.445Z</time>
      </trkpt>
      <trkpt lat="44.55349" lon="3.11593">
        <ele>1296</ele>
        <time>2019-06-01T11:30:35.434Z</time>
      </trkpt>
      <trkpt lat="44.55348" lon="3.11588">
        <ele>1296</ele>
        <time>2019-06-01T11:30:39.447Z</time>
      </trkpt>
      <trkpt lat="44.55346" lon="3.11579">
        <ele>1298</ele>
        <time>2019-06-01T11:30:44.444Z</time>
      </trkpt>
      <trkpt lat="44.55346" lon="3.11573">
        <ele>1298</ele>
        <time>2019-06-01T11:30:48.453Z</time>
      </trkpt>
      <trkpt lat="44.55347" lon="3.11565">
        <ele>1297</ele>
        <time>2019-06-01T11:30:52.475Z</time>
      </trkpt>
      <trkpt lat="44.55346" lon="3.11555">
        <ele>1297</ele>
        <time>2019-06-01T11:30:57.451Z</time>
      </trkpt>
      <trkpt lat="44.55345" lon="3.11546">
        <ele>1297</ele>
        <time>2019-06-01T11:31:02.439Z</time>
      </trkpt>
      <trkpt lat="44.55343" lon="3.11535">
        <ele>1296</ele>
        <time>2019-06-01T11:31:07.453Z</time>
      </trkpt>
      <trkpt lat="44.55344" lon="3.11527">
        <ele>1296</ele>
        <time>2019-06-01T11:31:11.471Z</time>
      </trkpt>
      <trkpt lat="44.55345" lon="3.11519">
        <ele>1296</ele>
        <time>2019-06-01T11:31:16.438Z</time>
      </trkpt>
      <trkpt lat="44.55346" lon="3.11513">
        <ele>1294</ele>
        <time>2019-06-01T11:31:20.444Z</time>
      </trkpt>
      <trkpt lat="44.55348" lon="3.11502">
        <ele>1293</ele>
        <time>2019-06-01T11:31:25.442Z</time>
      </trkpt>
      <trkpt lat="44.55348" lon="3.1149">
        <ele>1293</ele>
        <time>2019-06-01T11:31:30.452Z</time>
      </trkpt>
      <trkpt lat="44.55346" lon="3.11479">
        <ele>1292</ele>
        <time>2019-06-01T11:31:35.443Z</time>
      </trkpt>
      <trkpt lat="44.55345" lon="3.11465">
        <ele>1292</ele>
        <time>2019-06-01T11:31:40.470Z</time>
      </trkpt>
      <trkpt lat="44.55345" lon="3.1145">
        <ele>1290</ele>
        <time>2019-06-01T11:31:45.441Z</time>
      </trkpt>
      <trkpt lat="44.55344" lon="3.11443">
        <ele>1290</ele>
        <time>2019-06-01T11:31:50.435Z</time>
      </trkpt>
      <trkpt lat="44.55344" lon="3.11442">
        <ele>1290</ele>
        <time>2019-06-01T11:31:54.449Z</time>
      </trkpt>
      <trkpt lat="44.55339" lon="3.11435">
        <ele>1290</ele>
        <time>2019-06-01T11:31:59.448Z</time>
      </trkpt>
      <trkpt lat="44.55334" lon="3.11429">
        <ele>1289</ele>
        <time>2019-06-01T11:32:04.445Z</time>
      </trkpt>
      <trkpt lat="44.5533" lon="3.11426">
        <ele>1289</ele>
        <time>2019-06-01T11:32:09.439Z</time>
      </trkpt>
      <trkpt lat="44.55325" lon="3.11422">
        <ele>1289</ele>
        <time>2019-06-01T11:32:13.448Z</time>
      </trkpt>
      <trkpt lat="44.55322" lon="3.11421">
        <ele>1289</ele>
        <time>2019-06-01T11:32:18.451Z</time>
      </trkpt>
      <trkpt lat="44.5531" lon="3.11414">
        <ele>1289</ele>
        <time>2019-06-01T11:32:23.446Z</time>
      </trkpt>
      <trkpt lat="44.55299" lon="3.11411">
        <ele>1289</ele>
        <time>2019-06-01T11:32:28.442Z</time>
      </trkpt>
      <trkpt lat="44.55291" lon="3.11409">
        <ele>1291</ele>
        <time>2019-06-01T11:32:33.446Z</time>
      </trkpt>
      <trkpt lat="44.55286" lon="3.11406">
        <ele>1291</ele>
        <time>2019-06-01T11:32:38.444Z</time>
      </trkpt>
      <trkpt lat="44.5528" lon="3.11402">
        <ele>1290</ele>
        <time>2019-06-01T11:32:43.444Z</time>
      </trkpt>
      <trkpt lat="44.55278" lon="3.11399">
        <ele>1290</ele>
        <time>2019-06-01T11:32:48.471Z</time>
      </trkpt>
      <trkpt lat="44.5528" lon="3.11392">
        <ele>1290</ele>
        <time>2019-06-01T11:32:53.460Z</time>
      </trkpt>
      <trkpt lat="44.55281" lon="3.11385">
        <ele>1290</ele>
        <time>2019-06-01T11:32:58.446Z</time>
      </trkpt>
      <trkpt lat="44.5528" lon="3.11378">
        <ele>1290</ele>
        <time>2019-06-01T11:33:03.479Z</time>
      </trkpt>
      <trkpt lat="44.5528" lon="3.1137">
        <ele>1288</ele>
        <time>2019-06-01T11:33:08.446Z</time>
      </trkpt>
      <trkpt lat="44.55279" lon="3.11367">
        <ele>1288</ele>
        <time>2019-06-01T11:33:12.447Z</time>
      </trkpt>
      <trkpt lat="44.55276" lon="3.11359">
        <ele>1288</ele>
        <time>2019-06-01T11:33:17.438Z</time>
      </trkpt>
      <trkpt lat="44.55275" lon="3.1135">
        <ele>1288</ele>
        <time>2019-06-01T11:33:22.479Z</time>
      </trkpt>
      <trkpt lat="44.55276" lon="3.11342">
        <ele>1285</ele>
        <time>2019-06-01T11:33:27.443Z</time>
      </trkpt>
      <trkpt lat="44.55276" lon="3.11333">
        <ele>1285</ele>
        <time>2019-06-01T11:33:32.452Z</time>
      </trkpt>
      <trkpt lat="44.55277" lon="3.11325">
        <ele>1285</ele>
        <time>2019-06-01T11:33:37.458Z</time>
      </trkpt>
      <trkpt lat="44.5528" lon="3.11318">
        <ele>1282</ele>
        <time>2019-06-01T11:33:42.446Z</time>
      </trkpt>
      <trkpt lat="44.5528" lon="3.1131">
        <ele>1282</ele>
        <time>2019-06-01T11:33:47.470Z</time>
      </trkpt>
      <trkpt lat="44.5528" lon="3.11303">
        <ele>1282</ele>
        <time>2019-06-01T11:33:52.480Z</time>
      </trkpt>
      <trkpt lat="44.5528" lon="3.11295">
        <ele>1282</ele>
        <time>2019-06-01T11:33:57.450Z</time>
      </trkpt>
      <trkpt lat="44.55277" lon="3.11284">
        <ele>1279</ele>
        <time>2019-06-01T11:34:02.444Z</time>
      </trkpt>
      <trkpt lat="44.55277" lon="3.11271">
        <ele>1279</ele>
        <time>2019-06-01T11:34:06.442Z</time>
      </trkpt>
      <trkpt lat="44.55274" lon="3.11262">
        <ele>1278</ele>
        <time>2019-06-01T11:34:11.444Z</time>
      </trkpt>
      <trkpt lat="44.55271" lon="3.11256">
        <ele>1278</ele>
        <time>2019-06-01T11:34:16.442Z</time>
      </trkpt>
      <trkpt lat="44.55266" lon="3.11255">
        <ele>1278</ele>
        <time>2019-06-01T11:34:20.485Z</time>
      </trkpt>
      <trkpt lat="44.55258" lon="3.11253">
        <ele>1276</ele>
        <time>2019-06-01T11:34:25.447Z</time>
      </trkpt>
      <trkpt lat="44.5525" lon="3.1125">
        <ele>1276</ele>
        <time>2019-06-01T11:34:30.446Z</time>
      </trkpt>
      <trkpt lat="44.55247" lon="3.11249">
        <ele>1276</ele>
        <time>2019-06-01T11:34:35.451Z</time>
      </trkpt>
      <trkpt lat="44.55237" lon="3.11244">
        <ele>1276</ele>
        <time>2019-06-01T11:34:40.450Z</time>
      </trkpt>
      <trkpt lat="44.55231" lon="3.1124">
        <ele>1276</ele>
        <time>2019-06-01T11:34:45.449Z</time>
      </trkpt>
      <trkpt lat="44.55225" lon="3.11234">
        <ele>1272</ele>
        <time>2019-06-01T11:34:50.440Z</time>
      </trkpt>
      <trkpt lat="44.55222" lon="3.11231">
        <ele>1272</ele>
        <time>2019-06-01T11:34:54.471Z</time>
      </trkpt>
      <trkpt lat="44.55217" lon="3.11225">
        <ele>1272</ele>
        <time>2019-06-01T11:34:59.449Z</time>
      </trkpt>
      <trkpt lat="44.55214" lon="3.11219">
        <ele>1272</ele>
        <time>2019-06-01T11:35:04.473Z</time>
      </trkpt>
      <trkpt lat="44.5521" lon="3.11211">
        <ele>1272</ele>
        <time>2019-06-01T11:35:09.438Z</time>
      </trkpt>
      <trkpt lat="44.55208" lon="3.11206">
        <ele>1270</ele>
        <time>2019-06-01T11:35:14.471Z</time>
      </trkpt>
      <trkpt lat="44.55206" lon="3.11203">
        <ele>1270</ele>
        <time>2019-06-01T11:35:19.446Z</time>
      </trkpt>
      <trkpt lat="44.55202" lon="3.11197">
        <ele>1270</ele>
        <time>2019-06-01T11:35:24.446Z</time>
      </trkpt>
      <trkpt lat="44.55198" lon="3.11192">
        <ele>1270</ele>
        <time>2019-06-01T11:35:29.477Z</time>
      </trkpt>
      <trkpt lat="44.55193" lon="3.11184">
        <ele>1270</ele>
        <time>2019-06-01T11:35:34.445Z</time>
      </trkpt>
      <trkpt lat="44.55191" lon="3.11179">
        <ele>1269</ele>
        <time>2019-06-01T11:35:38.481Z</time>
      </trkpt>
      <trkpt lat="44.55189" lon="3.11176">
        <ele>1269</ele>
        <time>2019-06-01T11:35:43.444Z</time>
      </trkpt>
      <trkpt lat="44.55188" lon="3.11173">
        <ele>1269</ele>
        <time>2019-06-01T11:35:48.453Z</time>
      </trkpt>
      <trkpt lat="44.55185" lon="3.11166">
        <ele>1269</ele>
        <time>2019-06-01T11:35:53.481Z</time>
      </trkpt>
      <trkpt lat="44.55185" lon="3.11158">
        <ele>1269</ele>
        <time>2019-06-01T11:35:58.438Z</time>
      </trkpt>
      <trkpt lat="44.55184" lon="3.11153">
        <ele>1269</ele>
        <time>2019-06-01T11:36:02.469Z</time>
      </trkpt>
      <trkpt lat="44.55184" lon="3.11148">
        <ele>1268</ele>
        <time>2019-06-01T11:36:07.466Z</time>
      </trkpt>
      <trkpt lat="44.55184" lon="3.11141">
        <ele>1268</ele>
        <time>2019-06-01T11:36:12.450Z</time>
      </trkpt>
      <trkpt lat="44.55184" lon="3.11135">
        <ele>1268</ele>
        <time>2019-06-01T11:36:16.465Z</time>
      </trkpt>
      <trkpt lat="44.55184" lon="3.11127">
        <ele>1268</ele>
        <time>2019-06-01T11:36:21.460Z</time>
      </trkpt>
      <trkpt lat="44.55184" lon="3.11121">
        <ele>1267</ele>
        <time>2019-06-01T11:36:26.450Z</time>
      </trkpt>
      <trkpt lat="44.55184" lon="3.11115">
        <ele>1267</ele>
        <time>2019-06-01T11:36:31.440Z</time>
      </trkpt>
      <trkpt lat="44.55184" lon="3.11107">
        <ele>1267</ele>
        <time>2019-06-01T11:36:36.480Z</time>
      </trkpt>
      <trkpt lat="44.55184" lon="3.11099">
        <ele>1267</ele>
        <time>2019-06-01T11:36:41.476Z</time>
      </trkpt>
      <trkpt lat="44.55183" lon="3.1109">
        <ele>1265</ele>
        <time>2019-06-01T11:36:46.475Z</time>
      </trkpt>
      <trkpt lat="44.55184" lon="3.11079">
        <ele>1265</ele>
        <time>2019-06-01T11:36:51.472Z</time>
      </trkpt>
      <trkpt lat="44.55182" lon="3.11071">
        <ele>1265</ele>
        <time>2019-06-01T11:36:56.437Z</time>
      </trkpt>
      <trkpt lat="44.55179" lon="3.11062">
        <ele>1265</ele>
        <time>2019-06-01T11:37:01.441Z</time>
      </trkpt>
      <trkpt lat="44.55178" lon="3.11055">
        <ele>1265</ele>
        <time>2019-06-01T11:37:05.455Z</time>
      </trkpt>
      <trkpt lat="44.55178" lon="3.11046">
        <ele>1265</ele>
        <time>2019-06-01T11:37:10.448Z</time>
      </trkpt>
      <trkpt lat="44.55177" lon="3.11041">
        <ele>1263</ele>
        <time>2019-06-01T11:37:15.444Z</time>
      </trkpt>
      <trkpt lat="44.55177" lon="3.11037">
        <ele>1263</ele>
        <time>2019-06-01T11:37:19.462Z</time>
      </trkpt>
      <trkpt lat="44.55175" lon="3.11031">
        <ele>1263</ele>
        <time>2019-06-01T11:37:24.459Z</time>
      </trkpt>
      <trkpt lat="44.55175" lon="3.11024">
        <ele>1263</ele>
        <time>2019-06-01T11:37:29.447Z</time>
      </trkpt>
      <trkpt lat="44.55175" lon="3.11018">
        <ele>1263</ele>
        <time>2019-06-01T11:37:34.443Z</time>
      </trkpt>
      <trkpt lat="44.55173" lon="3.11013">
        <ele>1261</ele>
        <time>2019-06-01T11:37:38.466Z</time>
      </trkpt>
      <trkpt lat="44.55171" lon="3.11007">
        <ele>1261</ele>
        <time>2019-06-01T11:37:43.470Z</time>
      </trkpt>
      <trkpt lat="44.55171" lon="3.11001">
        <ele>1261</ele>
        <time>2019-06-01T11:37:48.440Z</time>
      </trkpt>
      <trkpt lat="44.55171" lon="3.10996">
        <ele>1261</ele>
        <time>2019-06-01T11:37:52.450Z</time>
      </trkpt>
      <trkpt lat="44.55172" lon="3.10992">
        <ele>1261</ele>
        <time>2019-06-01T11:37:57.444Z</time>
      </trkpt>
      <trkpt lat="44.55175" lon="3.10986">
        <ele>1261</ele>
        <time>2019-06-01T11:38:02.446Z</time>
      </trkpt>
      <trkpt lat="44.55177" lon="3.10984">
        <ele>1258</ele>
        <time>2019-06-01T11:38:07.448Z</time>
      </trkpt>
      <trkpt lat="44.55182" lon="3.1098">
        <ele>1257</ele>
        <time>2019-06-01T11:38:17.445Z</time>
      </trkpt>
      <trkpt lat="44.55181" lon="3.10977">
        <ele>1257</ele>
        <time>2019-06-01T11:38:22.446Z</time>
      </trkpt>
      <trkpt lat="44.55179" lon="3.10976">
        <ele>1258</ele>
        <time>2019-06-01T11:38:27.442Z</time>
      </trkpt>
      <trkpt lat="44.55175" lon="3.10966">
        <ele>1258</ele>
        <time>2019-06-01T11:38:47.428Z</time>
      </trkpt>
      <trkpt lat="44.55171" lon="3.10959">
        <ele>1258</ele>
        <time>2019-06-01T11:38:51.435Z</time>
      </trkpt>
      <trkpt lat="44.55167" lon="3.10955">
        <ele>1254</ele>
        <time>2019-06-01T11:38:55.456Z</time>
      </trkpt>
      <trkpt lat="44.55163" lon="3.1095">
        <ele>1254</ele>
        <time>2019-06-01T11:39:00.427Z</time>
      </trkpt>
      <trkpt lat="44.55158" lon="3.10944">
        <ele>1254</ele>
        <time>2019-06-01T11:39:04.432Z</time>
      </trkpt>
      <trkpt lat="44.55155" lon="3.1094">
        <ele>1254</ele>
        <time>2019-06-01T11:39:08.445Z</time>
      </trkpt>
      <trkpt lat="44.55153" lon="3.10935">
        <ele>1255</ele>
        <time>2019-06-01T11:39:12.500Z</time>
      </trkpt>
      <trkpt lat="44.55148" lon="3.10933">
        <ele>1255</ele>
        <time>2019-06-01T11:39:17.442Z</time>
      </trkpt>
      <trkpt lat="44.55145" lon="3.1093">
        <ele>1250</ele>
        <time>2019-06-01T11:39:21.478Z</time>
      </trkpt>
      <trkpt lat="44.55142" lon="3.10924">
        <ele>1250</ele>
        <time>2019-06-01T11:39:26.444Z</time>
      </trkpt>
      <trkpt lat="44.55138" lon="3.10918">
        <ele>1250</ele>
        <time>2019-06-01T11:39:35.442Z</time>
      </trkpt>
      <trkpt lat="44.55136" lon="3.10917">
        <ele>1250</ele>
        <time>2019-06-01T11:39:39.473Z</time>
      </trkpt>
      <trkpt lat="44.55133" lon="3.10914">
        <ele>1250</ele>
        <time>2019-06-01T11:39:44.445Z</time>
      </trkpt>
      <trkpt lat="44.55133" lon="3.10914">
        <ele>1250</ele>
        <time>2019-06-01T11:39:48.468Z</time>
      </trkpt>
      <trkpt lat="44.55127" lon="3.10912">
        <ele>1250</ele>
        <time>2019-06-01T11:39:53.445Z</time>
      </trkpt>
      <trkpt lat="44.5512" lon="3.10911">
        <ele>1250</ele>
        <time>2019-06-01T11:39:58.443Z</time>
      </trkpt>
      <trkpt lat="44.55114" lon="3.10911">
        <ele>1250</ele>
        <time>2019-06-01T11:40:02.447Z</time>
      </trkpt>
      <trkpt lat="44.55109" lon="3.10911">
        <ele>1250</ele>
        <time>2019-06-01T11:40:07.445Z</time>
      </trkpt>
      <trkpt lat="44.55104" lon="3.10911">
        <ele>1250</ele>
        <time>2019-06-01T11:40:12.464Z</time>
      </trkpt>
      <trkpt lat="44.55098" lon="3.10909">
        <ele>1250</ele>
        <time>2019-06-01T11:40:17.443Z</time>
      </trkpt>
      <trkpt lat="44.55097" lon="3.10909">
        <ele>1251</ele>
        <time>2019-06-01T11:40:22.450Z</time>
      </trkpt>
      <trkpt lat="44.55091" lon="3.10912">
        <ele>1251</ele>
        <time>2019-06-01T11:40:27.448Z</time>
      </trkpt>
      <trkpt lat="44.55085" lon="3.10917">
        <ele>1251</ele>
        <time>2019-06-01T11:40:32.439Z</time>
      </trkpt>
      <trkpt lat="44.55081" lon="3.10918">
        <ele>1251</ele>
        <time>2019-06-01T11:40:37.455Z</time>
      </trkpt>
      <trkpt lat="44.55076" lon="3.10917">
        <ele>1251</ele>
        <time>2019-06-01T11:40:55.449Z</time>
      </trkpt>
      <trkpt lat="44.5507" lon="3.10914">
        <ele>1251</ele>
        <time>2019-06-01T11:40:59.474Z</time>
      </trkpt>
      <trkpt lat="44.55066" lon="3.10911">
        <ele>1249</ele>
        <time>2019-06-01T11:41:04.448Z</time>
      </trkpt>
      <trkpt lat="44.55062" lon="3.1091">
        <ele>1249</ele>
        <time>2019-06-01T11:41:09.446Z</time>
      </trkpt>
      <trkpt lat="44.55056" lon="3.1091">
        <ele>1249</ele>
        <time>2019-06-01T11:41:14.446Z</time>
      </trkpt>
      <trkpt lat="44.55045" lon="3.10911">
        <ele>1249</ele>
        <time>2019-06-01T11:41:19.437Z</time>
      </trkpt>
      <trkpt lat="44.55038" lon="3.10911">
        <ele>1246</ele>
        <time>2019-06-01T11:41:23.449Z</time>
      </trkpt>
      <trkpt lat="44.55032" lon="3.1091">
        <ele>1246</ele>
        <time>2019-06-01T11:41:28.448Z</time>
      </trkpt>
      <trkpt lat="44.5503" lon="3.1091">
        <ele>1246</ele>
        <time>2019-06-01T11:41:33.445Z</time>
      </trkpt>
      <trkpt lat="44.55025" lon="3.1091">
        <ele>1246</ele>
        <time>2019-06-01T11:41:38.451Z</time>
      </trkpt>
      <trkpt lat="44.5502" lon="3.10912">
        <ele>1246</ele>
        <time>2019-06-01T11:41:42.473Z</time>
      </trkpt>
      <trkpt lat="44.55014" lon="3.10912">
        <ele>1246</ele>
        <time>2019-06-01T11:41:47.422Z</time>
      </trkpt>
      <trkpt lat="44.55012" lon="3.10912">
        <ele>1244</ele>
        <time>2019-06-01T11:41:51.447Z</time>
      </trkpt>
      <trkpt lat="44.55009" lon="3.10917">
        <ele>1244</ele>
        <time>2019-06-01T11:42:05.442Z</time>
      </trkpt>
      <trkpt lat="44.55006" lon="3.1092">
        <ele>1244</ele>
        <time>2019-06-01T11:42:09.474Z</time>
      </trkpt>
      <trkpt lat="44.55" lon="3.10925">
        <ele>1244</ele>
        <time>2019-06-01T11:42:18.476Z</time>
      </trkpt>
      <trkpt lat="44.54994" lon="3.10928">
        <ele>1244</ele>
        <time>2019-06-01T11:42:23.439Z</time>
      </trkpt>
      <trkpt lat="44.54983" lon="3.10938">
        <ele>1243</ele>
        <time>2019-06-01T11:42:38.431Z</time>
      </trkpt>
      <trkpt lat="44.54969" lon="3.10948">
        <ele>1243</ele>
        <time>2019-06-01T11:42:43.435Z</time>
      </trkpt>
      <trkpt lat="44.54958" lon="3.10953">
        <ele>1242</ele>
        <time>2019-06-01T11:42:48.429Z</time>
      </trkpt>
      <trkpt lat="44.54954" lon="3.10955">
        <ele>1242</ele>
        <time>2019-06-01T11:42:52.439Z</time>
      </trkpt>
      <trkpt lat="44.54948" lon="3.10956">
        <ele>1242</ele>
        <time>2019-06-01T11:42:56.446Z</time>
      </trkpt>
      <trkpt lat="44.54942" lon="3.10956">
        <ele>1242</ele>
        <time>2019-06-01T11:43:01.444Z</time>
      </trkpt>
      <trkpt lat="44.54941" lon="3.10955">
        <ele>1242</ele>
        <time>2019-06-01T11:43:06.453Z</time>
      </trkpt>
      <trkpt lat="44.5494" lon="3.10954">
        <ele>1242</ele>
        <time>2019-06-01T11:43:15.442Z</time>
      </trkpt>
      <trkpt lat="44.54937" lon="3.10948">
        <ele>1242</ele>
        <time>2019-06-01T11:43:20.443Z</time>
      </trkpt>
      <trkpt lat="44.54934" lon="3.10945">
        <ele>1242</ele>
        <time>2019-06-01T11:43:24.445Z</time>
      </trkpt>
      <trkpt lat="44.54929" lon="3.10944">
        <ele>1242</ele>
        <time>2019-06-01T11:43:38.473Z</time>
      </trkpt>
      <trkpt lat="44.54918" lon="3.1094">
        <ele>1242</ele>
        <time>2019-06-01T11:43:43.476Z</time>
      </trkpt>
      <trkpt lat="44.54912" lon="3.10936">
        <ele>1242</ele>
        <time>2019-06-01T11:43:48.433Z</time>
      </trkpt>
      <trkpt lat="44.54908" lon="3.10935">
        <ele>1242</ele>
        <time>2019-06-01T11:43:53.438Z</time>
      </trkpt>
      <trkpt lat="44.54906" lon="3.10936">
        <ele>1242</ele>
        <time>2019-06-01T11:44:44.445Z</time>
      </trkpt>
      <trkpt lat="44.549" lon="3.10934">
        <ele>1239</ele>
        <time>2019-06-01T11:44:49.474Z</time>
      </trkpt>
      <trkpt lat="44.54899" lon="3.10936">
        <ele>1239</ele>
        <time>2019-06-01T11:44:54.443Z</time>
      </trkpt>
      <trkpt lat="44.54893" lon="3.10938">
        <ele>1239</ele>
        <time>2019-06-01T11:46:40.492Z</time>
      </trkpt>
      <trkpt lat="44.54881" lon="3.1094">
        <ele>1239</ele>
        <time>2019-06-01T11:46:45.436Z</time>
      </trkpt>
      <trkpt lat="44.54875" lon="3.10941">
        <ele>1237</ele>
        <time>2019-06-01T11:46:49.445Z</time>
      </trkpt>
      <trkpt lat="44.54868" lon="3.10942">
        <ele>1237</ele>
        <time>2019-06-01T11:46:54.444Z</time>
      </trkpt>
      <trkpt lat="44.54863" lon="3.10943">
        <ele>1237</ele>
        <time>2019-06-01T11:46:59.447Z</time>
      </trkpt>
      <trkpt lat="44.54856" lon="3.10946">
        <ele>1237</ele>
        <time>2019-06-01T11:47:04.448Z</time>
      </trkpt>
      <trkpt lat="44.54851" lon="3.10946">
        <ele>1237</ele>
        <time>2019-06-01T11:47:09.471Z</time>
      </trkpt>
      <trkpt lat="44.54848" lon="3.10948">
        <ele>1237</ele>
        <time>2019-06-01T11:47:14.439Z</time>
      </trkpt>
      <trkpt lat="44.54844" lon="3.1095">
        <ele>1235</ele>
        <time>2019-06-01T11:47:18.446Z</time>
      </trkpt>
      <trkpt lat="44.54841" lon="3.10952">
        <ele>1235</ele>
        <time>2019-06-01T11:47:23.443Z</time>
      </trkpt>
      <trkpt lat="44.54839" lon="3.10955">
        <ele>1235</ele>
        <time>2019-06-01T11:47:28.441Z</time>
      </trkpt>
      <trkpt lat="44.54835" lon="3.10957">
        <ele>1235</ele>
        <time>2019-06-01T11:47:33.441Z</time>
      </trkpt>
      <trkpt lat="44.54829" lon="3.1096">
        <ele>1239</ele>
        <time>2019-06-01T11:47:37.476Z</time>
      </trkpt>
      <trkpt lat="44.54822" lon="3.10965">
        <ele>1239</ele>
        <time>2019-06-01T11:47:42.477Z</time>
      </trkpt>
      <trkpt lat="44.54816" lon="3.10969">
        <ele>1236</ele>
        <time>2019-06-01T11:47:47.446Z</time>
      </trkpt>
      <trkpt lat="44.54813" lon="3.10971">
        <ele>1236</ele>
        <time>2019-06-01T11:47:51.465Z</time>
      </trkpt>
      <trkpt lat="44.54811" lon="3.10973">
        <ele>1236</ele>
        <time>2019-06-01T11:47:55.472Z</time>
      </trkpt>
      <trkpt lat="44.54805" lon="3.10977">
        <ele>1236</ele>
        <time>2019-06-01T11:48:00.421Z</time>
      </trkpt>
      <trkpt lat="44.54804" lon="3.10977">
        <ele>1236</ele>
        <time>2019-06-01T11:48:04.467Z</time>
      </trkpt>
      <trkpt lat="44.548" lon="3.10978">
        <ele>1236</ele>
        <time>2019-06-01T11:48:09.447Z</time>
      </trkpt>
      <trkpt lat="44.54798" lon="3.10978">
        <ele>1236</ele>
        <time>2019-06-01T11:48:14.443Z</time>
      </trkpt>
      <trkpt lat="44.54789" lon="3.10983">
        <ele>1234</ele>
        <time>2019-06-01T11:48:24.437Z</time>
      </trkpt>
      <trkpt lat="44.54776" lon="3.10986">
        <ele>1237</ele>
        <time>2019-06-01T11:48:29.443Z</time>
      </trkpt>
      <trkpt lat="44.54775" lon="3.10987">
        <ele>1237</ele>
        <time>2019-06-01T11:48:34.436Z</time>
      </trkpt>
      <trkpt lat="44.54771" lon="3.10991">
        <ele>1237</ele>
        <time>2019-06-01T11:48:39.444Z</time>
      </trkpt>
      <trkpt lat="44.54763" lon="3.10998">
        <ele>1235</ele>
        <time>2019-06-01T11:48:49.453Z</time>
      </trkpt>
      <trkpt lat="44.54754" lon="3.11004">
        <ele>1235</ele>
        <time>2019-06-01T11:48:54.446Z</time>
      </trkpt>
      <trkpt lat="44.54749" lon="3.11005">
        <ele>1235</ele>
        <time>2019-06-01T11:48:59.444Z</time>
      </trkpt>
      <trkpt lat="44.54742" lon="3.11008">
        <ele>1235</ele>
        <time>2019-06-01T11:49:04.445Z</time>
      </trkpt>
      <trkpt lat="44.5474" lon="3.1101">
        <ele>1235</ele>
        <time>2019-06-01T11:49:09.445Z</time>
      </trkpt>
      <trkpt lat="44.54734" lon="3.11015">
        <ele>1237</ele>
        <time>2019-06-01T11:49:14.470Z</time>
      </trkpt>
      <trkpt lat="44.54728" lon="3.11019">
        <ele>1237</ele>
        <time>2019-06-01T11:49:19.443Z</time>
      </trkpt>
      <trkpt lat="44.54722" lon="3.11022">
        <ele>1237</ele>
        <time>2019-06-01T11:49:24.446Z</time>
      </trkpt>
      <trkpt lat="44.54716" lon="3.11023">
        <ele>1237</ele>
        <time>2019-06-01T11:49:29.445Z</time>
      </trkpt>
      <trkpt lat="44.54712" lon="3.11024">
        <ele>1237</ele>
        <time>2019-06-01T11:49:34.451Z</time>
      </trkpt>
      <trkpt lat="44.54709" lon="3.11024">
        <ele>1237</ele>
        <time>2019-06-01T11:49:39.439Z</time>
      </trkpt>
      <trkpt lat="44.54705" lon="3.11025">
        <ele>1236</ele>
        <time>2019-06-01T11:49:49.441Z</time>
      </trkpt>
      <trkpt lat="44.54703" lon="3.11025">
        <ele>1236</ele>
        <time>2019-06-01T11:49:54.442Z</time>
      </trkpt>
      <trkpt lat="44.54694" lon="3.11025">
        <ele>1236</ele>
        <time>2019-06-01T11:50:04.475Z</time>
      </trkpt>
      <trkpt lat="44.54684" lon="3.11025">
        <ele>1236</ele>
        <time>2019-06-01T11:50:14.452Z</time>
      </trkpt>
      <trkpt lat="44.5468" lon="3.11027">
        <ele>1236</ele>
        <time>2019-06-01T11:50:24.441Z</time>
      </trkpt>
      <trkpt lat="44.54669" lon="3.11029">
        <ele>1236</ele>
        <time>2019-06-01T11:50:29.438Z</time>
      </trkpt>
      <trkpt lat="44.54663" lon="3.11029">
        <ele>1236</ele>
        <time>2019-06-01T11:50:34.443Z</time>
      </trkpt>
      <trkpt lat="44.54654" lon="3.11031">
        <ele>1236</ele>
        <time>2019-06-01T11:50:39.452Z</time>
      </trkpt>
      <trkpt lat="44.54647" lon="3.11031">
        <ele>1235</ele>
        <time>2019-06-01T11:50:44.435Z</time>
      </trkpt>
      <trkpt lat="44.54638" lon="3.11034">
        <ele>1235</ele>
        <time>2019-06-01T11:50:49.456Z</time>
      </trkpt>
      <trkpt lat="44.54631" lon="3.11037">
        <ele>1235</ele>
        <time>2019-06-01T11:50:53.474Z</time>
      </trkpt>
      <trkpt lat="44.54626" lon="3.11038">
        <ele>1235</ele>
        <time>2019-06-01T11:50:58.471Z</time>
      </trkpt>
      <trkpt lat="44.54618" lon="3.1104">
        <ele>1235</ele>
        <time>2019-06-01T11:51:03.463Z</time>
      </trkpt>
      <trkpt lat="44.54611" lon="3.11043">
        <ele>1238</ele>
        <time>2019-06-01T11:51:08.437Z</time>
      </trkpt>
      <trkpt lat="44.54607" lon="3.11041">
        <ele>1235</ele>
        <time>2019-06-01T11:51:12.450Z</time>
      </trkpt>
      <trkpt lat="44.54602" lon="3.11042">
        <ele>1238</ele>
        <time>2019-06-01T11:51:17.437Z</time>
      </trkpt>
      <trkpt lat="44.54596" lon="3.1104">
        <ele>1233</ele>
        <time>2019-06-01T11:51:21.464Z</time>
      </trkpt>
      <trkpt lat="44.54592" lon="3.11041">
        <ele>1233</ele>
        <time>2019-06-01T11:51:25.468Z</time>
      </trkpt>
      <trkpt lat="44.54586" lon="3.11046">
        <ele>1238</ele>
        <time>2019-06-01T11:51:30.437Z</time>
      </trkpt>
      <trkpt lat="44.54582" lon="3.11047">
        <ele>1238</ele>
        <time>2019-06-01T11:51:35.432Z</time>
      </trkpt>
      <trkpt lat="44.54577" lon="3.11049">
        <ele>1238</ele>
        <time>2019-06-01T11:51:39.446Z</time>
      </trkpt>
      <trkpt lat="44.54571" lon="3.11051">
        <ele>1238</ele>
        <time>2019-06-01T11:51:44.445Z</time>
      </trkpt>
      <trkpt lat="44.54568" lon="3.11053">
        <ele>1239</ele>
        <time>2019-06-01T11:51:48.464Z</time>
      </trkpt>
      <trkpt lat="44.54562" lon="3.11053">
        <ele>1239</ele>
        <time>2019-06-01T11:51:57.444Z</time>
      </trkpt>
      <trkpt lat="44.5456" lon="3.11053">
        <ele>1239</ele>
        <time>2019-06-01T11:52:02.444Z</time>
      </trkpt>
      <trkpt lat="44.54558" lon="3.11052">
        <ele>1239</ele>
        <time>2019-06-01T11:52:07.443Z</time>
      </trkpt>
      <trkpt lat="44.54557" lon="3.11052">
        <ele>1239</ele>
        <time>2019-06-01T11:52:11.442Z</time>
      </trkpt>
      <trkpt lat="44.54553" lon="3.11052">
        <ele>1239</ele>
        <time>2019-06-01T11:52:16.446Z</time>
      </trkpt>
      <trkpt lat="44.5455" lon="3.1105">
        <ele>1239</ele>
        <time>2019-06-01T11:52:20.444Z</time>
      </trkpt>
      <trkpt lat="44.54544" lon="3.11047">
        <ele>1239</ele>
        <time>2019-06-01T11:52:25.439Z</time>
      </trkpt>
      <trkpt lat="44.54543" lon="3.11047">
        <ele>1239</ele>
        <time>2019-06-01T11:52:30.435Z</time>
      </trkpt>
      <trkpt lat="44.5454" lon="3.11046">
        <ele>1240</ele>
        <time>2019-06-01T11:52:44.447Z</time>
      </trkpt>
      <trkpt lat="44.5453" lon="3.11039">
        <ele>1234</ele>
        <time>2019-06-01T11:52:49.447Z</time>
      </trkpt>
      <trkpt lat="44.54528" lon="3.11037">
        <ele>1234</ele>
        <time>2019-06-01T11:52:53.464Z</time>
      </trkpt>
      <trkpt lat="44.54521" lon="3.11035">
        <ele>1234</ele>
        <time>2019-06-01T11:53:35.445Z</time>
      </trkpt>
      <trkpt lat="44.54516" lon="3.11034">
        <ele>1234</ele>
        <time>2019-06-01T11:55:02.443Z</time>
      </trkpt>
      <trkpt lat="44.54507" lon="3.11035">
        <ele>1235</ele>
        <time>2019-06-01T12:00:52.443Z</time>
      </trkpt>
      <trkpt lat="44.54501" lon="3.11031">
        <ele>1235</ele>
        <time>2019-06-01T12:01:06.475Z</time>
      </trkpt>
      <trkpt lat="44.54498" lon="3.11029">
        <ele>1235</ele>
        <time>2019-06-01T12:01:11.441Z</time>
      </trkpt>
      <trkpt lat="44.54497" lon="3.11028">
        <ele>1235</ele>
        <time>2019-06-01T12:02:21.451Z</time>
      </trkpt>
      <trkpt lat="44.54489" lon="3.11031">
        <ele>1235</ele>
        <time>2019-06-01T12:04:17.432Z</time>
      </trkpt>
      <trkpt lat="44.54487" lon="3.1103">
        <ele>1235</ele>
        <time>2019-06-01T12:04:22.431Z</time>
      </trkpt>
      <trkpt lat="44.54482" lon="3.11023">
        <ele>1234</ele>
        <time>2019-06-01T12:04:27.428Z</time>
      </trkpt>
      <trkpt lat="44.5448" lon="3.11022">
        <ele>1234</ele>
        <time>2019-06-01T12:04:32.434Z</time>
      </trkpt>
      <trkpt lat="44.54474" lon="3.11021">
        <ele>1234</ele>
        <time>2019-06-01T12:04:37.431Z</time>
      </trkpt>
      <trkpt lat="44.54466" lon="3.11022">
        <ele>1234</ele>
        <time>2019-06-01T12:04:47.417Z</time>
      </trkpt>
      <trkpt lat="44.54466" lon="3.11022">
        <ele>1234</ele>
        <time>2019-06-01T12:04:51.427Z</time>
      </trkpt>
      <trkpt lat="44.54464" lon="3.1102">
        <ele>1234</ele>
        <time>2019-06-01T12:05:09.458Z</time>
      </trkpt>
      <trkpt lat="44.54462" lon="3.1102">
        <ele>1234</ele>
        <time>2019-06-01T12:05:33.444Z</time>
      </trkpt>
      <trkpt lat="44.54458" lon="3.11015">
        <ele>1234</ele>
        <time>2019-06-01T12:05:43.437Z</time>
      </trkpt>
      <trkpt lat="44.54451" lon="3.11009">
        <ele>1229</ele>
        <time>2019-06-01T12:05:47.471Z</time>
      </trkpt>
      <trkpt lat="44.54447" lon="3.11006">
        <ele>1229</ele>
        <time>2019-06-01T12:05:52.439Z</time>
      </trkpt>
      <trkpt lat="44.54444" lon="3.11004">
        <ele>1229</ele>
        <time>2019-06-01T12:06:06.444Z</time>
      </trkpt>
      <trkpt lat="44.5443" lon="3.10998">
        <ele>1232</ele>
        <time>2019-06-01T12:06:11.468Z</time>
      </trkpt>
      <trkpt lat="44.54416" lon="3.10993">
        <ele>1232</ele>
        <time>2019-06-01T12:06:16.459Z</time>
      </trkpt>
      <trkpt lat="44.54415" lon="3.10992">
        <ele>1232</ele>
        <time>2019-06-01T12:06:21.435Z</time>
      </trkpt>
      <trkpt lat="44.54411" lon="3.10991">
        <ele>1232</ele>
        <time>2019-06-01T12:06:39.475Z</time>
      </trkpt>
      <trkpt lat="44.54396" lon="3.10991">
        <ele>1234</ele>
        <time>2019-06-01T12:06:44.440Z</time>
      </trkpt>
      <trkpt lat="44.54392" lon="3.1099">
        <ele>1234</ele>
        <time>2019-06-01T12:06:48.471Z</time>
      </trkpt>
      <trkpt lat="44.54387" lon="3.10991">
        <ele>1234</ele>
        <time>2019-06-01T12:06:53.432Z</time>
      </trkpt>
      <trkpt lat="44.54381" lon="3.1099">
        <ele>1234</ele>
        <time>2019-06-01T12:06:58.417Z</time>
      </trkpt>
      <trkpt lat="44.54378" lon="3.1099">
        <ele>1234</ele>
        <time>2019-06-01T12:07:02.466Z</time>
      </trkpt>
      <trkpt lat="44.54373" lon="3.1099">
        <ele>1231</ele>
        <time>2019-06-01T12:07:07.475Z</time>
      </trkpt>
      <trkpt lat="44.5437" lon="3.1099">
        <ele>1231</ele>
        <time>2019-06-01T12:07:12.443Z</time>
      </trkpt>
      <trkpt lat="44.54365" lon="3.10991">
        <ele>1231</ele>
        <time>2019-06-01T12:07:17.443Z</time>
      </trkpt>
      <trkpt lat="44.54354" lon="3.10991">
        <ele>1231</ele>
        <time>2019-06-01T12:07:22.471Z</time>
      </trkpt>
      <trkpt lat="44.54344" lon="3.10994">
        <ele>1229</ele>
        <time>2019-06-01T12:07:27.442Z</time>
      </trkpt>
      <trkpt lat="44.54339" lon="3.10995">
        <ele>1229</ele>
        <time>2019-06-01T12:07:32.448Z</time>
      </trkpt>
      <trkpt lat="44.54337" lon="3.10995">
        <ele>1229</ele>
        <time>2019-06-01T12:07:37.437Z</time>
      </trkpt>
      <trkpt lat="44.54334" lon="3.10996">
        <ele>1229</ele>
        <time>2019-06-01T12:07:55.437Z</time>
      </trkpt>
      <trkpt lat="44.54323" lon="3.11003">
        <ele>1229</ele>
        <time>2019-06-01T12:08:00.447Z</time>
      </trkpt>
      <trkpt lat="44.5432" lon="3.11005">
        <ele>1229</ele>
        <time>2019-06-01T12:08:05.445Z</time>
      </trkpt>
      <trkpt lat="44.54318" lon="3.11006">
        <ele>1231</ele>
        <time>2019-06-01T12:08:10.431Z</time>
      </trkpt>
      <trkpt lat="44.54315" lon="3.11007">
        <ele>1231</ele>
        <time>2019-06-01T12:08:14.475Z</time>
      </trkpt>
      <trkpt lat="44.54297" lon="3.11004">
        <ele>1231</ele>
        <time>2019-06-01T12:08:33.441Z</time>
      </trkpt>
      <trkpt lat="44.54286" lon="3.11003">
        <ele>1234</ele>
        <time>2019-06-01T12:08:37.451Z</time>
      </trkpt>
      <trkpt lat="44.5428" lon="3.11004">
        <ele>1234</ele>
        <time>2019-06-01T12:08:41.460Z</time>
      </trkpt>
      <trkpt lat="44.54279" lon="3.11004">
        <ele>1234</ele>
        <time>2019-06-01T12:08:46.435Z</time>
      </trkpt>
      <trkpt lat="44.5427" lon="3.11004">
        <ele>1234</ele>
        <time>2019-06-01T12:08:51.438Z</time>
      </trkpt>
      <trkpt lat="44.54266" lon="3.11004">
        <ele>1234</ele>
        <time>2019-06-01T12:08:56.461Z</time>
      </trkpt>
      <trkpt lat="44.5426" lon="3.11002">
        <ele>1237</ele>
        <time>2019-06-01T12:09:06.430Z</time>
      </trkpt>
      <trkpt lat="44.54256" lon="3.11005">
        <ele>1237</ele>
        <time>2019-06-01T12:09:10.446Z</time>
      </trkpt>
      <trkpt lat="44.54251" lon="3.11007">
        <ele>1237</ele>
        <time>2019-06-01T12:09:15.469Z</time>
      </trkpt>
      <trkpt lat="44.54245" lon="3.11006">
        <ele>1237</ele>
        <time>2019-06-01T12:09:20.439Z</time>
      </trkpt>
      <trkpt lat="44.54243" lon="3.11004">
        <ele>1237</ele>
        <time>2019-06-01T12:09:24.472Z</time>
      </trkpt>
      <trkpt lat="44.54238" lon="3.11005">
        <ele>1237</ele>
        <time>2019-06-01T12:09:29.438Z</time>
      </trkpt>
      <trkpt lat="44.54233" lon="3.11006">
        <ele>1239</ele>
        <time>2019-06-01T12:09:33.487Z</time>
      </trkpt>
      <trkpt lat="44.54227" lon="3.11008">
        <ele>1239</ele>
        <time>2019-06-01T12:09:38.441Z</time>
      </trkpt>
      <trkpt lat="44.54221" lon="3.11009">
        <ele>1239</ele>
        <time>2019-06-01T12:09:43.443Z</time>
      </trkpt>
      <trkpt lat="44.54214" lon="3.11009">
        <ele>1239</ele>
        <time>2019-06-01T12:09:48.448Z</time>
      </trkpt>
      <trkpt lat="44.54209" lon="3.11009">
        <ele>1239</ele>
        <time>2019-06-01T12:09:53.433Z</time>
      </trkpt>
      <trkpt lat="44.54202" lon="3.1101">
        <ele>1239</ele>
        <time>2019-06-01T12:09:57.450Z</time>
      </trkpt>
      <trkpt lat="44.54196" lon="3.11012">
        <ele>1239</ele>
        <time>2019-06-01T12:10:02.441Z</time>
      </trkpt>
      <trkpt lat="44.5419" lon="3.11017">
        <ele>1240</ele>
        <time>2019-06-01T12:10:07.467Z</time>
      </trkpt>
      <trkpt lat="44.54184" lon="3.11022">
        <ele>1240</ele>
        <time>2019-06-01T12:10:12.443Z</time>
      </trkpt>
      <trkpt lat="44.5418" lon="3.11028">
        <ele>1239</ele>
        <time>2019-06-01T12:10:17.439Z</time>
      </trkpt>
      <trkpt lat="44.54175" lon="3.11033">
        <ele>1239</ele>
        <time>2019-06-01T12:10:22.476Z</time>
      </trkpt>
      <trkpt lat="44.5417" lon="3.1104">
        <ele>1239</ele>
        <time>2019-06-01T12:10:27.438Z</time>
      </trkpt>
      <trkpt lat="44.54167" lon="3.11047">
        <ele>1240</ele>
        <time>2019-06-01T12:10:32.451Z</time>
      </trkpt>
      <trkpt lat="44.54162" lon="3.1105">
        <ele>1240</ele>
        <time>2019-06-01T12:10:37.440Z</time>
      </trkpt>
      <trkpt lat="44.5416" lon="3.11051">
        <ele>1240</ele>
        <time>2019-06-01T12:10:41.466Z</time>
      </trkpt>
      <trkpt lat="44.54156" lon="3.11054">
        <ele>1240</ele>
        <time>2019-06-01T12:10:46.430Z</time>
      </trkpt>
      <trkpt lat="44.54154" lon="3.11056">
        <ele>1240</ele>
        <time>2019-06-01T12:10:50.476Z</time>
      </trkpt>
      <trkpt lat="44.54151" lon="3.11062">
        <ele>1239</ele>
        <time>2019-06-01T12:10:55.455Z</time>
      </trkpt>
      <trkpt lat="44.54149" lon="3.11066">
        <ele>1239</ele>
        <time>2019-06-01T12:11:00.448Z</time>
      </trkpt>
      <trkpt lat="44.54148" lon="3.11069">
        <ele>1239</ele>
        <time>2019-06-01T12:11:04.475Z</time>
      </trkpt>
      <trkpt lat="44.54146" lon="3.11074">
        <ele>1241</ele>
        <time>2019-06-01T12:11:09.469Z</time>
      </trkpt>
      <trkpt lat="44.54143" lon="3.1108">
        <ele>1241</ele>
        <time>2019-06-01T12:11:14.437Z</time>
      </trkpt>
      <trkpt lat="44.5414" lon="3.11085">
        <ele>1241</ele>
        <time>2019-06-01T12:11:19.454Z</time>
      </trkpt>
      <trkpt lat="44.54138" lon="3.11088">
        <ele>1241</ele>
        <time>2019-06-01T12:11:24.437Z</time>
      </trkpt>
      <trkpt lat="44.54135" lon="3.11093">
        <ele>1241</ele>
        <time>2019-06-01T12:11:29.454Z</time>
      </trkpt>
      <trkpt lat="44.54133" lon="3.11096">
        <ele>1241</ele>
        <time>2019-06-01T12:11:34.442Z</time>
      </trkpt>
      <trkpt lat="44.5413" lon="3.11107">
        <ele>1244</ele>
        <time>2019-06-01T12:11:53.443Z</time>
      </trkpt>
      <trkpt lat="44.54129" lon="3.11108">
        <ele>1244</ele>
        <time>2019-06-01T12:11:58.431Z</time>
      </trkpt>
      <trkpt lat="44.54127" lon="3.1111">
        <ele>1244</ele>
        <time>2019-06-01T12:12:02.473Z</time>
      </trkpt>
      <trkpt lat="44.54127" lon="3.1111">
        <ele>1244</ele>
        <time>2019-06-01T12:12:07.452Z</time>
      </trkpt>
      <trkpt lat="44.54125" lon="3.11112">
        <ele>1244</ele>
        <time>2019-06-01T12:12:17.442Z</time>
      </trkpt>
      <trkpt lat="44.54116" lon="3.11121">
        <ele>1241</ele>
        <time>2019-06-01T12:12:22.469Z</time>
      </trkpt>
      <trkpt lat="44.54115" lon="3.11122">
        <ele>1241</ele>
        <time>2019-06-01T12:12:27.442Z</time>
      </trkpt>
      <trkpt lat="44.54112" lon="3.11124">
        <ele>1241</ele>
        <time>2019-06-01T12:12:31.453Z</time>
      </trkpt>
      <trkpt lat="44.54109" lon="3.11126">
        <ele>1243</ele>
        <time>2019-06-01T12:12:35.473Z</time>
      </trkpt>
      <trkpt lat="44.54104" lon="3.11127">
        <ele>1243</ele>
        <time>2019-06-01T12:12:40.443Z</time>
      </trkpt>
      <trkpt lat="44.54098" lon="3.11129">
        <ele>1243</ele>
        <time>2019-06-01T12:12:45.439Z</time>
      </trkpt>
      <trkpt lat="44.54091" lon="3.11132">
        <ele>1240</ele>
        <time>2019-06-01T12:12:50.453Z</time>
      </trkpt>
      <trkpt lat="44.54085" lon="3.11136">
        <ele>1240</ele>
        <time>2019-06-01T12:12:55.443Z</time>
      </trkpt>
      <trkpt lat="44.54079" lon="3.11139">
        <ele>1240</ele>
        <time>2019-06-01T12:13:00.437Z</time>
      </trkpt>
      <trkpt lat="44.54074" lon="3.11145">
        <ele>1240</ele>
        <time>2019-06-01T12:13:05.467Z</time>
      </trkpt>
      <trkpt lat="44.54072" lon="3.1115">
        <ele>1240</ele>
        <time>2019-06-01T12:13:10.440Z</time>
      </trkpt>
      <trkpt lat="44.54071" lon="3.11152">
        <ele>1240</ele>
        <time>2019-06-01T12:13:14.473Z</time>
      </trkpt>
      <trkpt lat="44.54069" lon="3.11168">
        <ele>1240</ele>
        <time>2019-06-01T12:13:43.454Z</time>
      </trkpt>
      <trkpt lat="44.54069" lon="3.11176">
        <ele>1240</ele>
        <time>2019-06-01T12:13:53.440Z</time>
      </trkpt>
      <trkpt lat="44.54069" lon="3.11187">
        <ele>1241</ele>
        <time>2019-06-01T12:13:58.464Z</time>
      </trkpt>
      <trkpt lat="44.54069" lon="3.11193">
        <ele>1241</ele>
        <time>2019-06-01T12:14:03.430Z</time>
      </trkpt>
      <trkpt lat="44.54069" lon="3.11197">
        <ele>1241</ele>
        <time>2019-06-01T12:14:07.439Z</time>
      </trkpt>
      <trkpt lat="44.5407" lon="3.11206">
        <ele>1243</ele>
        <time>2019-06-01T12:14:12.454Z</time>
      </trkpt>
      <trkpt lat="44.54071" lon="3.11216">
        <ele>1243</ele>
        <time>2019-06-01T12:14:17.440Z</time>
      </trkpt>
      <trkpt lat="44.54069" lon="3.11228">
        <ele>1241</ele>
        <time>2019-06-01T12:14:22.444Z</time>
      </trkpt>
      <trkpt lat="44.54069" lon="3.11231">
        <ele>1241</ele>
        <time>2019-06-01T12:14:27.416Z</time>
      </trkpt>
      <trkpt lat="44.54067" lon="3.11234">
        <ele>1241</ele>
        <time>2019-06-01T12:14:36.433Z</time>
      </trkpt>
      <trkpt lat="44.54067" lon="3.11235">
        <ele>1241</ele>
        <time>2019-06-01T12:14:40.442Z</time>
      </trkpt>
      <trkpt lat="44.54067" lon="3.11237">
        <ele>1242</ele>
        <time>2019-06-01T12:14:45.440Z</time>
      </trkpt>
      <trkpt lat="44.54066" lon="3.11242">
        <ele>1242</ele>
        <time>2019-06-01T12:14:50.440Z</time>
      </trkpt>
      <trkpt lat="44.54061" lon="3.1125">
        <ele>1242</ele>
        <time>2019-06-01T12:15:00.440Z</time>
      </trkpt>
      <trkpt lat="44.54059" lon="3.11256">
        <ele>1242</ele>
        <time>2019-06-01T12:15:05.445Z</time>
      </trkpt>
      <trkpt lat="44.54057" lon="3.11259">
        <ele>1242</ele>
        <time>2019-06-01T12:15:10.439Z</time>
      </trkpt>
      <trkpt lat="44.54054" lon="3.11259">
        <ele>1242</ele>
        <time>2019-06-01T12:15:15.457Z</time>
      </trkpt>
      <trkpt lat="44.5405" lon="3.1126">
        <ele>1242</ele>
        <time>2019-06-01T12:15:20.435Z</time>
      </trkpt>
      <trkpt lat="44.54044" lon="3.11261">
        <ele>1242</ele>
        <time>2019-06-01T12:15:25.435Z</time>
      </trkpt>
      <trkpt lat="44.54039" lon="3.11262">
        <ele>1240</ele>
        <time>2019-06-01T12:15:29.448Z</time>
      </trkpt>
      <trkpt lat="44.54036" lon="3.11263">
        <ele>1240</ele>
        <time>2019-06-01T12:15:34.440Z</time>
      </trkpt>
      <trkpt lat="44.54033" lon="3.11267">
        <ele>1243</ele>
        <time>2019-06-01T12:15:38.451Z</time>
      </trkpt>
      <trkpt lat="44.5403" lon="3.11272">
        <ele>1243</ele>
        <time>2019-06-01T12:15:43.440Z</time>
      </trkpt>
      <trkpt lat="44.54027" lon="3.11277">
        <ele>1243</ele>
        <time>2019-06-01T12:15:48.444Z</time>
      </trkpt>
      <trkpt lat="44.54023" lon="3.11281">
        <ele>1243</ele>
        <time>2019-06-01T12:15:53.438Z</time>
      </trkpt>
      <trkpt lat="44.54018" lon="3.11286">
        <ele>1243</ele>
        <time>2019-06-01T12:15:57.439Z</time>
      </trkpt>
      <trkpt lat="44.54012" lon="3.11291">
        <ele>1241</ele>
        <time>2019-06-01T12:16:02.454Z</time>
      </trkpt>
      <trkpt lat="44.54007" lon="3.11296">
        <ele>1245</ele>
        <time>2019-06-01T12:16:07.438Z</time>
      </trkpt>
      <trkpt lat="44.54005" lon="3.11301">
        <ele>1245</ele>
        <time>2019-06-01T12:16:12.451Z</time>
      </trkpt>
      <trkpt lat="44.54002" lon="3.11305">
        <ele>1245</ele>
        <time>2019-06-01T12:16:17.432Z</time>
      </trkpt>
      <trkpt lat="44.53998" lon="3.11309">
        <ele>1245</ele>
        <time>2019-06-01T12:16:22.438Z</time>
      </trkpt>
      <trkpt lat="44.53998" lon="3.1131">
        <ele>1245</ele>
        <time>2019-06-01T12:16:27.447Z</time>
      </trkpt>
      <trkpt lat="44.53994" lon="3.11319">
        <ele>1245</ele>
        <time>2019-06-01T12:16:32.436Z</time>
      </trkpt>
      <trkpt lat="44.53991" lon="3.11326">
        <ele>1247</ele>
        <time>2019-06-01T12:16:37.440Z</time>
      </trkpt>
      <trkpt lat="44.53987" lon="3.11334">
        <ele>1247</ele>
        <time>2019-06-01T12:16:42.434Z</time>
      </trkpt>
      <trkpt lat="44.53983" lon="3.11339">
        <ele>1244</ele>
        <time>2019-06-01T12:16:47.449Z</time>
      </trkpt>
      <trkpt lat="44.53979" lon="3.11341">
        <ele>1244</ele>
        <time>2019-06-01T12:16:51.467Z</time>
      </trkpt>
      <trkpt lat="44.53975" lon="3.11346">
        <ele>1244</ele>
        <time>2019-06-01T12:16:56.431Z</time>
      </trkpt>
      <trkpt lat="44.53972" lon="3.11351">
        <ele>1246</ele>
        <time>2019-06-01T12:17:00.446Z</time>
      </trkpt>
      <trkpt lat="44.53969" lon="3.11358">
        <ele>1246</ele>
        <time>2019-06-01T12:17:05.471Z</time>
      </trkpt>
      <trkpt lat="44.53967" lon="3.11365">
        <ele>1246</ele>
        <time>2019-06-01T12:17:10.445Z</time>
      </trkpt>
      <trkpt lat="44.53961" lon="3.11374">
        <ele>1246</ele>
        <time>2019-06-01T12:17:15.441Z</time>
      </trkpt>
      <trkpt lat="44.53957" lon="3.1138">
        <ele>1242</ele>
        <time>2019-06-01T12:17:20.441Z</time>
      </trkpt>
      <trkpt lat="44.53954" lon="3.11383">
        <ele>1242</ele>
        <time>2019-06-01T12:17:25.442Z</time>
      </trkpt>
      <trkpt lat="44.53952" lon="3.11385">
        <ele>1242</ele>
        <time>2019-06-01T12:17:30.448Z</time>
      </trkpt>
      <trkpt lat="44.53951" lon="3.11387">
        <ele>1242</ele>
        <time>2019-06-01T12:17:34.473Z</time>
      </trkpt>
      <trkpt lat="44.53945" lon="3.11388">
        <ele>1242</ele>
        <time>2019-06-01T12:17:44.433Z</time>
      </trkpt>
      <trkpt lat="44.5394" lon="3.11388">
        <ele>1242</ele>
        <time>2019-06-01T12:17:49.435Z</time>
      </trkpt>
      <trkpt lat="44.53936" lon="3.11387">
        <ele>1242</ele>
        <time>2019-06-01T12:17:54.460Z</time>
      </trkpt>
      <trkpt lat="44.53933" lon="3.11387">
        <ele>1242</ele>
        <time>2019-06-01T12:17:59.437Z</time>
      </trkpt>
      <trkpt lat="44.5393" lon="3.11387">
        <ele>1239</ele>
        <time>2019-06-01T12:18:04.441Z</time>
      </trkpt>
      <trkpt lat="44.53927" lon="3.11383">
        <ele>1239</ele>
        <time>2019-06-01T12:18:08.453Z</time>
      </trkpt>
      <trkpt lat="44.53922" lon="3.11378">
        <ele>1239</ele>
        <time>2019-06-01T12:18:13.437Z</time>
      </trkpt>
      <trkpt lat="44.53919" lon="3.11376">
        <ele>1239</ele>
        <time>2019-06-01T12:18:17.444Z</time>
      </trkpt>
      <trkpt lat="44.53915" lon="3.11372">
        <ele>1238</ele>
        <time>2019-06-01T12:18:22.441Z</time>
      </trkpt>
      <trkpt lat="44.53911" lon="3.11367">
        <ele>1238</ele>
        <time>2019-06-01T12:18:26.462Z</time>
      </trkpt>
      <trkpt lat="44.53907" lon="3.11363">
        <ele>1238</ele>
        <time>2019-06-01T12:18:31.442Z</time>
      </trkpt>
      <trkpt lat="44.53903" lon="3.11361">
        <ele>1236</ele>
        <time>2019-06-01T12:18:36.440Z</time>
      </trkpt>
      <trkpt lat="44.53896" lon="3.11358">
        <ele>1236</ele>
        <time>2019-06-01T12:18:41.455Z</time>
      </trkpt>
      <trkpt lat="44.53887" lon="3.11358">
        <ele>1236</ele>
        <time>2019-06-01T12:18:46.477Z</time>
      </trkpt>
      <trkpt lat="44.53879" lon="3.1136">
        <ele>1236</ele>
        <time>2019-06-01T12:18:51.454Z</time>
      </trkpt>
      <trkpt lat="44.53873" lon="3.11361">
        <ele>1235</ele>
        <time>2019-06-01T12:18:56.431Z</time>
      </trkpt>
      <trkpt lat="44.53867" lon="3.11362">
        <ele>1235</ele>
        <time>2019-06-01T12:19:00.445Z</time>
      </trkpt>
      <trkpt lat="44.53861" lon="3.11364">
        <ele>1235</ele>
        <time>2019-06-01T12:19:04.458Z</time>
      </trkpt>
      <trkpt lat="44.53855" lon="3.11368">
        <ele>1235</ele>
        <time>2019-06-01T12:19:09.442Z</time>
      </trkpt>
      <trkpt lat="44.5385" lon="3.1137">
        <ele>1235</ele>
        <time>2019-06-01T12:19:13.443Z</time>
      </trkpt>
      <trkpt lat="44.53845" lon="3.11373">
        <ele>1236</ele>
        <time>2019-06-01T12:19:17.477Z</time>
      </trkpt>
      <trkpt lat="44.5384" lon="3.11377">
        <ele>1237</ele>
        <time>2019-06-01T12:19:22.445Z</time>
      </trkpt>
      <trkpt lat="44.53835" lon="3.1138">
        <ele>1237</ele>
        <time>2019-06-01T12:19:27.437Z</time>
      </trkpt>
      <trkpt lat="44.53831" lon="3.11384">
        <ele>1237</ele>
        <time>2019-06-01T12:19:32.444Z</time>
      </trkpt>
      <trkpt lat="44.53828" lon="3.11387">
        <ele>1237</ele>
        <time>2019-06-01T12:19:37.434Z</time>
      </trkpt>
      <trkpt lat="44.53823" lon="3.11392">
        <ele>1237</ele>
        <time>2019-06-01T12:19:42.438Z</time>
      </trkpt>
      <trkpt lat="44.53817" lon="3.11396">
        <ele>1238</ele>
        <time>2019-06-01T12:19:47.445Z</time>
      </trkpt>
      <trkpt lat="44.53814" lon="3.114">
        <ele>1238</ele>
        <time>2019-06-01T12:19:52.440Z</time>
      </trkpt>
      <trkpt lat="44.53812" lon="3.11405">
        <ele>1236</ele>
        <time>2019-06-01T12:19:56.437Z</time>
      </trkpt>
      <trkpt lat="44.5381" lon="3.11415">
        <ele>1236</ele>
        <time>2019-06-01T12:20:01.441Z</time>
      </trkpt>
      <trkpt lat="44.53807" lon="3.11422">
        <ele>1236</ele>
        <time>2019-06-01T12:20:06.435Z</time>
      </trkpt>
      <trkpt lat="44.53805" lon="3.11427">
        <ele>1236</ele>
        <time>2019-06-01T12:20:10.451Z</time>
      </trkpt>
      <trkpt lat="44.53803" lon="3.11432">
        <ele>1234</ele>
        <time>2019-06-01T12:20:14.476Z</time>
      </trkpt>
      <trkpt lat="44.538" lon="3.11436">
        <ele>1234</ele>
        <time>2019-06-01T12:20:19.470Z</time>
      </trkpt>
      <trkpt lat="44.53795" lon="3.1144">
        <ele>1234</ele>
        <time>2019-06-01T12:20:24.439Z</time>
      </trkpt>
      <trkpt lat="44.53791" lon="3.11445">
        <ele>1235</ele>
        <time>2019-06-01T12:20:29.436Z</time>
      </trkpt>
      <trkpt lat="44.53788" lon="3.11451">
        <ele>1235</ele>
        <time>2019-06-01T12:20:33.443Z</time>
      </trkpt>
      <trkpt lat="44.53785" lon="3.11457">
        <ele>1235</ele>
        <time>2019-06-01T12:20:38.442Z</time>
      </trkpt>
      <trkpt lat="44.53781" lon="3.11462">
        <ele>1233</ele>
        <time>2019-06-01T12:20:43.437Z</time>
      </trkpt>
      <trkpt lat="44.53779" lon="3.11465">
        <ele>1233</ele>
        <time>2019-06-01T12:20:47.443Z</time>
      </trkpt>
      <trkpt lat="44.53775" lon="3.11468">
        <ele>1233</ele>
        <time>2019-06-01T12:20:52.441Z</time>
      </trkpt>
      <trkpt lat="44.5377" lon="3.11473">
        <ele>1233</ele>
        <time>2019-06-01T12:20:57.439Z</time>
      </trkpt>
      <trkpt lat="44.53766" lon="3.11477">
        <ele>1233</ele>
        <time>2019-06-01T12:21:02.441Z</time>
      </trkpt>
      <trkpt lat="44.53761" lon="3.11481">
        <ele>1232</ele>
        <time>2019-06-01T12:21:07.447Z</time>
      </trkpt>
      <trkpt lat="44.53757" lon="3.11487">
        <ele>1229</ele>
        <time>2019-06-01T12:21:12.458Z</time>
      </trkpt>
      <trkpt lat="44.53757" lon="3.11494">
        <ele>1229</ele>
        <time>2019-06-01T12:21:17.441Z</time>
      </trkpt>
      <trkpt lat="44.53754" lon="3.115">
        <ele>1229</ele>
        <time>2019-06-01T12:21:22.457Z</time>
      </trkpt>
      <trkpt lat="44.53749" lon="3.11505">
        <ele>1229</ele>
        <time>2019-06-01T12:21:27.441Z</time>
      </trkpt>
      <trkpt lat="44.53744" lon="3.11512">
        <ele>1229</ele>
        <time>2019-06-01T12:21:32.437Z</time>
      </trkpt>
      <trkpt lat="44.5374" lon="3.11517">
        <ele>1226</ele>
        <time>2019-06-01T12:21:36.438Z</time>
      </trkpt>
      <trkpt lat="44.53735" lon="3.11523">
        <ele>1224</ele>
        <time>2019-06-01T12:21:41.437Z</time>
      </trkpt>
      <trkpt lat="44.53731" lon="3.11528">
        <ele>1224</ele>
        <time>2019-06-01T12:21:46.447Z</time>
      </trkpt>
      <trkpt lat="44.53729" lon="3.11533">
        <ele>1224</ele>
        <time>2019-06-01T12:21:51.433Z</time>
      </trkpt>
      <trkpt lat="44.53726" lon="3.11539">
        <ele>1224</ele>
        <time>2019-06-01T12:21:56.457Z</time>
      </trkpt>
      <trkpt lat="44.53722" lon="3.11545">
        <ele>1223</ele>
        <time>2019-06-01T12:22:01.423Z</time>
      </trkpt>
      <trkpt lat="44.53719" lon="3.11548">
        <ele>1223</ele>
        <time>2019-06-01T12:22:05.442Z</time>
      </trkpt>
      <trkpt lat="44.53716" lon="3.11555">
        <ele>1223</ele>
        <time>2019-06-01T12:22:10.439Z</time>
      </trkpt>
      <trkpt lat="44.53714" lon="3.11561">
        <ele>1223</ele>
        <time>2019-06-01T12:22:14.491Z</time>
      </trkpt>
      <trkpt lat="44.5371" lon="3.11567">
        <ele>1223</ele>
        <time>2019-06-01T12:22:19.442Z</time>
      </trkpt>
      <trkpt lat="44.53708" lon="3.11575">
        <ele>1219</ele>
        <time>2019-06-01T12:22:24.440Z</time>
      </trkpt>
      <trkpt lat="44.53704" lon="3.11585">
        <ele>1219</ele>
        <time>2019-06-01T12:22:29.417Z</time>
      </trkpt>
      <trkpt lat="44.53702" lon="3.11591">
        <ele>1219</ele>
        <time>2019-06-01T12:22:33.457Z</time>
      </trkpt>
      <trkpt lat="44.537" lon="3.11599">
        <ele>1218</ele>
        <time>2019-06-01T12:22:38.418Z</time>
      </trkpt>
      <trkpt lat="44.53696" lon="3.11604">
        <ele>1218</ele>
        <time>2019-06-01T12:22:42.446Z</time>
      </trkpt>
      <trkpt lat="44.53693" lon="3.11609">
        <ele>1218</ele>
        <time>2019-06-01T12:22:46.463Z</time>
      </trkpt>
      <trkpt lat="44.53688" lon="3.11613">
        <ele>1218</ele>
        <time>2019-06-01T12:22:51.442Z</time>
      </trkpt>
      <trkpt lat="44.53686" lon="3.11617">
        <ele>1218</ele>
        <time>2019-06-01T12:22:55.462Z</time>
      </trkpt>
      <trkpt lat="44.53684" lon="3.11627">
        <ele>1218</ele>
        <time>2019-06-01T12:23:00.438Z</time>
      </trkpt>
      <trkpt lat="44.53682" lon="3.11634">
        <ele>1218</ele>
        <time>2019-06-01T12:23:04.457Z</time>
      </trkpt>
      <trkpt lat="44.5368" lon="3.1164">
        <ele>1214</ele>
        <time>2019-06-01T12:23:08.472Z</time>
      </trkpt>
      <trkpt lat="44.53678" lon="3.11647">
        <ele>1214</ele>
        <time>2019-06-01T12:23:13.441Z</time>
      </trkpt>
      <trkpt lat="44.53675" lon="3.11656">
        <ele>1213</ele>
        <time>2019-06-01T12:23:18.437Z</time>
      </trkpt>
      <trkpt lat="44.53674" lon="3.11663">
        <ele>1213</ele>
        <time>2019-06-01T12:23:23.454Z</time>
      </trkpt>
      <trkpt lat="44.53673" lon="3.11671">
        <ele>1213</ele>
        <time>2019-06-01T12:23:28.476Z</time>
      </trkpt>
      <trkpt lat="44.53671" lon="3.11679">
        <ele>1213</ele>
        <time>2019-06-01T12:23:33.444Z</time>
      </trkpt>
      <trkpt lat="44.5367" lon="3.11684">
        <ele>1213</ele>
        <time>2019-06-01T12:23:38.471Z</time>
      </trkpt>
      <trkpt lat="44.53669" lon="3.11686">
        <ele>1213</ele>
        <time>2019-06-01T12:23:43.438Z</time>
      </trkpt>
      <trkpt lat="44.53665" lon="3.11694">
        <ele>1213</ele>
        <time>2019-06-01T12:23:48.441Z</time>
      </trkpt>
      <trkpt lat="44.53662" lon="3.117">
        <ele>1213</ele>
        <time>2019-06-01T12:23:53.444Z</time>
      </trkpt>
      <trkpt lat="44.5366" lon="3.11703">
        <ele>1213</ele>
        <time>2019-06-01T12:23:58.439Z</time>
      </trkpt>
      <trkpt lat="44.53658" lon="3.11708">
        <ele>1213</ele>
        <time>2019-06-01T12:24:03.474Z</time>
      </trkpt>
      <trkpt lat="44.53656" lon="3.11717">
        <ele>1214</ele>
        <time>2019-06-01T12:24:08.437Z</time>
      </trkpt>
      <trkpt lat="44.53653" lon="3.11725">
        <ele>1214</ele>
        <time>2019-06-01T12:24:13.443Z</time>
      </trkpt>
      <trkpt lat="44.5365" lon="3.11733">
        <ele>1210</ele>
        <time>2019-06-01T12:24:18.439Z</time>
      </trkpt>
      <trkpt lat="44.53648" lon="3.11739">
        <ele>1210</ele>
        <time>2019-06-01T12:24:23.475Z</time>
      </trkpt>
      <trkpt lat="44.53645" lon="3.11746">
        <ele>1210</ele>
        <time>2019-06-01T12:24:28.444Z</time>
      </trkpt>
      <trkpt lat="44.53643" lon="3.11753">
        <ele>1210</ele>
        <time>2019-06-01T12:24:33.434Z</time>
      </trkpt>
      <trkpt lat="44.53642" lon="3.11758">
        <ele>1210</ele>
        <time>2019-06-01T12:24:37.473Z</time>
      </trkpt>
      <trkpt lat="44.53642" lon="3.11766">
        <ele>1210</ele>
        <time>2019-06-01T12:24:42.436Z</time>
      </trkpt>
      <trkpt lat="44.53642" lon="3.11777">
        <ele>1210</ele>
        <time>2019-06-01T12:24:47.442Z</time>
      </trkpt>
      <trkpt lat="44.53644" lon="3.11789">
        <ele>1210</ele>
        <time>2019-06-01T12:24:52.442Z</time>
      </trkpt>
      <trkpt lat="44.53647" lon="3.11796">
        <ele>1210</ele>
        <time>2019-06-01T12:24:57.455Z</time>
      </trkpt>
      <trkpt lat="44.53649" lon="3.11802">
        <ele>1210</ele>
        <time>2019-06-01T12:25:02.443Z</time>
      </trkpt>
      <trkpt lat="44.5365" lon="3.11804">
        <ele>1210</ele>
        <time>2019-06-01T12:25:07.447Z</time>
      </trkpt>
      <trkpt lat="44.53651" lon="3.11806">
        <ele>1210</ele>
        <time>2019-06-01T12:25:22.448Z</time>
      </trkpt>
      <trkpt lat="44.53652" lon="3.11818">
        <ele>1210</ele>
        <time>2019-06-01T12:25:27.442Z</time>
      </trkpt>
      <trkpt lat="44.53652" lon="3.11822">
        <ele>1213</ele>
        <time>2019-06-01T12:25:32.433Z</time>
      </trkpt>
      <trkpt lat="44.53652" lon="3.11826">
        <ele>1213</ele>
        <time>2019-06-01T12:25:37.438Z</time>
      </trkpt>
      <trkpt lat="44.53652" lon="3.11831">
        <ele>1213</ele>
        <time>2019-06-01T12:25:41.462Z</time>
      </trkpt>
      <trkpt lat="44.53651" lon="3.11836">
        <ele>1213</ele>
        <time>2019-06-01T12:25:46.464Z</time>
      </trkpt>
      <trkpt lat="44.53648" lon="3.11841">
        <ele>1213</ele>
        <time>2019-06-01T12:25:51.439Z</time>
      </trkpt>
      <trkpt lat="44.53642" lon="3.11844">
        <ele>1213</ele>
        <time>2019-06-01T12:25:56.430Z</time>
      </trkpt>
      <trkpt lat="44.53639" lon="3.11848">
        <ele>1215</ele>
        <time>2019-06-01T12:26:00.440Z</time>
      </trkpt>
      <trkpt lat="44.53633" lon="3.11851">
        <ele>1215</ele>
        <time>2019-06-01T12:26:05.470Z</time>
      </trkpt>
      <trkpt lat="44.53625" lon="3.11857">
        <ele>1215</ele>
        <time>2019-06-01T12:26:10.457Z</time>
      </trkpt>
      <trkpt lat="44.53625" lon="3.11858">
        <ele>1213</ele>
        <time>2019-06-01T12:26:15.442Z</time>
      </trkpt>
      <trkpt lat="44.5362" lon="3.11859">
        <ele>1213</ele>
        <time>2019-06-01T12:26:29.433Z</time>
      </trkpt>
      <trkpt lat="44.53616" lon="3.1186">
        <ele>1213</ele>
        <time>2019-06-01T12:26:34.434Z</time>
      </trkpt>
      <trkpt lat="44.53616" lon="3.11861">
        <ele>1213</ele>
        <time>2019-06-01T12:26:38.447Z</time>
      </trkpt>
      <trkpt lat="44.53613" lon="3.11862">
        <ele>1213</ele>
        <time>2019-06-01T12:26:43.465Z</time>
      </trkpt>
      <trkpt lat="44.53608" lon="3.11862">
        <ele>1213</ele>
        <time>2019-06-01T12:26:48.441Z</time>
      </trkpt>
      <trkpt lat="44.53604" lon="3.11862">
        <ele>1213</ele>
        <time>2019-06-01T12:26:52.462Z</time>
      </trkpt>
      <trkpt lat="44.53597" lon="3.11862">
        <ele>1213</ele>
        <time>2019-06-01T12:26:57.446Z</time>
      </trkpt>
      <trkpt lat="44.53591" lon="3.11863">
        <ele>1209</ele>
        <time>2019-06-01T12:27:02.453Z</time>
      </trkpt>
      <trkpt lat="44.53586" lon="3.11866">
        <ele>1209</ele>
        <time>2019-06-01T12:27:07.453Z</time>
      </trkpt>
      <trkpt lat="44.53583" lon="3.11873">
        <ele>1209</ele>
        <time>2019-06-01T12:27:12.441Z</time>
      </trkpt>
      <trkpt lat="44.5358" lon="3.11877">
        <ele>1211</ele>
        <time>2019-06-01T12:27:17.474Z</time>
      </trkpt>
      <trkpt lat="44.53578" lon="3.11886">
        <ele>1211</ele>
        <time>2019-06-01T12:27:22.440Z</time>
      </trkpt>
      <trkpt lat="44.53576" lon="3.11897">
        <ele>1211</ele>
        <time>2019-06-01T12:27:27.437Z</time>
      </trkpt>
      <trkpt lat="44.53576" lon="3.11907">
        <ele>1211</ele>
        <time>2019-06-01T12:27:32.444Z</time>
      </trkpt>
      <trkpt lat="44.53578" lon="3.11918">
        <ele>1211</ele>
        <time>2019-06-01T12:27:37.436Z</time>
      </trkpt>
      <trkpt lat="44.53579" lon="3.11919">
        <ele>1211</ele>
        <time>2019-06-01T12:27:42.439Z</time>
      </trkpt>
      <trkpt lat="44.53579" lon="3.11926">
        <ele>1211</ele>
        <time>2019-06-01T12:27:57.438Z</time>
      </trkpt>
      <trkpt lat="44.53579" lon="3.1193">
        <ele>1211</ele>
        <time>2019-06-01T12:28:01.464Z</time>
      </trkpt>
      <trkpt lat="44.53581" lon="3.11935">
        <ele>1210</ele>
        <time>2019-06-01T12:28:06.439Z</time>
      </trkpt>
      <trkpt lat="44.53582" lon="3.1194">
        <ele>1210</ele>
        <time>2019-06-01T12:28:10.438Z</time>
      </trkpt>
      <trkpt lat="44.53583" lon="3.11948">
        <ele>1210</ele>
        <time>2019-06-01T12:28:15.438Z</time>
      </trkpt>
      <trkpt lat="44.53583" lon="3.11956">
        <ele>1210</ele>
        <time>2019-06-01T12:28:20.445Z</time>
      </trkpt>
      <trkpt lat="44.53583" lon="3.11959">
        <ele>1209</ele>
        <time>2019-06-01T12:28:24.468Z</time>
      </trkpt>
      <trkpt lat="44.53584" lon="3.11968">
        <ele>1209</ele>
        <time>2019-06-01T12:28:29.419Z</time>
      </trkpt>
      <trkpt lat="44.53585" lon="3.11975">
        <ele>1209</ele>
        <time>2019-06-01T12:28:33.440Z</time>
      </trkpt>
      <trkpt lat="44.53589" lon="3.11985">
        <ele>1209</ele>
        <time>2019-06-01T12:28:37.477Z</time>
      </trkpt>
      <trkpt lat="44.5359" lon="3.11994">
        <ele>1209</ele>
        <time>2019-06-01T12:28:42.446Z</time>
      </trkpt>
      <trkpt lat="44.53591" lon="3.11999">
        <ele>1209</ele>
        <time>2019-06-01T12:28:46.482Z</time>
      </trkpt>
      <trkpt lat="44.53593" lon="3.12005">
        <ele>1209</ele>
        <time>2019-06-01T12:28:51.431Z</time>
      </trkpt>
      <trkpt lat="44.53596" lon="3.1201">
        <ele>1209</ele>
        <time>2019-06-01T12:28:56.420Z</time>
      </trkpt>
      <trkpt lat="44.53595" lon="3.12015">
        <ele>1209</ele>
        <time>2019-06-01T12:29:01.437Z</time>
      </trkpt>
      <trkpt lat="44.53594" lon="3.12019">
        <ele>1209</ele>
        <time>2019-06-01T12:29:05.448Z</time>
      </trkpt>
      <trkpt lat="44.53593" lon="3.12022">
        <ele>1209</ele>
        <time>2019-06-01T12:29:10.440Z</time>
      </trkpt>
      <trkpt lat="44.53591" lon="3.12028">
        <ele>1209</ele>
        <time>2019-06-01T12:29:15.443Z</time>
      </trkpt>
      <trkpt lat="44.53589" lon="3.12035">
        <ele>1209</ele>
        <time>2019-06-01T12:29:19.444Z</time>
      </trkpt>
      <trkpt lat="44.53589" lon="3.12039">
        <ele>1209</ele>
        <time>2019-06-01T12:29:24.435Z</time>
      </trkpt>
      <trkpt lat="44.53589" lon="3.12043">
        <ele>1209</ele>
        <time>2019-06-01T12:29:28.444Z</time>
      </trkpt>
      <trkpt lat="44.53588" lon="3.1205">
        <ele>1209</ele>
        <time>2019-06-01T12:29:33.441Z</time>
      </trkpt>
      <trkpt lat="44.53586" lon="3.12054">
        <ele>1209</ele>
        <time>2019-06-01T12:29:38.467Z</time>
      </trkpt>
      <trkpt lat="44.53585" lon="3.12062">
        <ele>1209</ele>
        <time>2019-06-01T12:29:43.437Z</time>
      </trkpt>
      <trkpt lat="44.53583" lon="3.12069">
        <ele>1209</ele>
        <time>2019-06-01T12:29:47.470Z</time>
      </trkpt>
      <trkpt lat="44.53582" lon="3.12079">
        <ele>1210</ele>
        <time>2019-06-01T12:29:51.471Z</time>
      </trkpt>
      <trkpt lat="44.53581" lon="3.12088">
        <ele>1210</ele>
        <time>2019-06-01T12:29:56.439Z</time>
      </trkpt>
      <trkpt lat="44.53578" lon="3.12093">
        <ele>1210</ele>
        <time>2019-06-01T12:30:00.473Z</time>
      </trkpt>
      <trkpt lat="44.53575" lon="3.121">
        <ele>1211</ele>
        <time>2019-06-01T12:30:05.439Z</time>
      </trkpt>
      <trkpt lat="44.53572" lon="3.12106">
        <ele>1211</ele>
        <time>2019-06-01T12:30:09.473Z</time>
      </trkpt>
      <trkpt lat="44.5357" lon="3.12115">
        <ele>1211</ele>
        <time>2019-06-01T12:30:14.488Z</time>
      </trkpt>
      <trkpt lat="44.53568" lon="3.12126">
        <ele>1208</ele>
        <time>2019-06-01T12:30:19.443Z</time>
      </trkpt>
      <trkpt lat="44.53568" lon="3.12133">
        <ele>1208</ele>
        <time>2019-06-01T12:30:24.471Z</time>
      </trkpt>
      <trkpt lat="44.53565" lon="3.1214">
        <ele>1208</ele>
        <time>2019-06-01T12:30:29.450Z</time>
      </trkpt>
      <trkpt lat="44.53563" lon="3.12147">
        <ele>1208</ele>
        <time>2019-06-01T12:30:34.436Z</time>
      </trkpt>
      <trkpt lat="44.5356" lon="3.12155">
        <ele>1210</ele>
        <time>2019-06-01T12:30:39.438Z</time>
      </trkpt>
      <trkpt lat="44.53558" lon="3.12161">
        <ele>1210</ele>
        <time>2019-06-01T12:30:43.443Z</time>
      </trkpt>
      <trkpt lat="44.53555" lon="3.12169">
        <ele>1210</ele>
        <time>2019-06-01T12:30:48.456Z</time>
      </trkpt>
      <trkpt lat="44.53552" lon="3.12176">
        <ele>1210</ele>
        <time>2019-06-01T12:30:53.445Z</time>
      </trkpt>
      <trkpt lat="44.53549" lon="3.12182">
        <ele>1211</ele>
        <time>2019-06-01T12:30:58.442Z</time>
      </trkpt>
      <trkpt lat="44.53547" lon="3.12188">
        <ele>1211</ele>
        <time>2019-06-01T12:31:02.447Z</time>
      </trkpt>
      <trkpt lat="44.53543" lon="3.12194">
        <ele>1211</ele>
        <time>2019-06-01T12:31:07.447Z</time>
      </trkpt>
      <trkpt lat="44.53538" lon="3.12195">
        <ele>1207</ele>
        <time>2019-06-01T12:31:12.447Z</time>
      </trkpt>
      <trkpt lat="44.53535" lon="3.12198">
        <ele>1207</ele>
        <time>2019-06-01T12:31:17.477Z</time>
      </trkpt>
      <trkpt lat="44.53532" lon="3.12201">
        <ele>1207</ele>
        <time>2019-06-01T12:31:27.437Z</time>
      </trkpt>
      <trkpt lat="44.53528" lon="3.12203">
        <ele>1207</ele>
        <time>2019-06-01T12:31:31.445Z</time>
      </trkpt>
      <trkpt lat="44.53523" lon="3.12203">
        <ele>1207</ele>
        <time>2019-06-01T12:31:36.467Z</time>
      </trkpt>
      <trkpt lat="44.53519" lon="3.12203">
        <ele>1207</ele>
        <time>2019-06-01T12:31:41.431Z</time>
      </trkpt>
      <trkpt lat="44.53514" lon="3.12202">
        <ele>1202</ele>
        <time>2019-06-01T12:31:45.451Z</time>
      </trkpt>
      <trkpt lat="44.53507" lon="3.12202">
        <ele>1202</ele>
        <time>2019-06-01T12:31:50.440Z</time>
      </trkpt>
      <trkpt lat="44.53499" lon="3.12204">
        <ele>1202</ele>
        <time>2019-06-01T12:31:55.418Z</time>
      </trkpt>
      <trkpt lat="44.53493" lon="3.12207">
        <ele>1202</ele>
        <time>2019-06-01T12:31:59.432Z</time>
      </trkpt>
      <trkpt lat="44.53488" lon="3.12212">
        <ele>1204</ele>
        <time>2019-06-01T12:32:04.439Z</time>
      </trkpt>
      <trkpt lat="44.53483" lon="3.12216">
        <ele>1201</ele>
        <time>2019-06-01T12:32:09.447Z</time>
      </trkpt>
      <trkpt lat="44.53481" lon="3.12219">
        <ele>1201</ele>
        <time>2019-06-01T12:32:14.442Z</time>
      </trkpt>
      <trkpt lat="44.53475" lon="3.12226">
        <ele>1201</ele>
        <time>2019-06-01T12:32:19.448Z</time>
      </trkpt>
      <trkpt lat="44.53468" lon="3.1223">
        <ele>1201</ele>
        <time>2019-06-01T12:32:24.416Z</time>
      </trkpt>
      <trkpt lat="44.53463" lon="3.12232">
        <ele>1201</ele>
        <time>2019-06-01T12:32:28.440Z</time>
      </trkpt>
      <trkpt lat="44.53456" lon="3.12233">
        <ele>1198</ele>
        <time>2019-06-01T12:32:33.439Z</time>
      </trkpt>
      <trkpt lat="44.5345" lon="3.12236">
        <ele>1198</ele>
        <time>2019-06-01T12:32:37.472Z</time>
      </trkpt>
      <trkpt lat="44.53446" lon="3.12238">
        <ele>1200</ele>
        <time>2019-06-01T12:32:42.457Z</time>
      </trkpt>
      <trkpt lat="44.53442" lon="3.1224">
        <ele>1200</ele>
        <time>2019-06-01T12:32:47.440Z</time>
      </trkpt>
      <trkpt lat="44.53438" lon="3.12243">
        <ele>1200</ele>
        <time>2019-06-01T12:32:52.443Z</time>
      </trkpt>
      <trkpt lat="44.53432" lon="3.12246">
        <ele>1200</ele>
        <time>2019-06-01T12:32:57.466Z</time>
      </trkpt>
      <trkpt lat="44.53427" lon="3.12248">
        <ele>1198</ele>
        <time>2019-06-01T12:33:02.420Z</time>
      </trkpt>
      <trkpt lat="44.53422" lon="3.12249">
        <ele>1198</ele>
        <time>2019-06-01T12:33:06.433Z</time>
      </trkpt>
      <trkpt lat="44.53416" lon="3.1225">
        <ele>1198</ele>
        <time>2019-06-01T12:33:10.467Z</time>
      </trkpt>
      <trkpt lat="44.53409" lon="3.12252">
        <ele>1198</ele>
        <time>2019-06-01T12:33:15.472Z</time>
      </trkpt>
      <trkpt lat="44.53403" lon="3.12253">
        <ele>1198</ele>
        <time>2019-06-01T12:33:20.468Z</time>
      </trkpt>
      <trkpt lat="44.53399" lon="3.12256">
        <ele>1193</ele>
        <time>2019-06-01T12:33:25.434Z</time>
      </trkpt>
      <trkpt lat="44.53397" lon="3.12257">
        <ele>1193</ele>
        <time>2019-06-01T12:33:29.457Z</time>
      </trkpt>
      <trkpt lat="44.53393" lon="3.12259">
        <ele>1193</ele>
        <time>2019-06-01T12:33:34.440Z</time>
      </trkpt>
      <trkpt lat="44.53389" lon="3.12263">
        <ele>1193</ele>
        <time>2019-06-01T12:33:38.444Z</time>
      </trkpt>
      <trkpt lat="44.53383" lon="3.1227">
        <ele>1195</ele>
        <time>2019-06-01T12:33:43.444Z</time>
      </trkpt>
      <trkpt lat="44.53378" lon="3.12272">
        <ele>1195</ele>
        <time>2019-06-01T12:33:48.444Z</time>
      </trkpt>
      <trkpt lat="44.53374" lon="3.12274">
        <ele>1190</ele>
        <time>2019-06-01T12:33:52.449Z</time>
      </trkpt>
      <trkpt lat="44.53369" lon="3.12273">
        <ele>1190</ele>
        <time>2019-06-01T12:33:57.453Z</time>
      </trkpt>
      <trkpt lat="44.53365" lon="3.12273">
        <ele>1190</ele>
        <time>2019-06-01T12:34:02.456Z</time>
      </trkpt>
      <trkpt lat="44.5336" lon="3.12271">
        <ele>1190</ele>
        <time>2019-06-01T12:34:07.450Z</time>
      </trkpt>
      <trkpt lat="44.53352" lon="3.12271">
        <ele>1190</ele>
        <time>2019-06-01T12:34:12.447Z</time>
      </trkpt>
      <trkpt lat="44.53344" lon="3.12273">
        <ele>1184</ele>
        <time>2019-06-01T12:34:17.446Z</time>
      </trkpt>
      <trkpt lat="44.53339" lon="3.12276">
        <ele>1184</ele>
        <time>2019-06-01T12:34:21.467Z</time>
      </trkpt>
      <trkpt lat="44.53335" lon="3.12281">
        <ele>1184</ele>
        <time>2019-06-01T12:34:26.458Z</time>
      </trkpt>
      <trkpt lat="44.53333" lon="3.12283">
        <ele>1184</ele>
        <time>2019-06-01T12:34:31.418Z</time>
      </trkpt>
      <trkpt lat="44.53317" lon="3.12305">
        <ele>1183</ele>
        <time>2019-06-01T12:34:49.460Z</time>
      </trkpt>
      <trkpt lat="44.53316" lon="3.12306">
        <ele>1183</ele>
        <time>2019-06-01T12:34:59.469Z</time>
      </trkpt>
      <trkpt lat="44.53313" lon="3.1231">
        <ele>1183</ele>
        <time>2019-06-01T12:35:04.433Z</time>
      </trkpt>
      <trkpt lat="44.53309" lon="3.12311">
        <ele>1183</ele>
        <time>2019-06-01T12:35:09.446Z</time>
      </trkpt>
      <trkpt lat="44.53303" lon="3.12313">
        <ele>1183</ele>
        <time>2019-06-01T12:35:14.439Z</time>
      </trkpt>
      <trkpt lat="44.53297" lon="3.12314">
        <ele>1183</ele>
        <time>2019-06-01T12:35:19.467Z</time>
      </trkpt>
      <trkpt lat="44.53293" lon="3.12316">
        <ele>1183</ele>
        <time>2019-06-01T12:35:24.442Z</time>
      </trkpt>
      <trkpt lat="44.53289" lon="3.12316">
        <ele>1182</ele>
        <time>2019-06-01T12:35:29.473Z</time>
      </trkpt>
      <trkpt lat="44.53284" lon="3.12316">
        <ele>1182</ele>
        <time>2019-06-01T12:35:34.445Z</time>
      </trkpt>
      <trkpt lat="44.53278" lon="3.12318">
        <ele>1182</ele>
        <time>2019-06-01T12:35:39.442Z</time>
      </trkpt>
      <trkpt lat="44.53272" lon="3.12321">
        <ele>1184</ele>
        <time>2019-06-01T12:35:43.460Z</time>
      </trkpt>
      <trkpt lat="44.53266" lon="3.12325">
        <ele>1184</ele>
        <time>2019-06-01T12:35:48.462Z</time>
      </trkpt>
      <trkpt lat="44.5326" lon="3.12329">
        <ele>1181</ele>
        <time>2019-06-01T12:35:53.434Z</time>
      </trkpt>
      <trkpt lat="44.53253" lon="3.12335">
        <ele>1181</ele>
        <time>2019-06-01T12:35:58.423Z</time>
      </trkpt>
      <trkpt lat="44.5325" lon="3.12336">
        <ele>1181</ele>
        <time>2019-06-01T12:36:02.451Z</time>
      </trkpt>
      <trkpt lat="44.53245" lon="3.1234">
        <ele>1181</ele>
        <time>2019-06-01T12:36:07.442Z</time>
      </trkpt>
      <trkpt lat="44.53239" lon="3.12344">
        <ele>1181</ele>
        <time>2019-06-01T12:36:12.434Z</time>
      </trkpt>
      <trkpt lat="44.53234" lon="3.12348">
        <ele>1180</ele>
        <time>2019-06-01T12:36:16.449Z</time>
      </trkpt>
      <trkpt lat="44.5323" lon="3.12354">
        <ele>1180</ele>
        <time>2019-06-01T12:36:21.417Z</time>
      </trkpt>
      <trkpt lat="44.53229" lon="3.12358">
        <ele>1180</ele>
        <time>2019-06-01T12:36:25.435Z</time>
      </trkpt>
      <trkpt lat="44.53228" lon="3.12371">
        <ele>1180</ele>
        <time>2019-06-01T12:36:30.429Z</time>
      </trkpt>
      <trkpt lat="44.53222" lon="3.12381">
        <ele>1182</ele>
        <time>2019-06-01T12:36:35.423Z</time>
      </trkpt>
      <trkpt lat="44.5322" lon="3.12385">
        <ele>1182</ele>
        <time>2019-06-01T12:36:39.435Z</time>
      </trkpt>
      <trkpt lat="44.53216" lon="3.12389">
        <ele>1182</ele>
        <time>2019-06-01T12:36:44.422Z</time>
      </trkpt>
      <trkpt lat="44.53211" lon="3.12392">
        <ele>1182</ele>
        <time>2019-06-01T12:36:48.446Z</time>
      </trkpt>
      <trkpt lat="44.53205" lon="3.12396">
        <ele>1180</ele>
        <time>2019-06-01T12:36:53.441Z</time>
      </trkpt>
      <trkpt lat="44.53203" lon="3.12397">
        <ele>1180</ele>
        <time>2019-06-01T12:36:58.438Z</time>
      </trkpt>
      <trkpt lat="44.53199" lon="3.12398">
        <ele>1180</ele>
        <time>2019-06-01T12:37:08.449Z</time>
      </trkpt>
      <trkpt lat="44.53192" lon="3.12396">
        <ele>1180</ele>
        <time>2019-06-01T12:37:13.445Z</time>
      </trkpt>
      <trkpt lat="44.53185" lon="3.12397">
        <ele>1180</ele>
        <time>2019-06-01T12:37:18.418Z</time>
      </trkpt>
      <trkpt lat="44.53181" lon="3.12399">
        <ele>1180</ele>
        <time>2019-06-01T12:37:22.445Z</time>
      </trkpt>
      <trkpt lat="44.53176" lon="3.12403">
        <ele>1180</ele>
        <time>2019-06-01T12:37:27.448Z</time>
      </trkpt>
      <trkpt lat="44.5317" lon="3.12405">
        <ele>1181</ele>
        <time>2019-06-01T12:37:32.444Z</time>
      </trkpt>
      <trkpt lat="44.53162" lon="3.12405">
        <ele>1181</ele>
        <time>2019-06-01T12:37:37.440Z</time>
      </trkpt>
      <trkpt lat="44.53156" lon="3.12405">
        <ele>1181</ele>
        <time>2019-06-01T12:37:41.469Z</time>
      </trkpt>
      <trkpt lat="44.53149" lon="3.12406">
        <ele>1181</ele>
        <time>2019-06-01T12:37:46.436Z</time>
      </trkpt>
      <trkpt lat="44.53144" lon="3.12407">
        <ele>1181</ele>
        <time>2019-06-01T12:37:50.473Z</time>
      </trkpt>
      <trkpt lat="44.53139" lon="3.1241">
        <ele>1181</ele>
        <time>2019-06-01T12:37:55.435Z</time>
      </trkpt>
      <trkpt lat="44.53134" lon="3.12414">
        <ele>1181</ele>
        <time>2019-06-01T12:38:00.441Z</time>
      </trkpt>
      <trkpt lat="44.53128" lon="3.12416">
        <ele>1181</ele>
        <time>2019-06-01T12:38:05.437Z</time>
      </trkpt>
      <trkpt lat="44.53123" lon="3.12418">
        <ele>1181</ele>
        <time>2019-06-01T12:38:09.445Z</time>
      </trkpt>
      <trkpt lat="44.53118" lon="3.12419">
        <ele>1181</ele>
        <time>2019-06-01T12:38:14.446Z</time>
      </trkpt>
      <trkpt lat="44.53116" lon="3.12421">
        <ele>1181</ele>
        <time>2019-06-01T12:38:19.441Z</time>
      </trkpt>
      <trkpt lat="44.53112" lon="3.12424">
        <ele>1181</ele>
        <time>2019-06-01T12:38:24.451Z</time>
      </trkpt>
      <trkpt lat="44.53106" lon="3.12429">
        <ele>1181</ele>
        <time>2019-06-01T12:38:29.449Z</time>
      </trkpt>
      <trkpt lat="44.53099" lon="3.12432">
        <ele>1182</ele>
        <time>2019-06-01T12:38:34.449Z</time>
      </trkpt>
      <trkpt lat="44.53092" lon="3.12434">
        <ele>1182</ele>
        <time>2019-06-01T12:38:39.476Z</time>
      </trkpt>
      <trkpt lat="44.53085" lon="3.12436">
        <ele>1182</ele>
        <time>2019-06-01T12:38:44.441Z</time>
      </trkpt>
      <trkpt lat="44.53081" lon="3.12435">
        <ele>1182</ele>
        <time>2019-06-01T12:38:48.471Z</time>
      </trkpt>
      <trkpt lat="44.53075" lon="3.12435">
        <ele>1182</ele>
        <time>2019-06-01T12:38:53.468Z</time>
      </trkpt>
      <trkpt lat="44.53068" lon="3.12436">
        <ele>1183</ele>
        <time>2019-06-01T12:38:58.480Z</time>
      </trkpt>
      <trkpt lat="44.53061" lon="3.12438">
        <ele>1183</ele>
        <time>2019-06-01T12:39:03.445Z</time>
      </trkpt>
      <trkpt lat="44.53055" lon="3.12438">
        <ele>1183</ele>
        <time>2019-06-01T12:39:08.449Z</time>
      </trkpt>
      <trkpt lat="44.53049" lon="3.12439">
        <ele>1183</ele>
        <time>2019-06-01T12:39:12.460Z</time>
      </trkpt>
      <trkpt lat="44.53042" lon="3.12441">
        <ele>1183</ele>
        <time>2019-06-01T12:39:17.441Z</time>
      </trkpt>
      <trkpt lat="44.53038" lon="3.12441">
        <ele>1182</ele>
        <time>2019-06-01T12:39:21.446Z</time>
      </trkpt>
      <trkpt lat="44.53033" lon="3.12442">
        <ele>1182</ele>
        <time>2019-06-01T12:39:26.447Z</time>
      </trkpt>
      <trkpt lat="44.53026" lon="3.12443">
        <ele>1182</ele>
        <time>2019-06-01T12:39:31.434Z</time>
      </trkpt>
      <trkpt lat="44.53022" lon="3.12445">
        <ele>1182</ele>
        <time>2019-06-01T12:39:35.448Z</time>
      </trkpt>
      <trkpt lat="44.53018" lon="3.12446">
        <ele>1182</ele>
        <time>2019-06-01T12:39:39.451Z</time>
      </trkpt>
      <trkpt lat="44.53013" lon="3.12448">
        <ele>1181</ele>
        <time>2019-06-01T12:39:44.429Z</time>
      </trkpt>
      <trkpt lat="44.53009" lon="3.12451">
        <ele>1181</ele>
        <time>2019-06-01T12:39:48.442Z</time>
      </trkpt>
      <trkpt lat="44.53003" lon="3.12453">
        <ele>1181</ele>
        <time>2019-06-01T12:39:53.440Z</time>
      </trkpt>
      <trkpt lat="44.52998" lon="3.12454">
        <ele>1181</ele>
        <time>2019-06-01T12:39:57.446Z</time>
      </trkpt>
      <trkpt lat="44.52993" lon="3.12456">
        <ele>1181</ele>
        <time>2019-06-01T12:40:02.464Z</time>
      </trkpt>
      <trkpt lat="44.52988" lon="3.12459">
        <ele>1182</ele>
        <time>2019-06-01T12:40:07.441Z</time>
      </trkpt>
      <trkpt lat="44.52984" lon="3.12461">
        <ele>1184</ele>
        <time>2019-06-01T12:40:11.447Z</time>
      </trkpt>
      <trkpt lat="44.52978" lon="3.12464">
        <ele>1184</ele>
        <time>2019-06-01T12:40:16.466Z</time>
      </trkpt>
      <trkpt lat="44.52973" lon="3.12467">
        <ele>1184</ele>
        <time>2019-06-01T12:40:21.437Z</time>
      </trkpt>
      <trkpt lat="44.52968" lon="3.1247">
        <ele>1184</ele>
        <time>2019-06-01T12:40:26.437Z</time>
      </trkpt>
      <trkpt lat="44.52964" lon="3.12474">
        <ele>1184</ele>
        <time>2019-06-01T12:40:30.446Z</time>
      </trkpt>
      <trkpt lat="44.5296" lon="3.12477">
        <ele>1184</ele>
        <time>2019-06-01T12:40:35.472Z</time>
      </trkpt>
      <trkpt lat="44.52956" lon="3.1248">
        <ele>1183</ele>
        <time>2019-06-01T12:40:40.469Z</time>
      </trkpt>
      <trkpt lat="44.52951" lon="3.12486">
        <ele>1183</ele>
        <time>2019-06-01T12:40:45.441Z</time>
      </trkpt>
      <trkpt lat="44.52948" lon="3.12492">
        <ele>1185</ele>
        <time>2019-06-01T12:40:50.434Z</time>
      </trkpt>
      <trkpt lat="44.52943" lon="3.12496">
        <ele>1185</ele>
        <time>2019-06-01T12:40:55.422Z</time>
      </trkpt>
      <trkpt lat="44.52938" lon="3.125">
        <ele>1185</ele>
        <time>2019-06-01T12:41:00.451Z</time>
      </trkpt>
      <trkpt lat="44.52934" lon="3.12506">
        <ele>1185</ele>
        <time>2019-06-01T12:41:05.426Z</time>
      </trkpt>
      <trkpt lat="44.5293" lon="3.1251">
        <ele>1182</ele>
        <time>2019-06-01T12:41:09.442Z</time>
      </trkpt>
      <trkpt lat="44.52926" lon="3.12513">
        <ele>1182</ele>
        <time>2019-06-01T12:41:13.453Z</time>
      </trkpt>
      <trkpt lat="44.5292" lon="3.12516">
        <ele>1183</ele>
        <time>2019-06-01T12:41:18.435Z</time>
      </trkpt>
      <trkpt lat="44.52917" lon="3.12519">
        <ele>1183</ele>
        <time>2019-06-01T12:41:22.452Z</time>
      </trkpt>
      <trkpt lat="44.52913" lon="3.12524">
        <ele>1183</ele>
        <time>2019-06-01T12:41:27.476Z</time>
      </trkpt>
      <trkpt lat="44.52909" lon="3.1253">
        <ele>1183</ele>
        <time>2019-06-01T12:41:32.422Z</time>
      </trkpt>
      <trkpt lat="44.52904" lon="3.12536">
        <ele>1183</ele>
        <time>2019-06-01T12:41:37.421Z</time>
      </trkpt>
      <trkpt lat="44.52899" lon="3.12539">
        <ele>1181</ele>
        <time>2019-06-01T12:41:41.427Z</time>
      </trkpt>
      <trkpt lat="44.52894" lon="3.12544">
        <ele>1182</ele>
        <time>2019-06-01T12:41:46.426Z</time>
      </trkpt>
      <trkpt lat="44.52891" lon="3.12548">
        <ele>1182</ele>
        <time>2019-06-01T12:41:50.426Z</time>
      </trkpt>
      <trkpt lat="44.52886" lon="3.12554">
        <ele>1182</ele>
        <time>2019-06-01T12:41:55.420Z</time>
      </trkpt>
      <trkpt lat="44.52882" lon="3.12558">
        <ele>1182</ele>
        <time>2019-06-01T12:41:59.422Z</time>
      </trkpt>
      <trkpt lat="44.52879" lon="3.12562">
        <ele>1182</ele>
        <time>2019-06-01T12:42:03.459Z</time>
      </trkpt>
      <trkpt lat="44.52874" lon="3.12567">
        <ele>1179</ele>
        <time>2019-06-01T12:42:08.457Z</time>
      </trkpt>
      <trkpt lat="44.5287" lon="3.12571">
        <ele>1179</ele>
        <time>2019-06-01T12:42:13.437Z</time>
      </trkpt>
      <trkpt lat="44.52866" lon="3.12577">
        <ele>1179</ele>
        <time>2019-06-01T12:42:18.423Z</time>
      </trkpt>
      <trkpt lat="44.52862" lon="3.12579">
        <ele>1179</ele>
        <time>2019-06-01T12:42:22.430Z</time>
      </trkpt>
      <trkpt lat="44.5286" lon="3.12583">
        <ele>1179</ele>
        <time>2019-06-01T12:42:26.455Z</time>
      </trkpt>
      <trkpt lat="44.52856" lon="3.12588">
        <ele>1179</ele>
        <time>2019-06-01T12:42:31.428Z</time>
      </trkpt>
      <trkpt lat="44.52851" lon="3.12593">
        <ele>1179</ele>
        <time>2019-06-01T12:42:36.427Z</time>
      </trkpt>
      <trkpt lat="44.52848" lon="3.12598">
        <ele>1179</ele>
        <time>2019-06-01T12:42:40.451Z</time>
      </trkpt>
      <trkpt lat="44.52845" lon="3.12604">
        <ele>1177</ele>
        <time>2019-06-01T12:42:45.431Z</time>
      </trkpt>
      <trkpt lat="44.52843" lon="3.1261">
        <ele>1177</ele>
        <time>2019-06-01T12:42:50.420Z</time>
      </trkpt>
      <trkpt lat="44.5284" lon="3.12616">
        <ele>1177</ele>
        <time>2019-06-01T12:42:55.431Z</time>
      </trkpt>
      <trkpt lat="44.52837" lon="3.12621">
        <ele>1177</ele>
        <time>2019-06-01T12:43:00.425Z</time>
      </trkpt>
      <trkpt lat="44.52833" lon="3.12626">
        <ele>1179</ele>
        <time>2019-06-01T12:43:04.459Z</time>
      </trkpt>
      <trkpt lat="44.52829" lon="3.12631">
        <ele>1179</ele>
        <time>2019-06-01T12:43:09.453Z</time>
      </trkpt>
      <trkpt lat="44.52826" lon="3.12639">
        <ele>1179</ele>
        <time>2019-06-01T12:43:14.461Z</time>
      </trkpt>
      <trkpt lat="44.52822" lon="3.12645">
        <ele>1179</ele>
        <time>2019-06-01T12:43:19.454Z</time>
      </trkpt>
      <trkpt lat="44.5282" lon="3.12652">
        <ele>1179</ele>
        <time>2019-06-01T12:43:24.421Z</time>
      </trkpt>
      <trkpt lat="44.52818" lon="3.12653">
        <ele>1178</ele>
        <time>2019-06-01T12:43:29.453Z</time>
      </trkpt>
      <trkpt lat="44.52815" lon="3.12659">
        <ele>1180</ele>
        <time>2019-06-01T12:43:34.429Z</time>
      </trkpt>
      <trkpt lat="44.52813" lon="3.12666">
        <ele>1180</ele>
        <time>2019-06-01T12:43:39.423Z</time>
      </trkpt>
      <trkpt lat="44.52811" lon="3.12673">
        <ele>1180</ele>
        <time>2019-06-01T12:43:43.432Z</time>
      </trkpt>
      <trkpt lat="44.52809" lon="3.12678">
        <ele>1180</ele>
        <time>2019-06-01T12:43:47.453Z</time>
      </trkpt>
      <trkpt lat="44.52807" lon="3.12684">
        <ele>1181</ele>
        <time>2019-06-01T12:43:52.470Z</time>
      </trkpt>
      <trkpt lat="44.52803" lon="3.12691">
        <ele>1181</ele>
        <time>2019-06-01T12:43:57.421Z</time>
      </trkpt>
      <trkpt lat="44.528" lon="3.12696">
        <ele>1181</ele>
        <time>2019-06-01T12:44:01.425Z</time>
      </trkpt>
      <trkpt lat="44.52795" lon="3.12703">
        <ele>1181</ele>
        <time>2019-06-01T12:44:06.423Z</time>
      </trkpt>
      <trkpt lat="44.5279" lon="3.12707">
        <ele>1182</ele>
        <time>2019-06-01T12:44:11.419Z</time>
      </trkpt>
      <trkpt lat="44.52785" lon="3.12711">
        <ele>1183</ele>
        <time>2019-06-01T12:44:15.460Z</time>
      </trkpt>
      <trkpt lat="44.52781" lon="3.12714">
        <ele>1183</ele>
        <time>2019-06-01T12:44:20.434Z</time>
      </trkpt>
      <trkpt lat="44.52778" lon="3.12716">
        <ele>1183</ele>
        <time>2019-06-01T12:44:25.423Z</time>
      </trkpt>
      <trkpt lat="44.52774" lon="3.1272">
        <ele>1183</ele>
        <time>2019-06-01T12:44:29.466Z</time>
      </trkpt>
      <trkpt lat="44.52769" lon="3.12724">
        <ele>1183</ele>
        <time>2019-06-01T12:44:34.451Z</time>
      </trkpt>
      <trkpt lat="44.52764" lon="3.12729">
        <ele>1183</ele>
        <time>2019-06-01T12:44:39.422Z</time>
      </trkpt>
      <trkpt lat="44.52759" lon="3.12732">
        <ele>1184</ele>
        <time>2019-06-01T12:44:44.425Z</time>
      </trkpt>
      <trkpt lat="44.52755" lon="3.12736">
        <ele>1183</ele>
        <time>2019-06-01T12:44:48.448Z</time>
      </trkpt>
      <trkpt lat="44.52752" lon="3.1274">
        <ele>1183</ele>
        <time>2019-06-01T12:44:52.449Z</time>
      </trkpt>
      <trkpt lat="44.52749" lon="3.12743">
        <ele>1183</ele>
        <time>2019-06-01T12:44:57.461Z</time>
      </trkpt>
      <trkpt lat="44.52746" lon="3.12746">
        <ele>1183</ele>
        <time>2019-06-01T12:45:02.455Z</time>
      </trkpt>
      <trkpt lat="44.5274" lon="3.12751">
        <ele>1183</ele>
        <time>2019-06-01T12:45:07.433Z</time>
      </trkpt>
      <trkpt lat="44.52736" lon="3.12755">
        <ele>1185</ele>
        <time>2019-06-01T12:45:12.427Z</time>
      </trkpt>
      <trkpt lat="44.52731" lon="3.12758">
        <ele>1185</ele>
        <time>2019-06-01T12:45:17.421Z</time>
      </trkpt>
      <trkpt lat="44.52727" lon="3.12765">
        <ele>1183</ele>
        <time>2019-06-01T12:45:22.428Z</time>
      </trkpt>
      <trkpt lat="44.52723" lon="3.1277">
        <ele>1183</ele>
        <time>2019-06-01T12:45:27.433Z</time>
      </trkpt>
      <trkpt lat="44.52718" lon="3.12778">
        <ele>1183</ele>
        <time>2019-06-01T12:45:32.434Z</time>
      </trkpt>
      <trkpt lat="44.52716" lon="3.12782">
        <ele>1183</ele>
        <time>2019-06-01T12:45:36.451Z</time>
      </trkpt>
      <trkpt lat="44.52711" lon="3.12788">
        <ele>1183</ele>
        <time>2019-06-01T12:45:41.429Z</time>
      </trkpt>
      <trkpt lat="44.52707" lon="3.12793">
        <ele>1183</ele>
        <time>2019-06-01T12:45:46.454Z</time>
      </trkpt>
      <trkpt lat="44.52703" lon="3.12799">
        <ele>1183</ele>
        <time>2019-06-01T12:45:51.457Z</time>
      </trkpt>
      <trkpt lat="44.52699" lon="3.12805">
        <ele>1183</ele>
        <time>2019-06-01T12:45:56.422Z</time>
      </trkpt>
      <trkpt lat="44.52697" lon="3.12811">
        <ele>1183</ele>
        <time>2019-06-01T12:46:00.434Z</time>
      </trkpt>
      <trkpt lat="44.52693" lon="3.12816">
        <ele>1183</ele>
        <time>2019-06-01T12:46:04.461Z</time>
      </trkpt>
      <trkpt lat="44.5269" lon="3.12822">
        <ele>1179</ele>
        <time>2019-06-01T12:46:09.424Z</time>
      </trkpt>
      <trkpt lat="44.52687" lon="3.12826">
        <ele>1179</ele>
        <time>2019-06-01T12:46:13.471Z</time>
      </trkpt>
      <trkpt lat="44.52682" lon="3.12832">
        <ele>1179</ele>
        <time>2019-06-01T12:46:18.439Z</time>
      </trkpt>
      <trkpt lat="44.52678" lon="3.12836">
        <ele>1181</ele>
        <time>2019-06-01T12:46:22.471Z</time>
      </trkpt>
      <trkpt lat="44.52674" lon="3.1284">
        <ele>1181</ele>
        <time>2019-06-01T12:46:27.477Z</time>
      </trkpt>
      <trkpt lat="44.52671" lon="3.12845">
        <ele>1181</ele>
        <time>2019-06-01T12:46:32.438Z</time>
      </trkpt>
      <trkpt lat="44.52668" lon="3.12849">
        <ele>1175</ele>
        <time>2019-06-01T12:46:36.441Z</time>
      </trkpt>
      <trkpt lat="44.52663" lon="3.12853">
        <ele>1175</ele>
        <time>2019-06-01T12:46:41.430Z</time>
      </trkpt>
      <trkpt lat="44.52659" lon="3.12856">
        <ele>1175</ele>
        <time>2019-06-01T12:46:45.443Z</time>
      </trkpt>
      <trkpt lat="44.52654" lon="3.12862">
        <ele>1175</ele>
        <time>2019-06-01T12:46:50.441Z</time>
      </trkpt>
      <trkpt lat="44.52649" lon="3.12866">
        <ele>1176</ele>
        <time>2019-06-01T12:46:54.472Z</time>
      </trkpt>
      <trkpt lat="44.52642" lon="3.1287">
        <ele>1176</ele>
        <time>2019-06-01T12:46:59.443Z</time>
      </trkpt>
      <trkpt lat="44.52637" lon="3.12871">
        <ele>1176</ele>
        <time>2019-06-01T12:47:03.472Z</time>
      </trkpt>
      <trkpt lat="44.5263" lon="3.12875">
        <ele>1176</ele>
        <time>2019-06-01T12:47:08.438Z</time>
      </trkpt>
      <trkpt lat="44.52626" lon="3.12878">
        <ele>1169</ele>
        <time>2019-06-01T12:47:12.471Z</time>
      </trkpt>
      <trkpt lat="44.52621" lon="3.1288">
        <ele>1171</ele>
        <time>2019-06-01T12:47:17.445Z</time>
      </trkpt>
      <trkpt lat="44.52616" lon="3.12883">
        <ele>1171</ele>
        <time>2019-06-01T12:47:21.468Z</time>
      </trkpt>
      <trkpt lat="44.52612" lon="3.12885">
        <ele>1171</ele>
        <time>2019-06-01T12:47:25.473Z</time>
      </trkpt>
      <trkpt lat="44.52607" lon="3.12887">
        <ele>1171</ele>
        <time>2019-06-01T12:47:30.473Z</time>
      </trkpt>
      <trkpt lat="44.52602" lon="3.1289">
        <ele>1171</ele>
        <time>2019-06-01T12:47:35.445Z</time>
      </trkpt>
      <trkpt lat="44.52598" lon="3.12895">
        <ele>1171</ele>
        <time>2019-06-01T12:47:39.471Z</time>
      </trkpt>
      <trkpt lat="44.52591" lon="3.12897">
        <ele>1176</ele>
        <time>2019-06-01T12:47:44.446Z</time>
      </trkpt>
      <trkpt lat="44.52585" lon="3.12901">
        <ele>1176</ele>
        <time>2019-06-01T12:47:49.443Z</time>
      </trkpt>
      <trkpt lat="44.52584" lon="3.12902">
        <ele>1176</ele>
        <time>2019-06-01T12:47:54.449Z</time>
      </trkpt>
      <trkpt lat="44.52584" lon="3.12902">
        <ele>1176</ele>
        <time>2019-06-01T12:48:12.468Z</time>
      </trkpt>
      <trkpt lat="44.52582" lon="3.12903">
        <ele>1176</ele>
        <time>2019-06-01T12:49:02.435Z</time>
      </trkpt>
      <trkpt lat="44.52575" lon="3.12907">
        <ele>1169</ele>
        <time>2019-06-01T12:49:06.458Z</time>
      </trkpt>
      <trkpt lat="44.5257" lon="3.12911">
        <ele>1169</ele>
        <time>2019-06-01T12:49:11.450Z</time>
      </trkpt>
      <trkpt lat="44.52563" lon="3.12915">
        <ele>1171</ele>
        <time>2019-06-01T12:49:16.438Z</time>
      </trkpt>
      <trkpt lat="44.52557" lon="3.12919">
        <ele>1171</ele>
        <time>2019-06-01T12:49:21.437Z</time>
      </trkpt>
      <trkpt lat="44.52552" lon="3.12922">
        <ele>1171</ele>
        <time>2019-06-01T12:49:26.438Z</time>
      </trkpt>
      <trkpt lat="44.5255" lon="3.12921">
        <ele>1171</ele>
        <time>2019-06-01T12:49:31.471Z</time>
      </trkpt>
      <trkpt lat="44.52546" lon="3.12921">
        <ele>1171</ele>
        <time>2019-06-01T12:49:36.450Z</time>
      </trkpt>
      <trkpt lat="44.52541" lon="3.12922">
        <ele>1168</ele>
        <time>2019-06-01T12:49:41.436Z</time>
      </trkpt>
      <trkpt lat="44.52539" lon="3.12923">
        <ele>1168</ele>
        <time>2019-06-01T12:49:46.438Z</time>
      </trkpt>
      <trkpt lat="44.52539" lon="3.12923">
        <ele>1168</ele>
        <time>2019-06-01T12:50:28.442Z</time>
      </trkpt>
      <trkpt lat="44.52537" lon="3.12925">
        <ele>1168</ele>
        <time>2019-06-01T12:50:33.443Z</time>
      </trkpt>
      <trkpt lat="44.5253" lon="3.12927">
        <ele>1168</ele>
        <time>2019-06-01T12:50:38.473Z</time>
      </trkpt>
      <trkpt lat="44.52527" lon="3.12928">
        <ele>1168</ele>
        <time>2019-06-01T12:50:43.441Z</time>
      </trkpt>
      <trkpt lat="44.52524" lon="3.12929">
        <ele>1168</ele>
        <time>2019-06-01T12:50:48.436Z</time>
      </trkpt>
      <trkpt lat="44.52518" lon="3.12931">
        <ele>1159</ele>
        <time>2019-06-01T12:50:52.440Z</time>
      </trkpt>
      <trkpt lat="44.52513" lon="3.1293">
        <ele>1167</ele>
        <time>2019-06-01T12:50:57.443Z</time>
      </trkpt>
      <trkpt lat="44.52508" lon="3.12931">
        <ele>1159</ele>
        <time>2019-06-01T12:51:01.449Z</time>
      </trkpt>
      <trkpt lat="44.52502" lon="3.12933">
        <ele>1159</ele>
        <time>2019-06-01T12:51:06.427Z</time>
      </trkpt>
      <trkpt lat="44.52497" lon="3.12933">
        <ele>1159</ele>
        <time>2019-06-01T12:51:10.449Z</time>
      </trkpt>
      <trkpt lat="44.52492" lon="3.12934">
        <ele>1159</ele>
        <time>2019-06-01T12:51:15.446Z</time>
      </trkpt>
      <trkpt lat="44.52487" lon="3.12936">
        <ele>1159</ele>
        <time>2019-06-01T12:51:20.432Z</time>
      </trkpt>
      <trkpt lat="44.52482" lon="3.12935">
        <ele>1159</ele>
        <time>2019-06-01T12:51:25.431Z</time>
      </trkpt>
      <trkpt lat="44.52477" lon="3.12937">
        <ele>1159</ele>
        <time>2019-06-01T12:51:29.442Z</time>
      </trkpt>
      <trkpt lat="44.52472" lon="3.1294">
        <ele>1159</ele>
        <time>2019-06-01T12:51:34.485Z</time>
      </trkpt>
      <trkpt lat="44.52466" lon="3.12942">
        <ele>1159</ele>
        <time>2019-06-01T12:51:39.492Z</time>
      </trkpt>
      <trkpt lat="44.5246" lon="3.12943">
        <ele>1159</ele>
        <time>2019-06-01T12:51:44.446Z</time>
      </trkpt>
      <trkpt lat="44.52455" lon="3.12944">
        <ele>1160</ele>
        <time>2019-06-01T12:51:49.435Z</time>
      </trkpt>
      <trkpt lat="44.52452" lon="3.12945">
        <ele>1160</ele>
        <time>2019-06-01T12:51:53.440Z</time>
      </trkpt>
      <trkpt lat="44.52448" lon="3.12947">
        <ele>1160</ele>
        <time>2019-06-01T12:51:57.450Z</time>
      </trkpt>
      <trkpt lat="44.52442" lon="3.12947">
        <ele>1160</ele>
        <time>2019-06-01T12:52:02.450Z</time>
      </trkpt>
      <trkpt lat="44.52436" lon="3.12948">
        <ele>1160</ele>
        <time>2019-06-01T12:52:07.442Z</time>
      </trkpt>
      <trkpt lat="44.5243" lon="3.12949">
        <ele>1160</ele>
        <time>2019-06-01T12:52:12.449Z</time>
      </trkpt>
      <trkpt lat="44.52424" lon="3.1295">
        <ele>1160</ele>
        <time>2019-06-01T12:52:16.482Z</time>
      </trkpt>
      <trkpt lat="44.52421" lon="3.12951">
        <ele>1160</ele>
        <time>2019-06-01T12:52:21.477Z</time>
      </trkpt>
      <trkpt lat="44.52417" lon="3.12953">
        <ele>1160</ele>
        <time>2019-06-01T12:52:26.441Z</time>
      </trkpt>
      <trkpt lat="44.52411" lon="3.12955">
        <ele>1160</ele>
        <time>2019-06-01T12:52:31.467Z</time>
      </trkpt>
      <trkpt lat="44.52406" lon="3.12956">
        <ele>1160</ele>
        <time>2019-06-01T12:52:36.447Z</time>
      </trkpt>
      <trkpt lat="44.52399" lon="3.12956">
        <ele>1160</ele>
        <time>2019-06-01T12:52:41.443Z</time>
      </trkpt>
      <trkpt lat="44.52394" lon="3.12958">
        <ele>1160</ele>
        <time>2019-06-01T12:52:45.471Z</time>
      </trkpt>
      <trkpt lat="44.52389" lon="3.1296">
        <ele>1151</ele>
        <time>2019-06-01T12:52:50.429Z</time>
      </trkpt>
      <trkpt lat="44.52385" lon="3.1296">
        <ele>1151</ele>
        <time>2019-06-01T12:52:54.440Z</time>
      </trkpt>
      <trkpt lat="44.52379" lon="3.12963">
        <ele>1151</ele>
        <time>2019-06-01T12:52:59.436Z</time>
      </trkpt>
      <trkpt lat="44.52373" lon="3.12964">
        <ele>1150</ele>
        <time>2019-06-01T12:53:04.483Z</time>
      </trkpt>
      <trkpt lat="44.52367" lon="3.12966">
        <ele>1150</ele>
        <time>2019-06-01T12:53:09.442Z</time>
      </trkpt>
      <trkpt lat="44.52361" lon="3.12968">
        <ele>1150</ele>
        <time>2019-06-01T12:53:14.445Z</time>
      </trkpt>
      <trkpt lat="44.52356" lon="3.12971">
        <ele>1150</ele>
        <time>2019-06-01T12:53:18.471Z</time>
      </trkpt>
      <trkpt lat="44.5235" lon="3.12974">
        <ele>1150</ele>
        <time>2019-06-01T12:53:23.444Z</time>
      </trkpt>
      <trkpt lat="44.52343" lon="3.12976">
        <ele>1149</ele>
        <time>2019-06-01T12:53:28.441Z</time>
      </trkpt>
      <trkpt lat="44.52338" lon="3.12977">
        <ele>1149</ele>
        <time>2019-06-01T12:53:33.447Z</time>
      </trkpt>
      <trkpt lat="44.52332" lon="3.12979">
        <ele>1149</ele>
        <time>2019-06-01T12:53:38.436Z</time>
      </trkpt>
      <trkpt lat="44.52328" lon="3.1298">
        <ele>1149</ele>
        <time>2019-06-01T12:53:42.451Z</time>
      </trkpt>
      <trkpt lat="44.52322" lon="3.12983">
        <ele>1149</ele>
        <time>2019-06-01T12:53:47.438Z</time>
      </trkpt>
      <trkpt lat="44.52317" lon="3.12985">
        <ele>1149</ele>
        <time>2019-06-01T12:53:51.457Z</time>
      </trkpt>
      <trkpt lat="44.52312" lon="3.12987">
        <ele>1141</ele>
        <time>2019-06-01T12:53:56.449Z</time>
      </trkpt>
      <trkpt lat="44.52307" lon="3.12988">
        <ele>1141</ele>
        <time>2019-06-01T12:54:01.473Z</time>
      </trkpt>
      <trkpt lat="44.523" lon="3.12989">
        <ele>1141</ele>
        <time>2019-06-01T12:54:06.439Z</time>
      </trkpt>
      <trkpt lat="44.52295" lon="3.1299">
        <ele>1141</ele>
        <time>2019-06-01T12:54:10.442Z</time>
      </trkpt>
      <trkpt lat="44.5229" lon="3.12992">
        <ele>1138</ele>
        <time>2019-06-01T12:54:15.467Z</time>
      </trkpt>
      <trkpt lat="44.52284" lon="3.12994">
        <ele>1138</ele>
        <time>2019-06-01T12:54:20.442Z</time>
      </trkpt>
      <trkpt lat="44.52279" lon="3.12997">
        <ele>1138</ele>
        <time>2019-06-01T12:54:24.470Z</time>
      </trkpt>
      <trkpt lat="44.52273" lon="3.12998">
        <ele>1138</ele>
        <time>2019-06-01T12:54:29.451Z</time>
      </trkpt>
      <trkpt lat="44.52268" lon="3.13">
        <ele>1138</ele>
        <time>2019-06-01T12:54:34.444Z</time>
      </trkpt>
      <trkpt lat="44.52263" lon="3.13002">
        <ele>1135</ele>
        <time>2019-06-01T12:54:39.444Z</time>
      </trkpt>
      <trkpt lat="44.52259" lon="3.13004">
        <ele>1135</ele>
        <time>2019-06-01T12:54:44.446Z</time>
      </trkpt>
      <trkpt lat="44.52253" lon="3.13003">
        <ele>1135</ele>
        <time>2019-06-01T12:54:49.444Z</time>
      </trkpt>
      <trkpt lat="44.52248" lon="3.13003">
        <ele>1135</ele>
        <time>2019-06-01T12:54:53.463Z</time>
      </trkpt>
      <trkpt lat="44.52242" lon="3.13004">
        <ele>1135</ele>
        <time>2019-06-01T12:54:58.444Z</time>
      </trkpt>
      <trkpt lat="44.52238" lon="3.13006">
        <ele>1135</ele>
        <time>2019-06-01T12:55:02.458Z</time>
      </trkpt>
      <trkpt lat="44.52232" lon="3.13009">
        <ele>1131</ele>
        <time>2019-06-01T12:55:07.444Z</time>
      </trkpt>
      <trkpt lat="44.52226" lon="3.13009">
        <ele>1131</ele>
        <time>2019-06-01T12:55:12.448Z</time>
      </trkpt>
      <trkpt lat="44.52221" lon="3.1301">
        <ele>1131</ele>
        <time>2019-06-01T12:55:17.443Z</time>
      </trkpt>
      <trkpt lat="44.52215" lon="3.13011">
        <ele>1131</ele>
        <time>2019-06-01T12:55:22.453Z</time>
      </trkpt>
      <trkpt lat="44.5221" lon="3.13011">
        <ele>1131</ele>
        <time>2019-06-01T12:55:27.444Z</time>
      </trkpt>
      <trkpt lat="44.52205" lon="3.1301">
        <ele>1130</ele>
        <time>2019-06-01T12:55:31.474Z</time>
      </trkpt>
      <trkpt lat="44.52199" lon="3.1301">
        <ele>1130</ele>
        <time>2019-06-01T12:55:36.443Z</time>
      </trkpt>
      <trkpt lat="44.52194" lon="3.1301">
        <ele>1130</ele>
        <time>2019-06-01T12:55:41.441Z</time>
      </trkpt>
      <trkpt lat="44.52188" lon="3.1301">
        <ele>1130</ele>
        <time>2019-06-01T12:55:46.441Z</time>
      </trkpt>
      <trkpt lat="44.52181" lon="3.13006">
        <ele>1130</ele>
        <time>2019-06-01T12:55:51.441Z</time>
      </trkpt>
      <trkpt lat="44.52175" lon="3.13003">
        <ele>1126</ele>
        <time>2019-06-01T12:55:56.441Z</time>
      </trkpt>
      <trkpt lat="44.52171" lon="3.13002">
        <ele>1126</ele>
        <time>2019-06-01T12:56:00.439Z</time>
      </trkpt>
      <trkpt lat="44.52164" lon="3.13003">
        <ele>1126</ele>
        <time>2019-06-01T12:56:05.441Z</time>
      </trkpt>
      <trkpt lat="44.52158" lon="3.13002">
        <ele>1126</ele>
        <time>2019-06-01T12:56:10.441Z</time>
      </trkpt>
      <trkpt lat="44.52152" lon="3.13001">
        <ele>1124</ele>
        <time>2019-06-01T12:56:15.441Z</time>
      </trkpt>
      <trkpt lat="44.52146" lon="3.13002">
        <ele>1124</ele>
        <time>2019-06-01T12:56:20.436Z</time>
      </trkpt>
      <trkpt lat="44.5214" lon="3.13004">
        <ele>1124</ele>
        <time>2019-06-01T12:56:24.445Z</time>
      </trkpt>
      <trkpt lat="44.52133" lon="3.13007">
        <ele>1124</ele>
        <time>2019-06-01T12:56:28.459Z</time>
      </trkpt>
      <trkpt lat="44.52126" lon="3.13009">
        <ele>1124</ele>
        <time>2019-06-01T12:56:33.445Z</time>
      </trkpt>
      <trkpt lat="44.52119" lon="3.13012">
        <ele>1123</ele>
        <time>2019-06-01T12:56:38.448Z</time>
      </trkpt>
      <trkpt lat="44.52113" lon="3.13015">
        <ele>1116</ele>
        <time>2019-06-01T12:56:43.439Z</time>
      </trkpt>
      <trkpt lat="44.52107" lon="3.13018">
        <ele>1116</ele>
        <time>2019-06-01T12:56:48.475Z</time>
      </trkpt>
      <trkpt lat="44.52101" lon="3.1302">
        <ele>1116</ele>
        <time>2019-06-01T12:56:53.444Z</time>
      </trkpt>
      <trkpt lat="44.52098" lon="3.13022">
        <ele>1116</ele>
        <time>2019-06-01T12:56:56.421Z</time>
      </trkpt>
      <trkpt lat="44.5209" lon="3.13028">
        <ele>1113</ele>
        <time>2019-06-01T12:57:02.435Z</time>
      </trkpt>
      <trkpt lat="44.52084" lon="3.13032">
        <ele>1113</ele>
        <time>2019-06-01T12:57:07.420Z</time>
      </trkpt>
      <trkpt lat="44.52079" lon="3.13036">
        <ele>1113</ele>
        <time>2019-06-01T12:57:11.432Z</time>
      </trkpt>
      <trkpt lat="44.52074" lon="3.13038">
        <ele>1113</ele>
        <time>2019-06-01T12:57:15.438Z</time>
      </trkpt>
      <trkpt lat="44.5207" lon="3.13038">
        <ele>1113</ele>
        <time>2019-06-01T12:57:19.457Z</time>
      </trkpt>
      <trkpt lat="44.52065" lon="3.13039">
        <ele>1113</ele>
        <time>2019-06-01T12:57:24.478Z</time>
      </trkpt>
      <trkpt lat="44.5206" lon="3.1304">
        <ele>1113</ele>
        <time>2019-06-01T12:57:29.444Z</time>
      </trkpt>
      <trkpt lat="44.52056" lon="3.13043">
        <ele>1106</ele>
        <time>2019-06-01T12:57:33.477Z</time>
      </trkpt>
      <trkpt lat="44.5205" lon="3.13046">
        <ele>1106</ele>
        <time>2019-06-01T12:57:38.439Z</time>
      </trkpt>
      <trkpt lat="44.52045" lon="3.13049">
        <ele>1106</ele>
        <time>2019-06-01T12:57:43.491Z</time>
      </trkpt>
      <trkpt lat="44.5204" lon="3.13051">
        <ele>1105</ele>
        <time>2019-06-01T12:57:48.441Z</time>
      </trkpt>
      <trkpt lat="44.52036" lon="3.13053">
        <ele>1105</ele>
        <time>2019-06-01T12:57:52.471Z</time>
      </trkpt>
      <trkpt lat="44.5203" lon="3.13056">
        <ele>1105</ele>
        <time>2019-06-01T12:57:57.483Z</time>
      </trkpt>
      <trkpt lat="44.52025" lon="3.13057">
        <ele>1105</ele>
        <time>2019-06-01T12:58:02.440Z</time>
      </trkpt>
      <trkpt lat="44.52021" lon="3.1306">
        <ele>1105</ele>
        <time>2019-06-01T12:58:06.442Z</time>
      </trkpt>
      <trkpt lat="44.52014" lon="3.13061">
        <ele>1105</ele>
        <time>2019-06-01T12:58:11.443Z</time>
      </trkpt>
      <trkpt lat="44.52008" lon="3.13062">
        <ele>1101</ele>
        <time>2019-06-01T12:58:16.435Z</time>
      </trkpt>
      <trkpt lat="44.52004" lon="3.13061">
        <ele>1101</ele>
        <time>2019-06-01T12:58:20.443Z</time>
      </trkpt>
      <trkpt lat="44.52" lon="3.13058">
        <ele>1101</ele>
        <time>2019-06-01T12:58:25.434Z</time>
      </trkpt>
      <trkpt lat="44.51995" lon="3.13056">
        <ele>1101</ele>
        <time>2019-06-01T12:58:30.441Z</time>
      </trkpt>
      <trkpt lat="44.5199" lon="3.13056">
        <ele>1101</ele>
        <time>2019-06-01T12:58:34.466Z</time>
      </trkpt>
      <trkpt lat="44.51984" lon="3.13056">
        <ele>1095</ele>
        <time>2019-06-01T12:58:39.471Z</time>
      </trkpt>
      <trkpt lat="44.51977" lon="3.13054">
        <ele>1095</ele>
        <time>2019-06-01T12:58:44.445Z</time>
      </trkpt>
      <trkpt lat="44.51972" lon="3.13055">
        <ele>1095</ele>
        <time>2019-06-01T12:58:49.449Z</time>
      </trkpt>
      <trkpt lat="44.51966" lon="3.1306">
        <ele>1095</ele>
        <time>2019-06-01T12:58:54.447Z</time>
      </trkpt>
      <trkpt lat="44.51965" lon="3.13066">
        <ele>1095</ele>
        <time>2019-06-01T12:58:58.477Z</time>
      </trkpt>
      <trkpt lat="44.51966" lon="3.13073">
        <ele>1088</ele>
        <time>2019-06-01T12:59:03.444Z</time>
      </trkpt>
      <trkpt lat="44.51969" lon="3.1308">
        <ele>1088</ele>
        <time>2019-06-01T12:59:08.452Z</time>
      </trkpt>
      <trkpt lat="44.51972" lon="3.13086">
        <ele>1088</ele>
        <time>2019-06-01T12:59:12.473Z</time>
      </trkpt>
      <trkpt lat="44.51976" lon="3.13091">
        <ele>1088</ele>
        <time>2019-06-01T12:59:17.446Z</time>
      </trkpt>
      <trkpt lat="44.51979" lon="3.13097">
        <ele>1088</ele>
        <time>2019-06-01T12:59:21.455Z</time>
      </trkpt>
      <trkpt lat="44.51983" lon="3.13102">
        <ele>1082</ele>
        <time>2019-06-01T12:59:26.435Z</time>
      </trkpt>
      <trkpt lat="44.51986" lon="3.13106">
        <ele>1082</ele>
        <time>2019-06-01T12:59:30.441Z</time>
      </trkpt>
      <trkpt lat="44.51991" lon="3.13112">
        <ele>1088</ele>
        <time>2019-06-01T12:59:35.455Z</time>
      </trkpt>
      <trkpt lat="44.51995" lon="3.13118">
        <ele>1088</ele>
        <time>2019-06-01T12:59:40.421Z</time>
      </trkpt>
      <trkpt lat="44.51996" lon="3.13122">
        <ele>1088</ele>
        <time>2019-06-01T12:59:44.441Z</time>
      </trkpt>
      <trkpt lat="44.51994" lon="3.13125">
        <ele>1082</ele>
        <time>2019-06-01T12:59:49.449Z</time>
      </trkpt>
      <trkpt lat="44.51991" lon="3.13125">
        <ele>1082</ele>
        <time>2019-06-01T12:59:54.461Z</time>
      </trkpt>
      <trkpt lat="44.5199" lon="3.13126">
        <ele>1082</ele>
        <time>2019-06-01T12:59:59.471Z</time>
      </trkpt>
      <trkpt lat="44.51987" lon="3.13127">
        <ele>1082</ele>
        <time>2019-06-01T13:00:03.474Z</time>
      </trkpt>
      <trkpt lat="44.51983" lon="3.13125">
        <ele>1082</ele>
        <time>2019-06-01T13:00:08.451Z</time>
      </trkpt>
      <trkpt lat="44.51978" lon="3.13119">
        <ele>1082</ele>
        <time>2019-06-01T13:00:13.433Z</time>
      </trkpt>
      <trkpt lat="44.51974" lon="3.13116">
        <ele>1082</ele>
        <time>2019-06-01T13:00:17.445Z</time>
      </trkpt>
      <trkpt lat="44.5197" lon="3.13115">
        <ele>1082</ele>
        <time>2019-06-01T13:00:22.442Z</time>
      </trkpt>
      <trkpt lat="44.51966" lon="3.13113">
        <ele>1082</ele>
        <time>2019-06-01T13:00:26.460Z</time>
      </trkpt>
      <trkpt lat="44.51962" lon="3.13112">
        <ele>1082</ele>
        <time>2019-06-01T13:00:30.459Z</time>
      </trkpt>
      <trkpt lat="44.51956" lon="3.13111">
        <ele>1077</ele>
        <time>2019-06-01T13:00:35.434Z</time>
      </trkpt>
      <trkpt lat="44.51952" lon="3.1311">
        <ele>1077</ele>
        <time>2019-06-01T13:00:39.449Z</time>
      </trkpt>
      <trkpt lat="44.51947" lon="3.13106">
        <ele>1077</ele>
        <time>2019-06-01T13:00:44.449Z</time>
      </trkpt>
      <trkpt lat="44.51943" lon="3.13102">
        <ele>1077</ele>
        <time>2019-06-01T13:00:49.443Z</time>
      </trkpt>
      <trkpt lat="44.51938" lon="3.13099">
        <ele>1077</ele>
        <time>2019-06-01T13:00:54.439Z</time>
      </trkpt>
      <trkpt lat="44.51933" lon="3.13094">
        <ele>1083</ele>
        <time>2019-06-01T13:00:59.463Z</time>
      </trkpt>
      <trkpt lat="44.51927" lon="3.13094">
        <ele>1079</ele>
        <time>2019-06-01T13:01:04.446Z</time>
      </trkpt>
      <trkpt lat="44.51924" lon="3.13091">
        <ele>1079</ele>
        <time>2019-06-01T13:01:09.454Z</time>
      </trkpt>
      <trkpt lat="44.51919" lon="3.1309">
        <ele>1079</ele>
        <time>2019-06-01T13:01:14.487Z</time>
      </trkpt>
      <trkpt lat="44.51912" lon="3.13088">
        <ele>1079</ele>
        <time>2019-06-01T13:01:19.442Z</time>
      </trkpt>
      <trkpt lat="44.51903" lon="3.13085">
        <ele>1079</ele>
        <time>2019-06-01T13:01:24.439Z</time>
      </trkpt>
      <trkpt lat="44.51897" lon="3.13085">
        <ele>1074</ele>
        <time>2019-06-01T13:01:28.445Z</time>
      </trkpt>
      <trkpt lat="44.51891" lon="3.13084">
        <ele>1074</ele>
        <time>2019-06-01T13:01:33.436Z</time>
      </trkpt>
      <trkpt lat="44.51884" lon="3.13085">
        <ele>1074</ele>
        <time>2019-06-01T13:01:38.441Z</time>
      </trkpt>
      <trkpt lat="44.51879" lon="3.13086">
        <ele>1074</ele>
        <time>2019-06-01T13:01:42.473Z</time>
      </trkpt>
      <trkpt lat="44.51872" lon="3.13088">
        <ele>1071</ele>
        <time>2019-06-01T13:01:47.441Z</time>
      </trkpt>
      <trkpt lat="44.51867" lon="3.1309">
        <ele>1071</ele>
        <time>2019-06-01T13:01:52.446Z</time>
      </trkpt>
      <trkpt lat="44.51862" lon="3.13091">
        <ele>1071</ele>
        <time>2019-06-01T13:01:56.458Z</time>
      </trkpt>
      <trkpt lat="44.51856" lon="3.13093">
        <ele>1071</ele>
        <time>2019-06-01T13:02:01.444Z</time>
      </trkpt>
      <trkpt lat="44.51849" lon="3.13096">
        <ele>1071</ele>
        <time>2019-06-01T13:02:06.451Z</time>
      </trkpt>
      <trkpt lat="44.51844" lon="3.13096">
        <ele>1068</ele>
        <time>2019-06-01T13:02:11.445Z</time>
      </trkpt>
      <trkpt lat="44.51838" lon="3.13099">
        <ele>1063</ele>
        <time>2019-06-01T13:02:16.443Z</time>
      </trkpt>
      <trkpt lat="44.51834" lon="3.13102">
        <ele>1063</ele>
        <time>2019-06-01T13:02:20.468Z</time>
      </trkpt>
      <trkpt lat="44.51829" lon="3.13103">
        <ele>1063</ele>
        <time>2019-06-01T13:02:25.447Z</time>
      </trkpt>
      <trkpt lat="44.51823" lon="3.13106">
        <ele>1063</ele>
        <time>2019-06-01T13:02:30.436Z</time>
      </trkpt>
      <trkpt lat="44.51815" lon="3.1311">
        <ele>1060</ele>
        <time>2019-06-01T13:02:35.429Z</time>
      </trkpt>
      <trkpt lat="44.51808" lon="3.13113">
        <ele>1060</ele>
        <time>2019-06-01T13:02:40.421Z</time>
      </trkpt>
      <trkpt lat="44.51801" lon="3.1312">
        <ele>1060</ele>
        <time>2019-06-01T13:02:44.443Z</time>
      </trkpt>
      <trkpt lat="44.51794" lon="3.13126">
        <ele>1057</ele>
        <time>2019-06-01T13:02:49.428Z</time>
      </trkpt>
      <trkpt lat="44.51789" lon="3.13127">
        <ele>1055</ele>
        <time>2019-06-01T13:02:53.443Z</time>
      </trkpt>
      <trkpt lat="44.51785" lon="3.1313">
        <ele>1055</ele>
        <time>2019-06-01T13:02:57.447Z</time>
      </trkpt>
      <trkpt lat="44.51782" lon="3.13131">
        <ele>1055</ele>
        <time>2019-06-01T13:03:02.438Z</time>
      </trkpt>
      <trkpt lat="44.51779" lon="3.13133">
        <ele>1055</ele>
        <time>2019-06-01T13:03:06.444Z</time>
      </trkpt>
      <trkpt lat="44.51774" lon="3.13134">
        <ele>1055</ele>
        <time>2019-06-01T13:03:11.438Z</time>
      </trkpt>
      <trkpt lat="44.5177" lon="3.13138">
        <ele>1055</ele>
        <time>2019-06-01T13:03:16.440Z</time>
      </trkpt>
      <trkpt lat="44.51767" lon="3.13143">
        <ele>1055</ele>
        <time>2019-06-01T13:03:20.473Z</time>
      </trkpt>
      <trkpt lat="44.51762" lon="3.13147">
        <ele>1049</ele>
        <time>2019-06-01T13:03:25.437Z</time>
      </trkpt>
      <trkpt lat="44.51759" lon="3.13151">
        <ele>1049</ele>
        <time>2019-06-01T13:03:30.441Z</time>
      </trkpt>
      <trkpt lat="44.51755" lon="3.13154">
        <ele>1046</ele>
        <time>2019-06-01T13:03:35.443Z</time>
      </trkpt>
      <trkpt lat="44.5175" lon="3.13155">
        <ele>1046</ele>
        <time>2019-06-01T13:03:40.439Z</time>
      </trkpt>
      <trkpt lat="44.51744" lon="3.13157">
        <ele>1046</ele>
        <time>2019-06-01T13:03:45.442Z</time>
      </trkpt>
      <trkpt lat="44.51738" lon="3.13158">
        <ele>1046</ele>
        <time>2019-06-01T13:03:50.438Z</time>
      </trkpt>
      <trkpt lat="44.51734" lon="3.13159">
        <ele>1042</ele>
        <time>2019-06-01T13:03:54.469Z</time>
      </trkpt>
      <trkpt lat="44.51728" lon="3.13158">
        <ele>1042</ele>
        <time>2019-06-01T13:03:59.461Z</time>
      </trkpt>
      <trkpt lat="44.51723" lon="3.13158">
        <ele>1042</ele>
        <time>2019-06-01T13:04:04.439Z</time>
      </trkpt>
      <trkpt lat="44.51716" lon="3.13159">
        <ele>1042</ele>
        <time>2019-06-01T13:04:09.438Z</time>
      </trkpt>
      <trkpt lat="44.5171" lon="3.13162">
        <ele>1042</ele>
        <time>2019-06-01T13:04:14.418Z</time>
      </trkpt>
      <trkpt lat="44.51706" lon="3.13164">
        <ele>1040</ele>
        <time>2019-06-01T13:04:18.443Z</time>
      </trkpt>
      <trkpt lat="44.51702" lon="3.13166">
        <ele>1040</ele>
        <time>2019-06-01T13:04:23.439Z</time>
      </trkpt>
      <trkpt lat="44.51695" lon="3.13165">
        <ele>1040</ele>
        <time>2019-06-01T13:04:28.442Z</time>
      </trkpt>
      <trkpt lat="44.51689" lon="3.1317">
        <ele>1040</ele>
        <time>2019-06-01T13:04:33.441Z</time>
      </trkpt>
      <trkpt lat="44.51686" lon="3.13168">
        <ele>1040</ele>
        <time>2019-06-01T13:04:37.461Z</time>
      </trkpt>
      <trkpt lat="44.51683" lon="3.13163">
        <ele>1040</ele>
        <time>2019-06-01T13:04:42.443Z</time>
      </trkpt>
      <trkpt lat="44.51681" lon="3.13157">
        <ele>1037</ele>
        <time>2019-06-01T13:04:47.434Z</time>
      </trkpt>
      <trkpt lat="44.5168" lon="3.13157">
        <ele>1037</ele>
        <time>2019-06-01T13:04:51.446Z</time>
      </trkpt>
      <trkpt lat="44.51674" lon="3.13155">
        <ele>1037</ele>
        <time>2019-06-01T13:04:56.443Z</time>
      </trkpt>
      <trkpt lat="44.51672" lon="3.13155">
        <ele>1037</ele>
        <time>2019-06-01T13:05:01.443Z</time>
      </trkpt>
      <trkpt lat="44.51665" lon="3.13152">
        <ele>1035</ele>
        <time>2019-06-01T13:05:06.442Z</time>
      </trkpt>
      <trkpt lat="44.51659" lon="3.1315">
        <ele>1035</ele>
        <time>2019-06-01T13:05:10.473Z</time>
      </trkpt>
      <trkpt lat="44.51651" lon="3.1315">
        <ele>1032</ele>
        <time>2019-06-01T13:05:15.441Z</time>
      </trkpt>
      <trkpt lat="44.51644" lon="3.13147">
        <ele>1032</ele>
        <time>2019-06-01T13:05:20.467Z</time>
      </trkpt>
      <trkpt lat="44.51638" lon="3.13144">
        <ele>1032</ele>
        <time>2019-06-01T13:05:25.432Z</time>
      </trkpt>
      <trkpt lat="44.51635" lon="3.13145">
        <ele>1032</ele>
        <time>2019-06-01T13:05:29.467Z</time>
      </trkpt>
      <trkpt lat="44.5163" lon="3.13141">
        <ele>1032</ele>
        <time>2019-06-01T13:05:34.434Z</time>
      </trkpt>
      <trkpt lat="44.51625" lon="3.1314">
        <ele>1029</ele>
        <time>2019-06-01T13:05:39.464Z</time>
      </trkpt>
      <trkpt lat="44.51619" lon="3.1314">
        <ele>1029</ele>
        <time>2019-06-01T13:05:44.436Z</time>
      </trkpt>
      <trkpt lat="44.51613" lon="3.13143">
        <ele>1029</ele>
        <time>2019-06-01T13:05:49.432Z</time>
      </trkpt>
      <trkpt lat="44.51608" lon="3.13146">
        <ele>1029</ele>
        <time>2019-06-01T13:05:53.443Z</time>
      </trkpt>
    </trkseg>
  </trk>
</gpx>